<?xml version="1.0" encoding="UTF-8" standalone="no" ?>
<gpx xmlns="http://www.topografix.com/GPX/1/1" xmlns:xsi="http://www.w3.org/2001/XMLSchema-instance" xsi:schemaLocation="http://www.topografix.com/GPX/1/1 http://www.topografix.com/GPX/1/1/gpx.xsd" version="1.1" creator="VisuGPX - https://www.visugpx.com">
  <metadata>
    <name>pic de l'étendard depuis st sorlin d'arves</name>
    <desc><![CDATA[pic de l'étendard depuis st sorlin d'arves
nuit au refuge de l'étendard
superbe journée avec une bonne poudreuse
dommage qu'il y ait autant d'avions!]]></desc>
  </metadata>
  <trk>
    <name><![CDATA[10-MARS-13 15:24:25]]></name>
    <trkseg>
      <trkpt lat="45.22038" lon="6.21808">
        <ele>1649.28</ele>
        <time>2013-03-09T13:31:54Z</time>
      </trkpt>
      <trkpt lat="45.22038" lon="6.2181">
        <ele>1646.4</ele>
        <time>2013-03-09T13:32:06Z</time>
      </trkpt>
      <trkpt lat="45.22038" lon="6.21812">
        <ele>1643.99</ele>
        <time>2013-03-09T13:32:29Z</time>
      </trkpt>
      <trkpt lat="45.22034" lon="6.21817">
        <ele>1643.03</ele>
        <time>2013-03-09T13:32:43Z</time>
      </trkpt>
      <trkpt lat="45.22035" lon="6.21816">
        <ele>1642.07</ele>
        <time>2013-03-09T13:33:04Z</time>
      </trkpt>
      <trkpt lat="45.22038" lon="6.2181">
        <ele>1642.07</ele>
        <time>2013-03-09T13:33:17Z</time>
      </trkpt>
      <trkpt lat="45.22039" lon="6.21809">
        <ele>1642.07</ele>
        <time>2013-03-09T13:33:34Z</time>
      </trkpt>
      <trkpt lat="45.22039" lon="6.21809">
        <ele>1642.07</ele>
        <time>2013-03-09T13:33:54Z</time>
      </trkpt>
      <trkpt lat="45.22036" lon="6.21813">
        <ele>1641.59</ele>
        <time>2013-03-09T13:34:10Z</time>
      </trkpt>
      <trkpt lat="45.22037" lon="6.21818">
        <ele>1641.59</ele>
        <time>2013-03-09T13:34:26Z</time>
      </trkpt>
      <trkpt lat="45.22035" lon="6.21818">
        <ele>1641.59</ele>
        <time>2013-03-09T13:34:47Z</time>
      </trkpt>
      <trkpt lat="45.22035" lon="6.21819">
        <ele>1641.59</ele>
        <time>2013-03-09T13:35:08Z</time>
      </trkpt>
      <trkpt lat="45.22035" lon="6.21819">
        <ele>1641.59</ele>
        <time>2013-03-09T13:35:29Z</time>
      </trkpt>
      <trkpt lat="45.22035" lon="6.2181">
        <ele>1641.59</ele>
        <time>2013-03-09T13:35:43Z</time>
      </trkpt>
      <trkpt lat="45.22037" lon="6.2181">
        <ele>1641.59</ele>
        <time>2013-03-09T13:35:53Z</time>
      </trkpt>
      <trkpt lat="45.22033" lon="6.21809">
        <ele>1641.59</ele>
        <time>2013-03-09T13:35:59Z</time>
      </trkpt>
      <trkpt lat="45.2202" lon="6.2179">
        <ele>1642.55</ele>
        <time>2013-03-09T13:36:17Z</time>
      </trkpt>
      <trkpt lat="45.22016" lon="6.21779">
        <ele>1644.47</ele>
        <time>2013-03-09T13:36:34Z</time>
      </trkpt>
      <trkpt lat="45.22019" lon="6.21773">
        <ele>1645.43</ele>
        <time>2013-03-09T13:36:45Z</time>
      </trkpt>
      <trkpt lat="45.22024" lon="6.21751">
        <ele>1645.43</ele>
        <time>2013-03-09T13:36:59Z</time>
      </trkpt>
      <trkpt lat="45.22019" lon="6.21739">
        <ele>1646.4</ele>
        <time>2013-03-09T13:37:12Z</time>
      </trkpt>
      <trkpt lat="45.22001" lon="6.21735">
        <ele>1647.84</ele>
        <time>2013-03-09T13:37:30Z</time>
      </trkpt>
      <trkpt lat="45.21997" lon="6.21734">
        <ele>1648.32</ele>
        <time>2013-03-09T13:37:34Z</time>
      </trkpt>
      <trkpt lat="45.21989" lon="6.21729">
        <ele>1648.8</ele>
        <time>2013-03-09T13:37:42Z</time>
      </trkpt>
      <trkpt lat="45.21987" lon="6.2171">
        <ele>1650.72</ele>
        <time>2013-03-09T13:37:59Z</time>
      </trkpt>
      <trkpt lat="45.21985" lon="6.21704">
        <ele>1652.16</ele>
        <time>2013-03-09T13:38:16Z</time>
      </trkpt>
      <trkpt lat="45.21984" lon="6.21705">
        <ele>1653.6</ele>
        <time>2013-03-09T13:38:36Z</time>
      </trkpt>
      <trkpt lat="45.21982" lon="6.21704">
        <ele>1654.09</ele>
        <time>2013-03-09T13:39:01Z</time>
      </trkpt>
      <trkpt lat="45.21982" lon="6.21705">
        <ele>1654.09</ele>
        <time>2013-03-09T13:39:20Z</time>
      </trkpt>
      <trkpt lat="45.21982" lon="6.21703">
        <ele>1654.09</ele>
        <time>2013-03-09T13:39:38Z</time>
      </trkpt>
      <trkpt lat="45.21984" lon="6.21686">
        <ele>1656.01</ele>
        <time>2013-03-09T13:39:54Z</time>
      </trkpt>
      <trkpt lat="45.21984" lon="6.21679">
        <ele>1657.93</ele>
        <time>2013-03-09T13:40:08Z</time>
      </trkpt>
      <trkpt lat="45.21981" lon="6.21673">
        <ele>1660.33</ele>
        <time>2013-03-09T13:40:24Z</time>
      </trkpt>
      <trkpt lat="45.21983" lon="6.21665">
        <ele>1662.26</ele>
        <time>2013-03-09T13:40:38Z</time>
      </trkpt>
      <trkpt lat="45.21977" lon="6.21658">
        <ele>1664.66</ele>
        <time>2013-03-09T13:40:53Z</time>
      </trkpt>
      <trkpt lat="45.21979" lon="6.21649">
        <ele>1666.1</ele>
        <time>2013-03-09T13:41:08Z</time>
      </trkpt>
      <trkpt lat="45.21977" lon="6.21644">
        <ele>1668.02</ele>
        <time>2013-03-09T13:41:24Z</time>
      </trkpt>
      <trkpt lat="45.2197" lon="6.21639">
        <ele>1670.91</ele>
        <time>2013-03-09T13:41:41Z</time>
      </trkpt>
      <trkpt lat="45.21963" lon="6.21635">
        <ele>1671.87</ele>
        <time>2013-03-09T13:41:58Z</time>
      </trkpt>
      <trkpt lat="45.21957" lon="6.21629">
        <ele>1673.31</ele>
        <time>2013-03-09T13:42:11Z</time>
      </trkpt>
      <trkpt lat="45.21957" lon="6.21629">
        <ele>1674.27</ele>
        <time>2013-03-09T13:42:28Z</time>
      </trkpt>
      <trkpt lat="45.21957" lon="6.21628">
        <ele>1674.27</ele>
        <time>2013-03-09T13:42:54Z</time>
      </trkpt>
      <trkpt lat="45.21956" lon="6.21628">
        <ele>1674.27</ele>
        <time>2013-03-09T13:43:21Z</time>
      </trkpt>
      <trkpt lat="45.21955" lon="6.21626">
        <ele>1673.79</ele>
        <time>2013-03-09T13:43:42Z</time>
      </trkpt>
      <trkpt lat="45.21947" lon="6.21616">
        <ele>1673.79</ele>
        <time>2013-03-09T13:43:58Z</time>
      </trkpt>
      <trkpt lat="45.21939" lon="6.21605">
        <ele>1675.72</ele>
        <time>2013-03-09T13:44:13Z</time>
      </trkpt>
      <trkpt lat="45.21932" lon="6.21596">
        <ele>1677.16</ele>
        <time>2013-03-09T13:44:28Z</time>
      </trkpt>
      <trkpt lat="45.21921" lon="6.21583">
        <ele>1680.04</ele>
        <time>2013-03-09T13:44:47Z</time>
      </trkpt>
      <trkpt lat="45.21911" lon="6.21572">
        <ele>1681.48</ele>
        <time>2013-03-09T13:45:03Z</time>
      </trkpt>
      <trkpt lat="45.219" lon="6.21563">
        <ele>1683.41</ele>
        <time>2013-03-09T13:45:21Z</time>
      </trkpt>
      <trkpt lat="45.21887" lon="6.21554">
        <ele>1684.85</ele>
        <time>2013-03-09T13:45:39Z</time>
      </trkpt>
      <trkpt lat="45.21886" lon="6.21553">
        <ele>1685.33</ele>
        <time>2013-03-09T13:45:40Z</time>
      </trkpt>
      <trkpt lat="45.21874" lon="6.21542">
        <ele>1686.77</ele>
        <time>2013-03-09T13:45:57Z</time>
      </trkpt>
      <trkpt lat="45.21867" lon="6.21531">
        <ele>1688.69</ele>
        <time>2013-03-09T13:46:12Z</time>
      </trkpt>
      <trkpt lat="45.21858" lon="6.21518">
        <ele>1690.14</ele>
        <time>2013-03-09T13:46:26Z</time>
      </trkpt>
      <trkpt lat="45.21848" lon="6.21507">
        <ele>1692.06</ele>
        <time>2013-03-09T13:46:42Z</time>
      </trkpt>
      <trkpt lat="45.21838" lon="6.215">
        <ele>1693.5</ele>
        <time>2013-03-09T13:46:58Z</time>
      </trkpt>
      <trkpt lat="45.21827" lon="6.2149">
        <ele>1696.38</ele>
        <time>2013-03-09T13:47:16Z</time>
      </trkpt>
      <trkpt lat="45.21818" lon="6.21479">
        <ele>1698.79</ele>
        <time>2013-03-09T13:47:35Z</time>
      </trkpt>
      <trkpt lat="45.21807" lon="6.21469">
        <ele>1701.19</ele>
        <time>2013-03-09T13:47:53Z</time>
      </trkpt>
      <trkpt lat="45.21795" lon="6.21457">
        <ele>1703.59</ele>
        <time>2013-03-09T13:48:12Z</time>
      </trkpt>
      <trkpt lat="45.21792" lon="6.21453">
        <ele>1705.04</ele>
        <time>2013-03-09T13:48:30Z</time>
      </trkpt>
      <trkpt lat="45.21792" lon="6.21454">
        <ele>1706.48</ele>
        <time>2013-03-09T13:48:47Z</time>
      </trkpt>
      <trkpt lat="45.21785" lon="6.21445">
        <ele>1706.96</ele>
        <time>2013-03-09T13:48:59Z</time>
      </trkpt>
      <trkpt lat="45.21774" lon="6.21435">
        <ele>1708.88</ele>
        <time>2013-03-09T13:49:15Z</time>
      </trkpt>
      <trkpt lat="45.21764" lon="6.21427">
        <ele>1710.8</ele>
        <time>2013-03-09T13:49:30Z</time>
      </trkpt>
      <trkpt lat="45.21754" lon="6.21419">
        <ele>1712.73</ele>
        <time>2013-03-09T13:49:45Z</time>
      </trkpt>
      <trkpt lat="45.21744" lon="6.2141">
        <ele>1714.65</ele>
        <time>2013-03-09T13:49:59Z</time>
      </trkpt>
      <trkpt lat="45.21734" lon="6.21402">
        <ele>1716.57</ele>
        <time>2013-03-09T13:50:13Z</time>
      </trkpt>
      <trkpt lat="45.21726" lon="6.21391">
        <ele>1718.01</ele>
        <time>2013-03-09T13:50:28Z</time>
      </trkpt>
      <trkpt lat="45.21716" lon="6.21383">
        <ele>1719.46</ele>
        <time>2013-03-09T13:50:43Z</time>
      </trkpt>
      <trkpt lat="45.21707" lon="6.21377">
        <ele>1721.38</ele>
        <time>2013-03-09T13:50:56Z</time>
      </trkpt>
      <trkpt lat="45.21701" lon="6.21373">
        <ele>1722.82</ele>
        <time>2013-03-09T13:51:06Z</time>
      </trkpt>
      <trkpt lat="45.21694" lon="6.21366">
        <ele>1724.26</ele>
        <time>2013-03-09T13:51:17Z</time>
      </trkpt>
      <trkpt lat="45.21685" lon="6.21356">
        <ele>1726.67</ele>
        <time>2013-03-09T13:51:31Z</time>
      </trkpt>
      <trkpt lat="45.21676" lon="6.21345">
        <ele>1729.07</ele>
        <time>2013-03-09T13:51:46Z</time>
      </trkpt>
      <trkpt lat="45.21666" lon="6.21334">
        <ele>1731.47</ele>
        <time>2013-03-09T13:52:03Z</time>
      </trkpt>
      <trkpt lat="45.21659" lon="6.21326">
        <ele>1733.39</ele>
        <time>2013-03-09T13:52:19Z</time>
      </trkpt>
      <trkpt lat="45.21651" lon="6.21317">
        <ele>1735.8</ele>
        <time>2013-03-09T13:52:35Z</time>
      </trkpt>
      <trkpt lat="45.21643" lon="6.21309">
        <ele>1738.2</ele>
        <time>2013-03-09T13:52:50Z</time>
      </trkpt>
      <trkpt lat="45.21637" lon="6.21301">
        <ele>1740.6</ele>
        <time>2013-03-09T13:53:05Z</time>
      </trkpt>
      <trkpt lat="45.21629" lon="6.21293">
        <ele>1743.01</ele>
        <time>2013-03-09T13:53:22Z</time>
      </trkpt>
      <trkpt lat="45.21622" lon="6.21284">
        <ele>1745.41</ele>
        <time>2013-03-09T13:53:36Z</time>
      </trkpt>
      <trkpt lat="45.21615" lon="6.21273">
        <ele>1748.29</ele>
        <time>2013-03-09T13:53:53Z</time>
      </trkpt>
      <trkpt lat="45.21608" lon="6.21263">
        <ele>1750.7</ele>
        <time>2013-03-09T13:54:09Z</time>
      </trkpt>
      <trkpt lat="45.21601" lon="6.21253">
        <ele>1753.58</ele>
        <time>2013-03-09T13:54:26Z</time>
      </trkpt>
      <trkpt lat="45.21592" lon="6.21243">
        <ele>1755.99</ele>
        <time>2013-03-09T13:54:44Z</time>
      </trkpt>
      <trkpt lat="45.21583" lon="6.21235">
        <ele>1758.87</ele>
        <time>2013-03-09T13:55:00Z</time>
      </trkpt>
      <trkpt lat="45.21574" lon="6.21228">
        <ele>1760.79</ele>
        <time>2013-03-09T13:55:14Z</time>
      </trkpt>
      <trkpt lat="45.21562" lon="6.21219">
        <ele>1763.2</ele>
        <time>2013-03-09T13:55:30Z</time>
      </trkpt>
      <trkpt lat="45.21551" lon="6.2121">
        <ele>1764.64</ele>
        <time>2013-03-09T13:55:44Z</time>
      </trkpt>
      <trkpt lat="45.21542" lon="6.21199">
        <ele>1766.56</ele>
        <time>2013-03-09T13:56:00Z</time>
      </trkpt>
      <trkpt lat="45.21537" lon="6.21189">
        <ele>1768.96</ele>
        <time>2013-03-09T13:56:15Z</time>
      </trkpt>
      <trkpt lat="45.21534" lon="6.21186">
        <ele>1770.41</ele>
        <time>2013-03-09T13:56:31Z</time>
      </trkpt>
      <trkpt lat="45.21527" lon="6.2118">
        <ele>1773.29</ele>
        <time>2013-03-09T13:56:45Z</time>
      </trkpt>
      <trkpt lat="45.21519" lon="6.21171">
        <ele>1775.21</ele>
        <time>2013-03-09T13:57:00Z</time>
      </trkpt>
      <trkpt lat="45.21516" lon="6.21169">
        <ele>1776.17</ele>
        <time>2013-03-09T13:57:17Z</time>
      </trkpt>
      <trkpt lat="45.21511" lon="6.21164">
        <ele>1777.61</ele>
        <time>2013-03-09T13:57:32Z</time>
      </trkpt>
      <trkpt lat="45.21505" lon="6.21165">
        <ele>1778.1</ele>
        <time>2013-03-09T13:57:45Z</time>
      </trkpt>
      <trkpt lat="45.21497" lon="6.21169">
        <ele>1780.98</ele>
        <time>2013-03-09T13:58:00Z</time>
      </trkpt>
      <trkpt lat="45.21489" lon="6.21168">
        <ele>1783.86</ele>
        <time>2013-03-09T13:58:15Z</time>
      </trkpt>
      <trkpt lat="45.21481" lon="6.21162">
        <ele>1786.75</ele>
        <time>2013-03-09T13:58:29Z</time>
      </trkpt>
      <trkpt lat="45.21473" lon="6.21152">
        <ele>1788.19</ele>
        <time>2013-03-09T13:58:44Z</time>
      </trkpt>
      <trkpt lat="45.21467" lon="6.2114">
        <ele>1790.11</ele>
        <time>2013-03-09T13:58:58Z</time>
      </trkpt>
      <trkpt lat="45.21459" lon="6.21138">
        <ele>1792.03</ele>
        <time>2013-03-09T13:59:13Z</time>
      </trkpt>
      <trkpt lat="45.21451" lon="6.21136">
        <ele>1794.92</ele>
        <time>2013-03-09T13:59:29Z</time>
      </trkpt>
      <trkpt lat="45.21441" lon="6.21132">
        <ele>1797.32</ele>
        <time>2013-03-09T13:59:46Z</time>
      </trkpt>
      <trkpt lat="45.21434" lon="6.21127">
        <ele>1799.73</ele>
        <time>2013-03-09T13:59:59Z</time>
      </trkpt>
      <trkpt lat="45.21428" lon="6.2112">
        <ele>1801.17</ele>
        <time>2013-03-09T14:00:12Z</time>
      </trkpt>
      <trkpt lat="45.21421" lon="6.21113">
        <ele>1803.09</ele>
        <time>2013-03-09T14:00:26Z</time>
      </trkpt>
      <trkpt lat="45.21421" lon="6.21098">
        <ele>1805.97</ele>
        <time>2013-03-09T14:00:43Z</time>
      </trkpt>
      <trkpt lat="45.21419" lon="6.21086">
        <ele>1808.38</ele>
        <time>2013-03-09T14:00:59Z</time>
      </trkpt>
      <trkpt lat="45.21416" lon="6.21077">
        <ele>1811.26</ele>
        <time>2013-03-09T14:01:15Z</time>
      </trkpt>
      <trkpt lat="45.2141" lon="6.21068">
        <ele>1812.22</ele>
        <time>2013-03-09T14:01:32Z</time>
      </trkpt>
      <trkpt lat="45.21404" lon="6.2106">
        <ele>1814.63</ele>
        <time>2013-03-09T14:01:47Z</time>
      </trkpt>
      <trkpt lat="45.214" lon="6.21048">
        <ele>1817.03</ele>
        <time>2013-03-09T14:02:02Z</time>
      </trkpt>
      <trkpt lat="45.21388" lon="6.21036">
        <ele>1820.39</ele>
        <time>2013-03-09T14:02:22Z</time>
      </trkpt>
      <trkpt lat="45.2138" lon="6.21028">
        <ele>1822.32</ele>
        <time>2013-03-09T14:02:40Z</time>
      </trkpt>
      <trkpt lat="45.21373" lon="6.21019">
        <ele>1824.72</ele>
        <time>2013-03-09T14:02:56Z</time>
      </trkpt>
      <trkpt lat="45.2137" lon="6.21012">
        <ele>1826.16</ele>
        <time>2013-03-09T14:03:05Z</time>
      </trkpt>
      <trkpt lat="45.21362" lon="6.21003">
        <ele>1828.08</ele>
        <time>2013-03-09T14:03:20Z</time>
      </trkpt>
      <trkpt lat="45.21354" lon="6.20998">
        <ele>1830.01</ele>
        <time>2013-03-09T14:03:35Z</time>
      </trkpt>
      <trkpt lat="45.21343" lon="6.20987">
        <ele>1832.41</ele>
        <time>2013-03-09T14:03:55Z</time>
      </trkpt>
      <trkpt lat="45.21335" lon="6.2098">
        <ele>1835.77</ele>
        <time>2013-03-09T14:04:12Z</time>
      </trkpt>
      <trkpt lat="45.21328" lon="6.20977">
        <ele>1838.66</ele>
        <time>2013-03-09T14:04:28Z</time>
      </trkpt>
      <trkpt lat="45.21328" lon="6.20975">
        <ele>1840.1</ele>
        <time>2013-03-09T14:04:50Z</time>
      </trkpt>
      <trkpt lat="45.21328" lon="6.20974">
        <ele>1840.1</ele>
        <time>2013-03-09T14:05:17Z</time>
      </trkpt>
      <trkpt lat="45.21316" lon="6.20966">
        <ele>1842.02</ele>
        <time>2013-03-09T14:05:34Z</time>
      </trkpt>
      <trkpt lat="45.21309" lon="6.20959">
        <ele>1844.43</ele>
        <time>2013-03-09T14:05:50Z</time>
      </trkpt>
      <trkpt lat="45.21303" lon="6.20952">
        <ele>1847.31</ele>
        <time>2013-03-09T14:06:05Z</time>
      </trkpt>
      <trkpt lat="45.21298" lon="6.20943">
        <ele>1850.68</ele>
        <time>2013-03-09T14:06:25Z</time>
      </trkpt>
      <trkpt lat="45.2129" lon="6.20933">
        <ele>1852.12</ele>
        <time>2013-03-09T14:06:39Z</time>
      </trkpt>
      <trkpt lat="45.21282" lon="6.20925">
        <ele>1854.52</ele>
        <time>2013-03-09T14:06:55Z</time>
      </trkpt>
      <trkpt lat="45.21275" lon="6.20918">
        <ele>1856.44</ele>
        <time>2013-03-09T14:07:09Z</time>
      </trkpt>
      <trkpt lat="45.21268" lon="6.20907">
        <ele>1858.85</ele>
        <time>2013-03-09T14:07:26Z</time>
      </trkpt>
      <trkpt lat="45.21258" lon="6.20898">
        <ele>1860.77</ele>
        <time>2013-03-09T14:07:46Z</time>
      </trkpt>
      <trkpt lat="45.21252" lon="6.20888">
        <ele>1863.65</ele>
        <time>2013-03-09T14:08:03Z</time>
      </trkpt>
      <trkpt lat="45.21246" lon="6.20889">
        <ele>1866.06</ele>
        <time>2013-03-09T14:08:18Z</time>
      </trkpt>
      <trkpt lat="45.21245" lon="6.20878">
        <ele>1867.98</ele>
        <time>2013-03-09T14:08:34Z</time>
      </trkpt>
      <trkpt lat="45.21236" lon="6.20884">
        <ele>1871.34</ele>
        <time>2013-03-09T14:08:50Z</time>
      </trkpt>
      <trkpt lat="45.21237" lon="6.20871">
        <ele>1873.27</ele>
        <time>2013-03-09T14:09:03Z</time>
      </trkpt>
      <trkpt lat="45.21234" lon="6.20861">
        <ele>1875.67</ele>
        <time>2013-03-09T14:09:19Z</time>
      </trkpt>
      <trkpt lat="45.21229" lon="6.20857">
        <ele>1877.59</ele>
        <time>2013-03-09T14:09:34Z</time>
      </trkpt>
      <trkpt lat="45.21224" lon="6.20852">
        <ele>1879.51</ele>
        <time>2013-03-09T14:09:47Z</time>
      </trkpt>
      <trkpt lat="45.21217" lon="6.20854">
        <ele>1881.44</ele>
        <time>2013-03-09T14:09:59Z</time>
      </trkpt>
      <trkpt lat="45.21217" lon="6.20843">
        <ele>1883.36</ele>
        <time>2013-03-09T14:10:10Z</time>
      </trkpt>
      <trkpt lat="45.21212" lon="6.20841">
        <ele>1885.28</ele>
        <time>2013-03-09T14:10:22Z</time>
      </trkpt>
      <trkpt lat="45.21211" lon="6.20832">
        <ele>1887.21</ele>
        <time>2013-03-09T14:10:36Z</time>
      </trkpt>
      <trkpt lat="45.21209" lon="6.20824">
        <ele>1889.61</ele>
        <time>2013-03-09T14:10:48Z</time>
      </trkpt>
      <trkpt lat="45.21201" lon="6.2082">
        <ele>1892.01</ele>
        <time>2013-03-09T14:11:03Z</time>
      </trkpt>
      <trkpt lat="45.21191" lon="6.20806">
        <ele>1894.9</ele>
        <time>2013-03-09T14:11:21Z</time>
      </trkpt>
      <trkpt lat="45.21182" lon="6.20799">
        <ele>1896.34</ele>
        <time>2013-03-09T14:11:36Z</time>
      </trkpt>
      <trkpt lat="45.21177" lon="6.20794">
        <ele>1897.3</ele>
        <time>2013-03-09T14:11:48Z</time>
      </trkpt>
      <trkpt lat="45.21176" lon="6.20793">
        <ele>1898.26</ele>
        <time>2013-03-09T14:12:03Z</time>
      </trkpt>
      <trkpt lat="45.21173" lon="6.20792">
        <ele>1898.74</ele>
        <time>2013-03-09T14:12:17Z</time>
      </trkpt>
      <trkpt lat="45.21168" lon="6.20784">
        <ele>1900.66</ele>
        <time>2013-03-09T14:12:30Z</time>
      </trkpt>
      <trkpt lat="45.21161" lon="6.20779">
        <ele>1902.11</ele>
        <time>2013-03-09T14:12:41Z</time>
      </trkpt>
      <trkpt lat="45.21153" lon="6.20776">
        <ele>1904.03</ele>
        <time>2013-03-09T14:12:55Z</time>
      </trkpt>
      <trkpt lat="45.21148" lon="6.2077">
        <ele>1905.95</ele>
        <time>2013-03-09T14:13:06Z</time>
      </trkpt>
      <trkpt lat="45.21143" lon="6.20765">
        <ele>1907.87</ele>
        <time>2013-03-09T14:13:17Z</time>
      </trkpt>
      <trkpt lat="45.2114" lon="6.20761">
        <ele>1909.32</ele>
        <time>2013-03-09T14:13:27Z</time>
      </trkpt>
      <trkpt lat="45.21133" lon="6.20755">
        <ele>1912.2</ele>
        <time>2013-03-09T14:13:43Z</time>
      </trkpt>
      <trkpt lat="45.21126" lon="6.20749">
        <ele>1914.6</ele>
        <time>2013-03-09T14:13:57Z</time>
      </trkpt>
      <trkpt lat="45.21122" lon="6.20746">
        <ele>1916.53</ele>
        <time>2013-03-09T14:14:10Z</time>
      </trkpt>
      <trkpt lat="45.21121" lon="6.20739">
        <ele>1918.45</ele>
        <time>2013-03-09T14:14:25Z</time>
      </trkpt>
      <trkpt lat="45.21118" lon="6.20734">
        <ele>1920.85</ele>
        <time>2013-03-09T14:14:39Z</time>
      </trkpt>
      <trkpt lat="45.21114" lon="6.20726">
        <ele>1923.25</ele>
        <time>2013-03-09T14:14:54Z</time>
      </trkpt>
      <trkpt lat="45.21109" lon="6.20719">
        <ele>1926.62</ele>
        <time>2013-03-09T14:15:10Z</time>
      </trkpt>
      <trkpt lat="45.21103" lon="6.20712">
        <ele>1929.02</ele>
        <time>2013-03-09T14:15:23Z</time>
      </trkpt>
      <trkpt lat="45.21102" lon="6.20709">
        <ele>1930.95</ele>
        <time>2013-03-09T14:15:41Z</time>
      </trkpt>
      <trkpt lat="45.21102" lon="6.20711">
        <ele>1931.43</ele>
        <time>2013-03-09T14:16:07Z</time>
      </trkpt>
      <trkpt lat="45.21102" lon="6.20711">
        <ele>1931.43</ele>
        <time>2013-03-09T14:16:36Z</time>
      </trkpt>
      <trkpt lat="45.21101" lon="6.20711">
        <ele>1931.43</ele>
        <time>2013-03-09T14:17:00Z</time>
      </trkpt>
      <trkpt lat="45.21092" lon="6.20704">
        <ele>1932.39</ele>
        <time>2013-03-09T14:17:16Z</time>
      </trkpt>
      <trkpt lat="45.21083" lon="6.20699">
        <ele>1934.79</ele>
        <time>2013-03-09T14:17:33Z</time>
      </trkpt>
      <trkpt lat="45.21079" lon="6.20692">
        <ele>1936.71</ele>
        <time>2013-03-09T14:17:44Z</time>
      </trkpt>
      <trkpt lat="45.21075" lon="6.20685">
        <ele>1939.12</ele>
        <time>2013-03-09T14:17:57Z</time>
      </trkpt>
      <trkpt lat="45.21072" lon="6.20679">
        <ele>1941.04</ele>
        <time>2013-03-09T14:18:07Z</time>
      </trkpt>
      <trkpt lat="45.21072" lon="6.20669">
        <ele>1944.4</ele>
        <time>2013-03-09T14:18:21Z</time>
      </trkpt>
      <trkpt lat="45.2107" lon="6.20663">
        <ele>1946.33</ele>
        <time>2013-03-09T14:18:40Z</time>
      </trkpt>
      <trkpt lat="45.21066" lon="6.20651">
        <ele>1947.29</ele>
        <time>2013-03-09T14:18:54Z</time>
      </trkpt>
      <trkpt lat="45.21057" lon="6.2064">
        <ele>1949.21</ele>
        <time>2013-03-09T14:19:10Z</time>
      </trkpt>
      <trkpt lat="45.2105" lon="6.20633">
        <ele>1952.57</ele>
        <time>2013-03-09T14:19:28Z</time>
      </trkpt>
      <trkpt lat="45.2104" lon="6.20624">
        <ele>1955.46</ele>
        <time>2013-03-09T14:19:46Z</time>
      </trkpt>
      <trkpt lat="45.2103" lon="6.20614">
        <ele>1957.38</ele>
        <time>2013-03-09T14:20:02Z</time>
      </trkpt>
      <trkpt lat="45.21023" lon="6.20606">
        <ele>1959.78</ele>
        <time>2013-03-09T14:20:20Z</time>
      </trkpt>
      <trkpt lat="45.21021" lon="6.20602">
        <ele>1961.71</ele>
        <time>2013-03-09T14:20:35Z</time>
      </trkpt>
      <trkpt lat="45.21019" lon="6.20594">
        <ele>1964.59</ele>
        <time>2013-03-09T14:20:51Z</time>
      </trkpt>
      <trkpt lat="45.21013" lon="6.20583">
        <ele>1967.96</ele>
        <time>2013-03-09T14:21:08Z</time>
      </trkpt>
      <trkpt lat="45.21004" lon="6.20578">
        <ele>1970.84</ele>
        <time>2013-03-09T14:21:24Z</time>
      </trkpt>
      <trkpt lat="45.20996" lon="6.20575">
        <ele>1974.2</ele>
        <time>2013-03-09T14:21:40Z</time>
      </trkpt>
      <trkpt lat="45.20989" lon="6.20568">
        <ele>1977.57</ele>
        <time>2013-03-09T14:21:55Z</time>
      </trkpt>
      <trkpt lat="45.20984" lon="6.20565">
        <ele>1979.49</ele>
        <time>2013-03-09T14:22:09Z</time>
      </trkpt>
      <trkpt lat="45.20977" lon="6.20557">
        <ele>1982.86</ele>
        <time>2013-03-09T14:22:24Z</time>
      </trkpt>
      <trkpt lat="45.20969" lon="6.20553">
        <ele>1985.26</ele>
        <time>2013-03-09T14:22:40Z</time>
      </trkpt>
      <trkpt lat="45.20964" lon="6.20548">
        <ele>1988.14</ele>
        <time>2013-03-09T14:22:58Z</time>
      </trkpt>
      <trkpt lat="45.20958" lon="6.2054">
        <ele>1989.59</ele>
        <time>2013-03-09T14:23:15Z</time>
      </trkpt>
      <trkpt lat="45.20949" lon="6.20528">
        <ele>1991.51</ele>
        <time>2013-03-09T14:23:31Z</time>
      </trkpt>
      <trkpt lat="45.20944" lon="6.20516">
        <ele>1993.43</ele>
        <time>2013-03-09T14:23:46Z</time>
      </trkpt>
      <trkpt lat="45.20935" lon="6.20504">
        <ele>1996.32</ele>
        <time>2013-03-09T14:24:02Z</time>
      </trkpt>
      <trkpt lat="45.20928" lon="6.20498">
        <ele>1997.76</ele>
        <time>2013-03-09T14:24:19Z</time>
      </trkpt>
      <trkpt lat="45.20925" lon="6.20498">
        <ele>1998.24</ele>
        <time>2013-03-09T14:24:36Z</time>
      </trkpt>
      <trkpt lat="45.20921" lon="6.20494">
        <ele>1998.72</ele>
        <time>2013-03-09T14:24:42Z</time>
      </trkpt>
      <trkpt lat="45.20906" lon="6.20484">
        <ele>1999.68</ele>
        <time>2013-03-09T14:24:59Z</time>
      </trkpt>
      <trkpt lat="45.20897" lon="6.20479">
        <ele>2001.12</ele>
        <time>2013-03-09T14:25:10Z</time>
      </trkpt>
      <trkpt lat="45.20885" lon="6.20468">
        <ele>2002.08</ele>
        <time>2013-03-09T14:25:23Z</time>
      </trkpt>
      <trkpt lat="45.20879" lon="6.20463">
        <ele>2003.04</ele>
        <time>2013-03-09T14:25:36Z</time>
      </trkpt>
      <trkpt lat="45.20875" lon="6.20459">
        <ele>2003.52</ele>
        <time>2013-03-09T14:25:50Z</time>
      </trkpt>
      <trkpt lat="45.20863" lon="6.20452">
        <ele>2005.45</ele>
        <time>2013-03-09T14:26:05Z</time>
      </trkpt>
      <trkpt lat="45.20859" lon="6.20449">
        <ele>2005.45</ele>
        <time>2013-03-09T14:26:09Z</time>
      </trkpt>
      <trkpt lat="45.20853" lon="6.20446">
        <ele>2005.93</ele>
        <time>2013-03-09T14:26:15Z</time>
      </trkpt>
      <trkpt lat="45.20844" lon="6.20439">
        <ele>2007.37</ele>
        <time>2013-03-09T14:26:26Z</time>
      </trkpt>
      <trkpt lat="45.20841" lon="6.20439">
        <ele>2007.37</ele>
        <time>2013-03-09T14:26:29Z</time>
      </trkpt>
      <trkpt lat="45.20839" lon="6.20438">
        <ele>2007.85</ele>
        <time>2013-03-09T14:26:31Z</time>
      </trkpt>
      <trkpt lat="45.20836" lon="6.20436">
        <ele>2008.81</ele>
        <time>2013-03-09T14:26:35Z</time>
      </trkpt>
      <trkpt lat="45.20824" lon="6.20426">
        <ele>2009.77</ele>
        <time>2013-03-09T14:26:49Z</time>
      </trkpt>
      <trkpt lat="45.20818" lon="6.20424">
        <ele>2010.73</ele>
        <time>2013-03-09T14:26:56Z</time>
      </trkpt>
      <trkpt lat="45.20814" lon="6.20422">
        <ele>2010.73</ele>
        <time>2013-03-09T14:27:00Z</time>
      </trkpt>
      <trkpt lat="45.2081" lon="6.20419">
        <ele>2011.22</ele>
        <time>2013-03-09T14:27:04Z</time>
      </trkpt>
      <trkpt lat="45.20806" lon="6.20416">
        <ele>2011.7</ele>
        <time>2013-03-09T14:27:08Z</time>
      </trkpt>
      <trkpt lat="45.20802" lon="6.20414">
        <ele>2011.7</ele>
        <time>2013-03-09T14:27:12Z</time>
      </trkpt>
      <trkpt lat="45.20798" lon="6.20412">
        <ele>2012.18</ele>
        <time>2013-03-09T14:27:15Z</time>
      </trkpt>
      <trkpt lat="45.20784" lon="6.20404">
        <ele>2013.14</ele>
        <time>2013-03-09T14:27:27Z</time>
      </trkpt>
      <trkpt lat="45.20774" lon="6.20398">
        <ele>2014.1</ele>
        <time>2013-03-09T14:27:38Z</time>
      </trkpt>
      <trkpt lat="45.20767" lon="6.20392">
        <ele>2015.54</ele>
        <time>2013-03-09T14:27:47Z</time>
      </trkpt>
      <trkpt lat="45.20757" lon="6.20387">
        <ele>2016.5</ele>
        <time>2013-03-09T14:27:57Z</time>
      </trkpt>
      <trkpt lat="45.20749" lon="6.20379">
        <ele>2017.94</ele>
        <time>2013-03-09T14:28:07Z</time>
      </trkpt>
      <trkpt lat="45.20746" lon="6.20375">
        <ele>2018.43</ele>
        <time>2013-03-09T14:28:13Z</time>
      </trkpt>
      <trkpt lat="45.20743" lon="6.20374">
        <ele>2018.91</ele>
        <time>2013-03-09T14:28:16Z</time>
      </trkpt>
      <trkpt lat="45.2073" lon="6.20359">
        <ele>2021.31</ele>
        <time>2013-03-09T14:28:31Z</time>
      </trkpt>
      <trkpt lat="45.2072" lon="6.20347">
        <ele>2022.27</ele>
        <time>2013-03-09T14:28:42Z</time>
      </trkpt>
      <trkpt lat="45.2071" lon="6.20338">
        <ele>2023.23</ele>
        <time>2013-03-09T14:28:52Z</time>
      </trkpt>
      <trkpt lat="45.20706" lon="6.20333">
        <ele>2023.71</ele>
        <time>2013-03-09T14:28:57Z</time>
      </trkpt>
      <trkpt lat="45.20701" lon="6.20329">
        <ele>2024.67</ele>
        <time>2013-03-09T14:29:02Z</time>
      </trkpt>
      <trkpt lat="45.2069" lon="6.20319">
        <ele>2026.12</ele>
        <time>2013-03-09T14:29:15Z</time>
      </trkpt>
      <trkpt lat="45.20677" lon="6.20308">
        <ele>2027.08</ele>
        <time>2013-03-09T14:29:29Z</time>
      </trkpt>
      <trkpt lat="45.20665" lon="6.20302">
        <ele>2028.52</ele>
        <time>2013-03-09T14:29:42Z</time>
      </trkpt>
      <trkpt lat="45.20651" lon="6.20292">
        <ele>2029.96</ele>
        <time>2013-03-09T14:29:53Z</time>
      </trkpt>
      <trkpt lat="45.20637" lon="6.20283">
        <ele>2030.92</ele>
        <time>2013-03-09T14:30:05Z</time>
      </trkpt>
      <trkpt lat="45.20624" lon="6.20278">
        <ele>2031.88</ele>
        <time>2013-03-09T14:30:17Z</time>
      </trkpt>
      <trkpt lat="45.2061" lon="6.20271">
        <ele>2032.36</ele>
        <time>2013-03-09T14:30:28Z</time>
      </trkpt>
      <trkpt lat="45.20597" lon="6.20266">
        <ele>2032.84</ele>
        <time>2013-03-09T14:30:37Z</time>
      </trkpt>
      <trkpt lat="45.2058" lon="6.2026">
        <ele>2034.77</ele>
        <time>2013-03-09T14:30:52Z</time>
      </trkpt>
      <trkpt lat="45.20565" lon="6.20257">
        <ele>2035.73</ele>
        <time>2013-03-09T14:31:05Z</time>
      </trkpt>
      <trkpt lat="45.20557" lon="6.20253">
        <ele>2037.17</ele>
        <time>2013-03-09T14:31:11Z</time>
      </trkpt>
      <trkpt lat="45.20542" lon="6.20249">
        <ele>2038.61</ele>
        <time>2013-03-09T14:31:24Z</time>
      </trkpt>
      <trkpt lat="45.20531" lon="6.20247">
        <ele>2039.57</ele>
        <time>2013-03-09T14:31:35Z</time>
      </trkpt>
      <trkpt lat="45.20514" lon="6.20242">
        <ele>2041.02</ele>
        <time>2013-03-09T14:31:49Z</time>
      </trkpt>
      <trkpt lat="45.20504" lon="6.20239">
        <ele>2042.94</ele>
        <time>2013-03-09T14:32:00Z</time>
      </trkpt>
      <trkpt lat="45.2049" lon="6.20236">
        <ele>2044.38</ele>
        <time>2013-03-09T14:32:13Z</time>
      </trkpt>
      <trkpt lat="45.20472" lon="6.20233">
        <ele>2046.3</ele>
        <time>2013-03-09T14:32:27Z</time>
      </trkpt>
      <trkpt lat="45.20467" lon="6.20231">
        <ele>2046.3</ele>
        <time>2013-03-09T14:32:33Z</time>
      </trkpt>
      <trkpt lat="45.20451" lon="6.20226">
        <ele>2048.71</ele>
        <time>2013-03-09T14:32:47Z</time>
      </trkpt>
      <trkpt lat="45.20444" lon="6.20226">
        <ele>2050.15</ele>
        <time>2013-03-09T14:33:01Z</time>
      </trkpt>
      <trkpt lat="45.20444" lon="6.20226">
        <ele>2050.63</ele>
        <time>2013-03-09T14:33:27Z</time>
      </trkpt>
      <trkpt lat="45.20444" lon="6.20226">
        <ele>2050.63</ele>
        <time>2013-03-09T14:33:51Z</time>
      </trkpt>
      <trkpt lat="45.20445" lon="6.20225">
        <ele>2050.63</ele>
        <time>2013-03-09T14:34:08Z</time>
      </trkpt>
      <trkpt lat="45.20445" lon="6.20225">
        <ele>2050.63</ele>
        <time>2013-03-09T14:34:24Z</time>
      </trkpt>
      <trkpt lat="45.20443" lon="6.20223">
        <ele>2051.11</ele>
        <time>2013-03-09T14:34:45Z</time>
      </trkpt>
      <trkpt lat="45.20442" lon="6.20222">
        <ele>2051.59</ele>
        <time>2013-03-09T14:35:12Z</time>
      </trkpt>
      <trkpt lat="45.20442" lon="6.20222">
        <ele>2051.59</ele>
        <time>2013-03-09T14:35:35Z</time>
      </trkpt>
      <trkpt lat="45.20442" lon="6.20222">
        <ele>2051.59</ele>
        <time>2013-03-09T14:35:49Z</time>
      </trkpt>
      <trkpt lat="45.20442" lon="6.20223">
        <ele>2051.59</ele>
        <time>2013-03-09T14:36:05Z</time>
      </trkpt>
      <trkpt lat="45.2044" lon="6.20222">
        <ele>2051.59</ele>
        <time>2013-03-09T14:36:28Z</time>
      </trkpt>
      <trkpt lat="45.2044" lon="6.20221">
        <ele>2051.59</ele>
        <time>2013-03-09T14:36:52Z</time>
      </trkpt>
      <trkpt lat="45.2044" lon="6.20221">
        <ele>2051.59</ele>
        <time>2013-03-09T14:37:14Z</time>
      </trkpt>
      <trkpt lat="45.2044" lon="6.20222">
        <ele>2051.59</ele>
        <time>2013-03-09T14:37:30Z</time>
      </trkpt>
      <trkpt lat="45.2044" lon="6.20222">
        <ele>2051.59</ele>
        <time>2013-03-09T14:37:49Z</time>
      </trkpt>
      <trkpt lat="45.20441" lon="6.20224">
        <ele>2051.59</ele>
        <time>2013-03-09T14:38:11Z</time>
      </trkpt>
      <trkpt lat="45.20442" lon="6.20224">
        <ele>2051.59</ele>
        <time>2013-03-09T14:38:32Z</time>
      </trkpt>
      <trkpt lat="45.20443" lon="6.20223">
        <ele>2051.59</ele>
        <time>2013-03-09T14:38:59Z</time>
      </trkpt>
      <trkpt lat="45.20443" lon="6.20223">
        <ele>2051.59</ele>
        <time>2013-03-09T14:39:15Z</time>
      </trkpt>
      <trkpt lat="45.20443" lon="6.20223">
        <ele>2052.55</ele>
        <time>2013-03-09T14:39:32Z</time>
      </trkpt>
      <trkpt lat="45.20443" lon="6.20223">
        <ele>2052.55</ele>
        <time>2013-03-09T14:39:52Z</time>
      </trkpt>
      <trkpt lat="45.20444" lon="6.20224">
        <ele>2052.55</ele>
        <time>2013-03-09T14:40:22Z</time>
      </trkpt>
      <trkpt lat="45.20444" lon="6.20224">
        <ele>2052.55</ele>
        <time>2013-03-09T14:40:51Z</time>
      </trkpt>
      <trkpt lat="45.20444" lon="6.20222">
        <ele>2052.55</ele>
        <time>2013-03-09T14:41:08Z</time>
      </trkpt>
      <trkpt lat="45.20442" lon="6.20222">
        <ele>2052.55</ele>
        <time>2013-03-09T14:41:31Z</time>
      </trkpt>
      <trkpt lat="45.20441" lon="6.20222">
        <ele>2052.55</ele>
        <time>2013-03-09T14:41:56Z</time>
      </trkpt>
      <trkpt lat="45.20442" lon="6.20223">
        <ele>2052.55</ele>
        <time>2013-03-09T14:42:17Z</time>
      </trkpt>
      <trkpt lat="45.20443" lon="6.20222">
        <ele>2052.55</ele>
        <time>2013-03-09T14:42:34Z</time>
      </trkpt>
      <trkpt lat="45.20443" lon="6.20222">
        <ele>2052.55</ele>
        <time>2013-03-09T14:43:02Z</time>
      </trkpt>
      <trkpt lat="45.20443" lon="6.20222">
        <ele>2052.55</ele>
        <time>2013-03-09T14:43:25Z</time>
      </trkpt>
      <trkpt lat="45.20443" lon="6.20222">
        <ele>2053.03</ele>
        <time>2013-03-09T14:43:49Z</time>
      </trkpt>
      <trkpt lat="45.20443" lon="6.20223">
        <ele>2053.03</ele>
        <time>2013-03-09T14:44:12Z</time>
      </trkpt>
      <trkpt lat="45.20444" lon="6.20223">
        <ele>2053.03</ele>
        <time>2013-03-09T14:44:41Z</time>
      </trkpt>
      <trkpt lat="45.20444" lon="6.20224">
        <ele>2053.03</ele>
        <time>2013-03-09T14:45:21Z</time>
      </trkpt>
      <trkpt lat="45.20443" lon="6.20224">
        <ele>2053.03</ele>
        <time>2013-03-09T14:45:43Z</time>
      </trkpt>
      <trkpt lat="45.20442" lon="6.20223">
        <ele>2053.03</ele>
        <time>2013-03-09T14:46:06Z</time>
      </trkpt>
      <trkpt lat="45.20442" lon="6.20224">
        <ele>2053.03</ele>
        <time>2013-03-09T14:46:27Z</time>
      </trkpt>
      <trkpt lat="45.20443" lon="6.20225">
        <ele>2053.03</ele>
        <time>2013-03-09T14:46:49Z</time>
      </trkpt>
      <trkpt lat="45.20443" lon="6.20224">
        <ele>2053.03</ele>
        <time>2013-03-09T14:47:15Z</time>
      </trkpt>
      <trkpt lat="45.20441" lon="6.20224">
        <ele>2053.03</ele>
        <time>2013-03-09T14:47:40Z</time>
      </trkpt>
      <trkpt lat="45.20442" lon="6.20223">
        <ele>2053.03</ele>
        <time>2013-03-09T14:48:08Z</time>
      </trkpt>
      <trkpt lat="45.20442" lon="6.20223">
        <ele>2053.51</ele>
        <time>2013-03-09T14:48:22Z</time>
      </trkpt>
      <trkpt lat="45.20443" lon="6.20223">
        <ele>2053.51</ele>
        <time>2013-03-09T14:48:56Z</time>
      </trkpt>
      <trkpt lat="45.20443" lon="6.20222">
        <ele>2053.51</ele>
        <time>2013-03-09T14:49:17Z</time>
      </trkpt>
      <trkpt lat="45.20442" lon="6.20222">
        <ele>2053.51</ele>
        <time>2013-03-09T14:49:34Z</time>
      </trkpt>
      <trkpt lat="45.20441" lon="6.20221">
        <ele>2053.51</ele>
        <time>2013-03-09T14:50:06Z</time>
      </trkpt>
      <trkpt lat="45.20441" lon="6.20221">
        <ele>2053.51</ele>
        <time>2013-03-09T14:50:25Z</time>
      </trkpt>
      <trkpt lat="45.20441" lon="6.20221">
        <ele>2053.51</ele>
        <time>2013-03-09T14:50:50Z</time>
      </trkpt>
      <trkpt lat="45.20442" lon="6.20221">
        <ele>2053.51</ele>
        <time>2013-03-09T14:51:16Z</time>
      </trkpt>
      <trkpt lat="45.20442" lon="6.20221">
        <ele>2053.51</ele>
        <time>2013-03-09T14:51:39Z</time>
      </trkpt>
      <trkpt lat="45.20441" lon="6.20222">
        <ele>2053.51</ele>
        <time>2013-03-09T14:52:02Z</time>
      </trkpt>
      <trkpt lat="45.20441" lon="6.20222">
        <ele>2053.51</ele>
        <time>2013-03-09T14:52:28Z</time>
      </trkpt>
      <trkpt lat="45.2044" lon="6.20222">
        <ele>2053.51</ele>
        <time>2013-03-09T14:52:50Z</time>
      </trkpt>
      <trkpt lat="45.20441" lon="6.20221">
        <ele>2053.51</ele>
        <time>2013-03-09T14:53:12Z</time>
      </trkpt>
      <trkpt lat="45.20441" lon="6.20222">
        <ele>2053.51</ele>
        <time>2013-03-09T14:53:32Z</time>
      </trkpt>
      <trkpt lat="45.2044" lon="6.20223">
        <ele>2053.51</ele>
        <time>2013-03-09T14:53:58Z</time>
      </trkpt>
      <trkpt lat="45.20438" lon="6.20223">
        <ele>2053.51</ele>
        <time>2013-03-09T14:54:22Z</time>
      </trkpt>
      <trkpt lat="45.20438" lon="6.20224">
        <ele>2053.51</ele>
        <time>2013-03-09T14:54:41Z</time>
      </trkpt>
      <trkpt lat="45.20439" lon="6.20223">
        <ele>2053.51</ele>
        <time>2013-03-09T14:55:05Z</time>
      </trkpt>
      <trkpt lat="45.2044" lon="6.20224">
        <ele>2053.51</ele>
        <time>2013-03-09T14:55:30Z</time>
      </trkpt>
      <trkpt lat="45.2044" lon="6.20222">
        <ele>2053.51</ele>
        <time>2013-03-09T14:55:56Z</time>
      </trkpt>
      <trkpt lat="45.2044" lon="6.20222">
        <ele>2053.51</ele>
        <time>2013-03-09T14:56:29Z</time>
      </trkpt>
      <trkpt lat="45.2044" lon="6.20223">
        <ele>2053.51</ele>
        <time>2013-03-09T14:56:53Z</time>
      </trkpt>
      <trkpt lat="45.2044" lon="6.20223">
        <ele>2053.51</ele>
        <time>2013-03-09T14:57:21Z</time>
      </trkpt>
      <trkpt lat="45.20441" lon="6.20222">
        <ele>2053.51</ele>
        <time>2013-03-09T14:57:52Z</time>
      </trkpt>
      <trkpt lat="45.20441" lon="6.20222">
        <ele>2053.51</ele>
        <time>2013-03-09T14:58:19Z</time>
      </trkpt>
      <trkpt lat="45.20441" lon="6.20222">
        <ele>2053.51</ele>
        <time>2013-03-09T14:58:43Z</time>
      </trkpt>
      <trkpt lat="45.2044" lon="6.2022">
        <ele>2053.51</ele>
        <time>2013-03-09T14:59:07Z</time>
      </trkpt>
      <trkpt lat="45.2044" lon="6.20221">
        <ele>2053.51</ele>
        <time>2013-03-09T14:59:26Z</time>
      </trkpt>
      <trkpt lat="45.2044" lon="6.2022">
        <ele>2053.51</ele>
        <time>2013-03-09T14:59:44Z</time>
      </trkpt>
      <trkpt lat="45.2044" lon="6.20221">
        <ele>2053.51</ele>
        <time>2013-03-09T15:00:09Z</time>
      </trkpt>
      <trkpt lat="45.20441" lon="6.20221">
        <ele>2053.51</ele>
        <time>2013-03-09T15:00:31Z</time>
      </trkpt>
      <trkpt lat="45.20441" lon="6.20221">
        <ele>2053.51</ele>
        <time>2013-03-09T15:00:49Z</time>
      </trkpt>
      <trkpt lat="45.20441" lon="6.20221">
        <ele>2053.51</ele>
        <time>2013-03-09T15:01:12Z</time>
      </trkpt>
      <trkpt lat="45.20441" lon="6.20222">
        <ele>2053.51</ele>
        <time>2013-03-09T15:01:32Z</time>
      </trkpt>
      <trkpt lat="45.20442" lon="6.20222">
        <ele>2053.51</ele>
        <time>2013-03-09T15:01:56Z</time>
      </trkpt>
      <trkpt lat="45.20441" lon="6.20221">
        <ele>2053.51</ele>
        <time>2013-03-09T15:02:12Z</time>
      </trkpt>
      <trkpt lat="45.2044" lon="6.20219">
        <ele>2053.51</ele>
        <time>2013-03-09T15:02:25Z</time>
      </trkpt>
      <trkpt lat="45.20442" lon="6.20221">
        <ele>2053.99</ele>
        <time>2013-03-09T15:02:46Z</time>
      </trkpt>
      <trkpt lat="45.20442" lon="6.2022">
        <ele>2053.99</ele>
        <time>2013-03-09T15:03:17Z</time>
      </trkpt>
      <trkpt lat="45.20443" lon="6.20222">
        <ele>2053.99</ele>
        <time>2013-03-09T15:03:42Z</time>
      </trkpt>
      <trkpt lat="45.20443" lon="6.20221">
        <ele>2053.99</ele>
        <time>2013-03-09T15:04:11Z</time>
      </trkpt>
      <trkpt lat="45.20435" lon="6.20227">
        <ele>2054.47</ele>
        <time>2013-03-09T15:04:29Z</time>
      </trkpt>
      <trkpt lat="45.20427" lon="6.20236">
        <ele>2054.96</ele>
        <time>2013-03-09T15:04:39Z</time>
      </trkpt>
      <trkpt lat="45.20432" lon="6.20259">
        <ele>2056.4</ele>
        <time>2013-03-09T15:04:53Z</time>
      </trkpt>
      <trkpt lat="45.20434" lon="6.20261">
        <ele>2056.88</ele>
        <time>2013-03-09T15:05:08Z</time>
      </trkpt>
      <trkpt lat="45.20433" lon="6.20262">
        <ele>2056.4</ele>
        <time>2013-03-09T15:05:34Z</time>
      </trkpt>
      <trkpt lat="45.20433" lon="6.20262">
        <ele>2056.4</ele>
        <time>2013-03-09T15:05:59Z</time>
      </trkpt>
      <trkpt lat="45.20433" lon="6.20261">
        <ele>2056.88</ele>
        <time>2013-03-09T15:06:10Z</time>
      </trkpt>
      <trkpt lat="45.20431" lon="6.20257">
        <ele>2056.88</ele>
        <time>2013-03-09T15:06:13Z</time>
      </trkpt>
      <trkpt lat="45.20436" lon="6.20229">
        <ele>2056.88</ele>
        <time>2013-03-09T15:06:24Z</time>
      </trkpt>
      <trkpt lat="45.20441" lon="6.20225">
        <ele>2054.96</ele>
        <time>2013-03-09T15:06:36Z</time>
      </trkpt>
      <trkpt lat="45.2044" lon="6.20225">
        <ele>2054.47</ele>
        <time>2013-03-09T15:06:54Z</time>
      </trkpt>
      <trkpt lat="45.2044" lon="6.20226">
        <ele>2054.47</ele>
        <time>2013-03-09T15:07:08Z</time>
      </trkpt>
      <trkpt lat="45.20441" lon="6.20225">
        <ele>2054.47</ele>
        <time>2013-03-09T15:07:30Z</time>
      </trkpt>
      <trkpt lat="45.20441" lon="6.20225">
        <ele>2054.47</ele>
        <time>2013-03-09T15:07:53Z</time>
      </trkpt>
      <trkpt lat="45.20441" lon="6.20224">
        <ele>2054.47</ele>
        <time>2013-03-09T15:08:12Z</time>
      </trkpt>
      <trkpt lat="45.20441" lon="6.20225">
        <ele>2054.47</ele>
        <time>2013-03-09T15:08:28Z</time>
      </trkpt>
      <trkpt lat="45.2044" lon="6.20226">
        <ele>2054.47</ele>
        <time>2013-03-09T15:08:52Z</time>
      </trkpt>
      <trkpt lat="45.20441" lon="6.20225">
        <ele>2054.47</ele>
        <time>2013-03-09T15:09:21Z</time>
      </trkpt>
      <trkpt lat="45.20442" lon="6.20224">
        <ele>2054.47</ele>
        <time>2013-03-09T15:09:53Z</time>
      </trkpt>
      <trkpt lat="45.20443" lon="6.20223">
        <ele>2054.47</ele>
        <time>2013-03-09T15:10:20Z</time>
      </trkpt>
      <trkpt lat="45.20443" lon="6.20222">
        <ele>2054.47</ele>
        <time>2013-03-09T15:10:46Z</time>
      </trkpt>
      <trkpt lat="45.20444" lon="6.20223">
        <ele>2054.47</ele>
        <time>2013-03-09T15:11:07Z</time>
      </trkpt>
      <trkpt lat="45.20442" lon="6.20224">
        <ele>2054.96</ele>
        <time>2013-03-09T15:11:35Z</time>
      </trkpt>
      <trkpt lat="45.20442" lon="6.20222">
        <ele>2054.96</ele>
        <time>2013-03-09T15:11:56Z</time>
      </trkpt>
      <trkpt lat="45.20442" lon="6.20222">
        <ele>2054.96</ele>
        <time>2013-03-09T15:12:22Z</time>
      </trkpt>
      <trkpt lat="45.20443" lon="6.20222">
        <ele>2054.96</ele>
        <time>2013-03-09T15:12:44Z</time>
      </trkpt>
      <trkpt lat="45.20443" lon="6.20223">
        <ele>2054.96</ele>
        <time>2013-03-09T15:13:02Z</time>
      </trkpt>
      <trkpt lat="45.20442" lon="6.20223">
        <ele>2054.96</ele>
        <time>2013-03-09T15:13:34Z</time>
      </trkpt>
      <trkpt lat="45.20441" lon="6.20223">
        <ele>2054.96</ele>
        <time>2013-03-09T15:13:54Z</time>
      </trkpt>
      <trkpt lat="45.20441" lon="6.20223">
        <ele>2054.96</ele>
        <time>2013-03-09T15:14:21Z</time>
      </trkpt>
      <trkpt lat="45.20441" lon="6.20223">
        <ele>2054.96</ele>
        <time>2013-03-09T15:14:48Z</time>
      </trkpt>
      <trkpt lat="45.2044" lon="6.20224">
        <ele>2054.96</ele>
        <time>2013-03-09T15:15:03Z</time>
      </trkpt>
      <trkpt lat="45.2044" lon="6.20225">
        <ele>2054.96</ele>
        <time>2013-03-09T15:15:15Z</time>
      </trkpt>
      <trkpt lat="45.2044" lon="6.20226">
        <ele>2054.96</ele>
        <time>2013-03-09T15:15:33Z</time>
      </trkpt>
      <trkpt lat="45.2044" lon="6.20224">
        <ele>2054.96</ele>
        <time>2013-03-09T15:15:48Z</time>
      </trkpt>
      <trkpt lat="45.2044" lon="6.20223">
        <ele>2054.96</ele>
        <time>2013-03-09T15:16:05Z</time>
      </trkpt>
      <trkpt lat="45.20436" lon="6.2022">
        <ele>2054.96</ele>
        <time>2013-03-09T15:16:10Z</time>
      </trkpt>
      <trkpt lat="45.20433" lon="6.20216">
        <ele>2054.96</ele>
        <time>2013-03-09T15:16:14Z</time>
      </trkpt>
      <trkpt lat="45.20423" lon="6.20206">
        <ele>2056.4</ele>
        <time>2013-03-09T15:16:26Z</time>
      </trkpt>
      <trkpt lat="45.20419" lon="6.20196">
        <ele>2056.88</ele>
        <time>2013-03-09T15:16:39Z</time>
      </trkpt>
      <trkpt lat="45.2041" lon="6.20183">
        <ele>2057.36</ele>
        <time>2013-03-09T15:16:53Z</time>
      </trkpt>
      <trkpt lat="45.20402" lon="6.20165">
        <ele>2057.84</ele>
        <time>2013-03-09T15:17:06Z</time>
      </trkpt>
      <trkpt lat="45.204" lon="6.20157">
        <ele>2058.32</ele>
        <time>2013-03-09T15:17:11Z</time>
      </trkpt>
      <trkpt lat="45.20398" lon="6.20152">
        <ele>2058.32</ele>
        <time>2013-03-09T15:17:14Z</time>
      </trkpt>
      <trkpt lat="45.20392" lon="6.20137">
        <ele>2060.24</ele>
        <time>2013-03-09T15:17:28Z</time>
      </trkpt>
      <trkpt lat="45.20391" lon="6.20134">
        <ele>2061.2</ele>
        <time>2013-03-09T15:17:39Z</time>
      </trkpt>
      <trkpt lat="45.20389" lon="6.20127">
        <ele>2061.68</ele>
        <time>2013-03-09T15:17:45Z</time>
      </trkpt>
      <trkpt lat="45.20387" lon="6.20119">
        <ele>2062.17</ele>
        <time>2013-03-09T15:17:52Z</time>
      </trkpt>
      <trkpt lat="45.20382" lon="6.20107">
        <ele>2063.13</ele>
        <time>2013-03-09T15:18:02Z</time>
      </trkpt>
      <trkpt lat="45.20376" lon="6.20093">
        <ele>2065.05</ele>
        <time>2013-03-09T15:18:16Z</time>
      </trkpt>
      <trkpt lat="45.20371" lon="6.2008">
        <ele>2066.97</ele>
        <time>2013-03-09T15:18:29Z</time>
      </trkpt>
      <trkpt lat="45.20368" lon="6.20075">
        <ele>2068.41</ele>
        <time>2013-03-09T15:18:41Z</time>
      </trkpt>
      <trkpt lat="45.20364" lon="6.20065">
        <ele>2070.34</ele>
        <time>2013-03-09T15:18:57Z</time>
      </trkpt>
      <trkpt lat="45.2036" lon="6.20056">
        <ele>2071.78</ele>
        <time>2013-03-09T15:19:09Z</time>
      </trkpt>
      <trkpt lat="45.20359" lon="6.20045">
        <ele>2074.66</ele>
        <time>2013-03-09T15:19:24Z</time>
      </trkpt>
      <trkpt lat="45.20356" lon="6.20036">
        <ele>2077.55</ele>
        <time>2013-03-09T15:19:39Z</time>
      </trkpt>
      <trkpt lat="45.20352" lon="6.20027">
        <ele>2079.47</ele>
        <time>2013-03-09T15:19:52Z</time>
      </trkpt>
      <trkpt lat="45.20347" lon="6.20016">
        <ele>2082.35</ele>
        <time>2013-03-09T15:20:07Z</time>
      </trkpt>
      <trkpt lat="45.20346" lon="6.20014">
        <ele>2083.31</ele>
        <time>2013-03-09T15:20:10Z</time>
      </trkpt>
      <trkpt lat="45.20341" lon="6.20005">
        <ele>2085.72</ele>
        <time>2013-03-09T15:20:23Z</time>
      </trkpt>
      <trkpt lat="45.20336" lon="6.19997">
        <ele>2088.6</ele>
        <time>2013-03-09T15:20:36Z</time>
      </trkpt>
      <trkpt lat="45.20335" lon="6.19987">
        <ele>2091</ele>
        <time>2013-03-09T15:20:50Z</time>
      </trkpt>
      <trkpt lat="45.20327" lon="6.19977">
        <ele>2093.89</ele>
        <time>2013-03-09T15:21:05Z</time>
      </trkpt>
      <trkpt lat="45.20317" lon="6.19971">
        <ele>2096.29</ele>
        <time>2013-03-09T15:21:20Z</time>
      </trkpt>
      <trkpt lat="45.20309" lon="6.19965">
        <ele>2098.7</ele>
        <time>2013-03-09T15:21:36Z</time>
      </trkpt>
      <trkpt lat="45.20303" lon="6.19957">
        <ele>2100.62</ele>
        <time>2013-03-09T15:21:50Z</time>
      </trkpt>
      <trkpt lat="45.20295" lon="6.19951">
        <ele>2103.98</ele>
        <time>2013-03-09T15:22:06Z</time>
      </trkpt>
      <trkpt lat="45.20289" lon="6.19945">
        <ele>2106.39</ele>
        <time>2013-03-09T15:22:21Z</time>
      </trkpt>
      <trkpt lat="45.20281" lon="6.19939">
        <ele>2108.79</ele>
        <time>2013-03-09T15:22:35Z</time>
      </trkpt>
      <trkpt lat="45.20276" lon="6.19935">
        <ele>2111.19</ele>
        <time>2013-03-09T15:22:46Z</time>
      </trkpt>
      <trkpt lat="45.20269" lon="6.19926">
        <ele>2113.6</ele>
        <time>2013-03-09T15:23:00Z</time>
      </trkpt>
      <trkpt lat="45.20266" lon="6.19918">
        <ele>2115.52</ele>
        <time>2013-03-09T15:23:10Z</time>
      </trkpt>
      <trkpt lat="45.2026" lon="6.1991">
        <ele>2117.44</ele>
        <time>2013-03-09T15:23:23Z</time>
      </trkpt>
      <trkpt lat="45.20255" lon="6.19901">
        <ele>2120.32</ele>
        <time>2013-03-09T15:23:37Z</time>
      </trkpt>
      <trkpt lat="45.20249" lon="6.19892">
        <ele>2122.73</ele>
        <time>2013-03-09T15:23:52Z</time>
      </trkpt>
      <trkpt lat="45.20245" lon="6.19882">
        <ele>2125.13</ele>
        <time>2013-03-09T15:24:05Z</time>
      </trkpt>
      <trkpt lat="45.2024" lon="6.19871">
        <ele>2127.53</ele>
        <time>2013-03-09T15:24:19Z</time>
      </trkpt>
      <trkpt lat="45.20237" lon="6.19858">
        <ele>2130.42</ele>
        <time>2013-03-09T15:24:33Z</time>
      </trkpt>
      <trkpt lat="45.20235" lon="6.1985">
        <ele>2132.82</ele>
        <time>2013-03-09T15:24:47Z</time>
      </trkpt>
      <trkpt lat="45.20231" lon="6.19838">
        <ele>2135.23</ele>
        <time>2013-03-09T15:25:00Z</time>
      </trkpt>
      <trkpt lat="45.2023" lon="6.19835">
        <ele>2135.23</ele>
        <time>2013-03-09T15:25:03Z</time>
      </trkpt>
      <trkpt lat="45.20227" lon="6.19822">
        <ele>2138.11</ele>
        <time>2013-03-09T15:25:17Z</time>
      </trkpt>
      <trkpt lat="45.20227" lon="6.19815">
        <ele>2140.03</ele>
        <time>2013-03-09T15:25:31Z</time>
      </trkpt>
      <trkpt lat="45.20225" lon="6.198">
        <ele>2141.47</ele>
        <time>2013-03-09T15:25:46Z</time>
      </trkpt>
      <trkpt lat="45.20222" lon="6.19787">
        <ele>2143.88</ele>
        <time>2013-03-09T15:26:00Z</time>
      </trkpt>
      <trkpt lat="45.20222" lon="6.19786">
        <ele>2143.88</ele>
        <time>2013-03-09T15:26:01Z</time>
      </trkpt>
      <trkpt lat="45.2022" lon="6.19781">
        <ele>2144.84</ele>
        <time>2013-03-09T15:26:06Z</time>
      </trkpt>
      <trkpt lat="45.2022" lon="6.19767">
        <ele>2146.28</ele>
        <time>2013-03-09T15:26:19Z</time>
      </trkpt>
      <trkpt lat="45.20221" lon="6.19752">
        <ele>2148.2</ele>
        <time>2013-03-09T15:26:32Z</time>
      </trkpt>
      <trkpt lat="45.20221" lon="6.19736">
        <ele>2150.61</ele>
        <time>2013-03-09T15:26:47Z</time>
      </trkpt>
      <trkpt lat="45.20222" lon="6.19723">
        <ele>2153.49</ele>
        <time>2013-03-09T15:27:02Z</time>
      </trkpt>
      <trkpt lat="45.20219" lon="6.19709">
        <ele>2155.41</ele>
        <time>2013-03-09T15:27:15Z</time>
      </trkpt>
      <trkpt lat="45.20218" lon="6.19695">
        <ele>2157.34</ele>
        <time>2013-03-09T15:27:29Z</time>
      </trkpt>
      <trkpt lat="45.20217" lon="6.19682">
        <ele>2160.22</ele>
        <time>2013-03-09T15:27:42Z</time>
      </trkpt>
      <trkpt lat="45.2022" lon="6.1967">
        <ele>2162.14</ele>
        <time>2013-03-09T15:27:55Z</time>
      </trkpt>
      <trkpt lat="45.2022" lon="6.1966">
        <ele>2164.55</ele>
        <time>2013-03-09T15:28:08Z</time>
      </trkpt>
      <trkpt lat="45.2022" lon="6.19649">
        <ele>2166.95</ele>
        <time>2013-03-09T15:28:20Z</time>
      </trkpt>
      <trkpt lat="45.20218" lon="6.19637">
        <ele>2168.39</ele>
        <time>2013-03-09T15:28:32Z</time>
      </trkpt>
      <trkpt lat="45.20218" lon="6.19624">
        <ele>2170.79</ele>
        <time>2013-03-09T15:28:45Z</time>
      </trkpt>
      <trkpt lat="45.20216" lon="6.19614">
        <ele>2172.24</ele>
        <time>2013-03-09T15:28:59Z</time>
      </trkpt>
      <trkpt lat="45.20216" lon="6.19605">
        <ele>2173.2</ele>
        <time>2013-03-09T15:29:22Z</time>
      </trkpt>
      <trkpt lat="45.20217" lon="6.19591">
        <ele>2174.16</ele>
        <time>2013-03-09T15:29:36Z</time>
      </trkpt>
      <trkpt lat="45.20219" lon="6.19576">
        <ele>2174.64</ele>
        <time>2013-03-09T15:29:49Z</time>
      </trkpt>
      <trkpt lat="45.20221" lon="6.19561">
        <ele>2176.56</ele>
        <time>2013-03-09T15:30:06Z</time>
      </trkpt>
      <trkpt lat="45.20222" lon="6.19548">
        <ele>2177.52</ele>
        <time>2013-03-09T15:30:19Z</time>
      </trkpt>
      <trkpt lat="45.20224" lon="6.19533">
        <ele>2179.45</ele>
        <time>2013-03-09T15:30:33Z</time>
      </trkpt>
      <trkpt lat="45.20225" lon="6.19526">
        <ele>2179.93</ele>
        <time>2013-03-09T15:30:39Z</time>
      </trkpt>
      <trkpt lat="45.20226" lon="6.19512">
        <ele>2180.89</ele>
        <time>2013-03-09T15:30:53Z</time>
      </trkpt>
      <trkpt lat="45.20227" lon="6.19498">
        <ele>2181.85</ele>
        <time>2013-03-09T15:31:06Z</time>
      </trkpt>
      <trkpt lat="45.20226" lon="6.19484">
        <ele>2182.81</ele>
        <time>2013-03-09T15:31:20Z</time>
      </trkpt>
      <trkpt lat="45.20224" lon="6.19471">
        <ele>2185.21</ele>
        <time>2013-03-09T15:31:35Z</time>
      </trkpt>
      <trkpt lat="45.20224" lon="6.19458">
        <ele>2187.14</ele>
        <time>2013-03-09T15:31:50Z</time>
      </trkpt>
      <trkpt lat="45.20224" lon="6.19442">
        <ele>2189.06</ele>
        <time>2013-03-09T15:32:06Z</time>
      </trkpt>
      <trkpt lat="45.20224" lon="6.19429">
        <ele>2191.46</ele>
        <time>2013-03-09T15:32:20Z</time>
      </trkpt>
      <trkpt lat="45.20226" lon="6.19418">
        <ele>2193.39</ele>
        <time>2013-03-09T15:32:34Z</time>
      </trkpt>
      <trkpt lat="45.20227" lon="6.19408">
        <ele>2194.83</ele>
        <time>2013-03-09T15:32:48Z</time>
      </trkpt>
      <trkpt lat="45.20227" lon="6.19407">
        <ele>2195.79</ele>
        <time>2013-03-09T15:33:07Z</time>
      </trkpt>
      <trkpt lat="45.20226" lon="6.19408">
        <ele>2195.79</ele>
        <time>2013-03-09T15:33:28Z</time>
      </trkpt>
      <trkpt lat="45.20228" lon="6.19404">
        <ele>2196.27</ele>
        <time>2013-03-09T15:33:47Z</time>
      </trkpt>
      <trkpt lat="45.20233" lon="6.19388">
        <ele>2198.19</ele>
        <time>2013-03-09T15:34:02Z</time>
      </trkpt>
      <trkpt lat="45.20239" lon="6.19376">
        <ele>2200.11</ele>
        <time>2013-03-09T15:34:19Z</time>
      </trkpt>
      <trkpt lat="45.20244" lon="6.19368">
        <ele>2202.04</ele>
        <time>2013-03-09T15:34:30Z</time>
      </trkpt>
      <trkpt lat="45.20245" lon="6.19354">
        <ele>2203.96</ele>
        <time>2013-03-09T15:34:46Z</time>
      </trkpt>
      <trkpt lat="45.20249" lon="6.19349">
        <ele>2205.88</ele>
        <time>2013-03-09T15:34:59Z</time>
      </trkpt>
      <trkpt lat="45.20247" lon="6.19338">
        <ele>2207.32</ele>
        <time>2013-03-09T15:35:13Z</time>
      </trkpt>
      <trkpt lat="45.20246" lon="6.19324">
        <ele>2208.77</ele>
        <time>2013-03-09T15:35:27Z</time>
      </trkpt>
      <trkpt lat="45.20246" lon="6.19312">
        <ele>2210.69</ele>
        <time>2013-03-09T15:35:42Z</time>
      </trkpt>
      <trkpt lat="45.20245" lon="6.19302">
        <ele>2213.57</ele>
        <time>2013-03-09T15:35:57Z</time>
      </trkpt>
      <trkpt lat="45.20245" lon="6.19296">
        <ele>2215.5</ele>
        <time>2013-03-09T15:36:15Z</time>
      </trkpt>
      <trkpt lat="45.20243" lon="6.19286">
        <ele>2217.42</ele>
        <time>2013-03-09T15:36:31Z</time>
      </trkpt>
      <trkpt lat="45.20242" lon="6.19272">
        <ele>2219.34</ele>
        <time>2013-03-09T15:36:46Z</time>
      </trkpt>
      <trkpt lat="45.20243" lon="6.19261">
        <ele>2221.26</ele>
        <time>2013-03-09T15:36:59Z</time>
      </trkpt>
      <trkpt lat="45.2024" lon="6.1925">
        <ele>2223.19</ele>
        <time>2013-03-09T15:37:12Z</time>
      </trkpt>
      <trkpt lat="45.2024" lon="6.19236">
        <ele>2225.59</ele>
        <time>2013-03-09T15:37:27Z</time>
      </trkpt>
      <trkpt lat="45.20239" lon="6.19226">
        <ele>2227.99</ele>
        <time>2013-03-09T15:37:39Z</time>
      </trkpt>
      <trkpt lat="45.20239" lon="6.19219">
        <ele>2230.4</ele>
        <time>2013-03-09T15:37:55Z</time>
      </trkpt>
      <trkpt lat="45.20235" lon="6.19211">
        <ele>2232.8</ele>
        <time>2013-03-09T15:38:11Z</time>
      </trkpt>
      <trkpt lat="45.20236" lon="6.192">
        <ele>2235.2</ele>
        <time>2013-03-09T15:38:26Z</time>
      </trkpt>
      <trkpt lat="45.20236" lon="6.19189">
        <ele>2237.61</ele>
        <time>2013-03-09T15:38:41Z</time>
      </trkpt>
      <trkpt lat="45.20241" lon="6.19195">
        <ele>2240.01</ele>
        <time>2013-03-09T15:38:54Z</time>
      </trkpt>
      <trkpt lat="45.20248" lon="6.19197">
        <ele>2241.93</ele>
        <time>2013-03-09T15:39:10Z</time>
      </trkpt>
      <trkpt lat="45.20255" lon="6.19197">
        <ele>2243.85</ele>
        <time>2013-03-09T15:39:24Z</time>
      </trkpt>
      <trkpt lat="45.20261" lon="6.19195">
        <ele>2245.78</ele>
        <time>2013-03-09T15:39:35Z</time>
      </trkpt>
      <trkpt lat="45.20261" lon="6.19182">
        <ele>2248.18</ele>
        <time>2013-03-09T15:39:50Z</time>
      </trkpt>
      <trkpt lat="45.20263" lon="6.19178">
        <ele>2249.62</ele>
        <time>2013-03-09T15:40:06Z</time>
      </trkpt>
      <trkpt lat="45.20265" lon="6.1918">
        <ele>2250.58</ele>
        <time>2013-03-09T15:40:28Z</time>
      </trkpt>
      <trkpt lat="45.20265" lon="6.1918">
        <ele>2251.06</ele>
        <time>2013-03-09T15:40:52Z</time>
      </trkpt>
      <trkpt lat="45.20268" lon="6.19179">
        <ele>2251.06</ele>
        <time>2013-03-09T15:41:10Z</time>
      </trkpt>
      <trkpt lat="45.20265" lon="6.19179">
        <ele>2251.06</ele>
        <time>2013-03-09T15:41:36Z</time>
      </trkpt>
      <trkpt lat="45.20266" lon="6.19166">
        <ele>2252.03</ele>
        <time>2013-03-09T15:41:51Z</time>
      </trkpt>
      <trkpt lat="45.20271" lon="6.19154">
        <ele>2255.39</ele>
        <time>2013-03-09T15:42:09Z</time>
      </trkpt>
      <trkpt lat="45.20269" lon="6.19149">
        <ele>2257.31</ele>
        <time>2013-03-09T15:42:25Z</time>
      </trkpt>
      <trkpt lat="45.2027" lon="6.19149">
        <ele>2258.27</ele>
        <time>2013-03-09T15:42:49Z</time>
      </trkpt>
      <trkpt lat="45.2027" lon="6.19149">
        <ele>2258.27</ele>
        <time>2013-03-09T15:43:08Z</time>
      </trkpt>
      <trkpt lat="45.20269" lon="6.19148">
        <ele>2258.27</ele>
        <time>2013-03-09T15:43:32Z</time>
      </trkpt>
      <trkpt lat="45.20269" lon="6.19148">
        <ele>2258.27</ele>
        <time>2013-03-09T15:43:49Z</time>
      </trkpt>
      <trkpt lat="45.20265" lon="6.19136">
        <ele>2259.24</ele>
        <time>2013-03-09T15:44:01Z</time>
      </trkpt>
      <trkpt lat="45.20263" lon="6.1913">
        <ele>2261.64</ele>
        <time>2013-03-09T15:44:18Z</time>
      </trkpt>
      <trkpt lat="45.2026" lon="6.19124">
        <ele>2263.56</ele>
        <time>2013-03-09T15:44:31Z</time>
      </trkpt>
      <trkpt lat="45.20258" lon="6.19116">
        <ele>2265.48</ele>
        <time>2013-03-09T15:44:48Z</time>
      </trkpt>
      <trkpt lat="45.20257" lon="6.19106">
        <ele>2267.89</ele>
        <time>2013-03-09T15:45:03Z</time>
      </trkpt>
      <trkpt lat="45.20255" lon="6.19101">
        <ele>2269.33</ele>
        <time>2013-03-09T15:45:15Z</time>
      </trkpt>
      <trkpt lat="45.20254" lon="6.19089">
        <ele>2270.29</ele>
        <time>2013-03-09T15:45:28Z</time>
      </trkpt>
      <trkpt lat="45.20252" lon="6.19078">
        <ele>2272.69</ele>
        <time>2013-03-09T15:45:41Z</time>
      </trkpt>
      <trkpt lat="45.20247" lon="6.19069">
        <ele>2274.62</ele>
        <time>2013-03-09T15:45:53Z</time>
      </trkpt>
      <trkpt lat="45.20249" lon="6.19068">
        <ele>2277.02</ele>
        <time>2013-03-09T15:46:08Z</time>
      </trkpt>
      <trkpt lat="45.20254" lon="6.19069">
        <ele>2278.94</ele>
        <time>2013-03-09T15:46:20Z</time>
      </trkpt>
      <trkpt lat="45.20258" lon="6.19056">
        <ele>2282.31</ele>
        <time>2013-03-09T15:46:36Z</time>
      </trkpt>
      <trkpt lat="45.20256" lon="6.19042">
        <ele>2284.23</ele>
        <time>2013-03-09T15:46:50Z</time>
      </trkpt>
      <trkpt lat="45.20251" lon="6.19027">
        <ele>2287.11</ele>
        <time>2013-03-09T15:47:06Z</time>
      </trkpt>
      <trkpt lat="45.20249" lon="6.19013">
        <ele>2289.04</ele>
        <time>2013-03-09T15:47:21Z</time>
      </trkpt>
      <trkpt lat="45.20254" lon="6.1901">
        <ele>2291.44</ele>
        <time>2013-03-09T15:47:33Z</time>
      </trkpt>
      <trkpt lat="45.20254" lon="6.19001">
        <ele>2293.36</ele>
        <time>2013-03-09T15:47:46Z</time>
      </trkpt>
      <trkpt lat="45.2025" lon="6.18996">
        <ele>2296.25</ele>
        <time>2013-03-09T15:48:00Z</time>
      </trkpt>
      <trkpt lat="45.20245" lon="6.1899">
        <ele>2297.69</ele>
        <time>2013-03-09T15:48:13Z</time>
      </trkpt>
      <trkpt lat="45.20247" lon="6.18982">
        <ele>2300.09</ele>
        <time>2013-03-09T15:48:28Z</time>
      </trkpt>
      <trkpt lat="45.20247" lon="6.1897">
        <ele>2302.49</ele>
        <time>2013-03-09T15:48:43Z</time>
      </trkpt>
      <trkpt lat="45.20244" lon="6.18959">
        <ele>2303.94</ele>
        <time>2013-03-09T15:48:55Z</time>
      </trkpt>
      <trkpt lat="45.20244" lon="6.18948">
        <ele>2306.34</ele>
        <time>2013-03-09T15:49:08Z</time>
      </trkpt>
      <trkpt lat="45.20244" lon="6.1894">
        <ele>2309.22</ele>
        <time>2013-03-09T15:49:24Z</time>
      </trkpt>
      <trkpt lat="45.20237" lon="6.18947">
        <ele>2311.63</ele>
        <time>2013-03-09T15:49:39Z</time>
      </trkpt>
      <trkpt lat="45.20229" lon="6.18949">
        <ele>2313.07</ele>
        <time>2013-03-09T15:49:53Z</time>
      </trkpt>
      <trkpt lat="45.20222" lon="6.18946">
        <ele>2315.95</ele>
        <time>2013-03-09T15:50:09Z</time>
      </trkpt>
      <trkpt lat="45.20219" lon="6.18937">
        <ele>2319.32</ele>
        <time>2013-03-09T15:50:26Z</time>
      </trkpt>
      <trkpt lat="45.20219" lon="6.18928">
        <ele>2321.24</ele>
        <time>2013-03-09T15:50:39Z</time>
      </trkpt>
      <trkpt lat="45.20217" lon="6.18923">
        <ele>2322.2</ele>
        <time>2013-03-09T15:50:56Z</time>
      </trkpt>
      <trkpt lat="45.20213" lon="6.18914">
        <ele>2324.61</ele>
        <time>2013-03-09T15:51:14Z</time>
      </trkpt>
      <trkpt lat="45.2021" lon="6.18901">
        <ele>2327.01</ele>
        <time>2013-03-09T15:51:30Z</time>
      </trkpt>
      <trkpt lat="45.20202" lon="6.18897">
        <ele>2329.89</ele>
        <time>2013-03-09T15:51:44Z</time>
      </trkpt>
      <trkpt lat="45.20194" lon="6.1889">
        <ele>2332.78</ele>
        <time>2013-03-09T15:52:00Z</time>
      </trkpt>
      <trkpt lat="45.20192" lon="6.18882">
        <ele>2334.7</ele>
        <time>2013-03-09T15:52:15Z</time>
      </trkpt>
      <trkpt lat="45.2019" lon="6.1888">
        <ele>2335.18</ele>
        <time>2013-03-09T15:52:35Z</time>
      </trkpt>
      <trkpt lat="45.20188" lon="6.18877">
        <ele>2335.66</ele>
        <time>2013-03-09T15:52:49Z</time>
      </trkpt>
      <trkpt lat="45.20185" lon="6.18865">
        <ele>2336.62</ele>
        <time>2013-03-09T15:53:01Z</time>
      </trkpt>
      <trkpt lat="45.20185" lon="6.18863">
        <ele>2336.62</ele>
        <time>2013-03-09T15:53:02Z</time>
      </trkpt>
      <trkpt lat="45.20186" lon="6.18843">
        <ele>2337.1</ele>
        <time>2013-03-09T15:53:17Z</time>
      </trkpt>
      <trkpt lat="45.20184" lon="6.18829">
        <ele>2338.54</ele>
        <time>2013-03-09T15:53:31Z</time>
      </trkpt>
      <trkpt lat="45.20182" lon="6.18815">
        <ele>2340.47</ele>
        <time>2013-03-09T15:53:46Z</time>
      </trkpt>
      <trkpt lat="45.2018" lon="6.188">
        <ele>2342.39</ele>
        <time>2013-03-09T15:54:00Z</time>
      </trkpt>
      <trkpt lat="45.20177" lon="6.18789">
        <ele>2343.83</ele>
        <time>2013-03-09T15:54:12Z</time>
      </trkpt>
      <trkpt lat="45.20168" lon="6.18785">
        <ele>2345.27</ele>
        <time>2013-03-09T15:54:28Z</time>
      </trkpt>
      <trkpt lat="45.20169" lon="6.18784">
        <ele>2346.23</ele>
        <time>2013-03-09T15:54:45Z</time>
      </trkpt>
      <trkpt lat="45.20167" lon="6.18782">
        <ele>2346.72</ele>
        <time>2013-03-09T15:55:00Z</time>
      </trkpt>
      <trkpt lat="45.20157" lon="6.18779">
        <ele>2349.12</ele>
        <time>2013-03-09T15:55:17Z</time>
      </trkpt>
      <trkpt lat="45.20153" lon="6.18769">
        <ele>2351.52</ele>
        <time>2013-03-09T15:55:31Z</time>
      </trkpt>
      <trkpt lat="45.20147" lon="6.18758">
        <ele>2352.96</ele>
        <time>2013-03-09T15:55:44Z</time>
      </trkpt>
      <trkpt lat="45.20145" lon="6.18754">
        <ele>2353.93</ele>
        <time>2013-03-09T15:55:58Z</time>
      </trkpt>
      <trkpt lat="45.20145" lon="6.18749">
        <ele>2354.89</ele>
        <time>2013-03-09T15:56:08Z</time>
      </trkpt>
      <trkpt lat="45.20143" lon="6.18749">
        <ele>2355.85</ele>
        <time>2013-03-09T15:56:29Z</time>
      </trkpt>
      <trkpt lat="45.20143" lon="6.18738">
        <ele>2358.25</ele>
        <time>2013-03-09T15:56:46Z</time>
      </trkpt>
      <trkpt lat="45.20144" lon="6.18725">
        <ele>2360.65</ele>
        <time>2013-03-09T15:57:01Z</time>
      </trkpt>
      <trkpt lat="45.20147" lon="6.18715">
        <ele>2362.58</ele>
        <time>2013-03-09T15:57:14Z</time>
      </trkpt>
      <trkpt lat="45.20148" lon="6.18709">
        <ele>2364.5</ele>
        <time>2013-03-09T15:57:33Z</time>
      </trkpt>
      <trkpt lat="45.20149" lon="6.187">
        <ele>2366.9</ele>
        <time>2013-03-09T15:57:48Z</time>
      </trkpt>
      <trkpt lat="45.20152" lon="6.18693">
        <ele>2368.83</ele>
        <time>2013-03-09T15:58:01Z</time>
      </trkpt>
      <trkpt lat="45.20158" lon="6.18683">
        <ele>2372.19</ele>
        <time>2013-03-09T15:58:15Z</time>
      </trkpt>
      <trkpt lat="45.20162" lon="6.1868">
        <ele>2374.59</ele>
        <time>2013-03-09T15:58:29Z</time>
      </trkpt>
      <trkpt lat="45.20162" lon="6.1868">
        <ele>2376.04</ele>
        <time>2013-03-09T15:58:45Z</time>
      </trkpt>
      <trkpt lat="45.2017" lon="6.18669">
        <ele>2378.92</ele>
        <time>2013-03-09T15:59:01Z</time>
      </trkpt>
      <trkpt lat="45.20171" lon="6.18668">
        <ele>2380.36</ele>
        <time>2013-03-09T15:59:18Z</time>
      </trkpt>
      <trkpt lat="45.2017" lon="6.18669">
        <ele>2380.84</ele>
        <time>2013-03-09T15:59:42Z</time>
      </trkpt>
      <trkpt lat="45.20171" lon="6.18666">
        <ele>2381.32</ele>
        <time>2013-03-09T16:00:00Z</time>
      </trkpt>
      <trkpt lat="45.20177" lon="6.18657">
        <ele>2382.28</ele>
        <time>2013-03-09T16:00:12Z</time>
      </trkpt>
      <trkpt lat="45.20182" lon="6.18645">
        <ele>2384.69</ele>
        <time>2013-03-09T16:00:26Z</time>
      </trkpt>
      <trkpt lat="45.20186" lon="6.18632">
        <ele>2386.13</ele>
        <time>2013-03-09T16:00:39Z</time>
      </trkpt>
      <trkpt lat="45.2019" lon="6.18621">
        <ele>2388.05</ele>
        <time>2013-03-09T16:00:54Z</time>
      </trkpt>
      <trkpt lat="45.20191" lon="6.18619">
        <ele>2389.49</ele>
        <time>2013-03-09T16:01:09Z</time>
      </trkpt>
      <trkpt lat="45.20199" lon="6.18616">
        <ele>2390.94</ele>
        <time>2013-03-09T16:01:22Z</time>
      </trkpt>
      <trkpt lat="45.20205" lon="6.18618">
        <ele>2392.86</ele>
        <time>2013-03-09T16:01:36Z</time>
      </trkpt>
      <trkpt lat="45.20215" lon="6.18622">
        <ele>2395.26</ele>
        <time>2013-03-09T16:01:51Z</time>
      </trkpt>
      <trkpt lat="45.20218" lon="6.1862">
        <ele>2396.7</ele>
        <time>2013-03-09T16:02:07Z</time>
      </trkpt>
      <trkpt lat="45.20226" lon="6.18613">
        <ele>2398.15</ele>
        <time>2013-03-09T16:02:25Z</time>
      </trkpt>
      <trkpt lat="45.2023" lon="6.18605">
        <ele>2400.07</ele>
        <time>2013-03-09T16:02:39Z</time>
      </trkpt>
      <trkpt lat="45.20239" lon="6.18598">
        <ele>2402.95</ele>
        <time>2013-03-09T16:02:54Z</time>
      </trkpt>
      <trkpt lat="45.20243" lon="6.18593">
        <ele>2405.36</ele>
        <time>2013-03-09T16:03:11Z</time>
      </trkpt>
      <trkpt lat="45.2024" lon="6.18594">
        <ele>2405.84</ele>
        <time>2013-03-09T16:03:32Z</time>
      </trkpt>
      <trkpt lat="45.2024" lon="6.18593">
        <ele>2405.84</ele>
        <time>2013-03-09T16:04:02Z</time>
      </trkpt>
      <trkpt lat="45.20239" lon="6.18595">
        <ele>2406.32</ele>
        <time>2013-03-09T16:04:35Z</time>
      </trkpt>
      <trkpt lat="45.20238" lon="6.18598">
        <ele>2406.32</ele>
        <time>2013-03-09T16:05:08Z</time>
      </trkpt>
      <trkpt lat="45.20243" lon="6.18594">
        <ele>2406.32</ele>
        <time>2013-03-09T16:05:23Z</time>
      </trkpt>
      <trkpt lat="45.20246" lon="6.18594">
        <ele>2406.32</ele>
        <time>2013-03-09T16:05:46Z</time>
      </trkpt>
      <trkpt lat="45.20247" lon="6.18593">
        <ele>2406.32</ele>
        <time>2013-03-09T16:05:47Z</time>
      </trkpt>
      <trkpt lat="45.20251" lon="6.1859">
        <ele>2407.28</ele>
        <time>2013-03-09T16:05:52Z</time>
      </trkpt>
      <trkpt lat="45.20267" lon="6.1858">
        <ele>2408.24</ele>
        <time>2013-03-09T16:06:07Z</time>
      </trkpt>
      <trkpt lat="45.20274" lon="6.18575">
        <ele>2408.72</ele>
        <time>2013-03-09T16:06:15Z</time>
      </trkpt>
      <trkpt lat="45.20283" lon="6.18564">
        <ele>2410.64</ele>
        <time>2013-03-09T16:06:30Z</time>
      </trkpt>
      <trkpt lat="45.20292" lon="6.18553">
        <ele>2412.57</ele>
        <time>2013-03-09T16:06:44Z</time>
      </trkpt>
      <trkpt lat="45.20299" lon="6.18546">
        <ele>2414.01</ele>
        <time>2013-03-09T16:06:55Z</time>
      </trkpt>
      <trkpt lat="45.20308" lon="6.18539">
        <ele>2414.97</ele>
        <time>2013-03-09T16:07:08Z</time>
      </trkpt>
      <trkpt lat="45.20316" lon="6.18537">
        <ele>2416.89</ele>
        <time>2013-03-09T16:07:19Z</time>
      </trkpt>
      <trkpt lat="45.20315" lon="6.18536">
        <ele>2417.37</ele>
        <time>2013-03-09T16:07:36Z</time>
      </trkpt>
      <trkpt lat="45.20315" lon="6.18537">
        <ele>2417.85</ele>
        <time>2013-03-09T16:07:58Z</time>
      </trkpt>
      <trkpt lat="45.20315" lon="6.18536">
        <ele>2417.85</ele>
        <time>2013-03-09T16:08:19Z</time>
      </trkpt>
      <trkpt lat="45.20315" lon="6.18536">
        <ele>2417.85</ele>
        <time>2013-03-09T16:08:38Z</time>
      </trkpt>
      <trkpt lat="45.20321" lon="6.18529">
        <ele>2418.33</ele>
        <time>2013-03-09T16:08:50Z</time>
      </trkpt>
      <trkpt lat="45.2033" lon="6.18524">
        <ele>2420.74</ele>
        <time>2013-03-09T16:09:04Z</time>
      </trkpt>
      <trkpt lat="45.20339" lon="6.18518">
        <ele>2423.62</ele>
        <time>2013-03-09T16:09:17Z</time>
      </trkpt>
      <trkpt lat="45.20346" lon="6.1851">
        <ele>2426.02</ele>
        <time>2013-03-09T16:09:30Z</time>
      </trkpt>
      <trkpt lat="45.20347" lon="6.18495">
        <ele>2428.43</ele>
        <time>2013-03-09T16:09:44Z</time>
      </trkpt>
      <trkpt lat="45.2035" lon="6.18482">
        <ele>2431.31</ele>
        <time>2013-03-09T16:09:57Z</time>
      </trkpt>
      <trkpt lat="45.20353" lon="6.18473">
        <ele>2433.23</ele>
        <time>2013-03-09T16:10:09Z</time>
      </trkpt>
      <trkpt lat="45.20357" lon="6.18465">
        <ele>2436.12</ele>
        <time>2013-03-09T16:10:24Z</time>
      </trkpt>
      <trkpt lat="45.2036" lon="6.18455">
        <ele>2438.04</ele>
        <time>2013-03-09T16:10:37Z</time>
      </trkpt>
      <trkpt lat="45.20364" lon="6.18448">
        <ele>2439.96</ele>
        <time>2013-03-09T16:10:50Z</time>
      </trkpt>
      <trkpt lat="45.20366" lon="6.18447">
        <ele>2440.44</ele>
        <time>2013-03-09T16:10:53Z</time>
      </trkpt>
      <trkpt lat="45.20375" lon="6.18441">
        <ele>2442.37</ele>
        <time>2013-03-09T16:11:05Z</time>
      </trkpt>
      <trkpt lat="45.20381" lon="6.18437">
        <ele>2444.29</ele>
        <time>2013-03-09T16:11:18Z</time>
      </trkpt>
      <trkpt lat="45.20389" lon="6.18432">
        <ele>2445.73</ele>
        <time>2013-03-09T16:11:29Z</time>
      </trkpt>
      <trkpt lat="45.20393" lon="6.18429">
        <ele>2447.17</ele>
        <time>2013-03-09T16:11:35Z</time>
      </trkpt>
      <trkpt lat="45.20404" lon="6.18423">
        <ele>2449.1</ele>
        <time>2013-03-09T16:11:51Z</time>
      </trkpt>
      <trkpt lat="45.20412" lon="6.18417">
        <ele>2451.5</ele>
        <time>2013-03-09T16:12:04Z</time>
      </trkpt>
      <trkpt lat="45.2042" lon="6.1841">
        <ele>2452.94</ele>
        <time>2013-03-09T16:12:16Z</time>
      </trkpt>
      <trkpt lat="45.20428" lon="6.18402">
        <ele>2454.38</ele>
        <time>2013-03-09T16:12:28Z</time>
      </trkpt>
      <trkpt lat="45.2043" lon="6.18398">
        <ele>2454.86</ele>
        <time>2013-03-09T16:12:31Z</time>
      </trkpt>
      <trkpt lat="45.20436" lon="6.1839">
        <ele>2457.27</ele>
        <time>2013-03-09T16:12:44Z</time>
      </trkpt>
      <trkpt lat="45.20438" lon="6.18385">
        <ele>2458.71</ele>
        <time>2013-03-09T16:12:59Z</time>
      </trkpt>
      <trkpt lat="45.20445" lon="6.18376">
        <ele>2461.11</ele>
        <time>2013-03-09T16:13:13Z</time>
      </trkpt>
      <trkpt lat="45.2045" lon="6.18365">
        <ele>2463.52</ele>
        <time>2013-03-09T16:13:28Z</time>
      </trkpt>
      <trkpt lat="45.20456" lon="6.18357">
        <ele>2465.92</ele>
        <time>2013-03-09T16:13:41Z</time>
      </trkpt>
      <trkpt lat="45.20461" lon="6.18346">
        <ele>2468.32</ele>
        <time>2013-03-09T16:13:57Z</time>
      </trkpt>
      <trkpt lat="45.20466" lon="6.18335">
        <ele>2471.21</ele>
        <time>2013-03-09T16:14:12Z</time>
      </trkpt>
      <trkpt lat="45.20468" lon="6.1832">
        <ele>2473.61</ele>
        <time>2013-03-09T16:14:28Z</time>
      </trkpt>
      <trkpt lat="45.20468" lon="6.18308">
        <ele>2476.49</ele>
        <time>2013-03-09T16:14:42Z</time>
      </trkpt>
      <trkpt lat="45.20467" lon="6.18294">
        <ele>2479.38</ele>
        <time>2013-03-09T16:14:58Z</time>
      </trkpt>
      <trkpt lat="45.20466" lon="6.18283">
        <ele>2481.3</ele>
        <time>2013-03-09T16:15:12Z</time>
      </trkpt>
      <trkpt lat="45.20466" lon="6.18274">
        <ele>2484.18</ele>
        <time>2013-03-09T16:15:25Z</time>
      </trkpt>
      <trkpt lat="45.20466" lon="6.18262">
        <ele>2487.07</ele>
        <time>2013-03-09T16:15:40Z</time>
      </trkpt>
      <trkpt lat="45.20466" lon="6.18252">
        <ele>2488.99</ele>
        <time>2013-03-09T16:15:53Z</time>
      </trkpt>
      <trkpt lat="45.20466" lon="6.18241">
        <ele>2491.87</ele>
        <time>2013-03-09T16:16:07Z</time>
      </trkpt>
      <trkpt lat="45.20467" lon="6.18231">
        <ele>2493.8</ele>
        <time>2013-03-09T16:16:20Z</time>
      </trkpt>
      <trkpt lat="45.20467" lon="6.1822">
        <ele>2496.68</ele>
        <time>2013-03-09T16:16:34Z</time>
      </trkpt>
      <trkpt lat="45.2047" lon="6.18217">
        <ele>2498.12</ele>
        <time>2013-03-09T16:16:53Z</time>
      </trkpt>
      <trkpt lat="45.2047" lon="6.18203">
        <ele>2500.05</ele>
        <time>2013-03-09T16:17:08Z</time>
      </trkpt>
      <trkpt lat="45.20471" lon="6.18194">
        <ele>2501.49</ele>
        <time>2013-03-09T16:17:19Z</time>
      </trkpt>
      <trkpt lat="45.20469" lon="6.18183">
        <ele>2504.37</ele>
        <time>2013-03-09T16:17:33Z</time>
      </trkpt>
      <trkpt lat="45.2047" lon="6.18174">
        <ele>2507.26</ele>
        <time>2013-03-09T16:17:46Z</time>
      </trkpt>
      <trkpt lat="45.20471" lon="6.18163">
        <ele>2509.66</ele>
        <time>2013-03-09T16:18:00Z</time>
      </trkpt>
      <trkpt lat="45.2047" lon="6.18152">
        <ele>2512.06</ele>
        <time>2013-03-09T16:18:13Z</time>
      </trkpt>
      <trkpt lat="45.20474" lon="6.18141">
        <ele>2514.95</ele>
        <time>2013-03-09T16:18:26Z</time>
      </trkpt>
      <trkpt lat="45.20473" lon="6.18131">
        <ele>2517.35</ele>
        <time>2013-03-09T16:18:38Z</time>
      </trkpt>
      <trkpt lat="45.20471" lon="6.18118">
        <ele>2519.75</ele>
        <time>2013-03-09T16:18:53Z</time>
      </trkpt>
      <trkpt lat="45.20469" lon="6.18108">
        <ele>2522.64</ele>
        <time>2013-03-09T16:19:07Z</time>
      </trkpt>
      <trkpt lat="45.20467" lon="6.18092">
        <ele>2524.08</ele>
        <time>2013-03-09T16:19:21Z</time>
      </trkpt>
      <trkpt lat="45.20464" lon="6.18075">
        <ele>2525.52</ele>
        <time>2013-03-09T16:19:37Z</time>
      </trkpt>
      <trkpt lat="45.20467" lon="6.18069">
        <ele>2527.44</ele>
        <time>2013-03-09T16:19:52Z</time>
      </trkpt>
      <trkpt lat="45.20467" lon="6.18069">
        <ele>2527.92</ele>
        <time>2013-03-09T16:20:08Z</time>
      </trkpt>
      <trkpt lat="45.20467" lon="6.18069">
        <ele>2527.92</ele>
        <time>2013-03-09T16:20:22Z</time>
      </trkpt>
      <trkpt lat="45.20466" lon="6.18069">
        <ele>2527.92</ele>
        <time>2013-03-09T16:20:43Z</time>
      </trkpt>
      <trkpt lat="45.20467" lon="6.1807">
        <ele>2527.92</ele>
        <time>2013-03-09T16:20:59Z</time>
      </trkpt>
      <trkpt lat="45.20467" lon="6.1807">
        <ele>2527.92</ele>
        <time>2013-03-09T16:21:16Z</time>
      </trkpt>
      <trkpt lat="45.20467" lon="6.1807">
        <ele>2527.92</ele>
        <time>2013-03-09T16:21:29Z</time>
      </trkpt>
      <trkpt lat="45.20467" lon="6.1807">
        <ele>2527.92</ele>
        <time>2013-03-09T16:21:44Z</time>
      </trkpt>
      <trkpt lat="45.20468" lon="6.18071">
        <ele>2527.92</ele>
        <time>2013-03-09T16:21:59Z</time>
      </trkpt>
      <trkpt lat="45.20468" lon="6.18071">
        <ele>2527.92</ele>
        <time>2013-03-09T16:22:13Z</time>
      </trkpt>
      <trkpt lat="45.20468" lon="6.18071">
        <ele>2528.4</ele>
        <time>2013-03-09T16:22:37Z</time>
      </trkpt>
      <trkpt lat="45.20469" lon="6.18071">
        <ele>2528.4</ele>
        <time>2013-03-09T16:23:08Z</time>
      </trkpt>
      <trkpt lat="45.20469" lon="6.18071">
        <ele>2528.4</ele>
        <time>2013-03-09T16:23:29Z</time>
      </trkpt>
      <trkpt lat="45.20469" lon="6.18071">
        <ele>2528.4</ele>
        <time>2013-03-09T16:23:50Z</time>
      </trkpt>
      <trkpt lat="45.20469" lon="6.1807">
        <ele>2528.4</ele>
        <time>2013-03-09T16:24:12Z</time>
      </trkpt>
      <trkpt lat="45.20468" lon="6.1807">
        <ele>2528.4</ele>
        <time>2013-03-09T16:24:29Z</time>
      </trkpt>
      <trkpt lat="45.20467" lon="6.1807">
        <ele>2528.4</ele>
        <time>2013-03-09T16:24:46Z</time>
      </trkpt>
      <trkpt lat="45.20467" lon="6.18069">
        <ele>2528.89</ele>
        <time>2013-03-09T16:25:05Z</time>
      </trkpt>
      <trkpt lat="45.20467" lon="6.18069">
        <ele>2528.89</ele>
        <time>2013-03-09T16:25:24Z</time>
      </trkpt>
      <trkpt lat="45.20467" lon="6.1807">
        <ele>2528.89</ele>
        <time>2013-03-09T16:25:36Z</time>
      </trkpt>
      <trkpt lat="45.20468" lon="6.1807">
        <ele>2528.89</ele>
        <time>2013-03-09T16:25:58Z</time>
      </trkpt>
      <trkpt lat="45.20467" lon="6.1807">
        <ele>2528.89</ele>
        <time>2013-03-09T16:26:11Z</time>
      </trkpt>
      <trkpt lat="45.20466" lon="6.1807">
        <ele>2528.89</ele>
        <time>2013-03-09T16:26:34Z</time>
      </trkpt>
      <trkpt lat="45.20466" lon="6.1807">
        <ele>2528.89</ele>
        <time>2013-03-09T16:26:56Z</time>
      </trkpt>
      <trkpt lat="45.20467" lon="6.18071">
        <ele>2528.89</ele>
        <time>2013-03-09T16:27:14Z</time>
      </trkpt>
      <trkpt lat="45.20467" lon="6.18072">
        <ele>2528.89</ele>
        <time>2013-03-09T16:27:40Z</time>
      </trkpt>
      <trkpt lat="45.20466" lon="6.18071">
        <ele>2529.37</ele>
        <time>2013-03-09T16:28:04Z</time>
      </trkpt>
      <trkpt lat="45.20466" lon="6.1807">
        <ele>2529.37</ele>
        <time>2013-03-09T16:28:23Z</time>
      </trkpt>
      <trkpt lat="45.20466" lon="6.1807">
        <ele>2529.37</ele>
        <time>2013-03-09T16:28:47Z</time>
      </trkpt>
      <trkpt lat="45.20467" lon="6.1807">
        <ele>2529.37</ele>
        <time>2013-03-09T16:29:02Z</time>
      </trkpt>
      <trkpt lat="45.20467" lon="6.18071">
        <ele>2529.85</ele>
        <time>2013-03-09T16:29:22Z</time>
      </trkpt>
      <trkpt lat="45.20467" lon="6.18072">
        <ele>2529.85</ele>
        <time>2013-03-09T16:29:36Z</time>
      </trkpt>
      <trkpt lat="45.20467" lon="6.18072">
        <ele>2529.85</ele>
        <time>2013-03-09T16:30:00Z</time>
      </trkpt>
      <trkpt lat="45.20467" lon="6.18072">
        <ele>2529.85</ele>
        <time>2013-03-09T16:30:15Z</time>
      </trkpt>
      <trkpt lat="45.20466" lon="6.18072">
        <ele>2529.85</ele>
        <time>2013-03-09T16:30:32Z</time>
      </trkpt>
      <trkpt lat="45.20464" lon="6.18073">
        <ele>2529.85</ele>
        <time>2013-03-09T16:30:51Z</time>
      </trkpt>
      <trkpt lat="45.20466" lon="6.18072">
        <ele>2530.33</ele>
        <time>2013-03-09T16:31:19Z</time>
      </trkpt>
      <trkpt lat="45.20466" lon="6.1807">
        <ele>2530.33</ele>
        <time>2013-03-09T16:31:45Z</time>
      </trkpt>
      <trkpt lat="45.20467" lon="6.18068">
        <ele>2530.33</ele>
        <time>2013-03-09T16:32:10Z</time>
      </trkpt>
      <trkpt lat="45.20467" lon="6.18071">
        <ele>2530.33</ele>
        <time>2013-03-09T16:32:28Z</time>
      </trkpt>
      <trkpt lat="45.20467" lon="6.18071">
        <ele>2530.33</ele>
        <time>2013-03-09T16:32:47Z</time>
      </trkpt>
      <trkpt lat="45.20467" lon="6.18072">
        <ele>2530.33</ele>
        <time>2013-03-09T16:33:03Z</time>
      </trkpt>
      <trkpt lat="45.20466" lon="6.18072">
        <ele>2530.33</ele>
        <time>2013-03-09T16:33:28Z</time>
      </trkpt>
      <trkpt lat="45.20466" lon="6.18073">
        <ele>2530.33</ele>
        <time>2013-03-09T16:33:48Z</time>
      </trkpt>
      <trkpt lat="45.20465" lon="6.18073">
        <ele>2530.33</ele>
        <time>2013-03-09T16:34:13Z</time>
      </trkpt>
      <trkpt lat="45.20465" lon="6.18072">
        <ele>2530.81</ele>
        <time>2013-03-09T16:34:46Z</time>
      </trkpt>
      <trkpt lat="45.20465" lon="6.18072">
        <ele>2530.81</ele>
        <time>2013-03-09T16:35:12Z</time>
      </trkpt>
      <trkpt lat="45.20464" lon="6.18071">
        <ele>2530.81</ele>
        <time>2013-03-09T16:35:41Z</time>
      </trkpt>
      <trkpt lat="45.20465" lon="6.18071">
        <ele>2530.81</ele>
        <time>2013-03-09T16:36:03Z</time>
      </trkpt>
      <trkpt lat="45.20465" lon="6.18072">
        <ele>2529.85</ele>
        <time>2013-03-09T16:36:32Z</time>
      </trkpt>
      <trkpt lat="45.20465" lon="6.18071">
        <ele>2529.85</ele>
        <time>2013-03-09T16:36:51Z</time>
      </trkpt>
      <trkpt lat="45.20465" lon="6.18071">
        <ele>2529.37</ele>
        <time>2013-03-09T16:37:10Z</time>
      </trkpt>
      <trkpt lat="45.20465" lon="6.18072">
        <ele>2529.85</ele>
        <time>2013-03-09T16:37:23Z</time>
      </trkpt>
      <trkpt lat="45.20465" lon="6.18072">
        <ele>2529.85</ele>
        <time>2013-03-09T16:37:47Z</time>
      </trkpt>
      <trkpt lat="45.20464" lon="6.18072">
        <ele>2529.85</ele>
        <time>2013-03-09T16:38:16Z</time>
      </trkpt>
      <trkpt lat="45.20465" lon="6.18073">
        <ele>2529.85</ele>
        <time>2013-03-09T16:38:43Z</time>
      </trkpt>
      <trkpt lat="45.20466" lon="6.18072">
        <ele>2530.81</ele>
        <time>2013-03-09T16:39:28Z</time>
      </trkpt>
      <trkpt lat="45.20466" lon="6.18073">
        <ele>2530.81</ele>
        <time>2013-03-09T16:39:51Z</time>
      </trkpt>
      <trkpt lat="45.20466" lon="6.18072">
        <ele>2531.29</ele>
        <time>2013-03-09T16:40:10Z</time>
      </trkpt>
      <trkpt lat="45.20467" lon="6.18073">
        <ele>2531.29</ele>
        <time>2013-03-09T16:40:39Z</time>
      </trkpt>
      <trkpt lat="45.20467" lon="6.18073">
        <ele>2531.29</ele>
        <time>2013-03-09T16:41:00Z</time>
      </trkpt>
      <trkpt lat="45.20466" lon="6.18073">
        <ele>2531.29</ele>
        <time>2013-03-09T16:41:27Z</time>
      </trkpt>
      <trkpt lat="45.20466" lon="6.18073">
        <ele>2531.29</ele>
        <time>2013-03-09T16:41:54Z</time>
      </trkpt>
      <trkpt lat="45.20466" lon="6.18074">
        <ele>2531.77</ele>
        <time>2013-03-09T16:42:19Z</time>
      </trkpt>
      <trkpt lat="45.20467" lon="6.18074">
        <ele>2531.77</ele>
        <time>2013-03-09T16:42:37Z</time>
      </trkpt>
      <trkpt lat="45.20467" lon="6.18074">
        <ele>2531.77</ele>
        <time>2013-03-09T16:42:50Z</time>
      </trkpt>
      <trkpt lat="45.20466" lon="6.18075">
        <ele>2531.77</ele>
        <time>2013-03-09T16:43:13Z</time>
      </trkpt>
      <trkpt lat="45.20466" lon="6.18074">
        <ele>2532.73</ele>
        <time>2013-03-09T16:43:20Z</time>
      </trkpt>
      <trkpt lat="45.20466" lon="6.18075">
        <ele>2534.65</ele>
        <time>2013-03-09T16:43:23Z</time>
      </trkpt>
      <trkpt lat="45.20467" lon="6.18075">
        <ele>2533.21</ele>
        <time>2013-03-09T16:43:43Z</time>
      </trkpt>
      <trkpt lat="45.20467" lon="6.18076">
        <ele>2530.81</ele>
        <time>2013-03-09T16:43:55Z</time>
      </trkpt>
      <trkpt lat="45.20467" lon="6.18077">
        <ele>2529.85</ele>
        <time>2013-03-09T16:44:19Z</time>
      </trkpt>
      <trkpt lat="45.20467" lon="6.18076">
        <ele>2529.85</ele>
        <time>2013-03-09T16:44:46Z</time>
      </trkpt>
      <trkpt lat="45.20467" lon="6.18074">
        <ele>2529.85</ele>
        <time>2013-03-09T16:45:00Z</time>
      </trkpt>
      <trkpt lat="45.20467" lon="6.18072">
        <ele>2531.29</ele>
        <time>2013-03-09T16:45:25Z</time>
      </trkpt>
      <trkpt lat="45.20467" lon="6.18072">
        <ele>2531.29</ele>
        <time>2013-03-09T16:45:50Z</time>
      </trkpt>
      <trkpt lat="45.20466" lon="6.18072">
        <ele>2531.77</ele>
        <time>2013-03-09T16:46:10Z</time>
      </trkpt>
      <trkpt lat="45.20465" lon="6.18072">
        <ele>2531.77</ele>
        <time>2013-03-09T16:46:39Z</time>
      </trkpt>
      <trkpt lat="45.20465" lon="6.18072">
        <ele>2537.54</ele>
        <time>2013-03-09T16:46:50Z</time>
      </trkpt>
      <trkpt lat="45.20465" lon="6.18072">
        <ele>2536.1</ele>
        <time>2013-03-09T16:46:51Z</time>
      </trkpt>
      <trkpt lat="45.20465" lon="6.18072">
        <ele>2531.77</ele>
        <time>2013-03-09T16:46:53Z</time>
      </trkpt>
      <trkpt lat="45.20465" lon="6.18072">
        <ele>2531.77</ele>
        <time>2013-03-09T16:46:54Z</time>
      </trkpt>
      <trkpt lat="45.20465" lon="6.18074">
        <ele>2528.4</ele>
        <time>2013-03-09T16:47:15Z</time>
      </trkpt>
      <trkpt lat="45.20466" lon="6.18073">
        <ele>2537.06</ele>
        <time>2013-03-09T16:47:19Z</time>
      </trkpt>
      <trkpt lat="45.20466" lon="6.18073">
        <ele>2536.1</ele>
        <time>2013-03-09T16:47:20Z</time>
      </trkpt>
      <trkpt lat="45.20466" lon="6.18073">
        <ele>2527.92</ele>
        <time>2013-03-09T16:47:22Z</time>
      </trkpt>
      <trkpt lat="45.20466" lon="6.18073">
        <ele>2531.77</ele>
        <time>2013-03-09T16:47:23Z</time>
      </trkpt>
      <trkpt lat="45.20466" lon="6.18073">
        <ele>2531.77</ele>
        <time>2013-03-09T16:47:41Z</time>
      </trkpt>
      <trkpt lat="45.20466" lon="6.18073">
        <ele>2531.77</ele>
        <time>2013-03-09T16:48:06Z</time>
      </trkpt>
      <trkpt lat="45.20466" lon="6.18073">
        <ele>2531.77</ele>
        <time>2013-03-09T16:48:25Z</time>
      </trkpt>
      <trkpt lat="45.20467" lon="6.18074">
        <ele>2531.29</ele>
        <time>2013-03-09T16:48:46Z</time>
      </trkpt>
      <trkpt lat="45.20466" lon="6.18074">
        <ele>2531.29</ele>
        <time>2013-03-09T16:49:12Z</time>
      </trkpt>
      <trkpt lat="45.20467" lon="6.18074">
        <ele>2530.33</ele>
        <time>2013-03-09T16:49:30Z</time>
      </trkpt>
      <trkpt lat="45.20465" lon="6.18071">
        <ele>2533.21</ele>
        <time>2013-03-09T16:49:54Z</time>
      </trkpt>
      <trkpt lat="45.20465" lon="6.18071">
        <ele>2533.21</ele>
        <time>2013-03-09T16:49:55Z</time>
      </trkpt>
      <trkpt lat="45.20464" lon="6.18073">
        <ele>2533.69</ele>
        <time>2013-03-09T16:50:09Z</time>
      </trkpt>
      <trkpt lat="45.20464" lon="6.18073">
        <ele>2531.77</ele>
        <time>2013-03-09T16:50:23Z</time>
      </trkpt>
      <trkpt lat="45.20468" lon="6.18074">
        <ele>2531.77</ele>
        <time>2013-03-09T16:50:47Z</time>
      </trkpt>
      <trkpt lat="45.20468" lon="6.18074">
        <ele>2532.73</ele>
        <time>2013-03-09T16:51:07Z</time>
      </trkpt>
      <trkpt lat="45.20467" lon="6.18074">
        <ele>2532.73</ele>
        <time>2013-03-09T16:51:30Z</time>
      </trkpt>
      <trkpt lat="45.20468" lon="6.18074">
        <ele>2532.73</ele>
        <time>2013-03-09T16:51:56Z</time>
      </trkpt>
      <trkpt lat="45.20468" lon="6.18074">
        <ele>2532.73</ele>
        <time>2013-03-09T16:52:11Z</time>
      </trkpt>
      <trkpt lat="45.20467" lon="6.18074">
        <ele>2532.73</ele>
        <time>2013-03-09T16:52:36Z</time>
      </trkpt>
      <trkpt lat="45.20467" lon="6.18073">
        <ele>2532.73</ele>
        <time>2013-03-09T16:53:03Z</time>
      </trkpt>
      <trkpt lat="45.20465" lon="6.18073">
        <ele>2533.21</ele>
        <time>2013-03-09T16:53:26Z</time>
      </trkpt>
      <trkpt lat="45.20465" lon="6.18074">
        <ele>2533.21</ele>
        <time>2013-03-09T16:53:47Z</time>
      </trkpt>
      <trkpt lat="45.20465" lon="6.18073">
        <ele>2533.21</ele>
        <time>2013-03-09T16:54:03Z</time>
      </trkpt>
      <trkpt lat="45.20465" lon="6.18073">
        <ele>2533.69</ele>
        <time>2013-03-09T16:54:24Z</time>
      </trkpt>
      <trkpt lat="45.20465" lon="6.18073">
        <ele>2533.69</ele>
        <time>2013-03-09T16:54:40Z</time>
      </trkpt>
      <trkpt lat="45.20465" lon="6.18072">
        <ele>2533.69</ele>
        <time>2013-03-09T16:54:58Z</time>
      </trkpt>
      <trkpt lat="45.20465" lon="6.18072">
        <ele>2534.17</ele>
        <time>2013-03-09T16:55:15Z</time>
      </trkpt>
      <trkpt lat="45.20465" lon="6.1807">
        <ele>2534.17</ele>
        <time>2013-03-09T16:55:27Z</time>
      </trkpt>
      <trkpt lat="45.20464" lon="6.1807">
        <ele>2532.25</ele>
        <time>2013-03-09T16:55:43Z</time>
      </trkpt>
      <trkpt lat="45.20463" lon="6.18069">
        <ele>2531.77</ele>
        <time>2013-03-09T16:55:54Z</time>
      </trkpt>
      <trkpt lat="45.20463" lon="6.18068">
        <ele>2534.65</ele>
        <time>2013-03-09T16:56:02Z</time>
      </trkpt>
      <trkpt lat="45.20463" lon="6.18068">
        <ele>2533.21</ele>
        <time>2013-03-09T16:56:09Z</time>
      </trkpt>
      <trkpt lat="45.20464" lon="6.18069">
        <ele>2536.1</ele>
        <time>2013-03-09T16:56:26Z</time>
      </trkpt>
      <trkpt lat="45.20463" lon="6.18068">
        <ele>2532.73</ele>
        <time>2013-03-09T16:56:34Z</time>
      </trkpt>
      <trkpt lat="45.20466" lon="6.1807">
        <ele>2533.69</ele>
        <time>2013-03-09T16:56:53Z</time>
      </trkpt>
      <trkpt lat="45.20466" lon="6.18069">
        <ele>2533.21</ele>
        <time>2013-03-09T16:57:11Z</time>
      </trkpt>
      <trkpt lat="45.20466" lon="6.18069">
        <ele>2536.1</ele>
        <time>2013-03-09T16:57:19Z</time>
      </trkpt>
      <trkpt lat="45.2047" lon="6.18067">
        <ele>2532.73</ele>
        <time>2013-03-09T16:57:32Z</time>
      </trkpt>
      <trkpt lat="45.20472" lon="6.18066">
        <ele>2532.25</ele>
        <time>2013-03-09T16:57:34Z</time>
      </trkpt>
      <trkpt lat="45.20475" lon="6.1806">
        <ele>2532.73</ele>
        <time>2013-03-09T16:57:38Z</time>
      </trkpt>
      <trkpt lat="45.20478" lon="6.18048">
        <ele>2534.65</ele>
        <time>2013-03-09T16:57:45Z</time>
      </trkpt>
      <trkpt lat="45.20478" lon="6.18045">
        <ele>2535.13</ele>
        <time>2013-03-09T16:57:47Z</time>
      </trkpt>
      <trkpt lat="45.20474" lon="6.18033">
        <ele>2534.65</ele>
        <time>2013-03-09T16:58:02Z</time>
      </trkpt>
      <trkpt lat="45.20475" lon="6.18032">
        <ele>2534.65</ele>
        <time>2013-03-09T16:58:14Z</time>
      </trkpt>
      <trkpt lat="45.20475" lon="6.18031">
        <ele>2534.17</ele>
        <time>2013-03-09T16:58:33Z</time>
      </trkpt>
      <trkpt lat="45.20471" lon="6.18018">
        <ele>2532.73</ele>
        <time>2013-03-09T16:58:45Z</time>
      </trkpt>
      <trkpt lat="45.20482" lon="6.1799">
        <ele>2526.48</ele>
        <time>2013-03-09T16:58:49Z</time>
      </trkpt>
      <trkpt lat="45.20488" lon="6.17975">
        <ele>2521.68</ele>
        <time>2013-03-09T16:58:51Z</time>
      </trkpt>
      <trkpt lat="45.20488" lon="6.17959">
        <ele>2516.87</ele>
        <time>2013-03-09T16:58:53Z</time>
      </trkpt>
      <trkpt lat="45.20486" lon="6.17943">
        <ele>2511.58</ele>
        <time>2013-03-09T16:58:55Z</time>
      </trkpt>
      <trkpt lat="45.20485" lon="6.17919">
        <ele>2504.37</ele>
        <time>2013-03-09T16:58:58Z</time>
      </trkpt>
      <trkpt lat="45.20478" lon="6.17901">
        <ele>2500.53</ele>
        <time>2013-03-09T16:59:01Z</time>
      </trkpt>
      <trkpt lat="45.20474" lon="6.17888">
        <ele>2499.57</ele>
        <time>2013-03-09T16:59:03Z</time>
      </trkpt>
      <trkpt lat="45.20467" lon="6.17848">
        <ele>2496.2</ele>
        <time>2013-03-09T16:59:08Z</time>
      </trkpt>
      <trkpt lat="45.20465" lon="6.1783">
        <ele>2491.87</ele>
        <time>2013-03-09T16:59:10Z</time>
      </trkpt>
      <trkpt lat="45.20462" lon="6.17812">
        <ele>2485.63</ele>
        <time>2013-03-09T16:59:12Z</time>
      </trkpt>
      <trkpt lat="45.2046" lon="6.17803">
        <ele>2482.26</ele>
        <time>2013-03-09T16:59:13Z</time>
      </trkpt>
      <trkpt lat="45.20457" lon="6.17796">
        <ele>2478.9</ele>
        <time>2013-03-09T16:59:14Z</time>
      </trkpt>
      <trkpt lat="45.20454" lon="6.17788">
        <ele>2475.53</ele>
        <time>2013-03-09T16:59:15Z</time>
      </trkpt>
      <trkpt lat="45.20452" lon="6.1778">
        <ele>2472.65</ele>
        <time>2013-03-09T16:59:16Z</time>
      </trkpt>
      <trkpt lat="45.20451" lon="6.17772">
        <ele>2469.76</ele>
        <time>2013-03-09T16:59:17Z</time>
      </trkpt>
      <trkpt lat="45.2045" lon="6.17763">
        <ele>2467.36</ele>
        <time>2013-03-09T16:59:18Z</time>
      </trkpt>
      <trkpt lat="45.20449" lon="6.17753">
        <ele>2467.36</ele>
        <time>2013-03-09T16:59:19Z</time>
      </trkpt>
      <trkpt lat="45.20449" lon="6.17733">
        <ele>2464</ele>
        <time>2013-03-09T16:59:21Z</time>
      </trkpt>
      <trkpt lat="45.20448" lon="6.17723">
        <ele>2462.55</ele>
        <time>2013-03-09T16:59:22Z</time>
      </trkpt>
      <trkpt lat="45.20436" lon="6.17676">
        <ele>2457.27</ele>
        <time>2013-03-09T16:59:27Z</time>
      </trkpt>
      <trkpt lat="45.20432" lon="6.17665">
        <ele>2455.82</ele>
        <time>2013-03-09T16:59:28Z</time>
      </trkpt>
      <trkpt lat="45.20423" lon="6.17634">
        <ele>2450.54</ele>
        <time>2013-03-09T16:59:32Z</time>
      </trkpt>
      <trkpt lat="45.2042" lon="6.17627">
        <ele>2449.1</ele>
        <time>2013-03-09T16:59:33Z</time>
      </trkpt>
      <trkpt lat="45.20412" lon="6.17612">
        <ele>2446.21</ele>
        <time>2013-03-09T16:59:35Z</time>
      </trkpt>
      <trkpt lat="45.20402" lon="6.17594">
        <ele>2441.89</ele>
        <time>2013-03-09T16:59:37Z</time>
      </trkpt>
      <trkpt lat="45.20394" lon="6.17576">
        <ele>2438.52</ele>
        <time>2013-03-09T16:59:39Z</time>
      </trkpt>
      <trkpt lat="45.20386" lon="6.1756">
        <ele>2434.68</ele>
        <time>2013-03-09T16:59:41Z</time>
      </trkpt>
      <trkpt lat="45.2038" lon="6.17553">
        <ele>2433.23</ele>
        <time>2013-03-09T16:59:42Z</time>
      </trkpt>
      <trkpt lat="45.20375" lon="6.17548">
        <ele>2431.79</ele>
        <time>2013-03-09T16:59:43Z</time>
      </trkpt>
      <trkpt lat="45.2037" lon="6.17544">
        <ele>2432.27</ele>
        <time>2013-03-09T16:59:44Z</time>
      </trkpt>
      <trkpt lat="45.20368" lon="6.17541">
        <ele>2431.79</ele>
        <time>2013-03-09T16:59:45Z</time>
      </trkpt>
      <trkpt lat="45.20366" lon="6.17539">
        <ele>2432.27</ele>
        <time>2013-03-09T16:59:46Z</time>
      </trkpt>
      <trkpt lat="45.20364" lon="6.17537">
        <ele>2432.27</ele>
        <time>2013-03-09T16:59:47Z</time>
      </trkpt>
      <trkpt lat="45.20363" lon="6.17535">
        <ele>2433.71</ele>
        <time>2013-03-09T16:59:48Z</time>
      </trkpt>
      <trkpt lat="45.20361" lon="6.17532">
        <ele>2434.68</ele>
        <time>2013-03-09T16:59:49Z</time>
      </trkpt>
      <trkpt lat="45.20358" lon="6.17525">
        <ele>2438.04</ele>
        <time>2013-03-09T16:59:52Z</time>
      </trkpt>
      <trkpt lat="45.20358" lon="6.17523">
        <ele>2438.52</ele>
        <time>2013-03-09T16:59:57Z</time>
      </trkpt>
      <trkpt lat="45.20365" lon="6.17518">
        <ele>2435.16</ele>
        <time>2013-03-09T17:00:02Z</time>
      </trkpt>
      <trkpt lat="45.20367" lon="6.17517">
        <ele>2436.6</ele>
        <time>2013-03-09T17:00:19Z</time>
      </trkpt>
      <trkpt lat="45.20367" lon="6.17517">
        <ele>2433.23</ele>
        <time>2013-03-09T17:00:23Z</time>
      </trkpt>
      <trkpt lat="45.20367" lon="6.17517">
        <ele>2434.2</ele>
        <time>2013-03-09T17:00:24Z</time>
      </trkpt>
      <trkpt lat="45.20368" lon="6.17517">
        <ele>2435.64</ele>
        <time>2013-03-09T17:00:34Z</time>
      </trkpt>
      <trkpt lat="45.20366" lon="6.17517">
        <ele>2434.2</ele>
        <time>2013-03-09T17:00:46Z</time>
      </trkpt>
      <trkpt lat="45.20368" lon="6.17523">
        <ele>2434.2</ele>
        <time>2013-03-09T17:01:03Z</time>
      </trkpt>
      <trkpt lat="45.20368" lon="6.17524">
        <ele>2434.2</ele>
        <time>2013-03-09T17:01:21Z</time>
      </trkpt>
      <trkpt lat="45.20368" lon="6.17524">
        <ele>2434.2</ele>
        <time>2013-03-09T17:01:46Z</time>
      </trkpt>
      <trkpt lat="45.20367" lon="6.17524">
        <ele>2433.71</ele>
        <time>2013-03-09T17:02:13Z</time>
      </trkpt>
      <trkpt lat="45.20367" lon="6.17521">
        <ele>2433.71</ele>
        <time>2013-03-09T17:02:38Z</time>
      </trkpt>
      <trkpt lat="45.2039" lon="6.17532">
        <ele>2435.16</ele>
        <time>2013-03-09T17:17:07Z</time>
      </trkpt>
      <trkpt lat="45.2039" lon="6.17548">
        <ele>2435.16</ele>
        <time>2013-03-09T17:17:16Z</time>
      </trkpt>
      <trkpt lat="45.20383" lon="6.17533">
        <ele>2435.16</ele>
        <time>2013-03-09T17:17:37Z</time>
      </trkpt>
      <trkpt lat="45.20378" lon="6.1752">
        <ele>2435.16</ele>
        <time>2013-03-09T17:18:14Z</time>
      </trkpt>
      <trkpt lat="45.20384" lon="6.17524">
        <ele>2435.16</ele>
        <time>2013-03-09T17:18:44Z</time>
      </trkpt>
      <trkpt lat="45.20386" lon="6.17534">
        <ele>2434.2</ele>
        <time>2013-03-09T17:19:00Z</time>
      </trkpt>
      <trkpt lat="45.20385" lon="6.1753">
        <ele>2434.2</ele>
        <time>2013-03-09T17:19:16Z</time>
      </trkpt>
      <trkpt lat="45.20369" lon="6.17487">
        <ele>2476.97</ele>
        <time>2013-03-10T05:26:08Z</time>
      </trkpt>
      <trkpt lat="45.20369" lon="6.1749">
        <ele>2476.97</ele>
        <time>2013-03-10T05:26:09Z</time>
      </trkpt>
      <trkpt lat="45.2037" lon="6.17504">
        <ele>2476.97</ele>
        <time>2013-03-10T05:26:24Z</time>
      </trkpt>
      <trkpt lat="45.20367" lon="6.17511">
        <ele>2476.97</ele>
        <time>2013-03-10T05:26:37Z</time>
      </trkpt>
      <trkpt lat="45.20365" lon="6.1752">
        <ele>2476.49</ele>
        <time>2013-03-10T05:26:57Z</time>
      </trkpt>
      <trkpt lat="45.20365" lon="6.17519">
        <ele>2476.01</ele>
        <time>2013-03-10T05:27:11Z</time>
      </trkpt>
      <trkpt lat="45.20366" lon="6.17521">
        <ele>2475.53</ele>
        <time>2013-03-10T05:27:29Z</time>
      </trkpt>
      <trkpt lat="45.20369" lon="6.17517">
        <ele>2475.53</ele>
        <time>2013-03-10T05:27:48Z</time>
      </trkpt>
      <trkpt lat="45.20369" lon="6.17517">
        <ele>2474.57</ele>
        <time>2013-03-10T05:28:12Z</time>
      </trkpt>
      <trkpt lat="45.20368" lon="6.17516">
        <ele>2474.09</ele>
        <time>2013-03-10T05:28:37Z</time>
      </trkpt>
      <trkpt lat="45.20368" lon="6.17517">
        <ele>2473.61</ele>
        <time>2013-03-10T05:29:00Z</time>
      </trkpt>
      <trkpt lat="45.20368" lon="6.17516">
        <ele>2474.09</ele>
        <time>2013-03-10T05:29:23Z</time>
      </trkpt>
      <trkpt lat="45.20366" lon="6.17522">
        <ele>2474.09</ele>
        <time>2013-03-10T05:29:39Z</time>
      </trkpt>
      <trkpt lat="45.20363" lon="6.17529">
        <ele>2474.09</ele>
        <time>2013-03-10T05:29:49Z</time>
      </trkpt>
      <trkpt lat="45.20365" lon="6.17524">
        <ele>2474.57</ele>
        <time>2013-03-10T05:30:01Z</time>
      </trkpt>
      <trkpt lat="45.20367" lon="6.17519">
        <ele>2474.09</ele>
        <time>2013-03-10T05:30:13Z</time>
      </trkpt>
      <trkpt lat="45.20366" lon="6.17515">
        <ele>2473.61</ele>
        <time>2013-03-10T05:30:31Z</time>
      </trkpt>
      <trkpt lat="45.20365" lon="6.17515">
        <ele>2472.17</ele>
        <time>2013-03-10T05:30:54Z</time>
      </trkpt>
      <trkpt lat="45.20366" lon="6.17514">
        <ele>2472.17</ele>
        <time>2013-03-10T05:31:14Z</time>
      </trkpt>
      <trkpt lat="45.20366" lon="6.17515">
        <ele>2471.69</ele>
        <time>2013-03-10T05:31:38Z</time>
      </trkpt>
      <trkpt lat="45.20365" lon="6.17516">
        <ele>2471.21</ele>
        <time>2013-03-10T05:31:50Z</time>
      </trkpt>
      <trkpt lat="45.20365" lon="6.17517">
        <ele>2470.73</ele>
        <time>2013-03-10T05:32:16Z</time>
      </trkpt>
      <trkpt lat="45.20365" lon="6.17518">
        <ele>2470.24</ele>
        <time>2013-03-10T05:32:37Z</time>
      </trkpt>
      <trkpt lat="45.20365" lon="6.17518">
        <ele>2469.76</ele>
        <time>2013-03-10T05:32:56Z</time>
      </trkpt>
      <trkpt lat="45.20364" lon="6.17521">
        <ele>2469.76</ele>
        <time>2013-03-10T05:33:08Z</time>
      </trkpt>
      <trkpt lat="45.20362" lon="6.17527">
        <ele>2469.28</ele>
        <time>2013-03-10T05:33:20Z</time>
      </trkpt>
      <trkpt lat="45.20357" lon="6.17532">
        <ele>2470.73</ele>
        <time>2013-03-10T05:33:33Z</time>
      </trkpt>
      <trkpt lat="45.20356" lon="6.17529">
        <ele>2471.21</ele>
        <time>2013-03-10T05:33:37Z</time>
      </trkpt>
      <trkpt lat="45.20348" lon="6.17507">
        <ele>2470.73</ele>
        <time>2013-03-10T05:33:52Z</time>
      </trkpt>
      <trkpt lat="45.20342" lon="6.17493">
        <ele>2470.73</ele>
        <time>2013-03-10T05:34:02Z</time>
      </trkpt>
      <trkpt lat="45.20339" lon="6.1748">
        <ele>2469.28</ele>
        <time>2013-03-10T05:34:14Z</time>
      </trkpt>
      <trkpt lat="45.20338" lon="6.17478">
        <ele>2468.8</ele>
        <time>2013-03-10T05:34:32Z</time>
      </trkpt>
      <trkpt lat="45.20337" lon="6.17477">
        <ele>2468.32</ele>
        <time>2013-03-10T05:35:00Z</time>
      </trkpt>
      <trkpt lat="45.20328" lon="6.17476">
        <ele>2467.84</ele>
        <time>2013-03-10T05:35:17Z</time>
      </trkpt>
      <trkpt lat="45.20317" lon="6.17472">
        <ele>2468.8</ele>
        <time>2013-03-10T05:35:32Z</time>
      </trkpt>
      <trkpt lat="45.20308" lon="6.17469">
        <ele>2471.69</ele>
        <time>2013-03-10T05:35:47Z</time>
      </trkpt>
      <trkpt lat="45.20299" lon="6.17465">
        <ele>2473.61</ele>
        <time>2013-03-10T05:36:01Z</time>
      </trkpt>
      <trkpt lat="45.20297" lon="6.17462">
        <ele>2475.05</ele>
        <time>2013-03-10T05:36:16Z</time>
      </trkpt>
      <trkpt lat="45.20293" lon="6.17459">
        <ele>2475.53</ele>
        <time>2013-03-10T05:36:27Z</time>
      </trkpt>
      <trkpt lat="45.20282" lon="6.17452">
        <ele>2476.01</ele>
        <time>2013-03-10T05:36:42Z</time>
      </trkpt>
      <trkpt lat="45.2027" lon="6.17441">
        <ele>2476.97</ele>
        <time>2013-03-10T05:36:57Z</time>
      </trkpt>
      <trkpt lat="45.20263" lon="6.17435">
        <ele>2477.94</ele>
        <time>2013-03-10T05:37:09Z</time>
      </trkpt>
      <trkpt lat="45.20255" lon="6.17425">
        <ele>2478.9</ele>
        <time>2013-03-10T05:37:22Z</time>
      </trkpt>
      <trkpt lat="45.20245" lon="6.17415">
        <ele>2479.86</ele>
        <time>2013-03-10T05:37:37Z</time>
      </trkpt>
      <trkpt lat="45.20235" lon="6.17411">
        <ele>2481.78</ele>
        <time>2013-03-10T05:37:50Z</time>
      </trkpt>
      <trkpt lat="45.20224" lon="6.17408">
        <ele>2483.7</ele>
        <time>2013-03-10T05:38:05Z</time>
      </trkpt>
      <trkpt lat="45.20212" lon="6.17408">
        <ele>2485.63</ele>
        <time>2013-03-10T05:38:20Z</time>
      </trkpt>
      <trkpt lat="45.20208" lon="6.17407">
        <ele>2486.11</ele>
        <time>2013-03-10T05:38:26Z</time>
      </trkpt>
      <trkpt lat="45.20194" lon="6.17404">
        <ele>2486.59</ele>
        <time>2013-03-10T05:38:41Z</time>
      </trkpt>
      <trkpt lat="45.20185" lon="6.17402">
        <ele>2487.07</ele>
        <time>2013-03-10T05:38:49Z</time>
      </trkpt>
      <trkpt lat="45.20171" lon="6.17393">
        <ele>2487.07</ele>
        <time>2013-03-10T05:39:04Z</time>
      </trkpt>
      <trkpt lat="45.20158" lon="6.17381">
        <ele>2486.59</ele>
        <time>2013-03-10T05:39:18Z</time>
      </trkpt>
      <trkpt lat="45.20143" lon="6.17366">
        <ele>2486.59</ele>
        <time>2013-03-10T05:39:33Z</time>
      </trkpt>
      <trkpt lat="45.20114" lon="6.1736">
        <ele>2482.74</ele>
        <time>2013-03-10T05:39:43Z</time>
      </trkpt>
      <trkpt lat="45.20102" lon="6.17354">
        <ele>2476.01</ele>
        <time>2013-03-10T05:39:46Z</time>
      </trkpt>
      <trkpt lat="45.20098" lon="6.1735">
        <ele>2472.17</ele>
        <time>2013-03-10T05:39:49Z</time>
      </trkpt>
      <trkpt lat="45.20094" lon="6.17344">
        <ele>2471.69</ele>
        <time>2013-03-10T05:39:52Z</time>
      </trkpt>
      <trkpt lat="45.20091" lon="6.17335">
        <ele>2475.05</ele>
        <time>2013-03-10T05:39:57Z</time>
      </trkpt>
      <trkpt lat="45.20089" lon="6.17335">
        <ele>2476.97</ele>
        <time>2013-03-10T05:39:59Z</time>
      </trkpt>
      <trkpt lat="45.20077" lon="6.17337">
        <ele>2477.45</ele>
        <time>2013-03-10T05:40:10Z</time>
      </trkpt>
      <trkpt lat="45.20058" lon="6.17339">
        <ele>2475.53</ele>
        <time>2013-03-10T05:40:25Z</time>
      </trkpt>
      <trkpt lat="45.20041" lon="6.17342">
        <ele>2475.53</ele>
        <time>2013-03-10T05:40:40Z</time>
      </trkpt>
      <trkpt lat="45.20038" lon="6.17345">
        <ele>2475.53</ele>
        <time>2013-03-10T05:40:43Z</time>
      </trkpt>
      <trkpt lat="45.20034" lon="6.17346">
        <ele>2475.53</ele>
        <time>2013-03-10T05:40:47Z</time>
      </trkpt>
      <trkpt lat="45.20027" lon="6.17336">
        <ele>2476.49</ele>
        <time>2013-03-10T05:40:59Z</time>
      </trkpt>
      <trkpt lat="45.20013" lon="6.17332">
        <ele>2477.45</ele>
        <time>2013-03-10T05:41:13Z</time>
      </trkpt>
      <trkpt lat="45.20009" lon="6.17335">
        <ele>2477.94</ele>
        <time>2013-03-10T05:41:17Z</time>
      </trkpt>
      <trkpt lat="45.20006" lon="6.17355">
        <ele>2478.42</ele>
        <time>2013-03-10T05:41:30Z</time>
      </trkpt>
      <trkpt lat="45.20004" lon="6.17375">
        <ele>2478.42</ele>
        <time>2013-03-10T05:41:45Z</time>
      </trkpt>
      <trkpt lat="45.20003" lon="6.17389">
        <ele>2479.38</ele>
        <time>2013-03-10T05:41:59Z</time>
      </trkpt>
      <trkpt lat="45.2" lon="6.17395">
        <ele>2480.34</ele>
        <time>2013-03-10T05:42:05Z</time>
      </trkpt>
      <trkpt lat="45.19985" lon="6.174">
        <ele>2480.82</ele>
        <time>2013-03-10T05:42:20Z</time>
      </trkpt>
      <trkpt lat="45.19968" lon="6.17393">
        <ele>2480.34</ele>
        <time>2013-03-10T05:42:34Z</time>
      </trkpt>
      <trkpt lat="45.19953" lon="6.17385">
        <ele>2480.34</ele>
        <time>2013-03-10T05:42:47Z</time>
      </trkpt>
      <trkpt lat="45.19936" lon="6.17377">
        <ele>2478.9</ele>
        <time>2013-03-10T05:42:59Z</time>
      </trkpt>
      <trkpt lat="45.19915" lon="6.17369">
        <ele>2476.97</ele>
        <time>2013-03-10T05:43:13Z</time>
      </trkpt>
      <trkpt lat="45.19908" lon="6.1737">
        <ele>2476.97</ele>
        <time>2013-03-10T05:43:18Z</time>
      </trkpt>
      <trkpt lat="45.19892" lon="6.17369">
        <ele>2476.01</ele>
        <time>2013-03-10T05:43:31Z</time>
      </trkpt>
      <trkpt lat="45.1988" lon="6.17365">
        <ele>2476.01</ele>
        <time>2013-03-10T05:43:44Z</time>
      </trkpt>
      <trkpt lat="45.19867" lon="6.17359">
        <ele>2477.94</ele>
        <time>2013-03-10T05:43:59Z</time>
      </trkpt>
      <trkpt lat="45.19866" lon="6.17358">
        <ele>2477.94</ele>
        <time>2013-03-10T05:44:00Z</time>
      </trkpt>
      <trkpt lat="45.19854" lon="6.1735">
        <ele>2478.9</ele>
        <time>2013-03-10T05:44:13Z</time>
      </trkpt>
      <trkpt lat="45.19841" lon="6.17339">
        <ele>2478.42</ele>
        <time>2013-03-10T05:44:25Z</time>
      </trkpt>
      <trkpt lat="45.19828" lon="6.17331">
        <ele>2478.42</ele>
        <time>2013-03-10T05:44:38Z</time>
      </trkpt>
      <trkpt lat="45.19827" lon="6.1733">
        <ele>2478.42</ele>
        <time>2013-03-10T05:44:39Z</time>
      </trkpt>
      <trkpt lat="45.19814" lon="6.17323">
        <ele>2478.42</ele>
        <time>2013-03-10T05:44:49Z</time>
      </trkpt>
      <trkpt lat="45.19798" lon="6.17313">
        <ele>2476.49</ele>
        <time>2013-03-10T05:45:01Z</time>
      </trkpt>
      <trkpt lat="45.19778" lon="6.17311">
        <ele>2476.01</ele>
        <time>2013-03-10T05:45:14Z</time>
      </trkpt>
      <trkpt lat="45.19761" lon="6.17307">
        <ele>2475.05</ele>
        <time>2013-03-10T05:45:28Z</time>
      </trkpt>
      <trkpt lat="45.1975" lon="6.17305">
        <ele>2475.05</ele>
        <time>2013-03-10T05:45:38Z</time>
      </trkpt>
      <trkpt lat="45.19741" lon="6.17306">
        <ele>2476.01</ele>
        <time>2013-03-10T05:45:45Z</time>
      </trkpt>
      <trkpt lat="45.19732" lon="6.17312">
        <ele>2476.01</ele>
        <time>2013-03-10T05:45:52Z</time>
      </trkpt>
      <trkpt lat="45.19723" lon="6.1733">
        <ele>2476.49</ele>
        <time>2013-03-10T05:46:06Z</time>
      </trkpt>
      <trkpt lat="45.19721" lon="6.17338">
        <ele>2476.97</ele>
        <time>2013-03-10T05:46:11Z</time>
      </trkpt>
      <trkpt lat="45.19717" lon="6.17363">
        <ele>2476.97</ele>
        <time>2013-03-10T05:46:20Z</time>
      </trkpt>
      <trkpt lat="45.1971" lon="6.17377">
        <ele>2476.49</ele>
        <time>2013-03-10T05:46:34Z</time>
      </trkpt>
      <trkpt lat="45.19704" lon="6.17391">
        <ele>2476.49</ele>
        <time>2013-03-10T05:46:48Z</time>
      </trkpt>
      <trkpt lat="45.19697" lon="6.17404">
        <ele>2477.45</ele>
        <time>2013-03-10T05:47:01Z</time>
      </trkpt>
      <trkpt lat="45.19686" lon="6.1741">
        <ele>2478.42</ele>
        <time>2013-03-10T05:47:14Z</time>
      </trkpt>
      <trkpt lat="45.19676" lon="6.17415">
        <ele>2479.86</ele>
        <time>2013-03-10T05:47:28Z</time>
      </trkpt>
      <trkpt lat="45.19666" lon="6.1742">
        <ele>2481.3</ele>
        <time>2013-03-10T05:47:41Z</time>
      </trkpt>
      <trkpt lat="45.19654" lon="6.17419">
        <ele>2482.74</ele>
        <time>2013-03-10T05:47:57Z</time>
      </trkpt>
      <trkpt lat="45.19643" lon="6.17415">
        <ele>2484.66</ele>
        <time>2013-03-10T05:48:13Z</time>
      </trkpt>
      <trkpt lat="45.19632" lon="6.17413">
        <ele>2486.11</ele>
        <time>2013-03-10T05:48:26Z</time>
      </trkpt>
      <trkpt lat="45.19623" lon="6.17411">
        <ele>2487.55</ele>
        <time>2013-03-10T05:48:38Z</time>
      </trkpt>
      <trkpt lat="45.19619" lon="6.17412">
        <ele>2488.03</ele>
        <time>2013-03-10T05:48:43Z</time>
      </trkpt>
      <trkpt lat="45.19607" lon="6.17411">
        <ele>2489.47</ele>
        <time>2013-03-10T05:48:56Z</time>
      </trkpt>
      <trkpt lat="45.19598" lon="6.17407">
        <ele>2490.91</ele>
        <time>2013-03-10T05:49:09Z</time>
      </trkpt>
      <trkpt lat="45.19583" lon="6.17402">
        <ele>2491.87</ele>
        <time>2013-03-10T05:49:22Z</time>
      </trkpt>
      <trkpt lat="45.19569" lon="6.17398">
        <ele>2491.87</ele>
        <time>2013-03-10T05:49:35Z</time>
      </trkpt>
      <trkpt lat="45.19564" lon="6.17396">
        <ele>2492.36</ele>
        <time>2013-03-10T05:49:39Z</time>
      </trkpt>
      <trkpt lat="45.19548" lon="6.17395">
        <ele>2491.87</ele>
        <time>2013-03-10T05:49:53Z</time>
      </trkpt>
      <trkpt lat="45.1954" lon="6.17398">
        <ele>2492.36</ele>
        <time>2013-03-10T05:49:59Z</time>
      </trkpt>
      <trkpt lat="45.19526" lon="6.17408">
        <ele>2492.84</ele>
        <time>2013-03-10T05:50:13Z</time>
      </trkpt>
      <trkpt lat="45.19525" lon="6.17408">
        <ele>2492.84</ele>
        <time>2013-03-10T05:50:14Z</time>
      </trkpt>
      <trkpt lat="45.19511" lon="6.17409">
        <ele>2493.32</ele>
        <time>2013-03-10T05:50:27Z</time>
      </trkpt>
      <trkpt lat="45.19499" lon="6.17407">
        <ele>2494.28</ele>
        <time>2013-03-10T05:50:40Z</time>
      </trkpt>
      <trkpt lat="45.19498" lon="6.17407">
        <ele>2494.28</ele>
        <time>2013-03-10T05:50:41Z</time>
      </trkpt>
      <trkpt lat="45.19485" lon="6.17405">
        <ele>2495.72</ele>
        <time>2013-03-10T05:50:55Z</time>
      </trkpt>
      <trkpt lat="45.19472" lon="6.17403">
        <ele>2496.68</ele>
        <time>2013-03-10T05:51:10Z</time>
      </trkpt>
      <trkpt lat="45.19466" lon="6.17402">
        <ele>2497.64</ele>
        <time>2013-03-10T05:51:22Z</time>
      </trkpt>
      <trkpt lat="45.19464" lon="6.17402">
        <ele>2497.64</ele>
        <time>2013-03-10T05:51:41Z</time>
      </trkpt>
      <trkpt lat="45.19463" lon="6.17401">
        <ele>2497.64</ele>
        <time>2013-03-10T05:51:42Z</time>
      </trkpt>
      <trkpt lat="45.19452" lon="6.17382">
        <ele>2498.6</ele>
        <time>2013-03-10T05:51:57Z</time>
      </trkpt>
      <trkpt lat="45.19436" lon="6.17363">
        <ele>2498.6</ele>
        <time>2013-03-10T05:52:09Z</time>
      </trkpt>
      <trkpt lat="45.19415" lon="6.17353">
        <ele>2496.2</ele>
        <time>2013-03-10T05:52:21Z</time>
      </trkpt>
      <trkpt lat="45.19414" lon="6.17352">
        <ele>2495.24</ele>
        <time>2013-03-10T05:52:22Z</time>
      </trkpt>
      <trkpt lat="45.19399" lon="6.17348">
        <ele>2494.28</ele>
        <time>2013-03-10T05:52:33Z</time>
      </trkpt>
      <trkpt lat="45.19385" lon="6.17343">
        <ele>2493.32</ele>
        <time>2013-03-10T05:52:45Z</time>
      </trkpt>
      <trkpt lat="45.19382" lon="6.17343">
        <ele>2493.32</ele>
        <time>2013-03-10T05:52:59Z</time>
      </trkpt>
      <trkpt lat="45.19367" lon="6.17337">
        <ele>2492.84</ele>
        <time>2013-03-10T05:53:12Z</time>
      </trkpt>
      <trkpt lat="45.1936" lon="6.17336">
        <ele>2492.84</ele>
        <time>2013-03-10T05:53:17Z</time>
      </trkpt>
      <trkpt lat="45.19351" lon="6.17335">
        <ele>2492.84</ele>
        <time>2013-03-10T05:53:24Z</time>
      </trkpt>
      <trkpt lat="45.19336" lon="6.1733">
        <ele>2492.84</ele>
        <time>2013-03-10T05:53:38Z</time>
      </trkpt>
      <trkpt lat="45.1932" lon="6.17323">
        <ele>2492.84</ele>
        <time>2013-03-10T05:53:53Z</time>
      </trkpt>
      <trkpt lat="45.1931" lon="6.17319">
        <ele>2492.36</ele>
        <time>2013-03-10T05:54:04Z</time>
      </trkpt>
      <trkpt lat="45.19308" lon="6.17318">
        <ele>2492.36</ele>
        <time>2013-03-10T05:54:06Z</time>
      </trkpt>
      <trkpt lat="45.19293" lon="6.17309">
        <ele>2493.8</ele>
        <time>2013-03-10T05:54:22Z</time>
      </trkpt>
      <trkpt lat="45.19278" lon="6.17303">
        <ele>2493.32</ele>
        <time>2013-03-10T05:54:34Z</time>
      </trkpt>
      <trkpt lat="45.19265" lon="6.17298">
        <ele>2493.32</ele>
        <time>2013-03-10T05:54:45Z</time>
      </trkpt>
      <trkpt lat="45.19245" lon="6.17292">
        <ele>2493.32</ele>
        <time>2013-03-10T05:55:02Z</time>
      </trkpt>
      <trkpt lat="45.19235" lon="6.17286">
        <ele>2493.32</ele>
        <time>2013-03-10T05:55:11Z</time>
      </trkpt>
      <trkpt lat="45.19232" lon="6.17284">
        <ele>2492.84</ele>
        <time>2013-03-10T05:55:14Z</time>
      </trkpt>
      <trkpt lat="45.19229" lon="6.17282">
        <ele>2492.84</ele>
        <time>2013-03-10T05:55:17Z</time>
      </trkpt>
      <trkpt lat="45.19215" lon="6.17272">
        <ele>2492.84</ele>
        <time>2013-03-10T05:55:29Z</time>
      </trkpt>
      <trkpt lat="45.19208" lon="6.17267">
        <ele>2492.84</ele>
        <time>2013-03-10T05:55:37Z</time>
      </trkpt>
      <trkpt lat="45.19198" lon="6.17255">
        <ele>2492.84</ele>
        <time>2013-03-10T05:55:49Z</time>
      </trkpt>
      <trkpt lat="45.19197" lon="6.17252">
        <ele>2492.84</ele>
        <time>2013-03-10T05:55:53Z</time>
      </trkpt>
      <trkpt lat="45.19193" lon="6.17246">
        <ele>2492.84</ele>
        <time>2013-03-10T05:55:58Z</time>
      </trkpt>
      <trkpt lat="45.19177" lon="6.17239">
        <ele>2493.32</ele>
        <time>2013-03-10T05:56:10Z</time>
      </trkpt>
      <trkpt lat="45.19175" lon="6.17238">
        <ele>2493.32</ele>
        <time>2013-03-10T05:56:12Z</time>
      </trkpt>
      <trkpt lat="45.19158" lon="6.17233">
        <ele>2492.84</ele>
        <time>2013-03-10T05:56:26Z</time>
      </trkpt>
      <trkpt lat="45.19152" lon="6.17233">
        <ele>2492.84</ele>
        <time>2013-03-10T05:56:32Z</time>
      </trkpt>
      <trkpt lat="45.19149" lon="6.17232">
        <ele>2492.84</ele>
        <time>2013-03-10T05:56:34Z</time>
      </trkpt>
      <trkpt lat="45.19146" lon="6.17231">
        <ele>2492.84</ele>
        <time>2013-03-10T05:56:38Z</time>
      </trkpt>
      <trkpt lat="45.19144" lon="6.1723">
        <ele>2492.84</ele>
        <time>2013-03-10T05:56:40Z</time>
      </trkpt>
      <trkpt lat="45.19132" lon="6.17226">
        <ele>2493.32</ele>
        <time>2013-03-10T05:56:52Z</time>
      </trkpt>
      <trkpt lat="45.1912" lon="6.17225">
        <ele>2493.8</ele>
        <time>2013-03-10T05:57:03Z</time>
      </trkpt>
      <trkpt lat="45.19106" lon="6.17226">
        <ele>2494.28</ele>
        <time>2013-03-10T05:57:17Z</time>
      </trkpt>
      <trkpt lat="45.19095" lon="6.17231">
        <ele>2495.72</ele>
        <time>2013-03-10T05:57:31Z</time>
      </trkpt>
      <trkpt lat="45.19083" lon="6.17237">
        <ele>2497.16</ele>
        <time>2013-03-10T05:57:45Z</time>
      </trkpt>
      <trkpt lat="45.19075" lon="6.1724">
        <ele>2498.12</ele>
        <time>2013-03-10T05:57:54Z</time>
      </trkpt>
      <trkpt lat="45.19065" lon="6.17242">
        <ele>2499.57</ele>
        <time>2013-03-10T05:58:04Z</time>
      </trkpt>
      <trkpt lat="45.19053" lon="6.17247">
        <ele>2500.05</ele>
        <time>2013-03-10T05:58:18Z</time>
      </trkpt>
      <trkpt lat="45.19044" lon="6.17253">
        <ele>2501.01</ele>
        <time>2013-03-10T05:58:31Z</time>
      </trkpt>
      <trkpt lat="45.19033" lon="6.17255">
        <ele>2503.41</ele>
        <time>2013-03-10T05:58:45Z</time>
      </trkpt>
      <trkpt lat="45.19027" lon="6.17255">
        <ele>2503.89</ele>
        <time>2013-03-10T05:58:53Z</time>
      </trkpt>
      <trkpt lat="45.19013" lon="6.1725">
        <ele>2505.33</ele>
        <time>2013-03-10T05:59:09Z</time>
      </trkpt>
      <trkpt lat="45.19003" lon="6.17246">
        <ele>2507.26</ele>
        <time>2013-03-10T05:59:23Z</time>
      </trkpt>
      <trkpt lat="45.18992" lon="6.17246">
        <ele>2508.7</ele>
        <time>2013-03-10T05:59:38Z</time>
      </trkpt>
      <trkpt lat="45.18982" lon="6.17243">
        <ele>2510.14</ele>
        <time>2013-03-10T05:59:51Z</time>
      </trkpt>
      <trkpt lat="45.18974" lon="6.17241">
        <ele>2511.1</ele>
        <time>2013-03-10T06:00:04Z</time>
      </trkpt>
      <trkpt lat="45.18967" lon="6.17238">
        <ele>2512.06</ele>
        <time>2013-03-10T06:00:20Z</time>
      </trkpt>
      <trkpt lat="45.18957" lon="6.17242">
        <ele>2514.47</ele>
        <time>2013-03-10T06:00:35Z</time>
      </trkpt>
      <trkpt lat="45.18947" lon="6.17249">
        <ele>2515.91</ele>
        <time>2013-03-10T06:00:49Z</time>
      </trkpt>
      <trkpt lat="45.18939" lon="6.17255">
        <ele>2517.83</ele>
        <time>2013-03-10T06:01:02Z</time>
      </trkpt>
      <trkpt lat="45.1893" lon="6.17259">
        <ele>2519.75</ele>
        <time>2013-03-10T06:01:17Z</time>
      </trkpt>
      <trkpt lat="45.18927" lon="6.17252">
        <ele>2521.68</ele>
        <time>2013-03-10T06:01:30Z</time>
      </trkpt>
      <trkpt lat="45.18919" lon="6.17249">
        <ele>2524.56</ele>
        <time>2013-03-10T06:01:44Z</time>
      </trkpt>
      <trkpt lat="45.18908" lon="6.17247">
        <ele>2526.96</ele>
        <time>2013-03-10T06:01:58Z</time>
      </trkpt>
      <trkpt lat="45.18901" lon="6.17255">
        <ele>2529.37</ele>
        <time>2013-03-10T06:02:11Z</time>
      </trkpt>
      <trkpt lat="45.18894" lon="6.17262">
        <ele>2531.29</ele>
        <time>2013-03-10T06:02:25Z</time>
      </trkpt>
      <trkpt lat="45.18888" lon="6.17268">
        <ele>2532.73</ele>
        <time>2013-03-10T06:02:42Z</time>
      </trkpt>
      <trkpt lat="45.18889" lon="6.17268">
        <ele>2533.21</ele>
        <time>2013-03-10T06:02:58Z</time>
      </trkpt>
      <trkpt lat="45.18889" lon="6.17268">
        <ele>2532.73</ele>
        <time>2013-03-10T06:03:14Z</time>
      </trkpt>
      <trkpt lat="45.18889" lon="6.17268">
        <ele>2532.73</ele>
        <time>2013-03-10T06:03:34Z</time>
      </trkpt>
      <trkpt lat="45.18888" lon="6.17268">
        <ele>2532.73</ele>
        <time>2013-03-10T06:03:53Z</time>
      </trkpt>
      <trkpt lat="45.18888" lon="6.17269">
        <ele>2532.73</ele>
        <time>2013-03-10T06:04:08Z</time>
      </trkpt>
      <trkpt lat="45.18887" lon="6.17268">
        <ele>2532.73</ele>
        <time>2013-03-10T06:04:27Z</time>
      </trkpt>
      <trkpt lat="45.18887" lon="6.17268">
        <ele>2532.25</ele>
        <time>2013-03-10T06:04:50Z</time>
      </trkpt>
      <trkpt lat="45.18888" lon="6.17269">
        <ele>2532.25</ele>
        <time>2013-03-10T06:05:05Z</time>
      </trkpt>
      <trkpt lat="45.18888" lon="6.1727">
        <ele>2532.73</ele>
        <time>2013-03-10T06:05:23Z</time>
      </trkpt>
      <trkpt lat="45.18889" lon="6.17269">
        <ele>2532.73</ele>
        <time>2013-03-10T06:05:35Z</time>
      </trkpt>
      <trkpt lat="45.18888" lon="6.1727">
        <ele>2532.25</ele>
        <time>2013-03-10T06:05:55Z</time>
      </trkpt>
      <trkpt lat="45.18888" lon="6.17269">
        <ele>2532.25</ele>
        <time>2013-03-10T06:06:17Z</time>
      </trkpt>
      <trkpt lat="45.18889" lon="6.17269">
        <ele>2532.25</ele>
        <time>2013-03-10T06:06:41Z</time>
      </trkpt>
      <trkpt lat="45.18889" lon="6.17268">
        <ele>2532.25</ele>
        <time>2013-03-10T06:07:00Z</time>
      </trkpt>
      <trkpt lat="45.1889" lon="6.17269">
        <ele>2531.77</ele>
        <time>2013-03-10T06:07:23Z</time>
      </trkpt>
      <trkpt lat="45.18889" lon="6.17268">
        <ele>2531.77</ele>
        <time>2013-03-10T06:07:40Z</time>
      </trkpt>
      <trkpt lat="45.18889" lon="6.17269">
        <ele>2531.77</ele>
        <time>2013-03-10T06:07:49Z</time>
      </trkpt>
      <trkpt lat="45.18889" lon="6.17269">
        <ele>2531.29</ele>
        <time>2013-03-10T06:08:32Z</time>
      </trkpt>
      <trkpt lat="45.18888" lon="6.1727">
        <ele>2531.29</ele>
        <time>2013-03-10T06:09:17Z</time>
      </trkpt>
      <trkpt lat="45.18888" lon="6.1727">
        <ele>2530.81</ele>
        <time>2013-03-10T06:10:04Z</time>
      </trkpt>
      <trkpt lat="45.18888" lon="6.1727">
        <ele>2530.81</ele>
        <time>2013-03-10T06:10:26Z</time>
      </trkpt>
      <trkpt lat="45.18889" lon="6.17269">
        <ele>2530.81</ele>
        <time>2013-03-10T06:10:40Z</time>
      </trkpt>
      <trkpt lat="45.18889" lon="6.17269">
        <ele>2530.81</ele>
        <time>2013-03-10T06:11:06Z</time>
      </trkpt>
      <trkpt lat="45.18889" lon="6.17269">
        <ele>2531.29</ele>
        <time>2013-03-10T06:11:23Z</time>
      </trkpt>
      <trkpt lat="45.18888" lon="6.17269">
        <ele>2531.29</ele>
        <time>2013-03-10T06:11:40Z</time>
      </trkpt>
      <trkpt lat="45.18888" lon="6.1727">
        <ele>2530.81</ele>
        <time>2013-03-10T06:12:03Z</time>
      </trkpt>
      <trkpt lat="45.18888" lon="6.1727">
        <ele>2530.81</ele>
        <time>2013-03-10T06:12:21Z</time>
      </trkpt>
      <trkpt lat="45.18888" lon="6.1727">
        <ele>2530.81</ele>
        <time>2013-03-10T06:12:23Z</time>
      </trkpt>
      <trkpt lat="45.18872" lon="6.17263">
        <ele>2531.29</ele>
        <time>2013-03-10T06:12:38Z</time>
      </trkpt>
      <trkpt lat="45.18854" lon="6.17265">
        <ele>2532.25</ele>
        <time>2013-03-10T06:12:52Z</time>
      </trkpt>
      <trkpt lat="45.18833" lon="6.17272">
        <ele>2532.25</ele>
        <time>2013-03-10T06:13:06Z</time>
      </trkpt>
      <trkpt lat="45.18806" lon="6.17275">
        <ele>2529.85</ele>
        <time>2013-03-10T06:13:21Z</time>
      </trkpt>
      <trkpt lat="45.18792" lon="6.17278">
        <ele>2526</ele>
        <time>2013-03-10T06:13:28Z</time>
      </trkpt>
      <trkpt lat="45.18773" lon="6.17288">
        <ele>2524.08</ele>
        <time>2013-03-10T06:13:42Z</time>
      </trkpt>
      <trkpt lat="45.18752" lon="6.17298">
        <ele>2525.04</ele>
        <time>2013-03-10T06:13:56Z</time>
      </trkpt>
      <trkpt lat="45.18734" lon="6.17303">
        <ele>2525.04</ele>
        <time>2013-03-10T06:14:10Z</time>
      </trkpt>
      <trkpt lat="45.18716" lon="6.1731">
        <ele>2525.04</ele>
        <time>2013-03-10T06:14:25Z</time>
      </trkpt>
      <trkpt lat="45.18696" lon="6.1732">
        <ele>2525.04</ele>
        <time>2013-03-10T06:14:42Z</time>
      </trkpt>
      <trkpt lat="45.18678" lon="6.17328">
        <ele>2525.04</ele>
        <time>2013-03-10T06:14:55Z</time>
      </trkpt>
      <trkpt lat="45.18658" lon="6.17333">
        <ele>2525.04</ele>
        <time>2013-03-10T06:15:10Z</time>
      </trkpt>
      <trkpt lat="45.18641" lon="6.17337">
        <ele>2525.04</ele>
        <time>2013-03-10T06:15:25Z</time>
      </trkpt>
      <trkpt lat="45.18622" lon="6.17342">
        <ele>2524.56</ele>
        <time>2013-03-10T06:15:41Z</time>
      </trkpt>
      <trkpt lat="45.1861" lon="6.17349">
        <ele>2526</ele>
        <time>2013-03-10T06:15:54Z</time>
      </trkpt>
      <trkpt lat="45.18593" lon="6.17358">
        <ele>2525.52</ele>
        <time>2013-03-10T06:16:09Z</time>
      </trkpt>
      <trkpt lat="45.18574" lon="6.17367">
        <ele>2525.52</ele>
        <time>2013-03-10T06:16:24Z</time>
      </trkpt>
      <trkpt lat="45.18552" lon="6.17367">
        <ele>2524.56</ele>
        <time>2013-03-10T06:16:40Z</time>
      </trkpt>
      <trkpt lat="45.18535" lon="6.17364">
        <ele>2524.56</ele>
        <time>2013-03-10T06:16:55Z</time>
      </trkpt>
      <trkpt lat="45.18516" lon="6.1736">
        <ele>2524.56</ele>
        <time>2013-03-10T06:17:10Z</time>
      </trkpt>
      <trkpt lat="45.18506" lon="6.17357">
        <ele>2524.56</ele>
        <time>2013-03-10T06:17:18Z</time>
      </trkpt>
      <trkpt lat="45.18498" lon="6.17355">
        <ele>2524.56</ele>
        <time>2013-03-10T06:17:25Z</time>
      </trkpt>
      <trkpt lat="45.18489" lon="6.17353">
        <ele>2524.08</ele>
        <time>2013-03-10T06:17:31Z</time>
      </trkpt>
      <trkpt lat="45.18477" lon="6.17352">
        <ele>2524.08</ele>
        <time>2013-03-10T06:17:41Z</time>
      </trkpt>
      <trkpt lat="45.18467" lon="6.17351">
        <ele>2524.08</ele>
        <time>2013-03-10T06:17:50Z</time>
      </trkpt>
      <trkpt lat="45.18452" lon="6.17347">
        <ele>2524.08</ele>
        <time>2013-03-10T06:18:04Z</time>
      </trkpt>
      <trkpt lat="45.18439" lon="6.17345">
        <ele>2524.08</ele>
        <time>2013-03-10T06:18:15Z</time>
      </trkpt>
      <trkpt lat="45.18425" lon="6.17341">
        <ele>2525.52</ele>
        <time>2013-03-10T06:18:29Z</time>
      </trkpt>
      <trkpt lat="45.18413" lon="6.17339">
        <ele>2526.48</ele>
        <time>2013-03-10T06:18:43Z</time>
      </trkpt>
      <trkpt lat="45.184" lon="6.17333">
        <ele>2528.4</ele>
        <time>2013-03-10T06:18:56Z</time>
      </trkpt>
      <trkpt lat="45.18387" lon="6.17326">
        <ele>2529.37</ele>
        <time>2013-03-10T06:19:11Z</time>
      </trkpt>
      <trkpt lat="45.1838" lon="6.17323">
        <ele>2529.85</ele>
        <time>2013-03-10T06:19:18Z</time>
      </trkpt>
      <trkpt lat="45.18367" lon="6.17315">
        <ele>2531.29</ele>
        <time>2013-03-10T06:19:34Z</time>
      </trkpt>
      <trkpt lat="45.18366" lon="6.17314">
        <ele>2531.29</ele>
        <time>2013-03-10T06:19:35Z</time>
      </trkpt>
      <trkpt lat="45.18357" lon="6.17308">
        <ele>2532.73</ele>
        <time>2013-03-10T06:19:50Z</time>
      </trkpt>
      <trkpt lat="45.18356" lon="6.17303">
        <ele>2533.21</ele>
        <time>2013-03-10T06:20:12Z</time>
      </trkpt>
      <trkpt lat="45.18342" lon="6.17296">
        <ele>2534.17</ele>
        <time>2013-03-10T06:20:27Z</time>
      </trkpt>
      <trkpt lat="45.18334" lon="6.1729">
        <ele>2534.65</ele>
        <time>2013-03-10T06:20:36Z</time>
      </trkpt>
      <trkpt lat="45.18323" lon="6.17283">
        <ele>2535.61</ele>
        <time>2013-03-10T06:20:48Z</time>
      </trkpt>
      <trkpt lat="45.18314" lon="6.17276">
        <ele>2536.58</ele>
        <time>2013-03-10T06:21:00Z</time>
      </trkpt>
      <trkpt lat="45.18303" lon="6.17269">
        <ele>2538.98</ele>
        <time>2013-03-10T06:21:14Z</time>
      </trkpt>
      <trkpt lat="45.18291" lon="6.1726">
        <ele>2539.94</ele>
        <time>2013-03-10T06:21:28Z</time>
      </trkpt>
      <trkpt lat="45.18282" lon="6.17255">
        <ele>2541.38</ele>
        <time>2013-03-10T06:21:40Z</time>
      </trkpt>
      <trkpt lat="45.18271" lon="6.1725">
        <ele>2543.31</ele>
        <time>2013-03-10T06:21:54Z</time>
      </trkpt>
      <trkpt lat="45.1826" lon="6.17246">
        <ele>2545.23</ele>
        <time>2013-03-10T06:22:09Z</time>
      </trkpt>
      <trkpt lat="45.18249" lon="6.17239">
        <ele>2546.67</ele>
        <time>2013-03-10T06:22:25Z</time>
      </trkpt>
      <trkpt lat="45.18239" lon="6.17234">
        <ele>2548.59</ele>
        <time>2013-03-10T06:22:40Z</time>
      </trkpt>
      <trkpt lat="45.18227" lon="6.17225">
        <ele>2550.03</ele>
        <time>2013-03-10T06:22:56Z</time>
      </trkpt>
      <trkpt lat="45.18214" lon="6.17219">
        <ele>2552.44</ele>
        <time>2013-03-10T06:23:14Z</time>
      </trkpt>
      <trkpt lat="45.18204" lon="6.17215">
        <ele>2554.36</ele>
        <time>2013-03-10T06:23:28Z</time>
      </trkpt>
      <trkpt lat="45.18193" lon="6.17206">
        <ele>2555.8</ele>
        <time>2013-03-10T06:23:43Z</time>
      </trkpt>
      <trkpt lat="45.18181" lon="6.17201">
        <ele>2557.24</ele>
        <time>2013-03-10T06:23:59Z</time>
      </trkpt>
      <trkpt lat="45.18171" lon="6.17195">
        <ele>2559.65</ele>
        <time>2013-03-10T06:24:15Z</time>
      </trkpt>
      <trkpt lat="45.18158" lon="6.17189">
        <ele>2561.57</ele>
        <time>2013-03-10T06:24:32Z</time>
      </trkpt>
      <trkpt lat="45.1815" lon="6.17182">
        <ele>2562.53</ele>
        <time>2013-03-10T06:24:44Z</time>
      </trkpt>
      <trkpt lat="45.1814" lon="6.17172">
        <ele>2563.97</ele>
        <time>2013-03-10T06:24:58Z</time>
      </trkpt>
      <trkpt lat="45.18129" lon="6.17163">
        <ele>2565.42</ele>
        <time>2013-03-10T06:25:14Z</time>
      </trkpt>
      <trkpt lat="45.18118" lon="6.17155">
        <ele>2566.86</ele>
        <time>2013-03-10T06:25:29Z</time>
      </trkpt>
      <trkpt lat="45.18107" lon="6.17142">
        <ele>2569.26</ele>
        <time>2013-03-10T06:25:45Z</time>
      </trkpt>
      <trkpt lat="45.18097" lon="6.17132">
        <ele>2570.7</ele>
        <time>2013-03-10T06:25:59Z</time>
      </trkpt>
      <trkpt lat="45.1809" lon="6.17119">
        <ele>2572.14</ele>
        <time>2013-03-10T06:26:13Z</time>
      </trkpt>
      <trkpt lat="45.18082" lon="6.17107">
        <ele>2573.59</ele>
        <time>2013-03-10T06:26:27Z</time>
      </trkpt>
      <trkpt lat="45.18074" lon="6.17097">
        <ele>2575.99</ele>
        <time>2013-03-10T06:26:41Z</time>
      </trkpt>
      <trkpt lat="45.18067" lon="6.17088">
        <ele>2577.43</ele>
        <time>2013-03-10T06:26:55Z</time>
      </trkpt>
      <trkpt lat="45.1806" lon="6.17075">
        <ele>2579.35</ele>
        <time>2013-03-10T06:27:10Z</time>
      </trkpt>
      <trkpt lat="45.18051" lon="6.17066">
        <ele>2580.8</ele>
        <time>2013-03-10T06:27:24Z</time>
      </trkpt>
      <trkpt lat="45.18044" lon="6.17058">
        <ele>2583.2</ele>
        <time>2013-03-10T06:27:38Z</time>
      </trkpt>
      <trkpt lat="45.18037" lon="6.17046">
        <ele>2585.6</ele>
        <time>2013-03-10T06:27:53Z</time>
      </trkpt>
      <trkpt lat="45.18028" lon="6.17041">
        <ele>2587.53</ele>
        <time>2013-03-10T06:28:08Z</time>
      </trkpt>
      <trkpt lat="45.18019" lon="6.1704">
        <ele>2589.45</ele>
        <time>2013-03-10T06:28:24Z</time>
      </trkpt>
      <trkpt lat="45.18011" lon="6.17042">
        <ele>2590.89</ele>
        <time>2013-03-10T06:28:38Z</time>
      </trkpt>
      <trkpt lat="45.17998" lon="6.17041">
        <ele>2593.77</ele>
        <time>2013-03-10T06:28:56Z</time>
      </trkpt>
      <trkpt lat="45.17988" lon="6.17037">
        <ele>2595.22</ele>
        <time>2013-03-10T06:29:11Z</time>
      </trkpt>
      <trkpt lat="45.17977" lon="6.17032">
        <ele>2598.1</ele>
        <time>2013-03-10T06:29:29Z</time>
      </trkpt>
      <trkpt lat="45.17967" lon="6.17026">
        <ele>2600.98</ele>
        <time>2013-03-10T06:29:46Z</time>
      </trkpt>
      <trkpt lat="45.17958" lon="6.17018">
        <ele>2603.39</ele>
        <time>2013-03-10T06:30:02Z</time>
      </trkpt>
      <trkpt lat="45.17948" lon="6.1701">
        <ele>2605.79</ele>
        <time>2013-03-10T06:30:19Z</time>
      </trkpt>
      <trkpt lat="45.17939" lon="6.17003">
        <ele>2608.19</ele>
        <time>2013-03-10T06:30:32Z</time>
      </trkpt>
      <trkpt lat="45.1793" lon="6.16999">
        <ele>2609.64</ele>
        <time>2013-03-10T06:30:46Z</time>
      </trkpt>
      <trkpt lat="45.17919" lon="6.1699">
        <ele>2612.04</ele>
        <time>2013-03-10T06:31:03Z</time>
      </trkpt>
      <trkpt lat="45.17908" lon="6.16982">
        <ele>2613.96</ele>
        <time>2013-03-10T06:31:20Z</time>
      </trkpt>
      <trkpt lat="45.179" lon="6.16974">
        <ele>2615.88</ele>
        <time>2013-03-10T06:31:34Z</time>
      </trkpt>
      <trkpt lat="45.17887" lon="6.16965">
        <ele>2618.29</ele>
        <time>2013-03-10T06:31:53Z</time>
      </trkpt>
      <trkpt lat="45.17878" lon="6.16961">
        <ele>2620.69</ele>
        <time>2013-03-10T06:32:08Z</time>
      </trkpt>
      <trkpt lat="45.17867" lon="6.16958">
        <ele>2623.09</ele>
        <time>2013-03-10T06:32:24Z</time>
      </trkpt>
      <trkpt lat="45.17858" lon="6.16954">
        <ele>2625.5</ele>
        <time>2013-03-10T06:32:38Z</time>
      </trkpt>
      <trkpt lat="45.17846" lon="6.1695">
        <ele>2628.38</ele>
        <time>2013-03-10T06:32:56Z</time>
      </trkpt>
      <trkpt lat="45.17838" lon="6.1695">
        <ele>2630.3</ele>
        <time>2013-03-10T06:33:15Z</time>
      </trkpt>
      <trkpt lat="45.17831" lon="6.16949">
        <ele>2631.75</ele>
        <time>2013-03-10T06:33:34Z</time>
      </trkpt>
      <trkpt lat="45.17819" lon="6.16947">
        <ele>2633.19</ele>
        <time>2013-03-10T06:33:50Z</time>
      </trkpt>
      <trkpt lat="45.17804" lon="6.16946">
        <ele>2635.11</ele>
        <time>2013-03-10T06:34:08Z</time>
      </trkpt>
      <trkpt lat="45.17792" lon="6.16945">
        <ele>2637.03</ele>
        <time>2013-03-10T06:34:24Z</time>
      </trkpt>
      <trkpt lat="45.17781" lon="6.16944">
        <ele>2638.48</ele>
        <time>2013-03-10T06:34:38Z</time>
      </trkpt>
      <trkpt lat="45.17768" lon="6.16943">
        <ele>2640.4</ele>
        <time>2013-03-10T06:34:54Z</time>
      </trkpt>
      <trkpt lat="45.17756" lon="6.1694">
        <ele>2642.8</ele>
        <time>2013-03-10T06:35:09Z</time>
      </trkpt>
      <trkpt lat="45.17753" lon="6.16939">
        <ele>2643.28</ele>
        <time>2013-03-10T06:35:13Z</time>
      </trkpt>
      <trkpt lat="45.17741" lon="6.16936">
        <ele>2644.72</ele>
        <time>2013-03-10T06:35:28Z</time>
      </trkpt>
      <trkpt lat="45.17728" lon="6.16934">
        <ele>2646.65</ele>
        <time>2013-03-10T06:35:42Z</time>
      </trkpt>
      <trkpt lat="45.17723" lon="6.16934">
        <ele>2647.61</ele>
        <time>2013-03-10T06:35:55Z</time>
      </trkpt>
      <trkpt lat="45.17723" lon="6.16934">
        <ele>2648.09</ele>
        <time>2013-03-10T06:36:17Z</time>
      </trkpt>
      <trkpt lat="45.17723" lon="6.16934">
        <ele>2651.45</ele>
        <time>2013-03-10T06:36:31Z</time>
      </trkpt>
      <trkpt lat="45.17723" lon="6.16935">
        <ele>2648.09</ele>
        <time>2013-03-10T06:36:35Z</time>
      </trkpt>
      <trkpt lat="45.17719" lon="6.16935">
        <ele>2646.65</ele>
        <time>2013-03-10T06:36:41Z</time>
      </trkpt>
      <trkpt lat="45.17715" lon="6.16937">
        <ele>2650.49</ele>
        <time>2013-03-10T06:36:45Z</time>
      </trkpt>
      <trkpt lat="45.17711" lon="6.16938">
        <ele>2652.9</ele>
        <time>2013-03-10T06:36:49Z</time>
      </trkpt>
      <trkpt lat="45.17697" lon="6.16939">
        <ele>2653.38</ele>
        <time>2013-03-10T06:37:04Z</time>
      </trkpt>
      <trkpt lat="45.17683" lon="6.16939">
        <ele>2653.38</ele>
        <time>2013-03-10T06:37:19Z</time>
      </trkpt>
      <trkpt lat="45.1767" lon="6.16938">
        <ele>2654.34</ele>
        <time>2013-03-10T06:37:33Z</time>
      </trkpt>
      <trkpt lat="45.1766" lon="6.16938">
        <ele>2655.3</ele>
        <time>2013-03-10T06:37:45Z</time>
      </trkpt>
      <trkpt lat="45.17654" lon="6.16936">
        <ele>2656.26</ele>
        <time>2013-03-10T06:37:52Z</time>
      </trkpt>
      <trkpt lat="45.17642" lon="6.16929">
        <ele>2659.14</ele>
        <time>2013-03-10T06:38:07Z</time>
      </trkpt>
      <trkpt lat="45.17632" lon="6.16924">
        <ele>2660.59</ele>
        <time>2013-03-10T06:38:21Z</time>
      </trkpt>
      <trkpt lat="45.17623" lon="6.1692">
        <ele>2662.99</ele>
        <time>2013-03-10T06:38:34Z</time>
      </trkpt>
      <trkpt lat="45.17611" lon="6.16913">
        <ele>2664.91</ele>
        <time>2013-03-10T06:38:50Z</time>
      </trkpt>
      <trkpt lat="45.17598" lon="6.16905">
        <ele>2666.83</ele>
        <time>2013-03-10T06:39:07Z</time>
      </trkpt>
      <trkpt lat="45.17589" lon="6.16897">
        <ele>2668.28</ele>
        <time>2013-03-10T06:39:20Z</time>
      </trkpt>
      <trkpt lat="45.1758" lon="6.16891">
        <ele>2670.2</ele>
        <time>2013-03-10T06:39:33Z</time>
      </trkpt>
      <trkpt lat="45.17571" lon="6.16885">
        <ele>2672.12</ele>
        <time>2013-03-10T06:39:46Z</time>
      </trkpt>
      <trkpt lat="45.1756" lon="6.16876">
        <ele>2673.56</ele>
        <time>2013-03-10T06:40:00Z</time>
      </trkpt>
      <trkpt lat="45.17551" lon="6.1687">
        <ele>2675.01</ele>
        <time>2013-03-10T06:40:12Z</time>
      </trkpt>
      <trkpt lat="45.17541" lon="6.16863">
        <ele>2677.41</ele>
        <time>2013-03-10T06:40:26Z</time>
      </trkpt>
      <trkpt lat="45.17531" lon="6.16854">
        <ele>2678.85</ele>
        <time>2013-03-10T06:40:40Z</time>
      </trkpt>
      <trkpt lat="45.17521" lon="6.16847">
        <ele>2680.77</ele>
        <time>2013-03-10T06:40:53Z</time>
      </trkpt>
      <trkpt lat="45.17513" lon="6.16839">
        <ele>2682.22</ele>
        <time>2013-03-10T06:41:06Z</time>
      </trkpt>
      <trkpt lat="45.17509" lon="6.16834">
        <ele>2683.18</ele>
        <time>2013-03-10T06:41:13Z</time>
      </trkpt>
      <trkpt lat="45.17499" lon="6.16824">
        <ele>2685.1</ele>
        <time>2013-03-10T06:41:26Z</time>
      </trkpt>
      <trkpt lat="45.17491" lon="6.16812">
        <ele>2687.02</ele>
        <time>2013-03-10T06:41:41Z</time>
      </trkpt>
      <trkpt lat="45.17481" lon="6.168">
        <ele>2688.46</ele>
        <time>2013-03-10T06:41:55Z</time>
      </trkpt>
      <trkpt lat="45.17472" lon="6.16787">
        <ele>2689.91</ele>
        <time>2013-03-10T06:42:09Z</time>
      </trkpt>
      <trkpt lat="45.17463" lon="6.16776">
        <ele>2690.87</ele>
        <time>2013-03-10T06:42:23Z</time>
      </trkpt>
      <trkpt lat="45.17455" lon="6.16763">
        <ele>2692.79</ele>
        <time>2013-03-10T06:42:36Z</time>
      </trkpt>
      <trkpt lat="45.17448" lon="6.16747">
        <ele>2695.19</ele>
        <time>2013-03-10T06:42:51Z</time>
      </trkpt>
      <trkpt lat="45.17447" lon="6.16743">
        <ele>2695.19</ele>
        <time>2013-03-10T06:42:55Z</time>
      </trkpt>
      <trkpt lat="45.17439" lon="6.16728">
        <ele>2698.08</ele>
        <time>2013-03-10T06:43:10Z</time>
      </trkpt>
      <trkpt lat="45.17437" lon="6.16726">
        <ele>2698.56</ele>
        <time>2013-03-10T06:43:14Z</time>
      </trkpt>
      <trkpt lat="45.17428" lon="6.16718">
        <ele>2700.96</ele>
        <time>2013-03-10T06:43:29Z</time>
      </trkpt>
      <trkpt lat="45.17427" lon="6.16716">
        <ele>2701.44</ele>
        <time>2013-03-10T06:43:54Z</time>
      </trkpt>
      <trkpt lat="45.17427" lon="6.16716">
        <ele>2701.44</ele>
        <time>2013-03-10T06:44:13Z</time>
      </trkpt>
      <trkpt lat="45.17428" lon="6.16717">
        <ele>2701.44</ele>
        <time>2013-03-10T06:44:29Z</time>
      </trkpt>
      <trkpt lat="45.17428" lon="6.16717">
        <ele>2701.44</ele>
        <time>2013-03-10T06:44:50Z</time>
      </trkpt>
      <trkpt lat="45.17427" lon="6.16717">
        <ele>2700</ele>
        <time>2013-03-10T06:45:07Z</time>
      </trkpt>
      <trkpt lat="45.17427" lon="6.16716">
        <ele>2700</ele>
        <time>2013-03-10T06:45:30Z</time>
      </trkpt>
      <trkpt lat="45.17427" lon="6.16717">
        <ele>2700</ele>
        <time>2013-03-10T06:45:56Z</time>
      </trkpt>
      <trkpt lat="45.17427" lon="6.16717">
        <ele>2699.04</ele>
        <time>2013-03-10T06:46:24Z</time>
      </trkpt>
      <trkpt lat="45.17428" lon="6.16717">
        <ele>2699.04</ele>
        <time>2013-03-10T06:46:55Z</time>
      </trkpt>
      <trkpt lat="45.17429" lon="6.16718">
        <ele>2699.04</ele>
        <time>2013-03-10T06:47:25Z</time>
      </trkpt>
      <trkpt lat="45.17428" lon="6.16718">
        <ele>2698.56</ele>
        <time>2013-03-10T06:47:57Z</time>
      </trkpt>
      <trkpt lat="45.17428" lon="6.16718">
        <ele>2698.56</ele>
        <time>2013-03-10T06:48:14Z</time>
      </trkpt>
      <trkpt lat="45.17428" lon="6.16718">
        <ele>2698.08</ele>
        <time>2013-03-10T06:48:48Z</time>
      </trkpt>
      <trkpt lat="45.17427" lon="6.16718">
        <ele>2698.08</ele>
        <time>2013-03-10T06:49:15Z</time>
      </trkpt>
      <trkpt lat="45.17427" lon="6.16718">
        <ele>2698.08</ele>
        <time>2013-03-10T06:49:40Z</time>
      </trkpt>
      <trkpt lat="45.17426" lon="6.1672">
        <ele>2698.08</ele>
        <time>2013-03-10T06:50:05Z</time>
      </trkpt>
      <trkpt lat="45.17428" lon="6.1672">
        <ele>2697.6</ele>
        <time>2013-03-10T06:50:19Z</time>
      </trkpt>
      <trkpt lat="45.17427" lon="6.16719">
        <ele>2697.6</ele>
        <time>2013-03-10T06:50:30Z</time>
      </trkpt>
      <trkpt lat="45.17427" lon="6.16719">
        <ele>2697.6</ele>
        <time>2013-03-10T06:50:45Z</time>
      </trkpt>
      <trkpt lat="45.17427" lon="6.16718">
        <ele>2698.56</ele>
        <time>2013-03-10T06:50:59Z</time>
      </trkpt>
      <trkpt lat="45.17427" lon="6.16718">
        <ele>2698.56</ele>
        <time>2013-03-10T06:51:23Z</time>
      </trkpt>
      <trkpt lat="45.17427" lon="6.16719">
        <ele>2698.56</ele>
        <time>2013-03-10T06:51:40Z</time>
      </trkpt>
      <trkpt lat="45.17426" lon="6.1672">
        <ele>2698.56</ele>
        <time>2013-03-10T06:52:10Z</time>
      </trkpt>
      <trkpt lat="45.17427" lon="6.16718">
        <ele>2698.56</ele>
        <time>2013-03-10T06:52:43Z</time>
      </trkpt>
      <trkpt lat="45.17425" lon="6.16717">
        <ele>2698.56</ele>
        <time>2013-03-10T06:53:15Z</time>
      </trkpt>
      <trkpt lat="45.17425" lon="6.16717">
        <ele>2698.56</ele>
        <time>2013-03-10T06:53:42Z</time>
      </trkpt>
      <trkpt lat="45.17425" lon="6.16716">
        <ele>2698.56</ele>
        <time>2013-03-10T06:53:55Z</time>
      </trkpt>
      <trkpt lat="45.17425" lon="6.16715">
        <ele>2698.56</ele>
        <time>2013-03-10T06:54:20Z</time>
      </trkpt>
      <trkpt lat="45.17425" lon="6.16715">
        <ele>2698.56</ele>
        <time>2013-03-10T06:54:52Z</time>
      </trkpt>
      <trkpt lat="45.17426" lon="6.16714">
        <ele>2698.56</ele>
        <time>2013-03-10T06:55:23Z</time>
      </trkpt>
      <trkpt lat="45.17426" lon="6.16715">
        <ele>2698.56</ele>
        <time>2013-03-10T06:55:42Z</time>
      </trkpt>
      <trkpt lat="45.17424" lon="6.16712">
        <ele>2698.56</ele>
        <time>2013-03-10T06:55:55Z</time>
      </trkpt>
      <trkpt lat="45.1742" lon="6.16708">
        <ele>2698.08</ele>
        <time>2013-03-10T06:56:08Z</time>
      </trkpt>
      <trkpt lat="45.17414" lon="6.16702">
        <ele>2698.08</ele>
        <time>2013-03-10T06:56:18Z</time>
      </trkpt>
      <trkpt lat="45.17409" lon="6.16695">
        <ele>2698.08</ele>
        <time>2013-03-10T06:56:32Z</time>
      </trkpt>
      <trkpt lat="45.17394" lon="6.16679">
        <ele>2698.08</ele>
        <time>2013-03-10T06:56:46Z</time>
      </trkpt>
      <trkpt lat="45.17389" lon="6.16673">
        <ele>2696.64</ele>
        <time>2013-03-10T06:56:51Z</time>
      </trkpt>
      <trkpt lat="45.17374" lon="6.16654">
        <ele>2696.15</ele>
        <time>2013-03-10T06:57:06Z</time>
      </trkpt>
      <trkpt lat="45.1737" lon="6.16647">
        <ele>2696.15</ele>
        <time>2013-03-10T06:57:11Z</time>
      </trkpt>
      <trkpt lat="45.17356" lon="6.16634">
        <ele>2695.67</ele>
        <time>2013-03-10T06:57:24Z</time>
      </trkpt>
      <trkpt lat="45.17339" lon="6.16619">
        <ele>2695.19</ele>
        <time>2013-03-10T06:57:40Z</time>
      </trkpt>
      <trkpt lat="45.17328" lon="6.16607">
        <ele>2694.71</ele>
        <time>2013-03-10T06:57:53Z</time>
      </trkpt>
      <trkpt lat="45.17313" lon="6.16596">
        <ele>2694.71</ele>
        <time>2013-03-10T06:58:09Z</time>
      </trkpt>
      <trkpt lat="45.17295" lon="6.16585">
        <ele>2695.67</ele>
        <time>2013-03-10T06:58:25Z</time>
      </trkpt>
      <trkpt lat="45.17284" lon="6.16572">
        <ele>2695.67</ele>
        <time>2013-03-10T06:58:39Z</time>
      </trkpt>
      <trkpt lat="45.17273" lon="6.16562">
        <ele>2695.67</ele>
        <time>2013-03-10T06:58:51Z</time>
      </trkpt>
      <trkpt lat="45.17262" lon="6.1655">
        <ele>2695.67</ele>
        <time>2013-03-10T06:59:01Z</time>
      </trkpt>
      <trkpt lat="45.17244" lon="6.16531">
        <ele>2695.67</ele>
        <time>2013-03-10T06:59:17Z</time>
      </trkpt>
      <trkpt lat="45.17228" lon="6.16517">
        <ele>2695.67</ele>
        <time>2013-03-10T06:59:32Z</time>
      </trkpt>
      <trkpt lat="45.17213" lon="6.16501">
        <ele>2695.67</ele>
        <time>2013-03-10T06:59:47Z</time>
      </trkpt>
      <trkpt lat="45.17202" lon="6.16494">
        <ele>2695.67</ele>
        <time>2013-03-10T06:59:57Z</time>
      </trkpt>
      <trkpt lat="45.1719" lon="6.16485">
        <ele>2695.67</ele>
        <time>2013-03-10T07:00:10Z</time>
      </trkpt>
      <trkpt lat="45.17185" lon="6.16483">
        <ele>2695.67</ele>
        <time>2013-03-10T07:00:14Z</time>
      </trkpt>
      <trkpt lat="45.1717" lon="6.16474">
        <ele>2696.15</ele>
        <time>2013-03-10T07:00:30Z</time>
      </trkpt>
      <trkpt lat="45.17157" lon="6.16464">
        <ele>2696.64</ele>
        <time>2013-03-10T07:00:45Z</time>
      </trkpt>
      <trkpt lat="45.1714" lon="6.16455">
        <ele>2697.6</ele>
        <time>2013-03-10T07:01:00Z</time>
      </trkpt>
      <trkpt lat="45.17123" lon="6.1644">
        <ele>2698.08</ele>
        <time>2013-03-10T07:01:16Z</time>
      </trkpt>
      <trkpt lat="45.17117" lon="6.16437">
        <ele>2698.08</ele>
        <time>2013-03-10T07:01:21Z</time>
      </trkpt>
      <trkpt lat="45.17102" lon="6.16431">
        <ele>2698.08</ele>
        <time>2013-03-10T07:01:35Z</time>
      </trkpt>
      <trkpt lat="45.17087" lon="6.16422">
        <ele>2698.56</ele>
        <time>2013-03-10T07:01:49Z</time>
      </trkpt>
      <trkpt lat="45.17074" lon="6.16415">
        <ele>2698.56</ele>
        <time>2013-03-10T07:02:02Z</time>
      </trkpt>
      <trkpt lat="45.17064" lon="6.16414">
        <ele>2699.04</ele>
        <time>2013-03-10T07:02:11Z</time>
      </trkpt>
      <trkpt lat="45.1705" lon="6.16409">
        <ele>2699.52</ele>
        <time>2013-03-10T07:02:25Z</time>
      </trkpt>
      <trkpt lat="45.17034" lon="6.16397">
        <ele>2700.48</ele>
        <time>2013-03-10T07:02:40Z</time>
      </trkpt>
      <trkpt lat="45.1702" lon="6.16384">
        <ele>2700.96</ele>
        <time>2013-03-10T07:02:55Z</time>
      </trkpt>
      <trkpt lat="45.17005" lon="6.16374">
        <ele>2701.44</ele>
        <time>2013-03-10T07:03:08Z</time>
      </trkpt>
      <trkpt lat="45.1699" lon="6.16368">
        <ele>2701.44</ele>
        <time>2013-03-10T07:03:22Z</time>
      </trkpt>
      <trkpt lat="45.16989" lon="6.16368">
        <ele>2701.44</ele>
        <time>2013-03-10T07:03:23Z</time>
      </trkpt>
      <trkpt lat="45.16983" lon="6.16365">
        <ele>2701.92</ele>
        <time>2013-03-10T07:03:29Z</time>
      </trkpt>
      <trkpt lat="45.16967" lon="6.16361">
        <ele>2702.88</ele>
        <time>2013-03-10T07:03:44Z</time>
      </trkpt>
      <trkpt lat="45.16954" lon="6.16357">
        <ele>2703.85</ele>
        <time>2013-03-10T07:03:58Z</time>
      </trkpt>
      <trkpt lat="45.16941" lon="6.16352">
        <ele>2705.77</ele>
        <time>2013-03-10T07:04:13Z</time>
      </trkpt>
      <trkpt lat="45.16928" lon="6.16349">
        <ele>2707.69</ele>
        <time>2013-03-10T07:04:28Z</time>
      </trkpt>
      <trkpt lat="45.16912" lon="6.16344">
        <ele>2709.13</ele>
        <time>2013-03-10T07:04:45Z</time>
      </trkpt>
      <trkpt lat="45.16901" lon="6.16338">
        <ele>2710.57</ele>
        <time>2013-03-10T07:04:58Z</time>
      </trkpt>
      <trkpt lat="45.16888" lon="6.1633">
        <ele>2712.02</ele>
        <time>2013-03-10T07:05:13Z</time>
      </trkpt>
      <trkpt lat="45.16878" lon="6.16326">
        <ele>2713.94</ele>
        <time>2013-03-10T07:05:26Z</time>
      </trkpt>
      <trkpt lat="45.16865" lon="6.16321">
        <ele>2715.86</ele>
        <time>2013-03-10T07:05:42Z</time>
      </trkpt>
      <trkpt lat="45.16855" lon="6.16316">
        <ele>2718.27</ele>
        <time>2013-03-10T07:05:56Z</time>
      </trkpt>
      <trkpt lat="45.16847" lon="6.16314">
        <ele>2719.23</ele>
        <time>2013-03-10T07:06:06Z</time>
      </trkpt>
      <trkpt lat="45.16833" lon="6.16309">
        <ele>2720.67</ele>
        <time>2013-03-10T07:06:21Z</time>
      </trkpt>
      <trkpt lat="45.16823" lon="6.16306">
        <ele>2721.15</ele>
        <time>2013-03-10T07:06:33Z</time>
      </trkpt>
      <trkpt lat="45.1681" lon="6.16303">
        <ele>2722.11</ele>
        <time>2013-03-10T07:06:46Z</time>
      </trkpt>
      <trkpt lat="45.16793" lon="6.16299">
        <ele>2723.07</ele>
        <time>2013-03-10T07:07:03Z</time>
      </trkpt>
      <trkpt lat="45.16777" lon="6.16295">
        <ele>2724.99</ele>
        <time>2013-03-10T07:07:21Z</time>
      </trkpt>
      <trkpt lat="45.16765" lon="6.16293">
        <ele>2725.96</ele>
        <time>2013-03-10T07:07:33Z</time>
      </trkpt>
      <trkpt lat="45.16751" lon="6.16289">
        <ele>2727.4</ele>
        <time>2013-03-10T07:07:49Z</time>
      </trkpt>
      <trkpt lat="45.16739" lon="6.16286">
        <ele>2728.36</ele>
        <time>2013-03-10T07:08:03Z</time>
      </trkpt>
      <trkpt lat="45.16729" lon="6.16282">
        <ele>2729.32</ele>
        <time>2013-03-10T07:08:14Z</time>
      </trkpt>
      <trkpt lat="45.16715" lon="6.16276">
        <ele>2731.24</ele>
        <time>2013-03-10T07:08:30Z</time>
      </trkpt>
      <trkpt lat="45.16703" lon="6.16272">
        <ele>2732.2</ele>
        <time>2013-03-10T07:08:44Z</time>
      </trkpt>
      <trkpt lat="45.167" lon="6.1627">
        <ele>2732.68</ele>
        <time>2013-03-10T07:08:48Z</time>
      </trkpt>
      <trkpt lat="45.16687" lon="6.16266">
        <ele>2733.65</ele>
        <time>2013-03-10T07:09:02Z</time>
      </trkpt>
      <trkpt lat="45.16677" lon="6.16262">
        <ele>2734.61</ele>
        <time>2013-03-10T07:09:14Z</time>
      </trkpt>
      <trkpt lat="45.16666" lon="6.16256">
        <ele>2736.05</ele>
        <time>2013-03-10T07:09:28Z</time>
      </trkpt>
      <trkpt lat="45.16655" lon="6.16253">
        <ele>2737.97</ele>
        <time>2013-03-10T07:09:41Z</time>
      </trkpt>
      <trkpt lat="45.16644" lon="6.16248">
        <ele>2739.41</ele>
        <time>2013-03-10T07:09:55Z</time>
      </trkpt>
      <trkpt lat="45.16633" lon="6.16244">
        <ele>2741.34</ele>
        <time>2013-03-10T07:10:09Z</time>
      </trkpt>
      <trkpt lat="45.16622" lon="6.1624">
        <ele>2741.82</ele>
        <time>2013-03-10T07:10:23Z</time>
      </trkpt>
      <trkpt lat="45.16613" lon="6.16236">
        <ele>2743.74</ele>
        <time>2013-03-10T07:10:35Z</time>
      </trkpt>
      <trkpt lat="45.16603" lon="6.16229">
        <ele>2745.18</ele>
        <time>2013-03-10T07:10:49Z</time>
      </trkpt>
      <trkpt lat="45.16593" lon="6.16222">
        <ele>2746.14</ele>
        <time>2013-03-10T07:11:03Z</time>
      </trkpt>
      <trkpt lat="45.16584" lon="6.16216">
        <ele>2748.07</ele>
        <time>2013-03-10T07:11:15Z</time>
      </trkpt>
      <trkpt lat="45.16573" lon="6.16206">
        <ele>2749.51</ele>
        <time>2013-03-10T07:11:30Z</time>
      </trkpt>
      <trkpt lat="45.16563" lon="6.16199">
        <ele>2751.91</ele>
        <time>2013-03-10T07:11:43Z</time>
      </trkpt>
      <trkpt lat="45.16553" lon="6.16192">
        <ele>2753.35</ele>
        <time>2013-03-10T07:11:56Z</time>
      </trkpt>
      <trkpt lat="45.16543" lon="6.16183">
        <ele>2754.8</ele>
        <time>2013-03-10T07:12:11Z</time>
      </trkpt>
      <trkpt lat="45.16532" lon="6.16176">
        <ele>2756.24</ele>
        <time>2013-03-10T07:12:25Z</time>
      </trkpt>
      <trkpt lat="45.16522" lon="6.16167">
        <ele>2758.16</ele>
        <time>2013-03-10T07:12:40Z</time>
      </trkpt>
      <trkpt lat="45.16512" lon="6.16159">
        <ele>2759.6</ele>
        <time>2013-03-10T07:12:54Z</time>
      </trkpt>
      <trkpt lat="45.16502" lon="6.16151">
        <ele>2761.04</ele>
        <time>2013-03-10T07:13:08Z</time>
      </trkpt>
      <trkpt lat="45.1649" lon="6.16143">
        <ele>2762.97</ele>
        <time>2013-03-10T07:13:23Z</time>
      </trkpt>
      <trkpt lat="45.16481" lon="6.16135">
        <ele>2763.93</ele>
        <time>2013-03-10T07:13:37Z</time>
      </trkpt>
      <trkpt lat="45.16476" lon="6.16131">
        <ele>2764.89</ele>
        <time>2013-03-10T07:13:45Z</time>
      </trkpt>
      <trkpt lat="45.16465" lon="6.16122">
        <ele>2767.29</ele>
        <time>2013-03-10T07:14:00Z</time>
      </trkpt>
      <trkpt lat="45.16455" lon="6.16114">
        <ele>2768.73</ele>
        <time>2013-03-10T07:14:14Z</time>
      </trkpt>
      <trkpt lat="45.16449" lon="6.16111">
        <ele>2770.18</ele>
        <time>2013-03-10T07:14:22Z</time>
      </trkpt>
      <trkpt lat="45.1644" lon="6.16104">
        <ele>2771.62</ele>
        <time>2013-03-10T07:14:36Z</time>
      </trkpt>
      <trkpt lat="45.16435" lon="6.16101">
        <ele>2772.1</ele>
        <time>2013-03-10T07:14:43Z</time>
      </trkpt>
      <trkpt lat="45.16425" lon="6.16093">
        <ele>2774.5</ele>
        <time>2013-03-10T07:14:58Z</time>
      </trkpt>
      <trkpt lat="45.16416" lon="6.16087">
        <ele>2776.91</ele>
        <time>2013-03-10T07:15:12Z</time>
      </trkpt>
      <trkpt lat="45.16406" lon="6.1608">
        <ele>2778.83</ele>
        <time>2013-03-10T07:15:27Z</time>
      </trkpt>
      <trkpt lat="45.16397" lon="6.16074">
        <ele>2780.27</ele>
        <time>2013-03-10T07:15:41Z</time>
      </trkpt>
      <trkpt lat="45.1639" lon="6.16066">
        <ele>2782.19</ele>
        <time>2013-03-10T07:15:53Z</time>
      </trkpt>
      <trkpt lat="45.16381" lon="6.16057">
        <ele>2783.63</ele>
        <time>2013-03-10T07:16:07Z</time>
      </trkpt>
      <trkpt lat="45.16373" lon="6.16048">
        <ele>2786.04</ele>
        <time>2013-03-10T07:16:22Z</time>
      </trkpt>
      <trkpt lat="45.16365" lon="6.16039">
        <ele>2787.96</ele>
        <time>2013-03-10T07:16:36Z</time>
      </trkpt>
      <trkpt lat="45.16358" lon="6.16031">
        <ele>2789.88</ele>
        <time>2013-03-10T07:16:48Z</time>
      </trkpt>
      <trkpt lat="45.1635" lon="6.16023">
        <ele>2791.33</ele>
        <time>2013-03-10T07:17:02Z</time>
      </trkpt>
      <trkpt lat="45.16344" lon="6.16016">
        <ele>2792.77</ele>
        <time>2013-03-10T07:17:14Z</time>
      </trkpt>
      <trkpt lat="45.16336" lon="6.16007">
        <ele>2794.21</ele>
        <time>2013-03-10T07:17:28Z</time>
      </trkpt>
      <trkpt lat="45.16327" lon="6.15998">
        <ele>2796.13</ele>
        <time>2013-03-10T07:17:43Z</time>
      </trkpt>
      <trkpt lat="45.16318" lon="6.15991">
        <ele>2797.57</ele>
        <time>2013-03-10T07:17:56Z</time>
      </trkpt>
      <trkpt lat="45.1631" lon="6.15981">
        <ele>2799.98</ele>
        <time>2013-03-10T07:18:11Z</time>
      </trkpt>
      <trkpt lat="45.16303" lon="6.1597">
        <ele>2801.42</ele>
        <time>2013-03-10T07:18:25Z</time>
      </trkpt>
      <trkpt lat="45.16301" lon="6.15968">
        <ele>2802.38</ele>
        <time>2013-03-10T07:18:28Z</time>
      </trkpt>
      <trkpt lat="45.16295" lon="6.15957">
        <ele>2803.82</ele>
        <time>2013-03-10T07:18:42Z</time>
      </trkpt>
      <trkpt lat="45.16289" lon="6.15946">
        <ele>2805.26</ele>
        <time>2013-03-10T07:18:56Z</time>
      </trkpt>
      <trkpt lat="45.16288" lon="6.15945">
        <ele>2805.75</ele>
        <time>2013-03-10T07:18:58Z</time>
      </trkpt>
      <trkpt lat="45.16284" lon="6.15934">
        <ele>2807.19</ele>
        <time>2013-03-10T07:19:12Z</time>
      </trkpt>
      <trkpt lat="45.16283" lon="6.1593">
        <ele>2809.11</ele>
        <time>2013-03-10T07:19:28Z</time>
      </trkpt>
      <trkpt lat="45.16282" lon="6.15922">
        <ele>2809.59</ele>
        <time>2013-03-10T07:19:42Z</time>
      </trkpt>
      <trkpt lat="45.16281" lon="6.15909">
        <ele>2811.03</ele>
        <time>2013-03-10T07:19:56Z</time>
      </trkpt>
      <trkpt lat="45.16282" lon="6.15906">
        <ele>2812.96</ele>
        <time>2013-03-10T07:20:08Z</time>
      </trkpt>
      <trkpt lat="45.16281" lon="6.15897">
        <ele>2814.4</ele>
        <time>2013-03-10T07:20:21Z</time>
      </trkpt>
      <trkpt lat="45.16282" lon="6.15885">
        <ele>2816.8</ele>
        <time>2013-03-10T07:20:35Z</time>
      </trkpt>
      <trkpt lat="45.16279" lon="6.15878">
        <ele>2819.68</ele>
        <time>2013-03-10T07:20:50Z</time>
      </trkpt>
      <trkpt lat="45.16279" lon="6.15878">
        <ele>2821.13</ele>
        <time>2013-03-10T07:21:12Z</time>
      </trkpt>
      <trkpt lat="45.16279" lon="6.15879">
        <ele>2821.61</ele>
        <time>2013-03-10T07:21:36Z</time>
      </trkpt>
      <trkpt lat="45.16277" lon="6.15875">
        <ele>2822.09</ele>
        <time>2013-03-10T07:21:57Z</time>
      </trkpt>
      <trkpt lat="45.16272" lon="6.15864">
        <ele>2823.53</ele>
        <time>2013-03-10T07:22:10Z</time>
      </trkpt>
      <trkpt lat="45.16267" lon="6.15855">
        <ele>2825.45</ele>
        <time>2013-03-10T07:22:23Z</time>
      </trkpt>
      <trkpt lat="45.16262" lon="6.15847">
        <ele>2828.34</ele>
        <time>2013-03-10T07:22:38Z</time>
      </trkpt>
      <trkpt lat="45.16256" lon="6.15839">
        <ele>2831.22</ele>
        <time>2013-03-10T07:22:52Z</time>
      </trkpt>
      <trkpt lat="45.1625" lon="6.15832">
        <ele>2833.14</ele>
        <time>2013-03-10T07:23:05Z</time>
      </trkpt>
      <trkpt lat="45.16245" lon="6.15826">
        <ele>2835.06</ele>
        <time>2013-03-10T07:23:16Z</time>
      </trkpt>
      <trkpt lat="45.16238" lon="6.1582">
        <ele>2837.47</ele>
        <time>2013-03-10T07:23:31Z</time>
      </trkpt>
      <trkpt lat="45.16237" lon="6.15818">
        <ele>2838.91</ele>
        <time>2013-03-10T07:23:44Z</time>
      </trkpt>
      <trkpt lat="45.16234" lon="6.15816">
        <ele>2839.87</ele>
        <time>2013-03-10T07:23:58Z</time>
      </trkpt>
      <trkpt lat="45.16225" lon="6.15807">
        <ele>2843.24</ele>
        <time>2013-03-10T07:24:16Z</time>
      </trkpt>
      <trkpt lat="45.16217" lon="6.15801">
        <ele>2845.64</ele>
        <time>2013-03-10T07:24:32Z</time>
      </trkpt>
      <trkpt lat="45.16218" lon="6.15802">
        <ele>2847.08</ele>
        <time>2013-03-10T07:24:52Z</time>
      </trkpt>
      <trkpt lat="45.16214" lon="6.15798">
        <ele>2847.56</ele>
        <time>2013-03-10T07:25:07Z</time>
      </trkpt>
      <trkpt lat="45.16205" lon="6.15793">
        <ele>2849.97</ele>
        <time>2013-03-10T07:25:23Z</time>
      </trkpt>
      <trkpt lat="45.16198" lon="6.15788">
        <ele>2852.37</ele>
        <time>2013-03-10T07:25:36Z</time>
      </trkpt>
      <trkpt lat="45.16193" lon="6.15781">
        <ele>2854.29</ele>
        <time>2013-03-10T07:25:50Z</time>
      </trkpt>
      <trkpt lat="45.16188" lon="6.15777">
        <ele>2856.69</ele>
        <time>2013-03-10T07:26:02Z</time>
      </trkpt>
      <trkpt lat="45.1618" lon="6.15769">
        <ele>2859.58</ele>
        <time>2013-03-10T07:26:18Z</time>
      </trkpt>
      <trkpt lat="45.16178" lon="6.15765">
        <ele>2861.02</ele>
        <time>2013-03-10T07:26:39Z</time>
      </trkpt>
      <trkpt lat="45.16169" lon="6.15758">
        <ele>2863.42</ele>
        <time>2013-03-10T07:26:58Z</time>
      </trkpt>
      <trkpt lat="45.1616" lon="6.15751">
        <ele>2865.83</ele>
        <time>2013-03-10T07:27:15Z</time>
      </trkpt>
      <trkpt lat="45.16153" lon="6.15746">
        <ele>2868.23</ele>
        <time>2013-03-10T07:27:29Z</time>
      </trkpt>
      <trkpt lat="45.16146" lon="6.15743">
        <ele>2869.67</ele>
        <time>2013-03-10T07:27:41Z</time>
      </trkpt>
      <trkpt lat="45.16138" lon="6.15736">
        <ele>2872.08</ele>
        <time>2013-03-10T07:27:56Z</time>
      </trkpt>
      <trkpt lat="45.1613" lon="6.15729">
        <ele>2874.48</ele>
        <time>2013-03-10T07:28:13Z</time>
      </trkpt>
      <trkpt lat="45.16122" lon="6.15724">
        <ele>2876.4</ele>
        <time>2013-03-10T07:28:26Z</time>
      </trkpt>
      <trkpt lat="45.16119" lon="6.15722">
        <ele>2877.84</ele>
        <time>2013-03-10T07:28:41Z</time>
      </trkpt>
      <trkpt lat="45.16112" lon="6.15718">
        <ele>2878.81</ele>
        <time>2013-03-10T07:28:54Z</time>
      </trkpt>
      <trkpt lat="45.16102" lon="6.15713">
        <ele>2881.21</ele>
        <time>2013-03-10T07:29:10Z</time>
      </trkpt>
      <trkpt lat="45.1609" lon="6.15708">
        <ele>2884.09</ele>
        <time>2013-03-10T07:29:29Z</time>
      </trkpt>
      <trkpt lat="45.16083" lon="6.15707">
        <ele>2886.02</ele>
        <time>2013-03-10T07:29:41Z</time>
      </trkpt>
      <trkpt lat="45.16077" lon="6.15706">
        <ele>2887.94</ele>
        <time>2013-03-10T07:29:53Z</time>
      </trkpt>
      <trkpt lat="45.16068" lon="6.15704">
        <ele>2890.82</ele>
        <time>2013-03-10T07:30:11Z</time>
      </trkpt>
      <trkpt lat="45.16059" lon="6.15698">
        <ele>2893.71</ele>
        <time>2013-03-10T07:30:29Z</time>
      </trkpt>
      <trkpt lat="45.16052" lon="6.15687">
        <ele>2895.63</ele>
        <time>2013-03-10T07:30:47Z</time>
      </trkpt>
      <trkpt lat="45.16049" lon="6.15672">
        <ele>2898.03</ele>
        <time>2013-03-10T07:31:03Z</time>
      </trkpt>
      <trkpt lat="45.16048" lon="6.1566">
        <ele>2899.47</ele>
        <time>2013-03-10T07:31:16Z</time>
      </trkpt>
      <trkpt lat="45.16044" lon="6.15658">
        <ele>2902.84</ele>
        <time>2013-03-10T07:31:30Z</time>
      </trkpt>
      <trkpt lat="45.16036" lon="6.15657">
        <ele>2905.72</ele>
        <time>2013-03-10T07:31:48Z</time>
      </trkpt>
      <trkpt lat="45.1603" lon="6.15656">
        <ele>2906.2</ele>
        <time>2013-03-10T07:31:56Z</time>
      </trkpt>
      <trkpt lat="45.16021" lon="6.15657">
        <ele>2908.13</ele>
        <time>2013-03-10T07:32:08Z</time>
      </trkpt>
      <trkpt lat="45.16014" lon="6.15659">
        <ele>2910.05</ele>
        <time>2013-03-10T07:32:20Z</time>
      </trkpt>
      <trkpt lat="45.16009" lon="6.15657">
        <ele>2911.49</ele>
        <time>2013-03-10T07:32:33Z</time>
      </trkpt>
      <trkpt lat="45.16006" lon="6.15646">
        <ele>2913.41</ele>
        <time>2013-03-10T07:32:48Z</time>
      </trkpt>
      <trkpt lat="45.16004" lon="6.15631">
        <ele>2916.78</ele>
        <time>2013-03-10T07:33:03Z</time>
      </trkpt>
      <trkpt lat="45.16003" lon="6.15622">
        <ele>2919.18</ele>
        <time>2013-03-10T07:33:23Z</time>
      </trkpt>
      <trkpt lat="45.16002" lon="6.15619">
        <ele>2921.1</ele>
        <time>2013-03-10T07:33:44Z</time>
      </trkpt>
      <trkpt lat="45.15995" lon="6.15617">
        <ele>2922.54</ele>
        <time>2013-03-10T07:33:57Z</time>
      </trkpt>
      <trkpt lat="45.15988" lon="6.15613">
        <ele>2924.95</ele>
        <time>2013-03-10T07:34:11Z</time>
      </trkpt>
      <trkpt lat="45.15983" lon="6.15608">
        <ele>2926.87</ele>
        <time>2013-03-10T07:34:24Z</time>
      </trkpt>
      <trkpt lat="45.15976" lon="6.15604">
        <ele>2930.24</ele>
        <time>2013-03-10T07:34:40Z</time>
      </trkpt>
      <trkpt lat="45.15971" lon="6.15594">
        <ele>2933.12</ele>
        <time>2013-03-10T07:34:55Z</time>
      </trkpt>
      <trkpt lat="45.15972" lon="6.15587">
        <ele>2935.52</ele>
        <time>2013-03-10T07:35:10Z</time>
      </trkpt>
      <trkpt lat="45.15971" lon="6.15578">
        <ele>2938.41</ele>
        <time>2013-03-10T07:35:27Z</time>
      </trkpt>
      <trkpt lat="45.15971" lon="6.15571">
        <ele>2940.81</ele>
        <time>2013-03-10T07:35:42Z</time>
      </trkpt>
      <trkpt lat="45.15969" lon="6.15563">
        <ele>2942.73</ele>
        <time>2013-03-10T07:35:55Z</time>
      </trkpt>
      <trkpt lat="45.15969" lon="6.15559">
        <ele>2944.17</ele>
        <time>2013-03-10T07:36:15Z</time>
      </trkpt>
      <trkpt lat="45.15971" lon="6.15559">
        <ele>2943.69</ele>
        <time>2013-03-10T07:36:36Z</time>
      </trkpt>
      <trkpt lat="45.15965" lon="6.15561">
        <ele>2945.14</ele>
        <time>2013-03-10T07:36:53Z</time>
      </trkpt>
      <trkpt lat="45.15957" lon="6.15562">
        <ele>2946.58</ele>
        <time>2013-03-10T07:37:03Z</time>
      </trkpt>
      <trkpt lat="45.15949" lon="6.1556">
        <ele>2948.98</ele>
        <time>2013-03-10T07:37:17Z</time>
      </trkpt>
      <trkpt lat="45.1594" lon="6.15561">
        <ele>2952.35</ele>
        <time>2013-03-10T07:37:35Z</time>
      </trkpt>
      <trkpt lat="45.15941" lon="6.15556">
        <ele>2953.31</ele>
        <time>2013-03-10T07:37:47Z</time>
      </trkpt>
      <trkpt lat="45.15944" lon="6.15545">
        <ele>2956.19</ele>
        <time>2013-03-10T07:38:05Z</time>
      </trkpt>
      <trkpt lat="45.15947" lon="6.15533">
        <ele>2958.11</ele>
        <time>2013-03-10T07:38:19Z</time>
      </trkpt>
      <trkpt lat="45.15943" lon="6.15528">
        <ele>2960.52</ele>
        <time>2013-03-10T07:38:33Z</time>
      </trkpt>
      <trkpt lat="45.15935" lon="6.15532">
        <ele>2961.96</ele>
        <time>2013-03-10T07:38:47Z</time>
      </trkpt>
      <trkpt lat="45.1593" lon="6.15535">
        <ele>2963.88</ele>
        <time>2013-03-10T07:38:58Z</time>
      </trkpt>
      <trkpt lat="45.15923" lon="6.15535">
        <ele>2966.29</ele>
        <time>2013-03-10T07:39:11Z</time>
      </trkpt>
      <trkpt lat="45.15914" lon="6.15532">
        <ele>2968.21</ele>
        <time>2013-03-10T07:39:26Z</time>
      </trkpt>
      <trkpt lat="45.1591" lon="6.15532">
        <ele>2970.13</ele>
        <time>2013-03-10T07:39:37Z</time>
      </trkpt>
      <trkpt lat="45.15918" lon="6.15513">
        <ele>2971.57</ele>
        <time>2013-03-10T07:39:50Z</time>
      </trkpt>
      <trkpt lat="45.15922" lon="6.15503">
        <ele>2973.01</ele>
        <time>2013-03-10T07:40:02Z</time>
      </trkpt>
      <trkpt lat="45.15924" lon="6.15499">
        <ele>2974.94</ele>
        <time>2013-03-10T07:40:13Z</time>
      </trkpt>
      <trkpt lat="45.15927" lon="6.15493">
        <ele>2976.38</ele>
        <time>2013-03-10T07:40:28Z</time>
      </trkpt>
      <trkpt lat="45.15917" lon="6.15496">
        <ele>2978.3</ele>
        <time>2013-03-10T07:40:45Z</time>
      </trkpt>
      <trkpt lat="45.15907" lon="6.15499">
        <ele>2980.22</ele>
        <time>2013-03-10T07:40:58Z</time>
      </trkpt>
      <trkpt lat="45.15899" lon="6.15502">
        <ele>2983.11</ele>
        <time>2013-03-10T07:41:12Z</time>
      </trkpt>
      <trkpt lat="45.15902" lon="6.155">
        <ele>2983.59</ele>
        <time>2013-03-10T07:41:25Z</time>
      </trkpt>
      <trkpt lat="45.15905" lon="6.15495">
        <ele>2984.07</ele>
        <time>2013-03-10T07:41:49Z</time>
      </trkpt>
      <trkpt lat="45.15911" lon="6.1548">
        <ele>2985.51</ele>
        <time>2013-03-10T07:42:04Z</time>
      </trkpt>
      <trkpt lat="45.15914" lon="6.15471">
        <ele>2987.91</ele>
        <time>2013-03-10T07:42:19Z</time>
      </trkpt>
      <trkpt lat="45.15909" lon="6.15473">
        <ele>2989.36</ele>
        <time>2013-03-10T07:42:30Z</time>
      </trkpt>
      <trkpt lat="45.15902" lon="6.15479">
        <ele>2991.76</ele>
        <time>2013-03-10T07:42:44Z</time>
      </trkpt>
      <trkpt lat="45.15892" lon="6.1548">
        <ele>2993.2</ele>
        <time>2013-03-10T07:42:57Z</time>
      </trkpt>
      <trkpt lat="45.15894" lon="6.15473">
        <ele>2995.12</ele>
        <time>2013-03-10T07:43:07Z</time>
      </trkpt>
      <trkpt lat="45.15899" lon="6.15462">
        <ele>2996.57</ele>
        <time>2013-03-10T07:43:20Z</time>
      </trkpt>
      <trkpt lat="45.15903" lon="6.15453">
        <ele>2998.01</ele>
        <time>2013-03-10T07:43:32Z</time>
      </trkpt>
      <trkpt lat="45.15903" lon="6.15445">
        <ele>2998.97</ele>
        <time>2013-03-10T07:43:45Z</time>
      </trkpt>
      <trkpt lat="45.15896" lon="6.15454">
        <ele>3001.85</ele>
        <time>2013-03-10T07:44:02Z</time>
      </trkpt>
      <trkpt lat="45.15887" lon="6.15454">
        <ele>3004.26</ele>
        <time>2013-03-10T07:44:18Z</time>
      </trkpt>
      <trkpt lat="45.1588" lon="6.15453">
        <ele>3005.7</ele>
        <time>2013-03-10T07:44:29Z</time>
      </trkpt>
      <trkpt lat="45.15872" lon="6.15454">
        <ele>3006.66</ele>
        <time>2013-03-10T07:44:39Z</time>
      </trkpt>
      <trkpt lat="45.15868" lon="6.15456">
        <ele>3008.1</ele>
        <time>2013-03-10T07:44:48Z</time>
      </trkpt>
      <trkpt lat="45.15867" lon="6.15455">
        <ele>3009.54</ele>
        <time>2013-03-10T07:45:02Z</time>
      </trkpt>
      <trkpt lat="45.15868" lon="6.15454">
        <ele>3010.03</ele>
        <time>2013-03-10T07:45:27Z</time>
      </trkpt>
      <trkpt lat="45.15869" lon="6.15452">
        <ele>3010.03</ele>
        <time>2013-03-10T07:45:47Z</time>
      </trkpt>
      <trkpt lat="45.15869" lon="6.15449">
        <ele>3010.99</ele>
        <time>2013-03-10T07:46:05Z</time>
      </trkpt>
      <trkpt lat="45.15872" lon="6.15441">
        <ele>3011.47</ele>
        <time>2013-03-10T07:46:18Z</time>
      </trkpt>
      <trkpt lat="45.15875" lon="6.15432">
        <ele>3012.43</ele>
        <time>2013-03-10T07:46:31Z</time>
      </trkpt>
      <trkpt lat="45.15871" lon="6.1543">
        <ele>3012.91</ele>
        <time>2013-03-10T07:46:48Z</time>
      </trkpt>
      <trkpt lat="45.15871" lon="6.1543">
        <ele>3013.39</ele>
        <time>2013-03-10T07:47:16Z</time>
      </trkpt>
      <trkpt lat="45.15874" lon="6.15435">
        <ele>3013.39</ele>
        <time>2013-03-10T07:47:28Z</time>
      </trkpt>
      <trkpt lat="45.15879" lon="6.15439">
        <ele>3012.43</ele>
        <time>2013-03-10T07:48:00Z</time>
      </trkpt>
      <trkpt lat="45.15882" lon="6.1544">
        <ele>3012.43</ele>
        <time>2013-03-10T07:48:32Z</time>
      </trkpt>
      <trkpt lat="45.15878" lon="6.15444">
        <ele>3012.43</ele>
        <time>2013-03-10T07:49:08Z</time>
      </trkpt>
      <trkpt lat="45.15878" lon="6.15444">
        <ele>3012.43</ele>
        <time>2013-03-10T07:49:17Z</time>
      </trkpt>
      <trkpt lat="45.15877" lon="6.15443">
        <ele>3011.95</ele>
        <time>2013-03-10T07:49:30Z</time>
      </trkpt>
      <trkpt lat="45.15876" lon="6.15439">
        <ele>3013.39</ele>
        <time>2013-03-10T07:49:51Z</time>
      </trkpt>
      <trkpt lat="45.1588" lon="6.15427">
        <ele>3014.35</ele>
        <time>2013-03-10T07:50:06Z</time>
      </trkpt>
      <trkpt lat="45.15879" lon="6.15428">
        <ele>3015.79</ele>
        <time>2013-03-10T07:50:15Z</time>
      </trkpt>
      <trkpt lat="45.15872" lon="6.15424">
        <ele>3017.23</ele>
        <time>2013-03-10T07:50:28Z</time>
      </trkpt>
      <trkpt lat="45.15864" lon="6.15422">
        <ele>3020.12</ele>
        <time>2013-03-10T07:50:42Z</time>
      </trkpt>
      <trkpt lat="45.15854" lon="6.15423">
        <ele>3022.04</ele>
        <time>2013-03-10T07:50:56Z</time>
      </trkpt>
      <trkpt lat="45.15852" lon="6.15429">
        <ele>3023</ele>
        <time>2013-03-10T07:51:05Z</time>
      </trkpt>
      <trkpt lat="45.15849" lon="6.15431">
        <ele>3024.93</ele>
        <time>2013-03-10T07:51:19Z</time>
      </trkpt>
      <trkpt lat="45.15849" lon="6.15424">
        <ele>3026.37</ele>
        <time>2013-03-10T07:51:37Z</time>
      </trkpt>
      <trkpt lat="45.15851" lon="6.1541">
        <ele>3028.77</ele>
        <time>2013-03-10T07:51:52Z</time>
      </trkpt>
      <trkpt lat="45.15852" lon="6.15397">
        <ele>3030.69</ele>
        <time>2013-03-10T07:52:07Z</time>
      </trkpt>
      <trkpt lat="45.15854" lon="6.15388">
        <ele>3032.62</ele>
        <time>2013-03-10T07:52:20Z</time>
      </trkpt>
      <trkpt lat="45.15856" lon="6.15374">
        <ele>3035.02</ele>
        <time>2013-03-10T07:52:35Z</time>
      </trkpt>
      <trkpt lat="45.15857" lon="6.15363">
        <ele>3037.42</ele>
        <time>2013-03-10T07:52:49Z</time>
      </trkpt>
      <trkpt lat="45.1586" lon="6.15356">
        <ele>3039.35</ele>
        <time>2013-03-10T07:53:03Z</time>
      </trkpt>
      <trkpt lat="45.15861" lon="6.15355">
        <ele>3041.27</ele>
        <time>2013-03-10T07:53:17Z</time>
      </trkpt>
      <trkpt lat="45.15856" lon="6.15359">
        <ele>3043.19</ele>
        <time>2013-03-10T07:53:31Z</time>
      </trkpt>
      <trkpt lat="45.15848" lon="6.1536">
        <ele>3045.59</ele>
        <time>2013-03-10T07:53:46Z</time>
      </trkpt>
      <trkpt lat="45.15844" lon="6.1536">
        <ele>3047.52</ele>
        <time>2013-03-10T07:53:59Z</time>
      </trkpt>
      <trkpt lat="45.15847" lon="6.15341">
        <ele>3049.44</ele>
        <time>2013-03-10T07:54:15Z</time>
      </trkpt>
      <trkpt lat="45.15848" lon="6.15335">
        <ele>3050.88</ele>
        <time>2013-03-10T07:54:25Z</time>
      </trkpt>
      <trkpt lat="45.15846" lon="6.15337">
        <ele>3052.32</ele>
        <time>2013-03-10T07:54:36Z</time>
      </trkpt>
      <trkpt lat="45.1584" lon="6.1534">
        <ele>3054.25</ele>
        <time>2013-03-10T07:54:47Z</time>
      </trkpt>
      <trkpt lat="45.15832" lon="6.15343">
        <ele>3056.17</ele>
        <time>2013-03-10T07:55:02Z</time>
      </trkpt>
      <trkpt lat="45.15826" lon="6.15343">
        <ele>3057.61</ele>
        <time>2013-03-10T07:55:15Z</time>
      </trkpt>
      <trkpt lat="45.15831" lon="6.15331">
        <ele>3058.57</ele>
        <time>2013-03-10T07:55:26Z</time>
      </trkpt>
      <trkpt lat="45.15834" lon="6.15322">
        <ele>3060.01</ele>
        <time>2013-03-10T07:55:38Z</time>
      </trkpt>
      <trkpt lat="45.15839" lon="6.15309">
        <ele>3061.94</ele>
        <time>2013-03-10T07:55:53Z</time>
      </trkpt>
      <trkpt lat="45.15845" lon="6.15299">
        <ele>3064.34</ele>
        <time>2013-03-10T07:56:10Z</time>
      </trkpt>
      <trkpt lat="45.15851" lon="6.1529">
        <ele>3066.26</ele>
        <time>2013-03-10T07:56:25Z</time>
      </trkpt>
      <trkpt lat="45.15848" lon="6.15281">
        <ele>3069.15</ele>
        <time>2013-03-10T07:56:40Z</time>
      </trkpt>
      <trkpt lat="45.15842" lon="6.15283">
        <ele>3072.03</ele>
        <time>2013-03-10T07:56:55Z</time>
      </trkpt>
      <trkpt lat="45.15834" lon="6.15286">
        <ele>3073.95</ele>
        <time>2013-03-10T07:57:09Z</time>
      </trkpt>
      <trkpt lat="45.1584" lon="6.15278">
        <ele>3075.4</ele>
        <time>2013-03-10T07:57:29Z</time>
      </trkpt>
      <trkpt lat="45.15845" lon="6.15264">
        <ele>3076.84</ele>
        <time>2013-03-10T07:57:43Z</time>
      </trkpt>
      <trkpt lat="45.15847" lon="6.15258">
        <ele>3078.28</ele>
        <time>2013-03-10T07:57:52Z</time>
      </trkpt>
      <trkpt lat="45.15852" lon="6.15244">
        <ele>3080.2</ele>
        <time>2013-03-10T07:58:06Z</time>
      </trkpt>
      <trkpt lat="45.1585" lon="6.15235">
        <ele>3082.12</ele>
        <time>2013-03-10T07:58:20Z</time>
      </trkpt>
      <trkpt lat="45.15849" lon="6.15236">
        <ele>3083.57</ele>
        <time>2013-03-10T07:58:35Z</time>
      </trkpt>
      <trkpt lat="45.15838" lon="6.15239">
        <ele>3085.49</ele>
        <time>2013-03-10T07:58:52Z</time>
      </trkpt>
      <trkpt lat="45.15831" lon="6.15239">
        <ele>3087.41</ele>
        <time>2013-03-10T07:59:05Z</time>
      </trkpt>
      <trkpt lat="45.15822" lon="6.15244">
        <ele>3089.33</ele>
        <time>2013-03-10T07:59:17Z</time>
      </trkpt>
      <trkpt lat="45.15816" lon="6.15242">
        <ele>3091.26</ele>
        <time>2013-03-10T07:59:30Z</time>
      </trkpt>
      <trkpt lat="45.15805" lon="6.15244">
        <ele>3093.18</ele>
        <time>2013-03-10T07:59:44Z</time>
      </trkpt>
      <trkpt lat="45.15809" lon="6.15235">
        <ele>3094.62</ele>
        <time>2013-03-10T07:59:54Z</time>
      </trkpt>
      <trkpt lat="45.15814" lon="6.15224">
        <ele>3095.58</ele>
        <time>2013-03-10T08:00:05Z</time>
      </trkpt>
      <trkpt lat="45.15818" lon="6.15214">
        <ele>3096.54</ele>
        <time>2013-03-10T08:00:16Z</time>
      </trkpt>
      <trkpt lat="45.15818" lon="6.15205">
        <ele>3098.95</ele>
        <time>2013-03-10T08:00:30Z</time>
      </trkpt>
      <trkpt lat="45.1582" lon="6.15195">
        <ele>3100.39</ele>
        <time>2013-03-10T08:00:43Z</time>
      </trkpt>
      <trkpt lat="45.15825" lon="6.15184">
        <ele>3102.79</ele>
        <time>2013-03-10T08:00:58Z</time>
      </trkpt>
      <trkpt lat="45.15829" lon="6.15175">
        <ele>3104.71</ele>
        <time>2013-03-10T08:01:11Z</time>
      </trkpt>
      <trkpt lat="45.1583" lon="6.15165">
        <ele>3107.12</ele>
        <time>2013-03-10T08:01:28Z</time>
      </trkpt>
      <trkpt lat="45.15837" lon="6.15172">
        <ele>3108.56</ele>
        <time>2013-03-10T08:01:55Z</time>
      </trkpt>
      <trkpt lat="45.15837" lon="6.15173">
        <ele>3108.56</ele>
        <time>2013-03-10T08:02:18Z</time>
      </trkpt>
      <trkpt lat="45.1583" lon="6.15172">
        <ele>3109.04</ele>
        <time>2013-03-10T08:02:30Z</time>
      </trkpt>
      <trkpt lat="45.15816" lon="6.15171">
        <ele>3111.44</ele>
        <time>2013-03-10T08:02:45Z</time>
      </trkpt>
      <trkpt lat="45.15808" lon="6.15167">
        <ele>3113.85</ele>
        <time>2013-03-10T08:02:57Z</time>
      </trkpt>
      <trkpt lat="45.15802" lon="6.1517">
        <ele>3116.25</ele>
        <time>2013-03-10T08:03:10Z</time>
      </trkpt>
      <trkpt lat="45.15799" lon="6.15171">
        <ele>3117.21</ele>
        <time>2013-03-10T08:03:27Z</time>
      </trkpt>
      <trkpt lat="45.15791" lon="6.15169">
        <ele>3119.13</ele>
        <time>2013-03-10T08:03:42Z</time>
      </trkpt>
      <trkpt lat="45.15783" lon="6.15168">
        <ele>3121.06</ele>
        <time>2013-03-10T08:03:55Z</time>
      </trkpt>
      <trkpt lat="45.15776" lon="6.15166">
        <ele>3122.98</ele>
        <time>2013-03-10T08:04:07Z</time>
      </trkpt>
      <trkpt lat="45.15771" lon="6.15166">
        <ele>3124.9</ele>
        <time>2013-03-10T08:04:19Z</time>
      </trkpt>
      <trkpt lat="45.15774" lon="6.15159">
        <ele>3126.34</ele>
        <time>2013-03-10T08:04:32Z</time>
      </trkpt>
      <trkpt lat="45.15774" lon="6.15156">
        <ele>3126.83</ele>
        <time>2013-03-10T08:04:53Z</time>
      </trkpt>
      <trkpt lat="45.15772" lon="6.15149">
        <ele>3126.83</ele>
        <time>2013-03-10T08:05:19Z</time>
      </trkpt>
      <trkpt lat="45.15773" lon="6.15144">
        <ele>3127.31</ele>
        <time>2013-03-10T08:05:29Z</time>
      </trkpt>
      <trkpt lat="45.15773" lon="6.15137">
        <ele>3128.75</ele>
        <time>2013-03-10T08:05:40Z</time>
      </trkpt>
      <trkpt lat="45.15773" lon="6.15126">
        <ele>3130.67</ele>
        <time>2013-03-10T08:05:52Z</time>
      </trkpt>
      <trkpt lat="45.15775" lon="6.15113">
        <ele>3134.04</ele>
        <time>2013-03-10T08:06:07Z</time>
      </trkpt>
      <trkpt lat="45.15777" lon="6.15105">
        <ele>3136.44</ele>
        <time>2013-03-10T08:06:21Z</time>
      </trkpt>
      <trkpt lat="45.15778" lon="6.15098">
        <ele>3138.36</ele>
        <time>2013-03-10T08:06:33Z</time>
      </trkpt>
      <trkpt lat="45.15779" lon="6.15089">
        <ele>3139.8</ele>
        <time>2013-03-10T08:06:45Z</time>
      </trkpt>
      <trkpt lat="45.15777" lon="6.15086">
        <ele>3141.25</ele>
        <time>2013-03-10T08:07:02Z</time>
      </trkpt>
      <trkpt lat="45.1578" lon="6.15077">
        <ele>3143.17</ele>
        <time>2013-03-10T08:07:16Z</time>
      </trkpt>
      <trkpt lat="45.15784" lon="6.15066">
        <ele>3145.09</ele>
        <time>2013-03-10T08:07:30Z</time>
      </trkpt>
      <trkpt lat="45.15784" lon="6.15068">
        <ele>3147.49</ele>
        <time>2013-03-10T08:07:43Z</time>
      </trkpt>
      <trkpt lat="45.15786" lon="6.15071">
        <ele>3148.46</ele>
        <time>2013-03-10T08:08:13Z</time>
      </trkpt>
      <trkpt lat="45.15781" lon="6.15072">
        <ele>3148.94</ele>
        <time>2013-03-10T08:08:35Z</time>
      </trkpt>
      <trkpt lat="45.15776" lon="6.15069">
        <ele>3150.38</ele>
        <time>2013-03-10T08:08:48Z</time>
      </trkpt>
      <trkpt lat="45.15771" lon="6.15066">
        <ele>3152.3</ele>
        <time>2013-03-10T08:09:02Z</time>
      </trkpt>
      <trkpt lat="45.15762" lon="6.15064">
        <ele>3155.18</ele>
        <time>2013-03-10T08:09:20Z</time>
      </trkpt>
      <trkpt lat="45.15752" lon="6.15059">
        <ele>3157.59</ele>
        <time>2013-03-10T08:09:34Z</time>
      </trkpt>
      <trkpt lat="45.15746" lon="6.15057">
        <ele>3159.51</ele>
        <time>2013-03-10T08:09:45Z</time>
      </trkpt>
      <trkpt lat="45.15743" lon="6.15058">
        <ele>3161.91</ele>
        <time>2013-03-10T08:09:59Z</time>
      </trkpt>
      <trkpt lat="45.15738" lon="6.15057">
        <ele>3163.36</ele>
        <time>2013-03-10T08:10:19Z</time>
      </trkpt>
      <trkpt lat="45.15739" lon="6.15044">
        <ele>3164.8</ele>
        <time>2013-03-10T08:10:30Z</time>
      </trkpt>
      <trkpt lat="45.15741" lon="6.15032">
        <ele>3167.2</ele>
        <time>2013-03-10T08:10:47Z</time>
      </trkpt>
      <trkpt lat="45.15742" lon="6.15018">
        <ele>3169.6</ele>
        <time>2013-03-10T08:11:02Z</time>
      </trkpt>
      <trkpt lat="45.15743" lon="6.15009">
        <ele>3172.01</ele>
        <time>2013-03-10T08:11:18Z</time>
      </trkpt>
      <trkpt lat="45.15743" lon="6.15">
        <ele>3173.93</ele>
        <time>2013-03-10T08:11:32Z</time>
      </trkpt>
      <trkpt lat="45.15743" lon="6.14993">
        <ele>3175.85</ele>
        <time>2013-03-10T08:11:43Z</time>
      </trkpt>
      <trkpt lat="45.15743" lon="6.1498">
        <ele>3178.26</ele>
        <time>2013-03-10T08:11:59Z</time>
      </trkpt>
      <trkpt lat="45.15743" lon="6.14974">
        <ele>3180.66</ele>
        <time>2013-03-10T08:12:12Z</time>
      </trkpt>
      <trkpt lat="45.15747" lon="6.14965">
        <ele>3183.06</ele>
        <time>2013-03-10T08:12:26Z</time>
      </trkpt>
      <trkpt lat="45.1575" lon="6.14957">
        <ele>3184.98</ele>
        <time>2013-03-10T08:12:39Z</time>
      </trkpt>
      <trkpt lat="45.1575" lon="6.14949">
        <ele>3187.39</ele>
        <time>2013-03-10T08:12:54Z</time>
      </trkpt>
      <trkpt lat="45.15747" lon="6.14944">
        <ele>3189.79</ele>
        <time>2013-03-10T08:13:07Z</time>
      </trkpt>
      <trkpt lat="45.15745" lon="6.14944">
        <ele>3191.23</ele>
        <time>2013-03-10T08:13:30Z</time>
      </trkpt>
      <trkpt lat="45.15743" lon="6.14944">
        <ele>3191.23</ele>
        <time>2013-03-10T08:13:33Z</time>
      </trkpt>
      <trkpt lat="45.15738" lon="6.14944">
        <ele>3192.2</ele>
        <time>2013-03-10T08:13:47Z</time>
      </trkpt>
      <trkpt lat="45.15729" lon="6.14942">
        <ele>3193.64</ele>
        <time>2013-03-10T08:14:01Z</time>
      </trkpt>
      <trkpt lat="45.15723" lon="6.14944">
        <ele>3196.04</ele>
        <time>2013-03-10T08:14:15Z</time>
      </trkpt>
      <trkpt lat="45.15711" lon="6.14941">
        <ele>3199.4</ele>
        <time>2013-03-10T08:14:34Z</time>
      </trkpt>
      <trkpt lat="45.15702" lon="6.14941">
        <ele>3201.81</ele>
        <time>2013-03-10T08:14:52Z</time>
      </trkpt>
      <trkpt lat="45.157" lon="6.14937">
        <ele>3204.21</ele>
        <time>2013-03-10T08:15:06Z</time>
      </trkpt>
      <trkpt lat="45.15701" lon="6.14932">
        <ele>3204.69</ele>
        <time>2013-03-10T08:15:21Z</time>
      </trkpt>
      <trkpt lat="45.15704" lon="6.14925">
        <ele>3206.13</ele>
        <time>2013-03-10T08:15:34Z</time>
      </trkpt>
      <trkpt lat="45.15709" lon="6.14907">
        <ele>3208.54</ele>
        <time>2013-03-10T08:15:52Z</time>
      </trkpt>
      <trkpt lat="45.15707" lon="6.14893">
        <ele>3210.46</ele>
        <time>2013-03-10T08:16:05Z</time>
      </trkpt>
      <trkpt lat="45.1571" lon="6.14886">
        <ele>3212.86</ele>
        <time>2013-03-10T08:16:18Z</time>
      </trkpt>
      <trkpt lat="45.15707" lon="6.14876">
        <ele>3214.79</ele>
        <time>2013-03-10T08:16:30Z</time>
      </trkpt>
      <trkpt lat="45.15707" lon="6.14864">
        <ele>3217.19</ele>
        <time>2013-03-10T08:16:45Z</time>
      </trkpt>
      <trkpt lat="45.15705" lon="6.14861">
        <ele>3219.11</ele>
        <time>2013-03-10T08:17:02Z</time>
      </trkpt>
      <trkpt lat="45.15703" lon="6.14861">
        <ele>3219.59</ele>
        <time>2013-03-10T08:17:29Z</time>
      </trkpt>
      <trkpt lat="45.15702" lon="6.14855">
        <ele>3220.55</ele>
        <time>2013-03-10T08:17:43Z</time>
      </trkpt>
      <trkpt lat="45.15698" lon="6.14842">
        <ele>3222.48</ele>
        <time>2013-03-10T08:17:58Z</time>
      </trkpt>
      <trkpt lat="45.15699" lon="6.14842">
        <ele>3222.96</ele>
        <time>2013-03-10T08:18:00Z</time>
      </trkpt>
      <trkpt lat="45.15697" lon="6.14841">
        <ele>3224.88</ele>
        <time>2013-03-10T08:18:18Z</time>
      </trkpt>
      <trkpt lat="45.15694" lon="6.14835">
        <ele>3225.36</ele>
        <time>2013-03-10T08:18:37Z</time>
      </trkpt>
      <trkpt lat="45.15692" lon="6.14824">
        <ele>3226.8</ele>
        <time>2013-03-10T08:18:50Z</time>
      </trkpt>
      <trkpt lat="45.15687" lon="6.14812">
        <ele>3229.21</ele>
        <time>2013-03-10T08:19:04Z</time>
      </trkpt>
      <trkpt lat="45.15681" lon="6.14805">
        <ele>3231.13</ele>
        <time>2013-03-10T08:19:18Z</time>
      </trkpt>
      <trkpt lat="45.15675" lon="6.14802">
        <ele>3233.53</ele>
        <time>2013-03-10T08:19:34Z</time>
      </trkpt>
      <trkpt lat="45.15666" lon="6.148">
        <ele>3235.45</ele>
        <time>2013-03-10T08:19:47Z</time>
      </trkpt>
      <trkpt lat="45.15661" lon="6.14798">
        <ele>3236.9</ele>
        <time>2013-03-10T08:19:57Z</time>
      </trkpt>
      <trkpt lat="45.15655" lon="6.14799">
        <ele>3239.3</ele>
        <time>2013-03-10T08:20:12Z</time>
      </trkpt>
      <trkpt lat="45.15645" lon="6.14801">
        <ele>3241.22</ele>
        <time>2013-03-10T08:20:28Z</time>
      </trkpt>
      <trkpt lat="45.15637" lon="6.14802">
        <ele>3243.63</ele>
        <time>2013-03-10T08:20:42Z</time>
      </trkpt>
      <trkpt lat="45.15628" lon="6.14804">
        <ele>3246.03</ele>
        <time>2013-03-10T08:20:58Z</time>
      </trkpt>
      <trkpt lat="45.15621" lon="6.14807">
        <ele>3248.91</ele>
        <time>2013-03-10T08:21:16Z</time>
      </trkpt>
      <trkpt lat="45.15617" lon="6.14809">
        <ele>3249.87</ele>
        <time>2013-03-10T08:21:23Z</time>
      </trkpt>
      <trkpt lat="45.15606" lon="6.14812">
        <ele>3252.28</ele>
        <time>2013-03-10T08:21:40Z</time>
      </trkpt>
      <trkpt lat="45.15597" lon="6.14816">
        <ele>3255.16</ele>
        <time>2013-03-10T08:21:57Z</time>
      </trkpt>
      <trkpt lat="45.15588" lon="6.14816">
        <ele>3256.6</ele>
        <time>2013-03-10T08:22:09Z</time>
      </trkpt>
      <trkpt lat="45.15582" lon="6.14814">
        <ele>3258.53</ele>
        <time>2013-03-10T08:22:21Z</time>
      </trkpt>
      <trkpt lat="45.15576" lon="6.1481">
        <ele>3260.45</ele>
        <time>2013-03-10T08:22:32Z</time>
      </trkpt>
      <trkpt lat="45.15568" lon="6.14806">
        <ele>3262.37</ele>
        <time>2013-03-10T08:22:43Z</time>
      </trkpt>
      <trkpt lat="45.15564" lon="6.14801">
        <ele>3264.77</ele>
        <time>2013-03-10T08:22:54Z</time>
      </trkpt>
      <trkpt lat="45.15563" lon="6.14797">
        <ele>3267.18</ele>
        <time>2013-03-10T08:23:09Z</time>
      </trkpt>
      <trkpt lat="45.15564" lon="6.14796">
        <ele>3268.14</ele>
        <time>2013-03-10T08:23:35Z</time>
      </trkpt>
      <trkpt lat="45.15565" lon="6.14794">
        <ele>3268.14</ele>
        <time>2013-03-10T08:24:01Z</time>
      </trkpt>
      <trkpt lat="45.15566" lon="6.14794">
        <ele>3268.14</ele>
        <time>2013-03-10T08:24:27Z</time>
      </trkpt>
      <trkpt lat="45.15565" lon="6.14785">
        <ele>3268.62</ele>
        <time>2013-03-10T08:24:41Z</time>
      </trkpt>
      <trkpt lat="45.15566" lon="6.14771">
        <ele>3269.58</ele>
        <time>2013-03-10T08:24:53Z</time>
      </trkpt>
      <trkpt lat="45.15566" lon="6.1476">
        <ele>3271.98</ele>
        <time>2013-03-10T08:25:06Z</time>
      </trkpt>
      <trkpt lat="45.15568" lon="6.14751">
        <ele>3273.43</ele>
        <time>2013-03-10T08:25:19Z</time>
      </trkpt>
      <trkpt lat="45.1557" lon="6.14741">
        <ele>3275.35</ele>
        <time>2013-03-10T08:25:34Z</time>
      </trkpt>
      <trkpt lat="45.15572" lon="6.14729">
        <ele>3278.23</ele>
        <time>2013-03-10T08:25:49Z</time>
      </trkpt>
      <trkpt lat="45.15574" lon="6.14723">
        <ele>3279.67</ele>
        <time>2013-03-10T08:26:03Z</time>
      </trkpt>
      <trkpt lat="45.15573" lon="6.14722">
        <ele>3280.64</ele>
        <time>2013-03-10T08:26:22Z</time>
      </trkpt>
      <trkpt lat="45.15574" lon="6.14723">
        <ele>3281.12</ele>
        <time>2013-03-10T08:26:39Z</time>
      </trkpt>
      <trkpt lat="45.15578" lon="6.14716">
        <ele>3281.6</ele>
        <time>2013-03-10T08:26:56Z</time>
      </trkpt>
      <trkpt lat="45.15583" lon="6.14708">
        <ele>3283.52</ele>
        <time>2013-03-10T08:27:11Z</time>
      </trkpt>
      <trkpt lat="45.15587" lon="6.14696">
        <ele>3285.44</ele>
        <time>2013-03-10T08:27:26Z</time>
      </trkpt>
      <trkpt lat="45.15589" lon="6.14686">
        <ele>3287.37</ele>
        <time>2013-03-10T08:27:38Z</time>
      </trkpt>
      <trkpt lat="45.15591" lon="6.14676">
        <ele>3289.29</ele>
        <time>2013-03-10T08:27:51Z</time>
      </trkpt>
      <trkpt lat="45.15591" lon="6.14665">
        <ele>3291.69</ele>
        <time>2013-03-10T08:28:07Z</time>
      </trkpt>
      <trkpt lat="45.15593" lon="6.14659">
        <ele>3294.09</ele>
        <time>2013-03-10T08:28:21Z</time>
      </trkpt>
      <trkpt lat="45.15595" lon="6.1465">
        <ele>3295.54</ele>
        <time>2013-03-10T08:28:33Z</time>
      </trkpt>
      <trkpt lat="45.15595" lon="6.14636">
        <ele>3297.46</ele>
        <time>2013-03-10T08:28:48Z</time>
      </trkpt>
      <trkpt lat="45.15599" lon="6.14624">
        <ele>3299.86</ele>
        <time>2013-03-10T08:29:01Z</time>
      </trkpt>
      <trkpt lat="45.156" lon="6.14617">
        <ele>3301.3</ele>
        <time>2013-03-10T08:29:13Z</time>
      </trkpt>
      <trkpt lat="45.15601" lon="6.14605">
        <ele>3303.71</ele>
        <time>2013-03-10T08:29:26Z</time>
      </trkpt>
      <trkpt lat="45.15602" lon="6.14594">
        <ele>3306.59</ele>
        <time>2013-03-10T08:29:40Z</time>
      </trkpt>
      <trkpt lat="45.15602" lon="6.14598">
        <ele>3307.55</ele>
        <time>2013-03-10T08:29:51Z</time>
      </trkpt>
      <trkpt lat="45.15604" lon="6.14601">
        <ele>3308.03</ele>
        <time>2013-03-10T08:30:09Z</time>
      </trkpt>
      <trkpt lat="45.15604" lon="6.14604">
        <ele>3308.51</ele>
        <time>2013-03-10T08:30:37Z</time>
      </trkpt>
      <trkpt lat="45.15599" lon="6.14604">
        <ele>3309.48</ele>
        <time>2013-03-10T08:30:55Z</time>
      </trkpt>
      <trkpt lat="45.15592" lon="6.14599">
        <ele>3310.92</ele>
        <time>2013-03-10T08:31:09Z</time>
      </trkpt>
      <trkpt lat="45.15584" lon="6.14598">
        <ele>3313.8</ele>
        <time>2013-03-10T08:31:27Z</time>
      </trkpt>
      <trkpt lat="45.15575" lon="6.14599">
        <ele>3315.72</ele>
        <time>2013-03-10T08:31:38Z</time>
      </trkpt>
      <trkpt lat="45.15568" lon="6.146">
        <ele>3317.65</ele>
        <time>2013-03-10T08:31:51Z</time>
      </trkpt>
      <trkpt lat="45.1556" lon="6.14602">
        <ele>3321.01</ele>
        <time>2013-03-10T08:32:09Z</time>
      </trkpt>
      <trkpt lat="45.15556" lon="6.14602">
        <ele>3322.45</ele>
        <time>2013-03-10T08:32:21Z</time>
      </trkpt>
      <trkpt lat="45.15556" lon="6.14604">
        <ele>3322.93</ele>
        <time>2013-03-10T08:32:33Z</time>
      </trkpt>
      <trkpt lat="45.15556" lon="6.14604">
        <ele>3322.93</ele>
        <time>2013-03-10T08:32:55Z</time>
      </trkpt>
      <trkpt lat="45.1555" lon="6.14603">
        <ele>3324.38</ele>
        <time>2013-03-10T08:33:12Z</time>
      </trkpt>
      <trkpt lat="45.15541" lon="6.14602">
        <ele>3327.26</ele>
        <time>2013-03-10T08:33:29Z</time>
      </trkpt>
      <trkpt lat="45.15538" lon="6.14604">
        <ele>3327.74</ele>
        <time>2013-03-10T08:33:34Z</time>
      </trkpt>
      <trkpt lat="45.1553" lon="6.14605">
        <ele>3330.14</ele>
        <time>2013-03-10T08:33:48Z</time>
      </trkpt>
      <trkpt lat="45.15523" lon="6.14607">
        <ele>3333.51</ele>
        <time>2013-03-10T08:34:05Z</time>
      </trkpt>
      <trkpt lat="45.15515" lon="6.14611">
        <ele>3335.91</ele>
        <time>2013-03-10T08:34:22Z</time>
      </trkpt>
      <trkpt lat="45.15509" lon="6.14614">
        <ele>3337.83</ele>
        <time>2013-03-10T08:34:34Z</time>
      </trkpt>
      <trkpt lat="45.15507" lon="6.14617">
        <ele>3339.28</ele>
        <time>2013-03-10T08:34:47Z</time>
      </trkpt>
      <trkpt lat="45.15508" lon="6.14618">
        <ele>3339.76</ele>
        <time>2013-03-10T08:35:09Z</time>
      </trkpt>
      <trkpt lat="45.15509" lon="6.14618">
        <ele>3339.76</ele>
        <time>2013-03-10T08:35:28Z</time>
      </trkpt>
      <trkpt lat="45.15509" lon="6.14618">
        <ele>3339.76</ele>
        <time>2013-03-10T08:35:46Z</time>
      </trkpt>
      <trkpt lat="45.15508" lon="6.14615">
        <ele>3339.76</ele>
        <time>2013-03-10T08:36:00Z</time>
      </trkpt>
      <trkpt lat="45.15508" lon="6.14613">
        <ele>3339.28</ele>
        <time>2013-03-10T08:36:19Z</time>
      </trkpt>
      <trkpt lat="45.15503" lon="6.14613">
        <ele>3339.76</ele>
        <time>2013-03-10T08:36:39Z</time>
      </trkpt>
      <trkpt lat="45.15494" lon="6.1462">
        <ele>3342.16</ele>
        <time>2013-03-10T08:36:55Z</time>
      </trkpt>
      <trkpt lat="45.15489" lon="6.1462">
        <ele>3344.56</ele>
        <time>2013-03-10T08:37:11Z</time>
      </trkpt>
      <trkpt lat="45.15489" lon="6.14621">
        <ele>3345.04</ele>
        <time>2013-03-10T08:37:29Z</time>
      </trkpt>
      <trkpt lat="45.15488" lon="6.14621">
        <ele>3345.52</ele>
        <time>2013-03-10T08:37:43Z</time>
      </trkpt>
      <trkpt lat="45.15485" lon="6.14623">
        <ele>3346.97</ele>
        <time>2013-03-10T08:37:55Z</time>
      </trkpt>
      <trkpt lat="45.15482" lon="6.14627">
        <ele>3347.93</ele>
        <time>2013-03-10T08:38:04Z</time>
      </trkpt>
      <trkpt lat="45.15476" lon="6.14631">
        <ele>3350.33</ele>
        <time>2013-03-10T08:38:17Z</time>
      </trkpt>
      <trkpt lat="45.15469" lon="6.14636">
        <ele>3352.25</ele>
        <time>2013-03-10T08:38:30Z</time>
      </trkpt>
      <trkpt lat="45.15468" lon="6.14636">
        <ele>3353.7</ele>
        <time>2013-03-10T08:38:46Z</time>
      </trkpt>
      <trkpt lat="45.15468" lon="6.14636">
        <ele>3354.18</ele>
        <time>2013-03-10T08:39:03Z</time>
      </trkpt>
      <trkpt lat="45.1546" lon="6.14641">
        <ele>3355.62</ele>
        <time>2013-03-10T08:39:18Z</time>
      </trkpt>
      <trkpt lat="45.15458" lon="6.14641">
        <ele>3357.06</ele>
        <time>2013-03-10T08:39:28Z</time>
      </trkpt>
      <trkpt lat="45.15458" lon="6.14636">
        <ele>3358.02</ele>
        <time>2013-03-10T08:39:45Z</time>
      </trkpt>
      <trkpt lat="45.15459" lon="6.14628">
        <ele>3358.98</ele>
        <time>2013-03-10T08:39:55Z</time>
      </trkpt>
      <trkpt lat="45.15458" lon="6.14616">
        <ele>3360.43</ele>
        <time>2013-03-10T08:40:08Z</time>
      </trkpt>
      <trkpt lat="45.15459" lon="6.14616">
        <ele>3361.87</ele>
        <time>2013-03-10T08:40:28Z</time>
      </trkpt>
      <trkpt lat="45.15461" lon="6.14605">
        <ele>3362.83</ele>
        <time>2013-03-10T08:40:42Z</time>
      </trkpt>
      <trkpt lat="45.15462" lon="6.14598">
        <ele>3364.75</ele>
        <time>2013-03-10T08:40:54Z</time>
      </trkpt>
      <trkpt lat="45.15463" lon="6.14592">
        <ele>3365.71</ele>
        <time>2013-03-10T08:41:19Z</time>
      </trkpt>
      <trkpt lat="45.15465" lon="6.14587">
        <ele>3366.19</ele>
        <time>2013-03-10T08:41:25Z</time>
      </trkpt>
      <trkpt lat="45.15467" lon="6.14579">
        <ele>3367.64</ele>
        <time>2013-03-10T08:41:37Z</time>
      </trkpt>
      <trkpt lat="45.15469" lon="6.14578">
        <ele>3368.6</ele>
        <time>2013-03-10T08:41:48Z</time>
      </trkpt>
      <trkpt lat="45.15468" lon="6.14578">
        <ele>3369.08</ele>
        <time>2013-03-10T08:42:04Z</time>
      </trkpt>
      <trkpt lat="45.15471" lon="6.14571">
        <ele>3370.04</ele>
        <time>2013-03-10T08:42:15Z</time>
      </trkpt>
      <trkpt lat="45.15473" lon="6.1456">
        <ele>3371.96</ele>
        <time>2013-03-10T08:42:30Z</time>
      </trkpt>
      <trkpt lat="45.15473" lon="6.14557">
        <ele>3373.4</ele>
        <time>2013-03-10T08:42:56Z</time>
      </trkpt>
      <trkpt lat="45.15475" lon="6.1455">
        <ele>3373.88</ele>
        <time>2013-03-10T08:43:13Z</time>
      </trkpt>
      <trkpt lat="45.15475" lon="6.14542">
        <ele>3375.81</ele>
        <time>2013-03-10T08:43:27Z</time>
      </trkpt>
      <trkpt lat="45.15477" lon="6.14542">
        <ele>3377.25</ele>
        <time>2013-03-10T08:43:57Z</time>
      </trkpt>
      <trkpt lat="45.15477" lon="6.14541">
        <ele>3377.25</ele>
        <time>2013-03-10T08:44:02Z</time>
      </trkpt>
      <trkpt lat="45.15478" lon="6.14531">
        <ele>3377.73</ele>
        <time>2013-03-10T08:44:15Z</time>
      </trkpt>
      <trkpt lat="45.1548" lon="6.14522">
        <ele>3379.17</ele>
        <time>2013-03-10T08:44:28Z</time>
      </trkpt>
      <trkpt lat="45.15482" lon="6.14515">
        <ele>3381.09</ele>
        <time>2013-03-10T08:44:42Z</time>
      </trkpt>
      <trkpt lat="45.15483" lon="6.14518">
        <ele>3382.06</ele>
        <time>2013-03-10T08:45:16Z</time>
      </trkpt>
      <trkpt lat="45.15484" lon="6.14515">
        <ele>3382.54</ele>
        <time>2013-03-10T08:45:30Z</time>
      </trkpt>
      <trkpt lat="45.15486" lon="6.14503">
        <ele>3384.46</ele>
        <time>2013-03-10T08:45:42Z</time>
      </trkpt>
      <trkpt lat="45.15486" lon="6.145">
        <ele>3385.9</ele>
        <time>2013-03-10T08:45:57Z</time>
      </trkpt>
      <trkpt lat="45.15488" lon="6.14496">
        <ele>3387.34</ele>
        <time>2013-03-10T08:46:18Z</time>
      </trkpt>
      <trkpt lat="45.1549" lon="6.1449">
        <ele>3388.3</ele>
        <time>2013-03-10T08:46:33Z</time>
      </trkpt>
      <trkpt lat="45.1549" lon="6.14483">
        <ele>3389.27</ele>
        <time>2013-03-10T08:47:04Z</time>
      </trkpt>
      <trkpt lat="45.1549" lon="6.1448">
        <ele>3390.23</ele>
        <time>2013-03-10T08:47:15Z</time>
      </trkpt>
      <trkpt lat="45.15492" lon="6.14485">
        <ele>3390.71</ele>
        <time>2013-03-10T08:47:29Z</time>
      </trkpt>
      <trkpt lat="45.15492" lon="6.14485">
        <ele>3391.19</ele>
        <time>2013-03-10T08:47:52Z</time>
      </trkpt>
      <trkpt lat="45.15491" lon="6.14487">
        <ele>3391.19</ele>
        <time>2013-03-10T08:48:16Z</time>
      </trkpt>
      <trkpt lat="45.15483" lon="6.14493">
        <ele>3392.15</ele>
        <time>2013-03-10T08:48:27Z</time>
      </trkpt>
      <trkpt lat="45.15477" lon="6.14499">
        <ele>3394.55</ele>
        <time>2013-03-10T08:48:42Z</time>
      </trkpt>
      <trkpt lat="45.15471" lon="6.14502">
        <ele>3395.99</ele>
        <time>2013-03-10T08:48:56Z</time>
      </trkpt>
      <trkpt lat="45.15468" lon="6.14502">
        <ele>3397.92</ele>
        <time>2013-03-10T08:49:13Z</time>
      </trkpt>
      <trkpt lat="45.1547" lon="6.14503">
        <ele>3398.4</ele>
        <time>2013-03-10T08:49:33Z</time>
      </trkpt>
      <trkpt lat="45.15462" lon="6.14507">
        <ele>3399.84</ele>
        <time>2013-03-10T08:49:48Z</time>
      </trkpt>
      <trkpt lat="45.15453" lon="6.14513">
        <ele>3401.76</ele>
        <time>2013-03-10T08:50:03Z</time>
      </trkpt>
      <trkpt lat="45.15447" lon="6.14516">
        <ele>3404.17</ele>
        <time>2013-03-10T08:50:19Z</time>
      </trkpt>
      <trkpt lat="45.15446" lon="6.14516">
        <ele>3405.61</ele>
        <time>2013-03-10T08:50:34Z</time>
      </trkpt>
      <trkpt lat="45.15449" lon="6.1451">
        <ele>3406.09</ele>
        <time>2013-03-10T08:50:54Z</time>
      </trkpt>
      <trkpt lat="45.1545" lon="6.14507">
        <ele>3406.57</ele>
        <time>2013-03-10T08:51:14Z</time>
      </trkpt>
      <trkpt lat="45.15448" lon="6.14504">
        <ele>3407.53</ele>
        <time>2013-03-10T08:51:27Z</time>
      </trkpt>
      <trkpt lat="45.15449" lon="6.14495">
        <ele>3408.97</ele>
        <time>2013-03-10T08:51:39Z</time>
      </trkpt>
      <trkpt lat="45.15449" lon="6.14487">
        <ele>3410.41</ele>
        <time>2013-03-10T08:51:48Z</time>
      </trkpt>
      <trkpt lat="45.15447" lon="6.14476">
        <ele>3411.86</ele>
        <time>2013-03-10T08:52:00Z</time>
      </trkpt>
      <trkpt lat="45.1545" lon="6.14462">
        <ele>3414.26</ele>
        <time>2013-03-10T08:52:14Z</time>
      </trkpt>
      <trkpt lat="45.15453" lon="6.14452">
        <ele>3415.7</ele>
        <time>2013-03-10T08:52:27Z</time>
      </trkpt>
      <trkpt lat="45.15456" lon="6.14449">
        <ele>3417.62</ele>
        <time>2013-03-10T08:52:39Z</time>
      </trkpt>
      <trkpt lat="45.15456" lon="6.14455">
        <ele>3418.59</ele>
        <time>2013-03-10T08:52:53Z</time>
      </trkpt>
      <trkpt lat="45.15456" lon="6.14456">
        <ele>3418.59</ele>
        <time>2013-03-10T08:53:25Z</time>
      </trkpt>
      <trkpt lat="45.1545" lon="6.14461">
        <ele>3419.55</ele>
        <time>2013-03-10T08:53:39Z</time>
      </trkpt>
      <trkpt lat="45.15445" lon="6.14465">
        <ele>3421.47</ele>
        <time>2013-03-10T08:53:55Z</time>
      </trkpt>
      <trkpt lat="45.15439" lon="6.14472">
        <ele>3423.87</ele>
        <time>2013-03-10T08:54:10Z</time>
      </trkpt>
      <trkpt lat="45.15433" lon="6.14479">
        <ele>3425.8</ele>
        <time>2013-03-10T08:54:25Z</time>
      </trkpt>
      <trkpt lat="45.1543" lon="6.14475">
        <ele>3427.24</ele>
        <time>2013-03-10T08:54:39Z</time>
      </trkpt>
      <trkpt lat="45.15425" lon="6.14464">
        <ele>3428.2</ele>
        <time>2013-03-10T08:55:09Z</time>
      </trkpt>
      <trkpt lat="45.15426" lon="6.1446">
        <ele>3428.68</ele>
        <time>2013-03-10T08:55:22Z</time>
      </trkpt>
      <trkpt lat="45.15427" lon="6.14457">
        <ele>3430.12</ele>
        <time>2013-03-10T08:55:36Z</time>
      </trkpt>
      <trkpt lat="45.15427" lon="6.14456">
        <ele>3431.08</ele>
        <time>2013-03-10T08:55:54Z</time>
      </trkpt>
      <trkpt lat="45.1543" lon="6.14452">
        <ele>3432.04</ele>
        <time>2013-03-10T08:56:06Z</time>
      </trkpt>
      <trkpt lat="45.15434" lon="6.14447">
        <ele>3433.01</ele>
        <time>2013-03-10T08:56:18Z</time>
      </trkpt>
      <trkpt lat="45.15434" lon="6.14446">
        <ele>3433.01</ele>
        <time>2013-03-10T08:56:19Z</time>
      </trkpt>
      <trkpt lat="45.15435" lon="6.14443">
        <ele>3434.45</ele>
        <time>2013-03-10T08:56:32Z</time>
      </trkpt>
      <trkpt lat="45.15437" lon="6.14442">
        <ele>3434.93</ele>
        <time>2013-03-10T08:56:47Z</time>
      </trkpt>
      <trkpt lat="45.15438" lon="6.14437">
        <ele>3435.89</ele>
        <time>2013-03-10T08:57:00Z</time>
      </trkpt>
      <trkpt lat="45.15438" lon="6.14436">
        <ele>3436.85</ele>
        <time>2013-03-10T08:57:15Z</time>
      </trkpt>
      <trkpt lat="45.15439" lon="6.14435">
        <ele>3437.81</ele>
        <time>2013-03-10T08:57:31Z</time>
      </trkpt>
      <trkpt lat="45.15439" lon="6.14435">
        <ele>3438.29</ele>
        <time>2013-03-10T08:57:51Z</time>
      </trkpt>
      <trkpt lat="45.15437" lon="6.14438">
        <ele>3438.77</ele>
        <time>2013-03-10T08:58:14Z</time>
      </trkpt>
      <trkpt lat="45.15431" lon="6.14443">
        <ele>3440.21</ele>
        <time>2013-03-10T08:58:26Z</time>
      </trkpt>
      <trkpt lat="45.15428" lon="6.14446">
        <ele>3441.66</ele>
        <time>2013-03-10T08:58:40Z</time>
      </trkpt>
      <trkpt lat="45.15427" lon="6.14445">
        <ele>3442.14</ele>
        <time>2013-03-10T08:59:02Z</time>
      </trkpt>
      <trkpt lat="45.15421" lon="6.14442">
        <ele>3442.62</ele>
        <time>2013-03-10T08:59:18Z</time>
      </trkpt>
      <trkpt lat="45.1542" lon="6.14442">
        <ele>3443.58</ele>
        <time>2013-03-10T08:59:33Z</time>
      </trkpt>
      <trkpt lat="45.1542" lon="6.14442">
        <ele>3444.06</ele>
        <time>2013-03-10T08:59:48Z</time>
      </trkpt>
      <trkpt lat="45.1542" lon="6.14442">
        <ele>3444.06</ele>
        <time>2013-03-10T09:00:05Z</time>
      </trkpt>
      <trkpt lat="45.1542" lon="6.14442">
        <ele>3444.06</ele>
        <time>2013-03-10T09:00:23Z</time>
      </trkpt>
      <trkpt lat="45.1542" lon="6.14441">
        <ele>3444.06</ele>
        <time>2013-03-10T09:00:41Z</time>
      </trkpt>
      <trkpt lat="45.15419" lon="6.1444">
        <ele>3444.06</ele>
        <time>2013-03-10T09:00:58Z</time>
      </trkpt>
      <trkpt lat="45.15419" lon="6.1444">
        <ele>3443.58</ele>
        <time>2013-03-10T09:01:27Z</time>
      </trkpt>
      <trkpt lat="45.15419" lon="6.14439">
        <ele>3443.58</ele>
        <time>2013-03-10T09:01:51Z</time>
      </trkpt>
      <trkpt lat="45.15419" lon="6.14439">
        <ele>3441.66</ele>
        <time>2013-03-10T09:01:56Z</time>
      </trkpt>
      <trkpt lat="45.15419" lon="6.14441">
        <ele>3441.66</ele>
        <time>2013-03-10T09:02:09Z</time>
      </trkpt>
      <trkpt lat="45.15419" lon="6.14441">
        <ele>3443.1</ele>
        <time>2013-03-10T09:02:23Z</time>
      </trkpt>
      <trkpt lat="45.15419" lon="6.14442">
        <ele>3443.1</ele>
        <time>2013-03-10T09:02:42Z</time>
      </trkpt>
      <trkpt lat="45.15417" lon="6.14442">
        <ele>3443.1</ele>
        <time>2013-03-10T09:03:00Z</time>
      </trkpt>
      <trkpt lat="45.15417" lon="6.14438">
        <ele>3444.06</ele>
        <time>2013-03-10T09:03:11Z</time>
      </trkpt>
      <trkpt lat="45.15417" lon="6.14434">
        <ele>3446.46</ele>
        <time>2013-03-10T09:03:26Z</time>
      </trkpt>
      <trkpt lat="45.15418" lon="6.14432">
        <ele>3447.43</ele>
        <time>2013-03-10T09:03:47Z</time>
      </trkpt>
      <trkpt lat="45.15421" lon="6.14428">
        <ele>3448.39</ele>
        <time>2013-03-10T09:04:03Z</time>
      </trkpt>
      <trkpt lat="45.15423" lon="6.14425">
        <ele>3451.27</ele>
        <time>2013-03-10T09:04:17Z</time>
      </trkpt>
      <trkpt lat="45.15425" lon="6.14422">
        <ele>3452.23</ele>
        <time>2013-03-10T09:04:39Z</time>
      </trkpt>
      <trkpt lat="45.15427" lon="6.14422">
        <ele>3453.67</ele>
        <time>2013-03-10T09:04:54Z</time>
      </trkpt>
      <trkpt lat="45.15427" lon="6.14422">
        <ele>3454.15</ele>
        <time>2013-03-10T09:05:17Z</time>
      </trkpt>
      <trkpt lat="45.15427" lon="6.14419">
        <ele>3455.12</ele>
        <time>2013-03-10T09:05:31Z</time>
      </trkpt>
      <trkpt lat="45.15429" lon="6.14415">
        <ele>3456.56</ele>
        <time>2013-03-10T09:05:50Z</time>
      </trkpt>
      <trkpt lat="45.15432" lon="6.14411">
        <ele>3457.52</ele>
        <time>2013-03-10T09:06:14Z</time>
      </trkpt>
      <trkpt lat="45.15434" lon="6.1441">
        <ele>3458.96</ele>
        <time>2013-03-10T09:06:49Z</time>
      </trkpt>
      <trkpt lat="45.15436" lon="6.14406">
        <ele>3460.4</ele>
        <time>2013-03-10T09:07:03Z</time>
      </trkpt>
      <trkpt lat="45.15436" lon="6.14406">
        <ele>3461.36</ele>
        <time>2013-03-10T09:07:31Z</time>
      </trkpt>
      <trkpt lat="45.15437" lon="6.14403">
        <ele>3461.84</ele>
        <time>2013-03-10T09:08:01Z</time>
      </trkpt>
      <trkpt lat="45.15438" lon="6.14403">
        <ele>3462.33</ele>
        <time>2013-03-10T09:08:11Z</time>
      </trkpt>
      <trkpt lat="45.15438" lon="6.14402">
        <ele>3462.81</ele>
        <time>2013-03-10T09:08:33Z</time>
      </trkpt>
      <trkpt lat="45.15436" lon="6.14405">
        <ele>3463.29</ele>
        <time>2013-03-10T09:08:45Z</time>
      </trkpt>
      <trkpt lat="45.15435" lon="6.14406">
        <ele>3462.33</ele>
        <time>2013-03-10T09:08:49Z</time>
      </trkpt>
      <trkpt lat="45.15435" lon="6.14406">
        <ele>3460.88</ele>
        <time>2013-03-10T09:09:13Z</time>
      </trkpt>
      <trkpt lat="45.15435" lon="6.14405">
        <ele>3460.88</ele>
        <time>2013-03-10T09:09:29Z</time>
      </trkpt>
      <trkpt lat="45.15435" lon="6.14405">
        <ele>3460.88</ele>
        <time>2013-03-10T09:09:45Z</time>
      </trkpt>
      <trkpt lat="45.15435" lon="6.14405">
        <ele>3460.88</ele>
        <time>2013-03-10T09:10:09Z</time>
      </trkpt>
      <trkpt lat="45.15435" lon="6.14405">
        <ele>3460.88</ele>
        <time>2013-03-10T09:10:26Z</time>
      </trkpt>
      <trkpt lat="45.15435" lon="6.14405">
        <ele>3460.88</ele>
        <time>2013-03-10T09:10:59Z</time>
      </trkpt>
      <trkpt lat="45.15435" lon="6.14405">
        <ele>3460.88</ele>
        <time>2013-03-10T09:11:28Z</time>
      </trkpt>
      <trkpt lat="45.15435" lon="6.14405">
        <ele>3460.4</ele>
        <time>2013-03-10T09:11:55Z</time>
      </trkpt>
      <trkpt lat="45.15435" lon="6.14405">
        <ele>3460.4</ele>
        <time>2013-03-10T09:12:26Z</time>
      </trkpt>
      <trkpt lat="45.15435" lon="6.14405">
        <ele>3460.4</ele>
        <time>2013-03-10T09:12:50Z</time>
      </trkpt>
      <trkpt lat="45.15435" lon="6.14405">
        <ele>3460.4</ele>
        <time>2013-03-10T09:13:19Z</time>
      </trkpt>
      <trkpt lat="45.15435" lon="6.14404">
        <ele>3460.4</ele>
        <time>2013-03-10T09:13:46Z</time>
      </trkpt>
      <trkpt lat="45.15435" lon="6.14405">
        <ele>3460.4</ele>
        <time>2013-03-10T09:14:07Z</time>
      </trkpt>
      <trkpt lat="45.15435" lon="6.14405">
        <ele>3460.4</ele>
        <time>2013-03-10T09:14:25Z</time>
      </trkpt>
      <trkpt lat="45.15435" lon="6.14405">
        <ele>3460.4</ele>
        <time>2013-03-10T09:14:44Z</time>
      </trkpt>
      <trkpt lat="45.15435" lon="6.14405">
        <ele>3459.92</ele>
        <time>2013-03-10T09:15:07Z</time>
      </trkpt>
      <trkpt lat="45.15435" lon="6.14405">
        <ele>3460.88</ele>
        <time>2013-03-10T09:15:29Z</time>
      </trkpt>
      <trkpt lat="45.15434" lon="6.14405">
        <ele>3460.88</ele>
        <time>2013-03-10T09:15:48Z</time>
      </trkpt>
      <trkpt lat="45.15434" lon="6.14405">
        <ele>3460.88</ele>
        <time>2013-03-10T09:16:12Z</time>
      </trkpt>
      <trkpt lat="45.15434" lon="6.14406">
        <ele>3456.56</ele>
        <time>2013-03-10T09:16:30Z</time>
      </trkpt>
      <trkpt lat="45.15434" lon="6.14407">
        <ele>3459.92</ele>
        <time>2013-03-10T09:16:31Z</time>
      </trkpt>
      <trkpt lat="45.15434" lon="6.14406">
        <ele>3461.36</ele>
        <time>2013-03-10T09:16:50Z</time>
      </trkpt>
      <trkpt lat="45.15434" lon="6.14407">
        <ele>3460.4</ele>
        <time>2013-03-10T09:17:06Z</time>
      </trkpt>
      <trkpt lat="45.15434" lon="6.14405">
        <ele>3460.4</ele>
        <time>2013-03-10T09:17:30Z</time>
      </trkpt>
      <trkpt lat="45.15434" lon="6.14406">
        <ele>3460.4</ele>
        <time>2013-03-10T09:17:43Z</time>
      </trkpt>
      <trkpt lat="45.15434" lon="6.14407">
        <ele>3463.29</ele>
        <time>2013-03-10T09:17:53Z</time>
      </trkpt>
      <trkpt lat="45.15434" lon="6.14406">
        <ele>3459.92</ele>
        <time>2013-03-10T09:17:59Z</time>
      </trkpt>
      <trkpt lat="45.15434" lon="6.14406">
        <ele>3460.4</ele>
        <time>2013-03-10T09:18:23Z</time>
      </trkpt>
      <trkpt lat="45.15433" lon="6.14408">
        <ele>3460.88</ele>
        <time>2013-03-10T09:18:38Z</time>
      </trkpt>
      <trkpt lat="45.15433" lon="6.14408">
        <ele>3459.92</ele>
        <time>2013-03-10T09:18:53Z</time>
      </trkpt>
      <trkpt lat="45.15432" lon="6.1441">
        <ele>3459.44</ele>
        <time>2013-03-10T09:19:09Z</time>
      </trkpt>
      <trkpt lat="45.1543" lon="6.14414">
        <ele>3458.48</ele>
        <time>2013-03-10T09:19:25Z</time>
      </trkpt>
      <trkpt lat="45.15429" lon="6.14416">
        <ele>3457.04</ele>
        <time>2013-03-10T09:19:43Z</time>
      </trkpt>
      <trkpt lat="45.15428" lon="6.14416">
        <ele>3456.56</ele>
        <time>2013-03-10T09:20:03Z</time>
      </trkpt>
      <trkpt lat="45.15429" lon="6.14417">
        <ele>3455.6</ele>
        <time>2013-03-10T09:20:23Z</time>
      </trkpt>
      <trkpt lat="45.15428" lon="6.14416">
        <ele>3457.04</ele>
        <time>2013-03-10T09:20:26Z</time>
      </trkpt>
      <trkpt lat="45.15429" lon="6.14417">
        <ele>3457.04</ele>
        <time>2013-03-10T09:20:43Z</time>
      </trkpt>
      <trkpt lat="45.15428" lon="6.14417">
        <ele>3457.04</ele>
        <time>2013-03-10T09:21:03Z</time>
      </trkpt>
      <trkpt lat="45.15427" lon="6.14418">
        <ele>3455.6</ele>
        <time>2013-03-10T09:21:21Z</time>
      </trkpt>
      <trkpt lat="45.15427" lon="6.14418">
        <ele>3455.6</ele>
        <time>2013-03-10T09:21:22Z</time>
      </trkpt>
      <trkpt lat="45.15426" lon="6.14427">
        <ele>3452.71</ele>
        <time>2013-03-10T09:21:25Z</time>
      </trkpt>
      <trkpt lat="45.15432" lon="6.14437">
        <ele>3438.29</ele>
        <time>2013-03-10T09:21:27Z</time>
      </trkpt>
      <trkpt lat="45.15436" lon="6.14441">
        <ele>3434.45</ele>
        <time>2013-03-10T09:21:28Z</time>
      </trkpt>
      <trkpt lat="45.15443" lon="6.14452">
        <ele>3428.68</ele>
        <time>2013-03-10T09:21:30Z</time>
      </trkpt>
      <trkpt lat="45.15453" lon="6.14464">
        <ele>3422.43</ele>
        <time>2013-03-10T09:21:32Z</time>
      </trkpt>
      <trkpt lat="45.15459" lon="6.1447">
        <ele>3418.59</ele>
        <time>2013-03-10T09:21:33Z</time>
      </trkpt>
      <trkpt lat="45.15464" lon="6.14478">
        <ele>3407.53</ele>
        <time>2013-03-10T09:21:34Z</time>
      </trkpt>
      <trkpt lat="45.15469" lon="6.14487">
        <ele>3400.8</ele>
        <time>2013-03-10T09:21:35Z</time>
      </trkpt>
      <trkpt lat="45.15473" lon="6.14495">
        <ele>3395.99</ele>
        <time>2013-03-10T09:21:36Z</time>
      </trkpt>
      <trkpt lat="45.15478" lon="6.14502">
        <ele>3390.71</ele>
        <time>2013-03-10T09:21:37Z</time>
      </trkpt>
      <trkpt lat="45.15495" lon="6.14519">
        <ele>3376.77</ele>
        <time>2013-03-10T09:21:40Z</time>
      </trkpt>
      <trkpt lat="45.15501" lon="6.14525">
        <ele>3372.92</ele>
        <time>2013-03-10T09:21:41Z</time>
      </trkpt>
      <trkpt lat="45.15504" lon="6.14533">
        <ele>3369.08</ele>
        <time>2013-03-10T09:21:42Z</time>
      </trkpt>
      <trkpt lat="45.15523" lon="6.14551">
        <ele>3357.06</ele>
        <time>2013-03-10T09:21:45Z</time>
      </trkpt>
      <trkpt lat="45.15529" lon="6.14557">
        <ele>3351.77</ele>
        <time>2013-03-10T09:21:46Z</time>
      </trkpt>
      <trkpt lat="45.15541" lon="6.14572">
        <ele>3343.12</ele>
        <time>2013-03-10T09:21:48Z</time>
      </trkpt>
      <trkpt lat="45.15546" lon="6.14579">
        <ele>3338.8</ele>
        <time>2013-03-10T09:21:49Z</time>
      </trkpt>
      <trkpt lat="45.15551" lon="6.14585">
        <ele>3333.99</ele>
        <time>2013-03-10T09:21:50Z</time>
      </trkpt>
      <trkpt lat="45.15557" lon="6.14591">
        <ele>3333.03</ele>
        <time>2013-03-10T09:21:51Z</time>
      </trkpt>
      <trkpt lat="45.1556" lon="6.14601">
        <ele>3325.34</ele>
        <time>2013-03-10T09:21:53Z</time>
      </trkpt>
      <trkpt lat="45.15561" lon="6.14607">
        <ele>3321.97</ele>
        <time>2013-03-10T09:21:54Z</time>
      </trkpt>
      <trkpt lat="45.15566" lon="6.14612">
        <ele>3316.69</ele>
        <time>2013-03-10T09:21:56Z</time>
      </trkpt>
      <trkpt lat="45.1557" lon="6.14608">
        <ele>3321.01</ele>
        <time>2013-03-10T09:21:58Z</time>
      </trkpt>
      <trkpt lat="45.15572" lon="6.14601">
        <ele>3323.42</ele>
        <time>2013-03-10T09:22:00Z</time>
      </trkpt>
      <trkpt lat="45.15564" lon="6.14599">
        <ele>3322.93</ele>
        <time>2013-03-10T09:22:19Z</time>
      </trkpt>
      <trkpt lat="45.1556" lon="6.14598">
        <ele>3323.42</ele>
        <time>2013-03-10T09:22:42Z</time>
      </trkpt>
      <trkpt lat="45.15559" lon="6.14596">
        <ele>3323.42</ele>
        <time>2013-03-10T09:23:04Z</time>
      </trkpt>
      <trkpt lat="45.15557" lon="6.14593">
        <ele>3323.9</ele>
        <time>2013-03-10T09:23:23Z</time>
      </trkpt>
      <trkpt lat="45.15554" lon="6.14591">
        <ele>3323.9</ele>
        <time>2013-03-10T09:23:49Z</time>
      </trkpt>
      <trkpt lat="45.15554" lon="6.14591">
        <ele>3329.66</ele>
        <time>2013-03-10T09:24:05Z</time>
      </trkpt>
      <trkpt lat="45.15554" lon="6.14592">
        <ele>3327.74</ele>
        <time>2013-03-10T09:24:06Z</time>
      </trkpt>
      <trkpt lat="45.15554" lon="6.14592">
        <ele>3323.42</ele>
        <time>2013-03-10T09:24:07Z</time>
      </trkpt>
      <trkpt lat="45.15554" lon="6.14592">
        <ele>3323.42</ele>
        <time>2013-03-10T09:24:08Z</time>
      </trkpt>
      <trkpt lat="45.15555" lon="6.14593">
        <ele>3325.34</ele>
        <time>2013-03-10T09:24:30Z</time>
      </trkpt>
      <trkpt lat="45.15554" lon="6.14594">
        <ele>3323.9</ele>
        <time>2013-03-10T09:24:50Z</time>
      </trkpt>
      <trkpt lat="45.15554" lon="6.14594">
        <ele>3325.34</ele>
        <time>2013-03-10T09:24:54Z</time>
      </trkpt>
      <trkpt lat="45.15551" lon="6.14592">
        <ele>3325.34</ele>
        <time>2013-03-10T09:25:21Z</time>
      </trkpt>
      <trkpt lat="45.15551" lon="6.14593">
        <ele>3325.34</ele>
        <time>2013-03-10T09:25:44Z</time>
      </trkpt>
      <trkpt lat="45.1555" lon="6.14593">
        <ele>3325.34</ele>
        <time>2013-03-10T09:26:06Z</time>
      </trkpt>
      <trkpt lat="45.1555" lon="6.14592">
        <ele>3325.34</ele>
        <time>2013-03-10T09:26:31Z</time>
      </trkpt>
      <trkpt lat="45.1555" lon="6.14591">
        <ele>3324.38</ele>
        <time>2013-03-10T09:26:41Z</time>
      </trkpt>
      <trkpt lat="45.15554" lon="6.14594">
        <ele>3321.01</ele>
        <time>2013-03-10T09:26:46Z</time>
      </trkpt>
      <trkpt lat="45.15554" lon="6.14594">
        <ele>3325.82</ele>
        <time>2013-03-10T09:26:47Z</time>
      </trkpt>
      <trkpt lat="45.15554" lon="6.14594">
        <ele>3327.26</ele>
        <time>2013-03-10T09:26:49Z</time>
      </trkpt>
      <trkpt lat="45.15558" lon="6.14589">
        <ele>3323.9</ele>
        <time>2013-03-10T09:27:01Z</time>
      </trkpt>
      <trkpt lat="45.15554" lon="6.14589">
        <ele>3324.38</ele>
        <time>2013-03-10T09:27:20Z</time>
      </trkpt>
      <trkpt lat="45.15554" lon="6.14591">
        <ele>3324.86</ele>
        <time>2013-03-10T09:27:40Z</time>
      </trkpt>
      <trkpt lat="45.15555" lon="6.14588">
        <ele>3324.86</ele>
        <time>2013-03-10T09:28:00Z</time>
      </trkpt>
      <trkpt lat="45.15554" lon="6.14591">
        <ele>3324.86</ele>
        <time>2013-03-10T09:28:20Z</time>
      </trkpt>
      <trkpt lat="45.15552" lon="6.14592">
        <ele>3324.86</ele>
        <time>2013-03-10T09:28:45Z</time>
      </trkpt>
      <trkpt lat="45.15551" lon="6.14591">
        <ele>3324.38</ele>
        <time>2013-03-10T09:29:01Z</time>
      </trkpt>
      <trkpt lat="45.15551" lon="6.14592">
        <ele>3324.38</ele>
        <time>2013-03-10T09:29:17Z</time>
      </trkpt>
      <trkpt lat="45.15553" lon="6.14589">
        <ele>3324.38</ele>
        <time>2013-03-10T09:29:44Z</time>
      </trkpt>
      <trkpt lat="45.15553" lon="6.14587">
        <ele>3323.9</ele>
        <time>2013-03-10T09:30:08Z</time>
      </trkpt>
      <trkpt lat="45.1555" lon="6.14587">
        <ele>3324.38</ele>
        <time>2013-03-10T09:30:24Z</time>
      </trkpt>
      <trkpt lat="45.15548" lon="6.14589">
        <ele>3325.34</ele>
        <time>2013-03-10T09:30:37Z</time>
      </trkpt>
      <trkpt lat="45.15543" lon="6.14582">
        <ele>3326.78</ele>
        <time>2013-03-10T09:31:05Z</time>
      </trkpt>
      <trkpt lat="45.15539" lon="6.14583">
        <ele>3326.78</ele>
        <time>2013-03-10T09:31:22Z</time>
      </trkpt>
      <trkpt lat="45.15528" lon="6.14585">
        <ele>3329.66</ele>
        <time>2013-03-10T09:31:38Z</time>
      </trkpt>
      <trkpt lat="45.15523" lon="6.14585">
        <ele>3331.11</ele>
        <time>2013-03-10T09:31:56Z</time>
      </trkpt>
      <trkpt lat="45.15513" lon="6.14585">
        <ele>3333.51</ele>
        <time>2013-03-10T09:32:13Z</time>
      </trkpt>
      <trkpt lat="45.15509" lon="6.14587">
        <ele>3335.43</ele>
        <time>2013-03-10T09:32:27Z</time>
      </trkpt>
      <trkpt lat="45.15504" lon="6.14589">
        <ele>3336.87</ele>
        <time>2013-03-10T09:32:51Z</time>
      </trkpt>
      <trkpt lat="45.15492" lon="6.14594">
        <ele>3338.32</ele>
        <time>2013-03-10T09:33:04Z</time>
      </trkpt>
      <trkpt lat="45.15482" lon="6.146">
        <ele>3341.2</ele>
        <time>2013-03-10T09:33:16Z</time>
      </trkpt>
      <trkpt lat="45.15478" lon="6.146">
        <ele>3344.08</ele>
        <time>2013-03-10T09:33:21Z</time>
      </trkpt>
      <trkpt lat="45.15473" lon="6.14605">
        <ele>3345.52</ele>
        <time>2013-03-10T09:33:35Z</time>
      </trkpt>
      <trkpt lat="45.15472" lon="6.14608">
        <ele>3345.04</ele>
        <time>2013-03-10T09:33:59Z</time>
      </trkpt>
      <trkpt lat="45.15472" lon="6.1461">
        <ele>3346.49</ele>
        <time>2013-03-10T09:34:15Z</time>
      </trkpt>
      <trkpt lat="45.15464" lon="6.14619">
        <ele>3349.37</ele>
        <time>2013-03-10T09:34:32Z</time>
      </trkpt>
      <trkpt lat="45.15459" lon="6.14623">
        <ele>3351.29</ele>
        <time>2013-03-10T09:34:44Z</time>
      </trkpt>
      <trkpt lat="45.15458" lon="6.14627">
        <ele>3352.25</ele>
        <time>2013-03-10T09:35:11Z</time>
      </trkpt>
      <trkpt lat="45.15458" lon="6.14618">
        <ele>3353.7</ele>
        <time>2013-03-10T09:35:24Z</time>
      </trkpt>
      <trkpt lat="45.1546" lon="6.14603">
        <ele>3356.1</ele>
        <time>2013-03-10T09:35:38Z</time>
      </trkpt>
      <trkpt lat="45.15464" lon="6.14588">
        <ele>3358.5</ele>
        <time>2013-03-10T09:35:55Z</time>
      </trkpt>
      <trkpt lat="45.15463" lon="6.14589">
        <ele>3359.46</ele>
        <time>2013-03-10T09:36:19Z</time>
      </trkpt>
      <trkpt lat="45.15463" lon="6.14583">
        <ele>3360.43</ele>
        <time>2013-03-10T09:36:40Z</time>
      </trkpt>
      <trkpt lat="45.15467" lon="6.14571">
        <ele>3361.87</ele>
        <time>2013-03-10T09:36:54Z</time>
      </trkpt>
      <trkpt lat="45.15471" lon="6.14557">
        <ele>3364.75</ele>
        <time>2013-03-10T09:37:11Z</time>
      </trkpt>
      <trkpt lat="45.15474" lon="6.14551">
        <ele>3367.15</ele>
        <time>2013-03-10T09:37:28Z</time>
      </trkpt>
      <trkpt lat="45.15475" lon="6.14549">
        <ele>3367.64</ele>
        <time>2013-03-10T09:37:53Z</time>
      </trkpt>
      <trkpt lat="45.15477" lon="6.14535">
        <ele>3369.56</ele>
        <time>2013-03-10T09:38:09Z</time>
      </trkpt>
      <trkpt lat="45.15479" lon="6.14522">
        <ele>3372.44</ele>
        <time>2013-03-10T09:38:26Z</time>
      </trkpt>
      <trkpt lat="45.1548" lon="6.14523">
        <ele>3373.4</ele>
        <time>2013-03-10T09:38:55Z</time>
      </trkpt>
      <trkpt lat="45.1548" lon="6.14516">
        <ele>3374.36</ele>
        <time>2013-03-10T09:39:06Z</time>
      </trkpt>
      <trkpt lat="45.15483" lon="6.14499">
        <ele>3377.25</ele>
        <time>2013-03-10T09:39:22Z</time>
      </trkpt>
      <trkpt lat="45.15482" lon="6.14494">
        <ele>3379.65</ele>
        <time>2013-03-10T09:39:39Z</time>
      </trkpt>
      <trkpt lat="45.15484" lon="6.14486">
        <ele>3380.61</ele>
        <time>2013-03-10T09:40:01Z</time>
      </trkpt>
      <trkpt lat="45.15489" lon="6.14481">
        <ele>3382.54</ele>
        <time>2013-03-10T09:40:15Z</time>
      </trkpt>
      <trkpt lat="45.15493" lon="6.14483">
        <ele>3383.02</ele>
        <time>2013-03-10T09:40:44Z</time>
      </trkpt>
      <trkpt lat="45.15492" lon="6.14482">
        <ele>3384.46</ele>
        <time>2013-03-10T09:40:57Z</time>
      </trkpt>
      <trkpt lat="45.15483" lon="6.14485">
        <ele>3386.38</ele>
        <time>2013-03-10T09:41:13Z</time>
      </trkpt>
      <trkpt lat="45.1547" lon="6.1449">
        <ele>3389.75</ele>
        <time>2013-03-10T09:41:30Z</time>
      </trkpt>
      <trkpt lat="45.15458" lon="6.14497">
        <ele>3392.63</ele>
        <time>2013-03-10T09:41:47Z</time>
      </trkpt>
      <trkpt lat="45.15448" lon="6.14505">
        <ele>3394.55</ele>
        <time>2013-03-10T09:42:00Z</time>
      </trkpt>
      <trkpt lat="45.15446" lon="6.14505">
        <ele>3396.96</ele>
        <time>2013-03-10T09:42:15Z</time>
      </trkpt>
      <trkpt lat="45.15447" lon="6.14511">
        <ele>3396.96</ele>
        <time>2013-03-10T09:42:40Z</time>
      </trkpt>
      <trkpt lat="45.15447" lon="6.14512">
        <ele>3396.96</ele>
        <time>2013-03-10T09:43:07Z</time>
      </trkpt>
      <trkpt lat="45.15447" lon="6.14509">
        <ele>3397.44</ele>
        <time>2013-03-10T09:43:20Z</time>
      </trkpt>
      <trkpt lat="45.15447" lon="6.14503">
        <ele>3399.84</ele>
        <time>2013-03-10T09:43:37Z</time>
      </trkpt>
      <trkpt lat="45.15447" lon="6.14496">
        <ele>3400.8</ele>
        <time>2013-03-10T09:43:53Z</time>
      </trkpt>
      <trkpt lat="45.15449" lon="6.14483">
        <ele>3401.76</ele>
        <time>2013-03-10T09:44:08Z</time>
      </trkpt>
      <trkpt lat="45.15453" lon="6.14467">
        <ele>3404.17</ele>
        <time>2013-03-10T09:44:21Z</time>
      </trkpt>
      <trkpt lat="45.15457" lon="6.14451">
        <ele>3406.57</ele>
        <time>2013-03-10T09:44:36Z</time>
      </trkpt>
      <trkpt lat="45.15458" lon="6.14451">
        <ele>3408.49</ele>
        <time>2013-03-10T09:44:51Z</time>
      </trkpt>
      <trkpt lat="45.15459" lon="6.14452">
        <ele>3408.97</ele>
        <time>2013-03-10T09:45:20Z</time>
      </trkpt>
      <trkpt lat="45.15451" lon="6.14452">
        <ele>3412.34</ele>
        <time>2013-03-10T09:45:34Z</time>
      </trkpt>
      <trkpt lat="45.15442" lon="6.14458">
        <ele>3415.22</ele>
        <time>2013-03-10T09:45:49Z</time>
      </trkpt>
      <trkpt lat="45.15433" lon="6.14464">
        <ele>3416.66</ele>
        <time>2013-03-10T09:46:05Z</time>
      </trkpt>
      <trkpt lat="45.1543" lon="6.14464">
        <ele>3418.1</ele>
        <time>2013-03-10T09:46:20Z</time>
      </trkpt>
      <trkpt lat="45.15429" lon="6.14463">
        <ele>3419.07</ele>
        <time>2013-03-10T09:46:52Z</time>
      </trkpt>
      <trkpt lat="45.1543" lon="6.14454">
        <ele>3421.47</ele>
        <time>2013-03-10T09:47:04Z</time>
      </trkpt>
      <trkpt lat="45.15435" lon="6.14439">
        <ele>3423.39</ele>
        <time>2013-03-10T09:47:18Z</time>
      </trkpt>
      <trkpt lat="45.15439" lon="6.14432">
        <ele>3425.31</ele>
        <time>2013-03-10T09:47:32Z</time>
      </trkpt>
      <trkpt lat="45.15439" lon="6.1443">
        <ele>3426.76</ele>
        <time>2013-03-10T09:47:54Z</time>
      </trkpt>
      <trkpt lat="45.15433" lon="6.14436">
        <ele>3427.72</ele>
        <time>2013-03-10T09:48:10Z</time>
      </trkpt>
      <trkpt lat="45.15429" lon="6.14438">
        <ele>3431.08</ele>
        <time>2013-03-10T09:48:16Z</time>
      </trkpt>
      <trkpt lat="45.15427" lon="6.1444">
        <ele>3432.52</ele>
        <time>2013-03-10T09:48:36Z</time>
      </trkpt>
      <trkpt lat="45.15427" lon="6.14444">
        <ele>3432.04</ele>
        <time>2013-03-10T09:49:10Z</time>
      </trkpt>
      <trkpt lat="45.15426" lon="6.14443">
        <ele>3432.04</ele>
        <time>2013-03-10T09:49:39Z</time>
      </trkpt>
      <trkpt lat="45.15425" lon="6.14442">
        <ele>3432.04</ele>
        <time>2013-03-10T09:49:59Z</time>
      </trkpt>
      <trkpt lat="45.1542" lon="6.1444">
        <ele>3432.04</ele>
        <time>2013-03-10T09:50:15Z</time>
      </trkpt>
      <trkpt lat="45.15421" lon="6.14439">
        <ele>3433.49</ele>
        <time>2013-03-10T09:50:30Z</time>
      </trkpt>
      <trkpt lat="45.15422" lon="6.14439">
        <ele>3433.97</ele>
        <time>2013-03-10T09:50:51Z</time>
      </trkpt>
      <trkpt lat="45.15422" lon="6.14439">
        <ele>3433.97</ele>
        <time>2013-03-10T09:51:13Z</time>
      </trkpt>
      <trkpt lat="45.15422" lon="6.14439">
        <ele>3433.97</ele>
        <time>2013-03-10T09:51:37Z</time>
      </trkpt>
      <trkpt lat="45.15423" lon="6.14439">
        <ele>3433.97</ele>
        <time>2013-03-10T09:52:03Z</time>
      </trkpt>
      <trkpt lat="45.15422" lon="6.14439">
        <ele>3433.97</ele>
        <time>2013-03-10T09:52:26Z</time>
      </trkpt>
      <trkpt lat="45.15423" lon="6.14439">
        <ele>3433.97</ele>
        <time>2013-03-10T09:52:41Z</time>
      </trkpt>
      <trkpt lat="45.15423" lon="6.14439">
        <ele>3433.97</ele>
        <time>2013-03-10T09:53:05Z</time>
      </trkpt>
      <trkpt lat="45.15424" lon="6.14439">
        <ele>3433.97</ele>
        <time>2013-03-10T09:53:31Z</time>
      </trkpt>
      <trkpt lat="45.15424" lon="6.14439">
        <ele>3433.97</ele>
        <time>2013-03-10T09:53:59Z</time>
      </trkpt>
      <trkpt lat="45.15422" lon="6.14436">
        <ele>3434.45</ele>
        <time>2013-03-10T09:54:16Z</time>
      </trkpt>
      <trkpt lat="45.15421" lon="6.14435">
        <ele>3437.33</ele>
        <time>2013-03-10T09:54:33Z</time>
      </trkpt>
      <trkpt lat="45.15422" lon="6.14434">
        <ele>3437.81</ele>
        <time>2013-03-10T09:54:54Z</time>
      </trkpt>
      <trkpt lat="45.15423" lon="6.14431">
        <ele>3438.29</ele>
        <time>2013-03-10T09:55:09Z</time>
      </trkpt>
      <trkpt lat="45.15425" lon="6.14427">
        <ele>3441.66</ele>
        <time>2013-03-10T09:55:24Z</time>
      </trkpt>
      <trkpt lat="45.15426" lon="6.14425">
        <ele>3445.02</ele>
        <time>2013-03-10T09:55:29Z</time>
      </trkpt>
      <trkpt lat="45.15428" lon="6.14423">
        <ele>3445.98</ele>
        <time>2013-03-10T09:55:47Z</time>
      </trkpt>
      <trkpt lat="45.15429" lon="6.14421">
        <ele>3445.98</ele>
        <time>2013-03-10T09:56:04Z</time>
      </trkpt>
      <trkpt lat="45.15432" lon="6.14416">
        <ele>3448.39</ele>
        <time>2013-03-10T09:56:20Z</time>
      </trkpt>
      <trkpt lat="45.15434" lon="6.14414">
        <ele>3450.31</ele>
        <time>2013-03-10T09:56:44Z</time>
      </trkpt>
      <trkpt lat="45.15435" lon="6.14411">
        <ele>3450.79</ele>
        <time>2013-03-10T09:57:09Z</time>
      </trkpt>
      <trkpt lat="45.15435" lon="6.14409">
        <ele>3453.19</ele>
        <time>2013-03-10T09:57:24Z</time>
      </trkpt>
      <trkpt lat="45.15435" lon="6.14409">
        <ele>3453.19</ele>
        <time>2013-03-10T09:57:58Z</time>
      </trkpt>
      <trkpt lat="45.15435" lon="6.14409">
        <ele>3453.19</ele>
        <time>2013-03-10T09:58:35Z</time>
      </trkpt>
      <trkpt lat="45.15435" lon="6.14409">
        <ele>3453.67</ele>
        <time>2013-03-10T09:59:09Z</time>
      </trkpt>
      <trkpt lat="45.15436" lon="6.14409">
        <ele>3453.67</ele>
        <time>2013-03-10T09:59:32Z</time>
      </trkpt>
      <trkpt lat="45.15441" lon="6.14405">
        <ele>3453.67</ele>
        <time>2013-03-10T09:59:47Z</time>
      </trkpt>
      <trkpt lat="45.15444" lon="6.14398">
        <ele>3456.56</ele>
        <time>2013-03-10T10:00:01Z</time>
      </trkpt>
      <trkpt lat="45.15442" lon="6.14398">
        <ele>3458.48</ele>
        <time>2013-03-10T10:00:23Z</time>
      </trkpt>
      <trkpt lat="45.15442" lon="6.14397">
        <ele>3458.96</ele>
        <time>2013-03-10T10:00:55Z</time>
      </trkpt>
      <trkpt lat="45.15442" lon="6.14397">
        <ele>3458.96</ele>
        <time>2013-03-10T10:01:26Z</time>
      </trkpt>
      <trkpt lat="45.15441" lon="6.14395">
        <ele>3458.96</ele>
        <time>2013-03-10T10:02:07Z</time>
      </trkpt>
      <trkpt lat="45.1544" lon="6.14396">
        <ele>3458.96</ele>
        <time>2013-03-10T10:02:48Z</time>
      </trkpt>
      <trkpt lat="45.1544" lon="6.14396">
        <ele>3459.92</ele>
        <time>2013-03-10T10:03:14Z</time>
      </trkpt>
      <trkpt lat="45.15442" lon="6.14396">
        <ele>3459.92</ele>
        <time>2013-03-10T10:03:46Z</time>
      </trkpt>
      <trkpt lat="45.15443" lon="6.14396">
        <ele>3459.92</ele>
        <time>2013-03-10T10:04:16Z</time>
      </trkpt>
      <trkpt lat="45.15442" lon="6.14396">
        <ele>3459.92</ele>
        <time>2013-03-10T10:04:42Z</time>
      </trkpt>
      <trkpt lat="45.15443" lon="6.14395">
        <ele>3459.92</ele>
        <time>2013-03-10T10:05:05Z</time>
      </trkpt>
      <trkpt lat="45.15444" lon="6.14396">
        <ele>3459.92</ele>
        <time>2013-03-10T10:05:22Z</time>
      </trkpt>
      <trkpt lat="45.15444" lon="6.14396">
        <ele>3459.92</ele>
        <time>2013-03-10T10:05:57Z</time>
      </trkpt>
      <trkpt lat="45.15444" lon="6.14396">
        <ele>3459.92</ele>
        <time>2013-03-10T10:06:27Z</time>
      </trkpt>
      <trkpt lat="45.15444" lon="6.14395">
        <ele>3460.4</ele>
        <time>2013-03-10T10:07:00Z</time>
      </trkpt>
      <trkpt lat="45.15444" lon="6.14395">
        <ele>3460.4</ele>
        <time>2013-03-10T10:07:23Z</time>
      </trkpt>
      <trkpt lat="45.15444" lon="6.14396">
        <ele>3460.4</ele>
        <time>2013-03-10T10:07:46Z</time>
      </trkpt>
      <trkpt lat="45.15444" lon="6.14395">
        <ele>3460.4</ele>
        <time>2013-03-10T10:08:14Z</time>
      </trkpt>
      <trkpt lat="45.15443" lon="6.14395">
        <ele>3460.88</ele>
        <time>2013-03-10T10:08:44Z</time>
      </trkpt>
      <trkpt lat="45.15443" lon="6.14396">
        <ele>3460.88</ele>
        <time>2013-03-10T10:09:06Z</time>
      </trkpt>
      <trkpt lat="45.15444" lon="6.14396">
        <ele>3460.88</ele>
        <time>2013-03-10T10:09:26Z</time>
      </trkpt>
      <trkpt lat="45.15444" lon="6.14396">
        <ele>3460.88</ele>
        <time>2013-03-10T10:09:52Z</time>
      </trkpt>
      <trkpt lat="45.15444" lon="6.14395">
        <ele>3461.36</ele>
        <time>2013-03-10T10:10:16Z</time>
      </trkpt>
      <trkpt lat="45.15444" lon="6.14395">
        <ele>3461.36</ele>
        <time>2013-03-10T10:10:46Z</time>
      </trkpt>
      <trkpt lat="45.15445" lon="6.14394">
        <ele>3461.36</ele>
        <time>2013-03-10T10:11:13Z</time>
      </trkpt>
      <trkpt lat="45.15445" lon="6.14394">
        <ele>3461.36</ele>
        <time>2013-03-10T10:11:48Z</time>
      </trkpt>
      <trkpt lat="45.15443" lon="6.14397">
        <ele>3460.4</ele>
        <time>2013-03-10T10:12:05Z</time>
      </trkpt>
      <trkpt lat="45.15436" lon="6.14405">
        <ele>3457.04</ele>
        <time>2013-03-10T10:12:18Z</time>
      </trkpt>
      <trkpt lat="45.15435" lon="6.14406">
        <ele>3454.15</ele>
        <time>2013-03-10T10:12:22Z</time>
      </trkpt>
      <trkpt lat="45.15436" lon="6.14407">
        <ele>3453.67</ele>
        <time>2013-03-10T10:12:35Z</time>
      </trkpt>
      <trkpt lat="45.15432" lon="6.14413">
        <ele>3453.67</ele>
        <time>2013-03-10T10:12:46Z</time>
      </trkpt>
      <trkpt lat="45.1543" lon="6.14418">
        <ele>3451.27</ele>
        <time>2013-03-10T10:12:58Z</time>
      </trkpt>
      <trkpt lat="45.15425" lon="6.14424">
        <ele>3449.35</ele>
        <time>2013-03-10T10:13:12Z</time>
      </trkpt>
      <trkpt lat="45.15423" lon="6.14427">
        <ele>3447.43</ele>
        <time>2013-03-10T10:13:20Z</time>
      </trkpt>
      <trkpt lat="45.1542" lon="6.14431">
        <ele>3443.58</ele>
        <time>2013-03-10T10:13:24Z</time>
      </trkpt>
      <trkpt lat="45.15419" lon="6.14433">
        <ele>3441.66</ele>
        <time>2013-03-10T10:13:26Z</time>
      </trkpt>
      <trkpt lat="45.15418" lon="6.1444">
        <ele>3438.29</ele>
        <time>2013-03-10T10:13:38Z</time>
      </trkpt>
      <trkpt lat="45.15419" lon="6.1444">
        <ele>3437.81</ele>
        <time>2013-03-10T10:13:54Z</time>
      </trkpt>
      <trkpt lat="45.15419" lon="6.1444">
        <ele>3436.85</ele>
        <time>2013-03-10T10:14:14Z</time>
      </trkpt>
      <trkpt lat="45.1542" lon="6.1444">
        <ele>3436.85</ele>
        <time>2013-03-10T10:14:38Z</time>
      </trkpt>
      <trkpt lat="45.15421" lon="6.1444">
        <ele>3436.85</ele>
        <time>2013-03-10T10:15:05Z</time>
      </trkpt>
      <trkpt lat="45.1542" lon="6.1444">
        <ele>3436.37</ele>
        <time>2013-03-10T10:15:29Z</time>
      </trkpt>
      <trkpt lat="45.1542" lon="6.1444">
        <ele>3436.37</ele>
        <time>2013-03-10T10:15:53Z</time>
      </trkpt>
      <trkpt lat="45.15422" lon="6.14439">
        <ele>3437.81</ele>
        <time>2013-03-10T10:16:10Z</time>
      </trkpt>
      <trkpt lat="45.15422" lon="6.1444">
        <ele>3437.81</ele>
        <time>2013-03-10T10:16:26Z</time>
      </trkpt>
      <trkpt lat="45.15422" lon="6.14441">
        <ele>3437.81</ele>
        <time>2013-03-10T10:16:55Z</time>
      </trkpt>
      <trkpt lat="45.15422" lon="6.14441">
        <ele>3437.81</ele>
        <time>2013-03-10T10:17:15Z</time>
      </trkpt>
      <trkpt lat="45.15423" lon="6.14441">
        <ele>3437.81</ele>
        <time>2013-03-10T10:17:37Z</time>
      </trkpt>
      <trkpt lat="45.15424" lon="6.14441">
        <ele>3436.85</ele>
        <time>2013-03-10T10:18:02Z</time>
      </trkpt>
      <trkpt lat="45.15424" lon="6.14442">
        <ele>3436.85</ele>
        <time>2013-03-10T10:18:23Z</time>
      </trkpt>
      <trkpt lat="45.15424" lon="6.14442">
        <ele>3436.85</ele>
        <time>2013-03-10T10:18:43Z</time>
      </trkpt>
      <trkpt lat="45.15424" lon="6.14442">
        <ele>3436.85</ele>
        <time>2013-03-10T10:18:55Z</time>
      </trkpt>
      <trkpt lat="45.15427" lon="6.14459">
        <ele>3435.89</ele>
        <time>2013-03-10T10:18:59Z</time>
      </trkpt>
      <trkpt lat="45.15426" lon="6.14467">
        <ele>3431.56</ele>
        <time>2013-03-10T10:19:04Z</time>
      </trkpt>
      <trkpt lat="45.15425" lon="6.14471">
        <ele>3429.64</ele>
        <time>2013-03-10T10:19:18Z</time>
      </trkpt>
      <trkpt lat="45.15424" lon="6.14473">
        <ele>3431.08</ele>
        <time>2013-03-10T10:19:33Z</time>
      </trkpt>
      <trkpt lat="45.15422" lon="6.14473">
        <ele>3431.08</ele>
        <time>2013-03-10T10:19:58Z</time>
      </trkpt>
      <trkpt lat="45.15422" lon="6.14474">
        <ele>3431.08</ele>
        <time>2013-03-10T10:20:14Z</time>
      </trkpt>
      <trkpt lat="45.15421" lon="6.14476">
        <ele>3431.08</ele>
        <time>2013-03-10T10:20:35Z</time>
      </trkpt>
      <trkpt lat="45.15421" lon="6.14476">
        <ele>3431.08</ele>
        <time>2013-03-10T10:20:40Z</time>
      </trkpt>
      <trkpt lat="45.15431" lon="6.14488">
        <ele>3425.8</ele>
        <time>2013-03-10T10:20:45Z</time>
      </trkpt>
      <trkpt lat="45.15435" lon="6.14491">
        <ele>3415.7</ele>
        <time>2013-03-10T10:20:46Z</time>
      </trkpt>
      <trkpt lat="45.15439" lon="6.14495">
        <ele>3407.53</ele>
        <time>2013-03-10T10:20:47Z</time>
      </trkpt>
      <trkpt lat="45.15443" lon="6.145">
        <ele>3408.01</ele>
        <time>2013-03-10T10:20:48Z</time>
      </trkpt>
      <trkpt lat="45.15455" lon="6.14517">
        <ele>3399.36</ele>
        <time>2013-03-10T10:20:51Z</time>
      </trkpt>
      <trkpt lat="45.15464" lon="6.14531">
        <ele>3392.63</ele>
        <time>2013-03-10T10:20:53Z</time>
      </trkpt>
      <trkpt lat="45.1547" lon="6.14539">
        <ele>3389.27</ele>
        <time>2013-03-10T10:20:54Z</time>
      </trkpt>
      <trkpt lat="45.15476" lon="6.14548">
        <ele>3384.94</ele>
        <time>2013-03-10T10:20:55Z</time>
      </trkpt>
      <trkpt lat="45.15483" lon="6.14565">
        <ele>3375.81</ele>
        <time>2013-03-10T10:20:57Z</time>
      </trkpt>
      <trkpt lat="45.15492" lon="6.14583">
        <ele>3369.56</ele>
        <time>2013-03-10T10:20:59Z</time>
      </trkpt>
      <trkpt lat="45.15496" lon="6.14591">
        <ele>3364.75</ele>
        <time>2013-03-10T10:21:00Z</time>
      </trkpt>
      <trkpt lat="45.155" lon="6.14599">
        <ele>3359.46</ele>
        <time>2013-03-10T10:21:01Z</time>
      </trkpt>
      <trkpt lat="45.15506" lon="6.14608">
        <ele>3354.66</ele>
        <time>2013-03-10T10:21:02Z</time>
      </trkpt>
      <trkpt lat="45.15512" lon="6.14615">
        <ele>3349.37</ele>
        <time>2013-03-10T10:21:03Z</time>
      </trkpt>
      <trkpt lat="45.15531" lon="6.14634">
        <ele>3333.03</ele>
        <time>2013-03-10T10:21:06Z</time>
      </trkpt>
      <trkpt lat="45.15537" lon="6.14641">
        <ele>3328.22</ele>
        <time>2013-03-10T10:21:07Z</time>
      </trkpt>
      <trkpt lat="45.15543" lon="6.14646">
        <ele>3325.82</ele>
        <time>2013-03-10T10:21:08Z</time>
      </trkpt>
      <trkpt lat="45.15551" lon="6.14652">
        <ele>3320.05</ele>
        <time>2013-03-10T10:21:09Z</time>
      </trkpt>
      <trkpt lat="45.15555" lon="6.14655">
        <ele>3327.26</ele>
        <time>2013-03-10T10:21:10Z</time>
      </trkpt>
      <trkpt lat="45.1556" lon="6.14656">
        <ele>3335.43</ele>
        <time>2013-03-10T10:21:11Z</time>
      </trkpt>
      <trkpt lat="45.15562" lon="6.14656">
        <ele>3332.55</ele>
        <time>2013-03-10T10:21:12Z</time>
      </trkpt>
      <trkpt lat="45.15562" lon="6.14653">
        <ele>3329.66</ele>
        <time>2013-03-10T10:21:15Z</time>
      </trkpt>
      <trkpt lat="45.15554" lon="6.14646">
        <ele>3330.62</ele>
        <time>2013-03-10T10:21:30Z</time>
      </trkpt>
      <trkpt lat="45.15547" lon="6.1464">
        <ele>3331.59</ele>
        <time>2013-03-10T10:21:55Z</time>
      </trkpt>
      <trkpt lat="45.15536" lon="6.14636">
        <ele>3332.07</ele>
        <time>2013-03-10T10:22:21Z</time>
      </trkpt>
      <trkpt lat="45.15532" lon="6.14637">
        <ele>3332.55</ele>
        <time>2013-03-10T10:22:42Z</time>
      </trkpt>
      <trkpt lat="45.15531" lon="6.14634">
        <ele>3333.99</ele>
        <time>2013-03-10T10:23:02Z</time>
      </trkpt>
      <trkpt lat="45.15531" lon="6.14631">
        <ele>3334.47</ele>
        <time>2013-03-10T10:23:41Z</time>
      </trkpt>
      <trkpt lat="45.15529" lon="6.14632">
        <ele>3334.95</ele>
        <time>2013-03-10T10:24:04Z</time>
      </trkpt>
      <trkpt lat="45.15529" lon="6.14632">
        <ele>3334.95</ele>
        <time>2013-03-10T10:24:06Z</time>
      </trkpt>
      <trkpt lat="45.15533" lon="6.1464">
        <ele>3334.95</ele>
        <time>2013-03-10T10:24:09Z</time>
      </trkpt>
      <trkpt lat="45.15545" lon="6.14659">
        <ele>3313.32</ele>
        <time>2013-03-10T10:24:12Z</time>
      </trkpt>
      <trkpt lat="45.1555" lon="6.14667">
        <ele>3306.11</ele>
        <time>2013-03-10T10:24:13Z</time>
      </trkpt>
      <trkpt lat="45.15566" lon="6.14692">
        <ele>3299.86</ele>
        <time>2013-03-10T10:24:16Z</time>
      </trkpt>
      <trkpt lat="45.15575" lon="6.14709">
        <ele>3295.54</ele>
        <time>2013-03-10T10:24:18Z</time>
      </trkpt>
      <trkpt lat="45.15578" lon="6.1472">
        <ele>3292.17</ele>
        <time>2013-03-10T10:24:19Z</time>
      </trkpt>
      <trkpt lat="45.1558" lon="6.1473">
        <ele>3288.33</ele>
        <time>2013-03-10T10:24:20Z</time>
      </trkpt>
      <trkpt lat="45.15581" lon="6.14741">
        <ele>3284.48</ele>
        <time>2013-03-10T10:24:21Z</time>
      </trkpt>
      <trkpt lat="45.15583" lon="6.1475">
        <ele>3280.64</ele>
        <time>2013-03-10T10:24:22Z</time>
      </trkpt>
      <trkpt lat="45.15595" lon="6.1477">
        <ele>3269.58</ele>
        <time>2013-03-10T10:24:25Z</time>
      </trkpt>
      <trkpt lat="45.15599" lon="6.14776">
        <ele>3266.22</ele>
        <time>2013-03-10T10:24:26Z</time>
      </trkpt>
      <trkpt lat="45.15603" lon="6.14783">
        <ele>3263.33</ele>
        <time>2013-03-10T10:24:27Z</time>
      </trkpt>
      <trkpt lat="45.15613" lon="6.14807">
        <ele>3256.12</ele>
        <time>2013-03-10T10:24:30Z</time>
      </trkpt>
      <trkpt lat="45.15618" lon="6.14814">
        <ele>3253.72</ele>
        <time>2013-03-10T10:24:31Z</time>
      </trkpt>
      <trkpt lat="45.15639" lon="6.14843">
        <ele>3244.59</ele>
        <time>2013-03-10T10:24:35Z</time>
      </trkpt>
      <trkpt lat="45.15644" lon="6.1485">
        <ele>3242.18</ele>
        <time>2013-03-10T10:24:36Z</time>
      </trkpt>
      <trkpt lat="45.15658" lon="6.14872">
        <ele>3233.53</ele>
        <time>2013-03-10T10:24:39Z</time>
      </trkpt>
      <trkpt lat="45.15663" lon="6.14894">
        <ele>3224.4</ele>
        <time>2013-03-10T10:24:42Z</time>
      </trkpt>
      <trkpt lat="45.15661" lon="6.14897">
        <ele>3224.88</ele>
        <time>2013-03-10T10:24:43Z</time>
      </trkpt>
      <trkpt lat="45.15657" lon="6.14895">
        <ele>3228.73</ele>
        <time>2013-03-10T10:24:45Z</time>
      </trkpt>
      <trkpt lat="45.15653" lon="6.14892">
        <ele>3231.61</ele>
        <time>2013-03-10T10:24:47Z</time>
      </trkpt>
      <trkpt lat="45.15636" lon="6.14887">
        <ele>3231.13</ele>
        <time>2013-03-10T10:25:13Z</time>
      </trkpt>
      <trkpt lat="45.15633" lon="6.14886">
        <ele>3231.13</ele>
        <time>2013-03-10T10:25:40Z</time>
      </trkpt>
      <trkpt lat="45.1563" lon="6.14885">
        <ele>3230.65</ele>
        <time>2013-03-10T10:26:08Z</time>
      </trkpt>
      <trkpt lat="45.15629" lon="6.14884">
        <ele>3230.65</ele>
        <time>2013-03-10T10:26:29Z</time>
      </trkpt>
      <trkpt lat="45.15627" lon="6.14883">
        <ele>3231.13</ele>
        <time>2013-03-10T10:26:56Z</time>
      </trkpt>
      <trkpt lat="45.15626" lon="6.14883">
        <ele>3231.13</ele>
        <time>2013-03-10T10:27:20Z</time>
      </trkpt>
      <trkpt lat="45.15625" lon="6.14881">
        <ele>3231.13</ele>
        <time>2013-03-10T10:27:50Z</time>
      </trkpt>
      <trkpt lat="45.15625" lon="6.14882">
        <ele>3231.13</ele>
        <time>2013-03-10T10:28:15Z</time>
      </trkpt>
      <trkpt lat="45.15625" lon="6.14881">
        <ele>3231.13</ele>
        <time>2013-03-10T10:28:42Z</time>
      </trkpt>
      <trkpt lat="45.15625" lon="6.14881">
        <ele>3231.13</ele>
        <time>2013-03-10T10:29:01Z</time>
      </trkpt>
      <trkpt lat="45.15624" lon="6.14882">
        <ele>3231.13</ele>
        <time>2013-03-10T10:29:29Z</time>
      </trkpt>
      <trkpt lat="45.15624" lon="6.14882">
        <ele>3231.13</ele>
        <time>2013-03-10T10:29:53Z</time>
      </trkpt>
      <trkpt lat="45.15625" lon="6.14881">
        <ele>3231.13</ele>
        <time>2013-03-10T10:30:17Z</time>
      </trkpt>
      <trkpt lat="45.15627" lon="6.14881">
        <ele>3231.13</ele>
        <time>2013-03-10T10:30:37Z</time>
      </trkpt>
      <trkpt lat="45.15628" lon="6.1488">
        <ele>3231.13</ele>
        <time>2013-03-10T10:30:58Z</time>
      </trkpt>
      <trkpt lat="45.15628" lon="6.14879">
        <ele>3231.13</ele>
        <time>2013-03-10T10:31:20Z</time>
      </trkpt>
      <trkpt lat="45.15629" lon="6.1488">
        <ele>3231.13</ele>
        <time>2013-03-10T10:31:43Z</time>
      </trkpt>
      <trkpt lat="45.15631" lon="6.14879">
        <ele>3231.13</ele>
        <time>2013-03-10T10:32:08Z</time>
      </trkpt>
      <trkpt lat="45.15631" lon="6.1488">
        <ele>3231.13</ele>
        <time>2013-03-10T10:32:28Z</time>
      </trkpt>
      <trkpt lat="45.15631" lon="6.14879">
        <ele>3231.13</ele>
        <time>2013-03-10T10:32:45Z</time>
      </trkpt>
      <trkpt lat="45.15631" lon="6.1488">
        <ele>3230.65</ele>
        <time>2013-03-10T10:33:09Z</time>
      </trkpt>
      <trkpt lat="45.15631" lon="6.1488">
        <ele>3230.65</ele>
        <time>2013-03-10T10:33:27Z</time>
      </trkpt>
      <trkpt lat="45.1563" lon="6.14879">
        <ele>3230.17</ele>
        <time>2013-03-10T10:33:46Z</time>
      </trkpt>
      <trkpt lat="45.1563" lon="6.1488">
        <ele>3230.17</ele>
        <time>2013-03-10T10:34:14Z</time>
      </trkpt>
      <trkpt lat="45.15629" lon="6.14881">
        <ele>3230.17</ele>
        <time>2013-03-10T10:34:43Z</time>
      </trkpt>
      <trkpt lat="45.15628" lon="6.14881">
        <ele>3230.17</ele>
        <time>2013-03-10T10:35:14Z</time>
      </trkpt>
      <trkpt lat="45.15628" lon="6.14882">
        <ele>3230.17</ele>
        <time>2013-03-10T10:35:37Z</time>
      </trkpt>
      <trkpt lat="45.15628" lon="6.14882">
        <ele>3230.17</ele>
        <time>2013-03-10T10:35:59Z</time>
      </trkpt>
      <trkpt lat="45.15628" lon="6.14882">
        <ele>3230.17</ele>
        <time>2013-03-10T10:36:20Z</time>
      </trkpt>
      <trkpt lat="45.15628" lon="6.14882">
        <ele>3229.69</ele>
        <time>2013-03-10T10:36:43Z</time>
      </trkpt>
      <trkpt lat="45.15627" lon="6.14885">
        <ele>3229.69</ele>
        <time>2013-03-10T10:36:56Z</time>
      </trkpt>
      <trkpt lat="45.15626" lon="6.14884">
        <ele>3229.21</ele>
        <time>2013-03-10T10:37:16Z</time>
      </trkpt>
      <trkpt lat="45.15626" lon="6.14884">
        <ele>3228.73</ele>
        <time>2013-03-10T10:37:42Z</time>
      </trkpt>
      <trkpt lat="45.15627" lon="6.14886">
        <ele>3228.73</ele>
        <time>2013-03-10T10:38:00Z</time>
      </trkpt>
      <trkpt lat="45.15628" lon="6.14887">
        <ele>3228.73</ele>
        <time>2013-03-10T10:38:25Z</time>
      </trkpt>
      <trkpt lat="45.15629" lon="6.14887">
        <ele>3228.73</ele>
        <time>2013-03-10T10:38:45Z</time>
      </trkpt>
      <trkpt lat="45.15628" lon="6.14886">
        <ele>3228.73</ele>
        <time>2013-03-10T10:39:02Z</time>
      </trkpt>
      <trkpt lat="45.15628" lon="6.14886">
        <ele>3228.73</ele>
        <time>2013-03-10T10:39:25Z</time>
      </trkpt>
      <trkpt lat="45.15628" lon="6.14885">
        <ele>3228.73</ele>
        <time>2013-03-10T10:39:51Z</time>
      </trkpt>
      <trkpt lat="45.15628" lon="6.14882">
        <ele>3228.73</ele>
        <time>2013-03-10T10:40:28Z</time>
      </trkpt>
      <trkpt lat="45.15628" lon="6.14882">
        <ele>3228.73</ele>
        <time>2013-03-10T10:40:45Z</time>
      </trkpt>
      <trkpt lat="45.15629" lon="6.14882">
        <ele>3228.73</ele>
        <time>2013-03-10T10:41:08Z</time>
      </trkpt>
      <trkpt lat="45.15628" lon="6.14882">
        <ele>3228.73</ele>
        <time>2013-03-10T10:41:28Z</time>
      </trkpt>
      <trkpt lat="45.15628" lon="6.14882">
        <ele>3228.73</ele>
        <time>2013-03-10T10:41:47Z</time>
      </trkpt>
      <trkpt lat="45.15628" lon="6.14881">
        <ele>3228.73</ele>
        <time>2013-03-10T10:42:00Z</time>
      </trkpt>
      <trkpt lat="45.15628" lon="6.14882">
        <ele>3228.73</ele>
        <time>2013-03-10T10:42:20Z</time>
      </trkpt>
      <trkpt lat="45.15626" lon="6.14882">
        <ele>3228.73</ele>
        <time>2013-03-10T10:42:44Z</time>
      </trkpt>
      <trkpt lat="45.15625" lon="6.14882">
        <ele>3228.73</ele>
        <time>2013-03-10T10:43:08Z</time>
      </trkpt>
      <trkpt lat="45.15626" lon="6.14882">
        <ele>3228.73</ele>
        <time>2013-03-10T10:43:33Z</time>
      </trkpt>
      <trkpt lat="45.15625" lon="6.14881">
        <ele>3228.73</ele>
        <time>2013-03-10T10:43:55Z</time>
      </trkpt>
      <trkpt lat="45.15625" lon="6.14882">
        <ele>3229.21</ele>
        <time>2013-03-10T10:44:17Z</time>
      </trkpt>
      <trkpt lat="45.15626" lon="6.14882">
        <ele>3229.21</ele>
        <time>2013-03-10T10:44:37Z</time>
      </trkpt>
      <trkpt lat="45.15626" lon="6.14881">
        <ele>3229.21</ele>
        <time>2013-03-10T10:44:50Z</time>
      </trkpt>
      <trkpt lat="45.15627" lon="6.14881">
        <ele>3229.21</ele>
        <time>2013-03-10T10:45:13Z</time>
      </trkpt>
      <trkpt lat="45.15627" lon="6.14879">
        <ele>3229.21</ele>
        <time>2013-03-10T10:45:36Z</time>
      </trkpt>
      <trkpt lat="45.15627" lon="6.14881">
        <ele>3229.21</ele>
        <time>2013-03-10T10:45:52Z</time>
      </trkpt>
      <trkpt lat="45.15627" lon="6.14882">
        <ele>3229.21</ele>
        <time>2013-03-10T10:46:23Z</time>
      </trkpt>
      <trkpt lat="45.15628" lon="6.14883">
        <ele>3229.21</ele>
        <time>2013-03-10T10:46:40Z</time>
      </trkpt>
      <trkpt lat="45.15628" lon="6.14883">
        <ele>3229.21</ele>
        <time>2013-03-10T10:47:03Z</time>
      </trkpt>
      <trkpt lat="45.15627" lon="6.14885">
        <ele>3229.21</ele>
        <time>2013-03-10T10:47:25Z</time>
      </trkpt>
      <trkpt lat="45.15627" lon="6.14885">
        <ele>3229.21</ele>
        <time>2013-03-10T10:47:47Z</time>
      </trkpt>
      <trkpt lat="45.15625" lon="6.14885">
        <ele>3229.21</ele>
        <time>2013-03-10T10:48:08Z</time>
      </trkpt>
      <trkpt lat="45.15625" lon="6.14885">
        <ele>3229.21</ele>
        <time>2013-03-10T10:48:30Z</time>
      </trkpt>
      <trkpt lat="45.15626" lon="6.14885">
        <ele>3229.21</ele>
        <time>2013-03-10T10:48:48Z</time>
      </trkpt>
      <trkpt lat="45.15628" lon="6.14899">
        <ele>3229.21</ele>
        <time>2013-03-10T10:48:52Z</time>
      </trkpt>
      <trkpt lat="45.15634" lon="6.14922">
        <ele>3224.88</ele>
        <time>2013-03-10T10:48:56Z</time>
      </trkpt>
      <trkpt lat="45.15641" lon="6.14932">
        <ele>3220.55</ele>
        <time>2013-03-10T10:48:58Z</time>
      </trkpt>
      <trkpt lat="45.1565" lon="6.14941">
        <ele>3214.79</ele>
        <time>2013-03-10T10:49:00Z</time>
      </trkpt>
      <trkpt lat="45.15659" lon="6.1495">
        <ele>3209.02</ele>
        <time>2013-03-10T10:49:02Z</time>
      </trkpt>
      <trkpt lat="45.15663" lon="6.14955">
        <ele>3205.65</ele>
        <time>2013-03-10T10:49:03Z</time>
      </trkpt>
      <trkpt lat="45.15667" lon="6.14957">
        <ele>3202.77</ele>
        <time>2013-03-10T10:49:04Z</time>
      </trkpt>
      <trkpt lat="45.15673" lon="6.14954">
        <ele>3197.48</ele>
        <time>2013-03-10T10:49:06Z</time>
      </trkpt>
      <trkpt lat="45.15671" lon="6.14952">
        <ele>3210.94</ele>
        <time>2013-03-10T10:49:09Z</time>
      </trkpt>
      <trkpt lat="45.1567" lon="6.14952">
        <ele>3210.94</ele>
        <time>2013-03-10T10:49:10Z</time>
      </trkpt>
      <trkpt lat="45.1567" lon="6.14952">
        <ele>3205.65</ele>
        <time>2013-03-10T10:49:11Z</time>
      </trkpt>
      <trkpt lat="45.15669" lon="6.1495">
        <ele>3204.21</ele>
        <time>2013-03-10T10:49:35Z</time>
      </trkpt>
      <trkpt lat="45.1567" lon="6.14948">
        <ele>3203.73</ele>
        <time>2013-03-10T10:49:57Z</time>
      </trkpt>
      <trkpt lat="45.15677" lon="6.1495">
        <ele>3203.73</ele>
        <time>2013-03-10T10:50:00Z</time>
      </trkpt>
      <trkpt lat="45.15688" lon="6.14974">
        <ele>3198.92</ele>
        <time>2013-03-10T10:50:04Z</time>
      </trkpt>
      <trkpt lat="45.15694" lon="6.14988">
        <ele>3184.02</ele>
        <time>2013-03-10T10:50:06Z</time>
      </trkpt>
      <trkpt lat="45.15701" lon="6.15004">
        <ele>3179.7</ele>
        <time>2013-03-10T10:50:08Z</time>
      </trkpt>
      <trkpt lat="45.15707" lon="6.15021">
        <ele>3173.93</ele>
        <time>2013-03-10T10:50:10Z</time>
      </trkpt>
      <trkpt lat="45.15714" lon="6.15035">
        <ele>3168.64</ele>
        <time>2013-03-10T10:50:12Z</time>
      </trkpt>
      <trkpt lat="45.15718" lon="6.15044">
        <ele>3165.76</ele>
        <time>2013-03-10T10:50:13Z</time>
      </trkpt>
      <trkpt lat="45.15731" lon="6.15071">
        <ele>3156.63</ele>
        <time>2013-03-10T10:50:16Z</time>
      </trkpt>
      <trkpt lat="45.15735" lon="6.1508">
        <ele>3153.26</ele>
        <time>2013-03-10T10:50:17Z</time>
      </trkpt>
      <trkpt lat="45.15738" lon="6.15091">
        <ele>3149.9</ele>
        <time>2013-03-10T10:50:18Z</time>
      </trkpt>
      <trkpt lat="45.15746" lon="6.1511">
        <ele>3141.73</ele>
        <time>2013-03-10T10:50:20Z</time>
      </trkpt>
      <trkpt lat="45.15751" lon="6.15118">
        <ele>3137.88</ele>
        <time>2013-03-10T10:50:21Z</time>
      </trkpt>
      <trkpt lat="45.15755" lon="6.15126">
        <ele>3133.55</ele>
        <time>2013-03-10T10:50:22Z</time>
      </trkpt>
      <trkpt lat="45.15757" lon="6.15145">
        <ele>3128.75</ele>
        <time>2013-03-10T10:50:24Z</time>
      </trkpt>
      <trkpt lat="45.15756" lon="6.15154">
        <ele>3124.9</ele>
        <time>2013-03-10T10:50:25Z</time>
      </trkpt>
      <trkpt lat="45.15746" lon="6.15192">
        <ele>3112.41</ele>
        <time>2013-03-10T10:50:29Z</time>
      </trkpt>
      <trkpt lat="45.15752" lon="6.15221">
        <ele>3106.64</ele>
        <time>2013-03-10T10:50:33Z</time>
      </trkpt>
      <trkpt lat="45.15751" lon="6.15217">
        <ele>3107.6</ele>
        <time>2013-03-10T10:50:38Z</time>
      </trkpt>
      <trkpt lat="45.15748" lon="6.15215">
        <ele>3110.48</ele>
        <time>2013-03-10T10:50:41Z</time>
      </trkpt>
      <trkpt lat="45.15745" lon="6.15214">
        <ele>3112.89</ele>
        <time>2013-03-10T10:50:45Z</time>
      </trkpt>
      <trkpt lat="45.15747" lon="6.15216">
        <ele>3110.96</ele>
        <time>2013-03-10T10:51:06Z</time>
      </trkpt>
      <trkpt lat="45.15753" lon="6.15216">
        <ele>3110.48</ele>
        <time>2013-03-10T10:51:35Z</time>
      </trkpt>
      <trkpt lat="45.15754" lon="6.15216">
        <ele>3110.48</ele>
        <time>2013-03-10T10:51:41Z</time>
      </trkpt>
      <trkpt lat="45.15756" lon="6.15217">
        <ele>3110.48</ele>
        <time>2013-03-10T10:51:43Z</time>
      </trkpt>
      <trkpt lat="45.15769" lon="6.15237">
        <ele>3106.64</ele>
        <time>2013-03-10T10:51:47Z</time>
      </trkpt>
      <trkpt lat="45.15776" lon="6.15253">
        <ele>3089.33</ele>
        <time>2013-03-10T10:51:49Z</time>
      </trkpt>
      <trkpt lat="45.1579" lon="6.1528">
        <ele>3079.72</ele>
        <time>2013-03-10T10:51:52Z</time>
      </trkpt>
      <trkpt lat="45.15795" lon="6.15288">
        <ele>3075.88</ele>
        <time>2013-03-10T10:51:53Z</time>
      </trkpt>
      <trkpt lat="45.15798" lon="6.15298">
        <ele>3072.03</ele>
        <time>2013-03-10T10:51:54Z</time>
      </trkpt>
      <trkpt lat="45.15798" lon="6.15308">
        <ele>3068.67</ele>
        <time>2013-03-10T10:51:55Z</time>
      </trkpt>
      <trkpt lat="45.15799" lon="6.15316">
        <ele>3065.3</ele>
        <time>2013-03-10T10:51:56Z</time>
      </trkpt>
      <trkpt lat="45.15811" lon="6.15343">
        <ele>3054.25</ele>
        <time>2013-03-10T10:52:00Z</time>
      </trkpt>
      <trkpt lat="45.15821" lon="6.15361">
        <ele>3048.48</ele>
        <time>2013-03-10T10:52:03Z</time>
      </trkpt>
      <trkpt lat="45.15828" lon="6.15358">
        <ele>3044.63</ele>
        <time>2013-03-10T10:52:05Z</time>
      </trkpt>
      <trkpt lat="45.15829" lon="6.15356">
        <ele>3041.27</ele>
        <time>2013-03-10T10:52:08Z</time>
      </trkpt>
      <trkpt lat="45.15829" lon="6.15356">
        <ele>3048.48</ele>
        <time>2013-03-10T10:52:10Z</time>
      </trkpt>
      <trkpt lat="45.15833" lon="6.15357">
        <ele>3048.96</ele>
        <time>2013-03-10T10:52:27Z</time>
      </trkpt>
      <trkpt lat="45.15834" lon="6.15357">
        <ele>3048</ele>
        <time>2013-03-10T10:52:34Z</time>
      </trkpt>
      <trkpt lat="45.15857" lon="6.1535">
        <ele>3043.67</ele>
        <time>2013-03-10T10:52:41Z</time>
      </trkpt>
      <trkpt lat="45.15865" lon="6.15347">
        <ele>3040.31</ele>
        <time>2013-03-10T10:52:43Z</time>
      </trkpt>
      <trkpt lat="45.15874" lon="6.15345">
        <ele>3035.98</ele>
        <time>2013-03-10T10:52:45Z</time>
      </trkpt>
      <trkpt lat="45.15887" lon="6.15342">
        <ele>3030.69</ele>
        <time>2013-03-10T10:52:48Z</time>
      </trkpt>
      <trkpt lat="45.15896" lon="6.1534">
        <ele>3029.25</ele>
        <time>2013-03-10T10:52:50Z</time>
      </trkpt>
      <trkpt lat="45.15903" lon="6.15346">
        <ele>3027.33</ele>
        <time>2013-03-10T10:52:52Z</time>
      </trkpt>
      <trkpt lat="45.15913" lon="6.15361">
        <ele>3022.52</ele>
        <time>2013-03-10T10:52:55Z</time>
      </trkpt>
      <trkpt lat="45.1592" lon="6.15376">
        <ele>3017.23</ele>
        <time>2013-03-10T10:52:57Z</time>
      </trkpt>
      <trkpt lat="45.15923" lon="6.15383">
        <ele>3013.87</ele>
        <time>2013-03-10T10:52:58Z</time>
      </trkpt>
      <trkpt lat="45.15928" lon="6.15388">
        <ele>3010.51</ele>
        <time>2013-03-10T10:52:59Z</time>
      </trkpt>
      <trkpt lat="45.15932" lon="6.15392">
        <ele>3006.18</ele>
        <time>2013-03-10T10:53:00Z</time>
      </trkpt>
      <trkpt lat="45.15937" lon="6.15397">
        <ele>3001.85</ele>
        <time>2013-03-10T10:53:01Z</time>
      </trkpt>
      <trkpt lat="45.15941" lon="6.15402">
        <ele>2998.01</ele>
        <time>2013-03-10T10:53:02Z</time>
      </trkpt>
      <trkpt lat="45.15941" lon="6.15408">
        <ele>2994.16</ele>
        <time>2013-03-10T10:53:03Z</time>
      </trkpt>
      <trkpt lat="45.15938" lon="6.15411">
        <ele>2990.32</ele>
        <time>2013-03-10T10:53:04Z</time>
      </trkpt>
      <trkpt lat="45.15935" lon="6.15411">
        <ele>2985.99</ele>
        <time>2013-03-10T10:53:06Z</time>
      </trkpt>
      <trkpt lat="45.15935" lon="6.15409">
        <ele>2999.93</ele>
        <time>2013-03-10T10:53:07Z</time>
      </trkpt>
      <trkpt lat="45.15932" lon="6.15406">
        <ele>2995.12</ele>
        <time>2013-03-10T10:53:10Z</time>
      </trkpt>
      <trkpt lat="45.15932" lon="6.15406">
        <ele>2995.12</ele>
        <time>2013-03-10T10:53:11Z</time>
      </trkpt>
      <trkpt lat="45.1593" lon="6.15405">
        <ele>2994.64</ele>
        <time>2013-03-10T10:53:24Z</time>
      </trkpt>
      <trkpt lat="45.15929" lon="6.15403">
        <ele>2994.64</ele>
        <time>2013-03-10T10:53:39Z</time>
      </trkpt>
      <trkpt lat="45.15938" lon="6.15421">
        <ele>2993.68</ele>
        <time>2013-03-10T10:53:43Z</time>
      </trkpt>
      <trkpt lat="45.15948" lon="6.15442">
        <ele>2976.38</ele>
        <time>2013-03-10T10:53:46Z</time>
      </trkpt>
      <trkpt lat="45.15956" lon="6.15457">
        <ele>2969.65</ele>
        <time>2013-03-10T10:53:48Z</time>
      </trkpt>
      <trkpt lat="45.15968" lon="6.15476">
        <ele>2959.56</ele>
        <time>2013-03-10T10:53:51Z</time>
      </trkpt>
      <trkpt lat="45.15973" lon="6.15483">
        <ele>2955.71</ele>
        <time>2013-03-10T10:53:52Z</time>
      </trkpt>
      <trkpt lat="45.15979" lon="6.15489">
        <ele>2952.35</ele>
        <time>2013-03-10T10:53:53Z</time>
      </trkpt>
      <trkpt lat="45.15984" lon="6.15496">
        <ele>2948.5</ele>
        <time>2013-03-10T10:53:54Z</time>
      </trkpt>
      <trkpt lat="45.15989" lon="6.15503">
        <ele>2945.14</ele>
        <time>2013-03-10T10:53:55Z</time>
      </trkpt>
      <trkpt lat="45.15995" lon="6.1551">
        <ele>2941.29</ele>
        <time>2013-03-10T10:53:56Z</time>
      </trkpt>
      <trkpt lat="45.16" lon="6.15518">
        <ele>2936.97</ele>
        <time>2013-03-10T10:53:57Z</time>
      </trkpt>
      <trkpt lat="45.16017" lon="6.1554">
        <ele>2924.47</ele>
        <time>2013-03-10T10:54:00Z</time>
      </trkpt>
      <trkpt lat="45.16028" lon="6.15556">
        <ele>2916.3</ele>
        <time>2013-03-10T10:54:02Z</time>
      </trkpt>
      <trkpt lat="45.16034" lon="6.15564">
        <ele>2911.97</ele>
        <time>2013-03-10T10:54:03Z</time>
      </trkpt>
      <trkpt lat="45.16048" lon="6.15584">
        <ele>2907.16</ele>
        <time>2013-03-10T10:54:05Z</time>
      </trkpt>
      <trkpt lat="45.16052" lon="6.15595">
        <ele>2903.32</ele>
        <time>2013-03-10T10:54:06Z</time>
      </trkpt>
      <trkpt lat="45.16056" lon="6.15608">
        <ele>2898.99</ele>
        <time>2013-03-10T10:54:07Z</time>
      </trkpt>
      <trkpt lat="45.16061" lon="6.15622">
        <ele>2894.67</ele>
        <time>2013-03-10T10:54:08Z</time>
      </trkpt>
      <trkpt lat="45.16074" lon="6.15643">
        <ele>2886.02</ele>
        <time>2013-03-10T10:54:10Z</time>
      </trkpt>
      <trkpt lat="45.16084" lon="6.1565">
        <ele>2881.69</ele>
        <time>2013-03-10T10:54:11Z</time>
      </trkpt>
      <trkpt lat="45.161" lon="6.1567">
        <ele>2873.52</ele>
        <time>2013-03-10T10:54:13Z</time>
      </trkpt>
      <trkpt lat="45.16104" lon="6.15682">
        <ele>2870.15</ele>
        <time>2013-03-10T10:54:14Z</time>
      </trkpt>
      <trkpt lat="45.16107" lon="6.15693">
        <ele>2866.79</ele>
        <time>2013-03-10T10:54:15Z</time>
      </trkpt>
      <trkpt lat="45.16122" lon="6.15705">
        <ele>2873.04</ele>
        <time>2013-03-10T10:54:18Z</time>
      </trkpt>
      <trkpt lat="45.1612" lon="6.15701">
        <ele>2869.67</ele>
        <time>2013-03-10T10:54:23Z</time>
      </trkpt>
      <trkpt lat="45.16119" lon="6.15699">
        <ele>2870.63</ele>
        <time>2013-03-10T10:54:43Z</time>
      </trkpt>
      <trkpt lat="45.16117" lon="6.15698">
        <ele>2871.11</ele>
        <time>2013-03-10T10:55:02Z</time>
      </trkpt>
      <trkpt lat="45.16118" lon="6.15699">
        <ele>2871.6</ele>
        <time>2013-03-10T10:55:24Z</time>
      </trkpt>
      <trkpt lat="45.16118" lon="6.157">
        <ele>2871.6</ele>
        <time>2013-03-10T10:55:50Z</time>
      </trkpt>
      <trkpt lat="45.16119" lon="6.15699">
        <ele>2871.6</ele>
        <time>2013-03-10T10:56:18Z</time>
      </trkpt>
      <trkpt lat="45.16117" lon="6.15699">
        <ele>2871.6</ele>
        <time>2013-03-10T10:56:49Z</time>
      </trkpt>
      <trkpt lat="45.16117" lon="6.15699">
        <ele>2872.08</ele>
        <time>2013-03-10T10:57:05Z</time>
      </trkpt>
      <trkpt lat="45.16131" lon="6.15721">
        <ele>2870.15</ele>
        <time>2013-03-10T10:57:11Z</time>
      </trkpt>
      <trkpt lat="45.16147" lon="6.15739">
        <ele>2864.87</ele>
        <time>2013-03-10T10:57:14Z</time>
      </trkpt>
      <trkpt lat="45.16159" lon="6.15753">
        <ele>2859.1</ele>
        <time>2013-03-10T10:57:16Z</time>
      </trkpt>
      <trkpt lat="45.16166" lon="6.15761">
        <ele>2855.73</ele>
        <time>2013-03-10T10:57:17Z</time>
      </trkpt>
      <trkpt lat="45.16173" lon="6.15769">
        <ele>2852.37</ele>
        <time>2013-03-10T10:57:18Z</time>
      </trkpt>
      <trkpt lat="45.16185" lon="6.15789">
        <ele>2844.2</ele>
        <time>2013-03-10T10:57:20Z</time>
      </trkpt>
      <trkpt lat="45.16192" lon="6.15797">
        <ele>2839.87</ele>
        <time>2013-03-10T10:57:21Z</time>
      </trkpt>
      <trkpt lat="45.16198" lon="6.15806">
        <ele>2838.43</ele>
        <time>2013-03-10T10:57:22Z</time>
      </trkpt>
      <trkpt lat="45.16209" lon="6.15821">
        <ele>2831.22</ele>
        <time>2013-03-10T10:57:24Z</time>
      </trkpt>
      <trkpt lat="45.16215" lon="6.15828">
        <ele>2827.85</ele>
        <time>2013-03-10T10:57:25Z</time>
      </trkpt>
      <trkpt lat="45.1623" lon="6.15839">
        <ele>2822.09</ele>
        <time>2013-03-10T10:57:27Z</time>
      </trkpt>
      <trkpt lat="45.16246" lon="6.15847">
        <ele>2817.28</ele>
        <time>2013-03-10T10:57:29Z</time>
      </trkpt>
      <trkpt lat="45.16263" lon="6.1587">
        <ele>2811.51</ele>
        <time>2013-03-10T10:57:32Z</time>
      </trkpt>
      <trkpt lat="45.16278" lon="6.15902">
        <ele>2805.26</ele>
        <time>2013-03-10T10:57:35Z</time>
      </trkpt>
      <trkpt lat="45.16289" lon="6.15934">
        <ele>2798.05</ele>
        <time>2013-03-10T10:57:38Z</time>
      </trkpt>
      <trkpt lat="45.16285" lon="6.15961">
        <ele>2790.36</ele>
        <time>2013-03-10T10:57:41Z</time>
      </trkpt>
      <trkpt lat="45.1628" lon="6.15968">
        <ele>2787.48</ele>
        <time>2013-03-10T10:57:43Z</time>
      </trkpt>
      <trkpt lat="45.16279" lon="6.15969">
        <ele>2787.48</ele>
        <time>2013-03-10T10:57:44Z</time>
      </trkpt>
      <trkpt lat="45.16279" lon="6.1597">
        <ele>2802.86</ele>
        <time>2013-03-10T10:57:45Z</time>
      </trkpt>
      <trkpt lat="45.16278" lon="6.15971">
        <ele>2798.05</ele>
        <time>2013-03-10T10:57:47Z</time>
      </trkpt>
      <trkpt lat="45.16277" lon="6.15971">
        <ele>2798.05</ele>
        <time>2013-03-10T10:57:48Z</time>
      </trkpt>
      <trkpt lat="45.16273" lon="6.15972">
        <ele>2797.57</ele>
        <time>2013-03-10T10:58:09Z</time>
      </trkpt>
      <trkpt lat="45.16272" lon="6.1597">
        <ele>2796.61</ele>
        <time>2013-03-10T10:58:34Z</time>
      </trkpt>
      <trkpt lat="45.1627" lon="6.15969">
        <ele>2796.61</ele>
        <time>2013-03-10T10:59:08Z</time>
      </trkpt>
      <trkpt lat="45.1627" lon="6.15971">
        <ele>2796.61</ele>
        <time>2013-03-10T10:59:36Z</time>
      </trkpt>
      <trkpt lat="45.1627" lon="6.15973">
        <ele>2796.61</ele>
        <time>2013-03-10T11:00:08Z</time>
      </trkpt>
      <trkpt lat="45.1627" lon="6.15973">
        <ele>2796.61</ele>
        <time>2013-03-10T11:00:33Z</time>
      </trkpt>
      <trkpt lat="45.16269" lon="6.15972">
        <ele>2796.61</ele>
        <time>2013-03-10T11:01:04Z</time>
      </trkpt>
      <trkpt lat="45.16269" lon="6.15972">
        <ele>2796.61</ele>
        <time>2013-03-10T11:01:32Z</time>
      </trkpt>
      <trkpt lat="45.16269" lon="6.15973">
        <ele>2796.61</ele>
        <time>2013-03-10T11:02:03Z</time>
      </trkpt>
      <trkpt lat="45.16269" lon="6.15973">
        <ele>2796.61</ele>
        <time>2013-03-10T11:02:25Z</time>
      </trkpt>
      <trkpt lat="45.1627" lon="6.15973">
        <ele>2796.61</ele>
        <time>2013-03-10T11:02:51Z</time>
      </trkpt>
      <trkpt lat="45.1627" lon="6.15973">
        <ele>2796.61</ele>
        <time>2013-03-10T11:03:21Z</time>
      </trkpt>
      <trkpt lat="45.16269" lon="6.15972">
        <ele>2796.61</ele>
        <time>2013-03-10T11:03:45Z</time>
      </trkpt>
      <trkpt lat="45.16269" lon="6.15973">
        <ele>2796.61</ele>
        <time>2013-03-10T11:04:11Z</time>
      </trkpt>
      <trkpt lat="45.16269" lon="6.15973">
        <ele>2796.61</ele>
        <time>2013-03-10T11:04:31Z</time>
      </trkpt>
      <trkpt lat="45.1627" lon="6.15975">
        <ele>2796.61</ele>
        <time>2013-03-10T11:04:51Z</time>
      </trkpt>
      <trkpt lat="45.1627" lon="6.15974">
        <ele>2797.09</ele>
        <time>2013-03-10T11:05:16Z</time>
      </trkpt>
      <trkpt lat="45.1627" lon="6.15973">
        <ele>2797.09</ele>
        <time>2013-03-10T11:05:48Z</time>
      </trkpt>
      <trkpt lat="45.16269" lon="6.15973">
        <ele>2797.09</ele>
        <time>2013-03-10T11:06:20Z</time>
      </trkpt>
      <trkpt lat="45.16269" lon="6.15973">
        <ele>2797.09</ele>
        <time>2013-03-10T11:06:44Z</time>
      </trkpt>
      <trkpt lat="45.16269" lon="6.15973">
        <ele>2797.09</ele>
        <time>2013-03-10T11:07:10Z</time>
      </trkpt>
      <trkpt lat="45.16268" lon="6.15973">
        <ele>2797.09</ele>
        <time>2013-03-10T11:07:38Z</time>
      </trkpt>
      <trkpt lat="45.16269" lon="6.15974">
        <ele>2797.09</ele>
        <time>2013-03-10T11:08:03Z</time>
      </trkpt>
      <trkpt lat="45.16269" lon="6.15974">
        <ele>2797.09</ele>
        <time>2013-03-10T11:08:31Z</time>
      </trkpt>
      <trkpt lat="45.16269" lon="6.15973">
        <ele>2797.09</ele>
        <time>2013-03-10T11:09:03Z</time>
      </trkpt>
      <trkpt lat="45.1627" lon="6.15975">
        <ele>2797.57</ele>
        <time>2013-03-10T11:09:29Z</time>
      </trkpt>
      <trkpt lat="45.16268" lon="6.15974">
        <ele>2797.57</ele>
        <time>2013-03-10T11:10:00Z</time>
      </trkpt>
      <trkpt lat="45.16268" lon="6.15975">
        <ele>2797.57</ele>
        <time>2013-03-10T11:10:24Z</time>
      </trkpt>
      <trkpt lat="45.16269" lon="6.15975">
        <ele>2797.57</ele>
        <time>2013-03-10T11:10:50Z</time>
      </trkpt>
      <trkpt lat="45.1627" lon="6.15974">
        <ele>2797.57</ele>
        <time>2013-03-10T11:11:15Z</time>
      </trkpt>
      <trkpt lat="45.16269" lon="6.15974">
        <ele>2797.57</ele>
        <time>2013-03-10T11:11:36Z</time>
      </trkpt>
      <trkpt lat="45.16268" lon="6.15974">
        <ele>2797.57</ele>
        <time>2013-03-10T11:11:59Z</time>
      </trkpt>
      <trkpt lat="45.16268" lon="6.15974">
        <ele>2797.57</ele>
        <time>2013-03-10T11:12:23Z</time>
      </trkpt>
      <trkpt lat="45.16271" lon="6.15974">
        <ele>2797.57</ele>
        <time>2013-03-10T11:12:31Z</time>
      </trkpt>
      <trkpt lat="45.16305" lon="6.15972">
        <ele>2796.61</ele>
        <time>2013-03-10T11:12:46Z</time>
      </trkpt>
      <trkpt lat="45.16309" lon="6.15978">
        <ele>2794.69</ele>
        <time>2013-03-10T11:13:03Z</time>
      </trkpt>
      <trkpt lat="45.16308" lon="6.15977">
        <ele>2794.21</ele>
        <time>2013-03-10T11:13:13Z</time>
      </trkpt>
      <trkpt lat="45.16331" lon="6.15997">
        <ele>2792.77</ele>
        <time>2013-03-10T11:13:20Z</time>
      </trkpt>
      <trkpt lat="45.16356" lon="6.16023">
        <ele>2786.52</ele>
        <time>2013-03-10T11:13:24Z</time>
      </trkpt>
      <trkpt lat="45.1637" lon="6.1604">
        <ele>2781.71</ele>
        <time>2013-03-10T11:13:26Z</time>
      </trkpt>
      <trkpt lat="45.16387" lon="6.16058">
        <ele>2775.46</ele>
        <time>2013-03-10T11:13:28Z</time>
      </trkpt>
      <trkpt lat="45.16396" lon="6.16068">
        <ele>2772.1</ele>
        <time>2013-03-10T11:13:29Z</time>
      </trkpt>
      <trkpt lat="45.16426" lon="6.16091">
        <ele>2763.45</ele>
        <time>2013-03-10T11:13:32Z</time>
      </trkpt>
      <trkpt lat="45.16447" lon="6.16107">
        <ele>2758.16</ele>
        <time>2013-03-10T11:13:34Z</time>
      </trkpt>
      <trkpt lat="45.16469" lon="6.16121">
        <ele>2753.35</ele>
        <time>2013-03-10T11:13:36Z</time>
      </trkpt>
      <trkpt lat="45.16491" lon="6.16137">
        <ele>2749.51</ele>
        <time>2013-03-10T11:13:38Z</time>
      </trkpt>
      <trkpt lat="45.16512" lon="6.16154">
        <ele>2746.14</ele>
        <time>2013-03-10T11:13:40Z</time>
      </trkpt>
      <trkpt lat="45.16543" lon="6.16179">
        <ele>2742.78</ele>
        <time>2013-03-10T11:13:43Z</time>
      </trkpt>
      <trkpt lat="45.16574" lon="6.16204">
        <ele>2739.41</ele>
        <time>2013-03-10T11:13:46Z</time>
      </trkpt>
      <trkpt lat="45.16606" lon="6.16229">
        <ele>2735.57</ele>
        <time>2013-03-10T11:13:49Z</time>
      </trkpt>
      <trkpt lat="45.1664" lon="6.16245">
        <ele>2730.28</ele>
        <time>2013-03-10T11:13:52Z</time>
      </trkpt>
      <trkpt lat="45.16663" lon="6.16254">
        <ele>2725.96</ele>
        <time>2013-03-10T11:13:54Z</time>
      </trkpt>
      <trkpt lat="45.16685" lon="6.16263">
        <ele>2721.63</ele>
        <time>2013-03-10T11:13:56Z</time>
      </trkpt>
      <trkpt lat="45.16706" lon="6.16272">
        <ele>2718.27</ele>
        <time>2013-03-10T11:13:58Z</time>
      </trkpt>
      <trkpt lat="45.16738" lon="6.16283">
        <ele>2714.9</ele>
        <time>2013-03-10T11:14:01Z</time>
      </trkpt>
      <trkpt lat="45.16816" lon="6.163">
        <ele>2711.54</ele>
        <time>2013-03-10T11:14:09Z</time>
      </trkpt>
      <trkpt lat="45.16833" lon="6.16304">
        <ele>2710.57</ele>
        <time>2013-03-10T11:14:11Z</time>
      </trkpt>
      <trkpt lat="45.16875" lon="6.16318">
        <ele>2707.21</ele>
        <time>2013-03-10T11:14:16Z</time>
      </trkpt>
      <trkpt lat="45.16905" lon="6.16331">
        <ele>2701.92</ele>
        <time>2013-03-10T11:14:19Z</time>
      </trkpt>
      <trkpt lat="45.16925" lon="6.1634">
        <ele>2697.6</ele>
        <time>2013-03-10T11:14:21Z</time>
      </trkpt>
      <trkpt lat="45.16945" lon="6.16347">
        <ele>2692.79</ele>
        <time>2013-03-10T11:14:23Z</time>
      </trkpt>
      <trkpt lat="45.16965" lon="6.16356">
        <ele>2689.43</ele>
        <time>2013-03-10T11:14:25Z</time>
      </trkpt>
      <trkpt lat="45.16995" lon="6.16367">
        <ele>2686.54</ele>
        <time>2013-03-10T11:14:28Z</time>
      </trkpt>
      <trkpt lat="45.17025" lon="6.16383">
        <ele>2686.06</ele>
        <time>2013-03-10T11:14:32Z</time>
      </trkpt>
      <trkpt lat="45.17052" lon="6.16407">
        <ele>2689.91</ele>
        <time>2013-03-10T11:14:37Z</time>
      </trkpt>
      <trkpt lat="45.17068" lon="6.16412">
        <ele>2690.87</ele>
        <time>2013-03-10T11:14:40Z</time>
      </trkpt>
      <trkpt lat="45.1708" lon="6.16416">
        <ele>2690.87</ele>
        <time>2013-03-10T11:14:43Z</time>
      </trkpt>
      <trkpt lat="45.17094" lon="6.16427">
        <ele>2689.43</ele>
        <time>2013-03-10T11:14:47Z</time>
      </trkpt>
      <trkpt lat="45.17119" lon="6.1644">
        <ele>2688.46</ele>
        <time>2013-03-10T11:14:58Z</time>
      </trkpt>
      <trkpt lat="45.17131" lon="6.16446">
        <ele>2687.98</ele>
        <time>2013-03-10T11:15:08Z</time>
      </trkpt>
      <trkpt lat="45.17147" lon="6.16456">
        <ele>2687.98</ele>
        <time>2013-03-10T11:15:22Z</time>
      </trkpt>
      <trkpt lat="45.17187" lon="6.16485">
        <ele>2686.06</ele>
        <time>2013-03-10T11:15:37Z</time>
      </trkpt>
      <trkpt lat="45.1722" lon="6.16509">
        <ele>2683.66</ele>
        <time>2013-03-10T11:15:50Z</time>
      </trkpt>
      <trkpt lat="45.17238" lon="6.16523">
        <ele>2683.18</ele>
        <time>2013-03-10T11:16:03Z</time>
      </trkpt>
      <trkpt lat="45.1725" lon="6.16533">
        <ele>2683.18</ele>
        <time>2013-03-10T11:16:16Z</time>
      </trkpt>
      <trkpt lat="45.17257" lon="6.16542">
        <ele>2683.18</ele>
        <time>2013-03-10T11:16:31Z</time>
      </trkpt>
      <trkpt lat="45.17266" lon="6.16553">
        <ele>2683.18</ele>
        <time>2013-03-10T11:16:44Z</time>
      </trkpt>
      <trkpt lat="45.17276" lon="6.16565">
        <ele>2683.18</ele>
        <time>2013-03-10T11:16:58Z</time>
      </trkpt>
      <trkpt lat="45.17287" lon="6.16577">
        <ele>2684.14</ele>
        <time>2013-03-10T11:17:12Z</time>
      </trkpt>
      <trkpt lat="45.17309" lon="6.16595">
        <ele>2684.14</ele>
        <time>2013-03-10T11:17:28Z</time>
      </trkpt>
      <trkpt lat="45.17333" lon="6.16609">
        <ele>2684.14</ele>
        <time>2013-03-10T11:17:41Z</time>
      </trkpt>
      <trkpt lat="45.17341" lon="6.16615">
        <ele>2683.18</ele>
        <time>2013-03-10T11:17:45Z</time>
      </trkpt>
      <trkpt lat="45.17353" lon="6.1663">
        <ele>2682.7</ele>
        <time>2013-03-10T11:18:00Z</time>
      </trkpt>
      <trkpt lat="45.17364" lon="6.16641">
        <ele>2682.7</ele>
        <time>2013-03-10T11:18:13Z</time>
      </trkpt>
      <trkpt lat="45.17372" lon="6.16651">
        <ele>2682.7</ele>
        <time>2013-03-10T11:18:25Z</time>
      </trkpt>
      <trkpt lat="45.17373" lon="6.16651">
        <ele>2682.7</ele>
        <time>2013-03-10T11:18:46Z</time>
      </trkpt>
      <trkpt lat="45.17373" lon="6.16651">
        <ele>2682.7</ele>
        <time>2013-03-10T11:19:02Z</time>
      </trkpt>
      <trkpt lat="45.17374" lon="6.16652">
        <ele>2682.7</ele>
        <time>2013-03-10T11:19:20Z</time>
      </trkpt>
      <trkpt lat="45.17387" lon="6.16668">
        <ele>2682.7</ele>
        <time>2013-03-10T11:19:35Z</time>
      </trkpt>
      <trkpt lat="45.174" lon="6.16684">
        <ele>2682.7</ele>
        <time>2013-03-10T11:19:50Z</time>
      </trkpt>
      <trkpt lat="45.17415" lon="6.16699">
        <ele>2683.66</ele>
        <time>2013-03-10T11:20:07Z</time>
      </trkpt>
      <trkpt lat="45.17427" lon="6.16713">
        <ele>2683.66</ele>
        <time>2013-03-10T11:20:24Z</time>
      </trkpt>
      <trkpt lat="45.17427" lon="6.16714">
        <ele>2684.14</ele>
        <time>2013-03-10T11:20:42Z</time>
      </trkpt>
      <trkpt lat="45.17426" lon="6.16713">
        <ele>2684.14</ele>
        <time>2013-03-10T11:20:58Z</time>
      </trkpt>
      <trkpt lat="45.17424" lon="6.16714">
        <ele>2684.14</ele>
        <time>2013-03-10T11:21:17Z</time>
      </trkpt>
      <trkpt lat="45.17424" lon="6.16714">
        <ele>2684.14</ele>
        <time>2013-03-10T11:21:46Z</time>
      </trkpt>
      <trkpt lat="45.17424" lon="6.16714">
        <ele>2684.14</ele>
        <time>2013-03-10T11:22:06Z</time>
      </trkpt>
      <trkpt lat="45.17424" lon="6.16713">
        <ele>2684.14</ele>
        <time>2013-03-10T11:22:26Z</time>
      </trkpt>
      <trkpt lat="45.17424" lon="6.16713">
        <ele>2684.14</ele>
        <time>2013-03-10T11:22:46Z</time>
      </trkpt>
      <trkpt lat="45.17425" lon="6.16713">
        <ele>2684.14</ele>
        <time>2013-03-10T11:23:03Z</time>
      </trkpt>
      <trkpt lat="45.17425" lon="6.16714">
        <ele>2684.62</ele>
        <time>2013-03-10T11:23:19Z</time>
      </trkpt>
      <trkpt lat="45.17426" lon="6.16714">
        <ele>2684.62</ele>
        <time>2013-03-10T11:23:40Z</time>
      </trkpt>
      <trkpt lat="45.17426" lon="6.16714">
        <ele>2684.62</ele>
        <time>2013-03-10T11:24:05Z</time>
      </trkpt>
      <trkpt lat="45.17425" lon="6.16713">
        <ele>2684.62</ele>
        <time>2013-03-10T11:24:30Z</time>
      </trkpt>
      <trkpt lat="45.17425" lon="6.16714">
        <ele>2684.62</ele>
        <time>2013-03-10T11:24:53Z</time>
      </trkpt>
      <trkpt lat="45.17425" lon="6.16714">
        <ele>2684.62</ele>
        <time>2013-03-10T11:25:17Z</time>
      </trkpt>
      <trkpt lat="45.17426" lon="6.16713">
        <ele>2684.62</ele>
        <time>2013-03-10T11:25:37Z</time>
      </trkpt>
      <trkpt lat="45.17426" lon="6.16713">
        <ele>2684.62</ele>
        <time>2013-03-10T11:25:59Z</time>
      </trkpt>
      <trkpt lat="45.17426" lon="6.16713">
        <ele>2684.62</ele>
        <time>2013-03-10T11:26:23Z</time>
      </trkpt>
      <trkpt lat="45.17426" lon="6.16715">
        <ele>2684.62</ele>
        <time>2013-03-10T11:26:41Z</time>
      </trkpt>
      <trkpt lat="45.17426" lon="6.16715">
        <ele>2685.1</ele>
        <time>2013-03-10T11:26:59Z</time>
      </trkpt>
      <trkpt lat="45.17427" lon="6.16716">
        <ele>2685.1</ele>
        <time>2013-03-10T11:27:12Z</time>
      </trkpt>
      <trkpt lat="45.1744" lon="6.16724">
        <ele>2685.1</ele>
        <time>2013-03-10T11:27:18Z</time>
      </trkpt>
      <trkpt lat="45.17452" lon="6.16749">
        <ele>2681.73</ele>
        <time>2013-03-10T11:27:22Z</time>
      </trkpt>
      <trkpt lat="45.17458" lon="6.16766">
        <ele>2678.85</ele>
        <time>2013-03-10T11:27:24Z</time>
      </trkpt>
      <trkpt lat="45.17462" lon="6.16779">
        <ele>2675.01</ele>
        <time>2013-03-10T11:27:26Z</time>
      </trkpt>
      <trkpt lat="45.17466" lon="6.16792">
        <ele>2671.64</ele>
        <time>2013-03-10T11:27:29Z</time>
      </trkpt>
      <trkpt lat="45.1747" lon="6.16798">
        <ele>2675.49</ele>
        <time>2013-03-10T11:27:34Z</time>
      </trkpt>
      <trkpt lat="45.17471" lon="6.16802">
        <ele>2679.33</ele>
        <time>2013-03-10T11:27:37Z</time>
      </trkpt>
      <trkpt lat="45.17472" lon="6.16807">
        <ele>2681.73</ele>
        <time>2013-03-10T11:27:41Z</time>
      </trkpt>
      <trkpt lat="45.17473" lon="6.16809">
        <ele>2680.77</ele>
        <time>2013-03-10T11:27:43Z</time>
      </trkpt>
      <trkpt lat="45.17477" lon="6.16817">
        <ele>2677.89</ele>
        <time>2013-03-10T11:27:48Z</time>
      </trkpt>
      <trkpt lat="45.1748" lon="6.16822">
        <ele>2676.93</ele>
        <time>2013-03-10T11:27:51Z</time>
      </trkpt>
      <trkpt lat="45.17494" lon="6.16842">
        <ele>2675.97</ele>
        <time>2013-03-10T11:28:06Z</time>
      </trkpt>
      <trkpt lat="45.17518" lon="6.16866">
        <ele>2675.97</ele>
        <time>2013-03-10T11:28:20Z</time>
      </trkpt>
      <trkpt lat="45.17545" lon="6.16893">
        <ele>2672.6</ele>
        <time>2013-03-10T11:28:32Z</time>
      </trkpt>
      <trkpt lat="45.17556" lon="6.16903">
        <ele>2669.24</ele>
        <time>2013-03-10T11:28:36Z</time>
      </trkpt>
      <trkpt lat="45.17568" lon="6.16914">
        <ele>2665.87</ele>
        <time>2013-03-10T11:28:40Z</time>
      </trkpt>
      <trkpt lat="45.17595" lon="6.16936">
        <ele>2663.95</ele>
        <time>2013-03-10T11:28:52Z</time>
      </trkpt>
      <trkpt lat="45.17612" lon="6.16949">
        <ele>2663.95</ele>
        <time>2013-03-10T11:29:04Z</time>
      </trkpt>
      <trkpt lat="45.1764" lon="6.16968">
        <ele>2660.59</ele>
        <time>2013-03-10T11:29:15Z</time>
      </trkpt>
      <trkpt lat="45.17647" lon="6.16973">
        <ele>2657.7</ele>
        <time>2013-03-10T11:29:18Z</time>
      </trkpt>
      <trkpt lat="45.17663" lon="6.16985">
        <ele>2655.78</ele>
        <time>2013-03-10T11:29:32Z</time>
      </trkpt>
      <trkpt lat="45.17678" lon="6.16994">
        <ele>2655.78</ele>
        <time>2013-03-10T11:29:45Z</time>
      </trkpt>
      <trkpt lat="45.17693" lon="6.17007">
        <ele>2655.3</ele>
        <time>2013-03-10T11:29:58Z</time>
      </trkpt>
      <trkpt lat="45.17706" lon="6.17018">
        <ele>2654.34</ele>
        <time>2013-03-10T11:30:14Z</time>
      </trkpt>
      <trkpt lat="45.17714" lon="6.17025">
        <ele>2653.86</ele>
        <time>2013-03-10T11:30:27Z</time>
      </trkpt>
      <trkpt lat="45.1773" lon="6.17039">
        <ele>2652.42</ele>
        <time>2013-03-10T11:30:42Z</time>
      </trkpt>
      <trkpt lat="45.17747" lon="6.17055">
        <ele>2651.45</ele>
        <time>2013-03-10T11:30:57Z</time>
      </trkpt>
      <trkpt lat="45.17761" lon="6.17066">
        <ele>2650.97</ele>
        <time>2013-03-10T11:31:11Z</time>
      </trkpt>
      <trkpt lat="45.17776" lon="6.17082">
        <ele>2649.53</ele>
        <time>2013-03-10T11:31:27Z</time>
      </trkpt>
      <trkpt lat="45.17787" lon="6.17093">
        <ele>2648.09</ele>
        <time>2013-03-10T11:31:40Z</time>
      </trkpt>
      <trkpt lat="45.17803" lon="6.17107">
        <ele>2647.61</ele>
        <time>2013-03-10T11:31:56Z</time>
      </trkpt>
      <trkpt lat="45.17822" lon="6.17116">
        <ele>2646.65</ele>
        <time>2013-03-10T11:32:13Z</time>
      </trkpt>
      <trkpt lat="45.1783" lon="6.17119">
        <ele>2646.65</ele>
        <time>2013-03-10T11:32:28Z</time>
      </trkpt>
      <trkpt lat="45.17834" lon="6.17122">
        <ele>2646.65</ele>
        <time>2013-03-10T11:32:45Z</time>
      </trkpt>
      <trkpt lat="45.17849" lon="6.17147">
        <ele>2646.17</ele>
        <time>2013-03-10T11:32:59Z</time>
      </trkpt>
      <trkpt lat="45.17861" lon="6.17167">
        <ele>2645.21</ele>
        <time>2013-03-10T11:33:12Z</time>
      </trkpt>
      <trkpt lat="45.17873" lon="6.17183">
        <ele>2644.24</ele>
        <time>2013-03-10T11:33:27Z</time>
      </trkpt>
      <trkpt lat="45.17885" lon="6.17201">
        <ele>2643.28</ele>
        <time>2013-03-10T11:33:42Z</time>
      </trkpt>
      <trkpt lat="45.17886" lon="6.17203">
        <ele>2643.28</ele>
        <time>2013-03-10T11:33:44Z</time>
      </trkpt>
      <trkpt lat="45.17892" lon="6.17219">
        <ele>2643.28</ele>
        <time>2013-03-10T11:33:59Z</time>
      </trkpt>
      <trkpt lat="45.17907" lon="6.17237">
        <ele>2643.28</ele>
        <time>2013-03-10T11:34:16Z</time>
      </trkpt>
      <trkpt lat="45.1791" lon="6.17238">
        <ele>2643.28</ele>
        <time>2013-03-10T11:34:28Z</time>
      </trkpt>
      <trkpt lat="45.17908" lon="6.17234">
        <ele>2644.72</ele>
        <time>2013-03-10T11:34:47Z</time>
      </trkpt>
      <trkpt lat="45.17913" lon="6.17239">
        <ele>2644.72</ele>
        <time>2013-03-10T11:35:10Z</time>
      </trkpt>
      <trkpt lat="45.17931" lon="6.17256">
        <ele>2644.72</ele>
        <time>2013-03-10T11:35:23Z</time>
      </trkpt>
      <trkpt lat="45.17949" lon="6.17272">
        <ele>2643.28</ele>
        <time>2013-03-10T11:35:33Z</time>
      </trkpt>
      <trkpt lat="45.17983" lon="6.17296">
        <ele>2640.4</ele>
        <time>2013-03-10T11:35:47Z</time>
      </trkpt>
      <trkpt lat="45.17999" lon="6.17309">
        <ele>2637.51</ele>
        <time>2013-03-10T11:35:52Z</time>
      </trkpt>
      <trkpt lat="45.18011" lon="6.17319">
        <ele>2633.67</ele>
        <time>2013-03-10T11:35:55Z</time>
      </trkpt>
      <trkpt lat="45.18029" lon="6.17332">
        <ele>2629.34</ele>
        <time>2013-03-10T11:35:59Z</time>
      </trkpt>
      <trkpt lat="45.1805" lon="6.17347">
        <ele>2625.5</ele>
        <time>2013-03-10T11:36:03Z</time>
      </trkpt>
      <trkpt lat="45.1807" lon="6.17363">
        <ele>2623.58</ele>
        <time>2013-03-10T11:36:11Z</time>
      </trkpt>
      <trkpt lat="45.18073" lon="6.17365">
        <ele>2623.09</ele>
        <time>2013-03-10T11:36:15Z</time>
      </trkpt>
      <trkpt lat="45.18089" lon="6.1738">
        <ele>2624.54</ele>
        <time>2013-03-10T11:36:30Z</time>
      </trkpt>
      <trkpt lat="45.18104" lon="6.1739">
        <ele>2624.54</ele>
        <time>2013-03-10T11:36:42Z</time>
      </trkpt>
      <trkpt lat="45.18114" lon="6.17399">
        <ele>2623.09</ele>
        <time>2013-03-10T11:36:51Z</time>
      </trkpt>
      <trkpt lat="45.18131" lon="6.17411">
        <ele>2621.65</ele>
        <time>2013-03-10T11:37:06Z</time>
      </trkpt>
      <trkpt lat="45.18135" lon="6.17415">
        <ele>2621.17</ele>
        <time>2013-03-10T11:37:11Z</time>
      </trkpt>
      <trkpt lat="45.18137" lon="6.17421">
        <ele>2620.69</ele>
        <time>2013-03-10T11:37:16Z</time>
      </trkpt>
      <trkpt lat="45.18156" lon="6.17437">
        <ele>2619.73</ele>
        <time>2013-03-10T11:37:31Z</time>
      </trkpt>
      <trkpt lat="45.18159" lon="6.17439">
        <ele>2619.73</ele>
        <time>2013-03-10T11:37:33Z</time>
      </trkpt>
      <trkpt lat="45.18164" lon="6.17446">
        <ele>2618.77</ele>
        <time>2013-03-10T11:37:39Z</time>
      </trkpt>
      <trkpt lat="45.18176" lon="6.17461">
        <ele>2617.81</ele>
        <time>2013-03-10T11:37:54Z</time>
      </trkpt>
      <trkpt lat="45.18183" lon="6.17472">
        <ele>2617.81</ele>
        <time>2013-03-10T11:38:07Z</time>
      </trkpt>
      <trkpt lat="45.18186" lon="6.17475">
        <ele>2617.81</ele>
        <time>2013-03-10T11:38:12Z</time>
      </trkpt>
      <trkpt lat="45.18189" lon="6.1748">
        <ele>2617.81</ele>
        <time>2013-03-10T11:38:25Z</time>
      </trkpt>
      <trkpt lat="45.18197" lon="6.1749">
        <ele>2618.77</ele>
        <time>2013-03-10T11:38:38Z</time>
      </trkpt>
      <trkpt lat="45.18197" lon="6.17489">
        <ele>2619.25</ele>
        <time>2013-03-10T11:38:58Z</time>
      </trkpt>
      <trkpt lat="45.18197" lon="6.17489">
        <ele>2619.25</ele>
        <time>2013-03-10T11:39:15Z</time>
      </trkpt>
      <trkpt lat="45.18197" lon="6.17489">
        <ele>2619.25</ele>
        <time>2013-03-10T11:39:34Z</time>
      </trkpt>
      <trkpt lat="45.18198" lon="6.17487">
        <ele>2619.25</ele>
        <time>2013-03-10T11:39:59Z</time>
      </trkpt>
      <trkpt lat="45.18197" lon="6.17487">
        <ele>2619.25</ele>
        <time>2013-03-10T11:40:30Z</time>
      </trkpt>
      <trkpt lat="45.18197" lon="6.17487">
        <ele>2619.25</ele>
        <time>2013-03-10T11:40:49Z</time>
      </trkpt>
      <trkpt lat="45.18197" lon="6.17486">
        <ele>2619.25</ele>
        <time>2013-03-10T11:41:07Z</time>
      </trkpt>
      <trkpt lat="45.18197" lon="6.17486">
        <ele>2619.25</ele>
        <time>2013-03-10T11:41:23Z</time>
      </trkpt>
      <trkpt lat="45.18197" lon="6.17486">
        <ele>2619.25</ele>
        <time>2013-03-10T11:41:38Z</time>
      </trkpt>
      <trkpt lat="45.18197" lon="6.17486">
        <ele>2619.25</ele>
        <time>2013-03-10T11:42:01Z</time>
      </trkpt>
      <trkpt lat="45.18198" lon="6.17486">
        <ele>2619.25</ele>
        <time>2013-03-10T11:42:15Z</time>
      </trkpt>
      <trkpt lat="45.18198" lon="6.17486">
        <ele>2619.25</ele>
        <time>2013-03-10T11:42:32Z</time>
      </trkpt>
      <trkpt lat="45.18197" lon="6.17486">
        <ele>2619.25</ele>
        <time>2013-03-10T11:42:48Z</time>
      </trkpt>
      <trkpt lat="45.18197" lon="6.17485">
        <ele>2619.25</ele>
        <time>2013-03-10T11:43:10Z</time>
      </trkpt>
      <trkpt lat="45.18197" lon="6.17486">
        <ele>2619.25</ele>
        <time>2013-03-10T11:43:31Z</time>
      </trkpt>
      <trkpt lat="45.18197" lon="6.17486">
        <ele>2619.25</ele>
        <time>2013-03-10T11:43:51Z</time>
      </trkpt>
      <trkpt lat="45.18197" lon="6.17487">
        <ele>2619.25</ele>
        <time>2013-03-10T11:44:23Z</time>
      </trkpt>
      <trkpt lat="45.18198" lon="6.17486">
        <ele>2619.73</ele>
        <time>2013-03-10T11:44:44Z</time>
      </trkpt>
      <trkpt lat="45.18198" lon="6.17487">
        <ele>2619.73</ele>
        <time>2013-03-10T11:45:04Z</time>
      </trkpt>
      <trkpt lat="45.18197" lon="6.17487">
        <ele>2619.73</ele>
        <time>2013-03-10T11:45:26Z</time>
      </trkpt>
      <trkpt lat="45.18197" lon="6.17487">
        <ele>2619.73</ele>
        <time>2013-03-10T11:45:47Z</time>
      </trkpt>
      <trkpt lat="45.18197" lon="6.17487">
        <ele>2619.73</ele>
        <time>2013-03-10T11:46:02Z</time>
      </trkpt>
      <trkpt lat="45.18197" lon="6.17486">
        <ele>2619.73</ele>
        <time>2013-03-10T11:46:16Z</time>
      </trkpt>
      <trkpt lat="45.18196" lon="6.17487">
        <ele>2619.73</ele>
        <time>2013-03-10T11:46:48Z</time>
      </trkpt>
      <trkpt lat="45.18196" lon="6.17487">
        <ele>2619.73</ele>
        <time>2013-03-10T11:47:18Z</time>
      </trkpt>
      <trkpt lat="45.18196" lon="6.17487">
        <ele>2619.73</ele>
        <time>2013-03-10T11:47:49Z</time>
      </trkpt>
      <trkpt lat="45.18196" lon="6.17487">
        <ele>2619.73</ele>
        <time>2013-03-10T11:48:30Z</time>
      </trkpt>
      <trkpt lat="45.18196" lon="6.17487">
        <ele>2620.21</ele>
        <time>2013-03-10T11:49:11Z</time>
      </trkpt>
      <trkpt lat="45.18196" lon="6.17487">
        <ele>2620.21</ele>
        <time>2013-03-10T11:49:37Z</time>
      </trkpt>
      <trkpt lat="45.18196" lon="6.17487">
        <ele>2620.21</ele>
        <time>2013-03-10T11:50:02Z</time>
      </trkpt>
      <trkpt lat="45.18196" lon="6.17487">
        <ele>2620.21</ele>
        <time>2013-03-10T11:50:35Z</time>
      </trkpt>
      <trkpt lat="45.18197" lon="6.17485">
        <ele>2620.21</ele>
        <time>2013-03-10T11:50:59Z</time>
      </trkpt>
      <trkpt lat="45.18197" lon="6.17486">
        <ele>2620.21</ele>
        <time>2013-03-10T11:51:25Z</time>
      </trkpt>
      <trkpt lat="45.18197" lon="6.17485">
        <ele>2620.21</ele>
        <time>2013-03-10T11:51:52Z</time>
      </trkpt>
      <trkpt lat="45.18196" lon="6.17485">
        <ele>2620.21</ele>
        <time>2013-03-10T11:52:15Z</time>
      </trkpt>
      <trkpt lat="45.18196" lon="6.17486">
        <ele>2620.21</ele>
        <time>2013-03-10T11:52:43Z</time>
      </trkpt>
      <trkpt lat="45.18197" lon="6.17485">
        <ele>2620.21</ele>
        <time>2013-03-10T11:53:10Z</time>
      </trkpt>
      <trkpt lat="45.18197" lon="6.17486">
        <ele>2620.21</ele>
        <time>2013-03-10T11:53:30Z</time>
      </trkpt>
      <trkpt lat="45.18197" lon="6.17486">
        <ele>2620.21</ele>
        <time>2013-03-10T11:54:02Z</time>
      </trkpt>
      <trkpt lat="45.18197" lon="6.17486">
        <ele>2620.21</ele>
        <time>2013-03-10T11:54:32Z</time>
      </trkpt>
      <trkpt lat="45.18197" lon="6.17486">
        <ele>2620.21</ele>
        <time>2013-03-10T11:54:56Z</time>
      </trkpt>
      <trkpt lat="45.18197" lon="6.17486">
        <ele>2620.21</ele>
        <time>2013-03-10T11:55:21Z</time>
      </trkpt>
      <trkpt lat="45.18197" lon="6.17486">
        <ele>2620.21</ele>
        <time>2013-03-10T11:55:38Z</time>
      </trkpt>
      <trkpt lat="45.18196" lon="6.17485">
        <ele>2620.21</ele>
        <time>2013-03-10T11:55:56Z</time>
      </trkpt>
      <trkpt lat="45.18196" lon="6.17485">
        <ele>2620.21</ele>
        <time>2013-03-10T11:56:21Z</time>
      </trkpt>
      <trkpt lat="45.18197" lon="6.17485">
        <ele>2620.21</ele>
        <time>2013-03-10T11:56:49Z</time>
      </trkpt>
      <trkpt lat="45.18197" lon="6.17486">
        <ele>2620.21</ele>
        <time>2013-03-10T11:57:04Z</time>
      </trkpt>
      <trkpt lat="45.18198" lon="6.17487">
        <ele>2620.21</ele>
        <time>2013-03-10T11:57:23Z</time>
      </trkpt>
      <trkpt lat="45.18197" lon="6.17486">
        <ele>2620.21</ele>
        <time>2013-03-10T11:57:49Z</time>
      </trkpt>
      <trkpt lat="45.18197" lon="6.17487">
        <ele>2620.21</ele>
        <time>2013-03-10T11:58:16Z</time>
      </trkpt>
      <trkpt lat="45.18197" lon="6.17487">
        <ele>2620.21</ele>
        <time>2013-03-10T11:58:43Z</time>
      </trkpt>
      <trkpt lat="45.18197" lon="6.17487">
        <ele>2619.73</ele>
        <time>2013-03-10T11:59:10Z</time>
      </trkpt>
      <trkpt lat="45.18197" lon="6.17487">
        <ele>2619.73</ele>
        <time>2013-03-10T11:59:31Z</time>
      </trkpt>
      <trkpt lat="45.18197" lon="6.17487">
        <ele>2619.73</ele>
        <time>2013-03-10T12:00:00Z</time>
      </trkpt>
      <trkpt lat="45.18197" lon="6.17486">
        <ele>2619.73</ele>
        <time>2013-03-10T12:00:15Z</time>
      </trkpt>
      <trkpt lat="45.18197" lon="6.17485">
        <ele>2619.73</ele>
        <time>2013-03-10T12:00:49Z</time>
      </trkpt>
      <trkpt lat="45.18198" lon="6.17486">
        <ele>2619.73</ele>
        <time>2013-03-10T12:01:12Z</time>
      </trkpt>
      <trkpt lat="45.18198" lon="6.17487">
        <ele>2619.73</ele>
        <time>2013-03-10T12:01:46Z</time>
      </trkpt>
      <trkpt lat="45.18198" lon="6.17487">
        <ele>2619.73</ele>
        <time>2013-03-10T12:02:12Z</time>
      </trkpt>
      <trkpt lat="45.18198" lon="6.17486">
        <ele>2619.73</ele>
        <time>2013-03-10T12:02:40Z</time>
      </trkpt>
      <trkpt lat="45.18198" lon="6.17486">
        <ele>2619.73</ele>
        <time>2013-03-10T12:03:12Z</time>
      </trkpt>
      <trkpt lat="45.18198" lon="6.17485">
        <ele>2619.73</ele>
        <time>2013-03-10T12:03:48Z</time>
      </trkpt>
      <trkpt lat="45.18197" lon="6.17485">
        <ele>2619.73</ele>
        <time>2013-03-10T12:04:21Z</time>
      </trkpt>
      <trkpt lat="45.18197" lon="6.17485">
        <ele>2619.73</ele>
        <time>2013-03-10T12:04:52Z</time>
      </trkpt>
      <trkpt lat="45.18197" lon="6.17486">
        <ele>2619.73</ele>
        <time>2013-03-10T12:05:26Z</time>
      </trkpt>
      <trkpt lat="45.18198" lon="6.17485">
        <ele>2619.73</ele>
        <time>2013-03-10T12:06:06Z</time>
      </trkpt>
      <trkpt lat="45.18197" lon="6.17486">
        <ele>2619.73</ele>
        <time>2013-03-10T12:06:39Z</time>
      </trkpt>
      <trkpt lat="45.18197" lon="6.17486">
        <ele>2619.73</ele>
        <time>2013-03-10T12:06:57Z</time>
      </trkpt>
      <trkpt lat="45.18197" lon="6.17486">
        <ele>2619.73</ele>
        <time>2013-03-10T12:07:29Z</time>
      </trkpt>
      <trkpt lat="45.18197" lon="6.17486">
        <ele>2619.73</ele>
        <time>2013-03-10T12:08:05Z</time>
      </trkpt>
      <trkpt lat="45.18196" lon="6.17487">
        <ele>2619.73</ele>
        <time>2013-03-10T12:08:45Z</time>
      </trkpt>
      <trkpt lat="45.18196" lon="6.17486">
        <ele>2619.73</ele>
        <time>2013-03-10T12:09:15Z</time>
      </trkpt>
      <trkpt lat="45.18196" lon="6.17486">
        <ele>2619.73</ele>
        <time>2013-03-10T12:09:47Z</time>
      </trkpt>
      <trkpt lat="45.18196" lon="6.17486">
        <ele>2619.73</ele>
        <time>2013-03-10T12:10:15Z</time>
      </trkpt>
      <trkpt lat="45.18196" lon="6.17487">
        <ele>2619.73</ele>
        <time>2013-03-10T12:10:43Z</time>
      </trkpt>
      <trkpt lat="45.18196" lon="6.17487">
        <ele>2619.73</ele>
        <time>2013-03-10T12:11:13Z</time>
      </trkpt>
      <trkpt lat="45.18196" lon="6.17486">
        <ele>2619.73</ele>
        <time>2013-03-10T12:11:40Z</time>
      </trkpt>
      <trkpt lat="45.18196" lon="6.17486">
        <ele>2619.73</ele>
        <time>2013-03-10T12:12:14Z</time>
      </trkpt>
      <trkpt lat="45.18196" lon="6.17486">
        <ele>2619.73</ele>
        <time>2013-03-10T12:12:49Z</time>
      </trkpt>
      <trkpt lat="45.18196" lon="6.17487">
        <ele>2619.73</ele>
        <time>2013-03-10T12:13:14Z</time>
      </trkpt>
      <trkpt lat="45.18196" lon="6.17486">
        <ele>2619.73</ele>
        <time>2013-03-10T12:13:45Z</time>
      </trkpt>
      <trkpt lat="45.18196" lon="6.17487">
        <ele>2619.73</ele>
        <time>2013-03-10T12:14:04Z</time>
      </trkpt>
      <trkpt lat="45.18196" lon="6.17486">
        <ele>2619.73</ele>
        <time>2013-03-10T12:14:15Z</time>
      </trkpt>
      <trkpt lat="45.18196" lon="6.17486">
        <ele>2619.73</ele>
        <time>2013-03-10T12:14:40Z</time>
      </trkpt>
      <trkpt lat="45.18196" lon="6.17486">
        <ele>2619.73</ele>
        <time>2013-03-10T12:14:53Z</time>
      </trkpt>
      <trkpt lat="45.18196" lon="6.17486">
        <ele>2619.73</ele>
        <time>2013-03-10T12:15:09Z</time>
      </trkpt>
      <trkpt lat="45.18196" lon="6.17486">
        <ele>2619.73</ele>
        <time>2013-03-10T12:15:31Z</time>
      </trkpt>
      <trkpt lat="45.18197" lon="6.17488">
        <ele>2619.73</ele>
        <time>2013-03-10T12:16:01Z</time>
      </trkpt>
      <trkpt lat="45.18196" lon="6.17486">
        <ele>2619.73</ele>
        <time>2013-03-10T12:16:20Z</time>
      </trkpt>
      <trkpt lat="45.18197" lon="6.17487">
        <ele>2619.73</ele>
        <time>2013-03-10T12:16:31Z</time>
      </trkpt>
      <trkpt lat="45.18197" lon="6.17487">
        <ele>2619.73</ele>
        <time>2013-03-10T12:16:55Z</time>
      </trkpt>
      <trkpt lat="45.18196" lon="6.17487">
        <ele>2619.73</ele>
        <time>2013-03-10T12:17:20Z</time>
      </trkpt>
      <trkpt lat="45.18196" lon="6.17487">
        <ele>2619.73</ele>
        <time>2013-03-10T12:17:47Z</time>
      </trkpt>
      <trkpt lat="45.18196" lon="6.17487">
        <ele>2619.73</ele>
        <time>2013-03-10T12:18:08Z</time>
      </trkpt>
      <trkpt lat="45.18196" lon="6.17488">
        <ele>2619.73</ele>
        <time>2013-03-10T12:18:24Z</time>
      </trkpt>
      <trkpt lat="45.18195" lon="6.17487">
        <ele>2620.21</ele>
        <time>2013-03-10T12:18:40Z</time>
      </trkpt>
      <trkpt lat="45.18197" lon="6.17487">
        <ele>2620.21</ele>
        <time>2013-03-10T12:19:01Z</time>
      </trkpt>
      <trkpt lat="45.18197" lon="6.17487">
        <ele>2620.21</ele>
        <time>2013-03-10T12:19:23Z</time>
      </trkpt>
      <trkpt lat="45.18197" lon="6.17486">
        <ele>2620.21</ele>
        <time>2013-03-10T12:19:37Z</time>
      </trkpt>
      <trkpt lat="45.18196" lon="6.17486">
        <ele>2620.21</ele>
        <time>2013-03-10T12:19:55Z</time>
      </trkpt>
      <trkpt lat="45.18196" lon="6.17486">
        <ele>2620.69</ele>
        <time>2013-03-10T12:20:15Z</time>
      </trkpt>
      <trkpt lat="45.18196" lon="6.17488">
        <ele>2620.69</ele>
        <time>2013-03-10T12:20:30Z</time>
      </trkpt>
      <trkpt lat="45.18196" lon="6.17488">
        <ele>2620.69</ele>
        <time>2013-03-10T12:20:46Z</time>
      </trkpt>
      <trkpt lat="45.18196" lon="6.17488">
        <ele>2620.69</ele>
        <time>2013-03-10T12:21:11Z</time>
      </trkpt>
      <trkpt lat="45.18196" lon="6.17487">
        <ele>2620.69</ele>
        <time>2013-03-10T12:21:39Z</time>
      </trkpt>
      <trkpt lat="45.18196" lon="6.17487">
        <ele>2621.17</ele>
        <time>2013-03-10T12:22:04Z</time>
      </trkpt>
      <trkpt lat="45.18196" lon="6.17487">
        <ele>2621.17</ele>
        <time>2013-03-10T12:22:36Z</time>
      </trkpt>
      <trkpt lat="45.18195" lon="6.17488">
        <ele>2621.17</ele>
        <time>2013-03-10T12:23:02Z</time>
      </trkpt>
      <trkpt lat="45.18195" lon="6.17487">
        <ele>2621.65</ele>
        <time>2013-03-10T12:23:13Z</time>
      </trkpt>
      <trkpt lat="45.18195" lon="6.17487">
        <ele>2621.65</ele>
        <time>2013-03-10T12:23:30Z</time>
      </trkpt>
      <trkpt lat="45.18197" lon="6.17488">
        <ele>2621.65</ele>
        <time>2013-03-10T12:23:42Z</time>
      </trkpt>
      <trkpt lat="45.18196" lon="6.17488">
        <ele>2621.65</ele>
        <time>2013-03-10T12:24:04Z</time>
      </trkpt>
      <trkpt lat="45.18196" lon="6.17489">
        <ele>2621.65</ele>
        <time>2013-03-10T12:24:25Z</time>
      </trkpt>
      <trkpt lat="45.18196" lon="6.17489">
        <ele>2621.65</ele>
        <time>2013-03-10T12:24:45Z</time>
      </trkpt>
      <trkpt lat="45.18196" lon="6.17489">
        <ele>2621.65</ele>
        <time>2013-03-10T12:25:00Z</time>
      </trkpt>
      <trkpt lat="45.18195" lon="6.17488">
        <ele>2621.65</ele>
        <time>2013-03-10T12:25:14Z</time>
      </trkpt>
      <trkpt lat="45.18194" lon="6.17489">
        <ele>2621.65</ele>
        <time>2013-03-10T12:25:39Z</time>
      </trkpt>
      <trkpt lat="45.18193" lon="6.17489">
        <ele>2621.65</ele>
        <time>2013-03-10T12:25:51Z</time>
      </trkpt>
      <trkpt lat="45.18194" lon="6.17488">
        <ele>2621.65</ele>
        <time>2013-03-10T12:26:14Z</time>
      </trkpt>
      <trkpt lat="45.18196" lon="6.17486">
        <ele>2621.65</ele>
        <time>2013-03-10T12:26:33Z</time>
      </trkpt>
      <trkpt lat="45.18196" lon="6.17486">
        <ele>2621.65</ele>
        <time>2013-03-10T12:26:51Z</time>
      </trkpt>
      <trkpt lat="45.18196" lon="6.17487">
        <ele>2621.65</ele>
        <time>2013-03-10T12:27:12Z</time>
      </trkpt>
      <trkpt lat="45.18196" lon="6.17487">
        <ele>2621.65</ele>
        <time>2013-03-10T12:27:34Z</time>
      </trkpt>
      <trkpt lat="45.18195" lon="6.17488">
        <ele>2622.13</ele>
        <time>2013-03-10T12:28:00Z</time>
      </trkpt>
      <trkpt lat="45.18195" lon="6.17488">
        <ele>2622.13</ele>
        <time>2013-03-10T12:28:18Z</time>
      </trkpt>
      <trkpt lat="45.18194" lon="6.17489">
        <ele>2622.61</ele>
        <time>2013-03-10T12:28:35Z</time>
      </trkpt>
      <trkpt lat="45.18194" lon="6.17488">
        <ele>2622.61</ele>
        <time>2013-03-10T12:28:54Z</time>
      </trkpt>
      <trkpt lat="45.18194" lon="6.17489">
        <ele>2622.61</ele>
        <time>2013-03-10T12:29:17Z</time>
      </trkpt>
      <trkpt lat="45.18194" lon="6.1749">
        <ele>2622.61</ele>
        <time>2013-03-10T12:29:40Z</time>
      </trkpt>
      <trkpt lat="45.18194" lon="6.17491">
        <ele>2622.61</ele>
        <time>2013-03-10T12:29:54Z</time>
      </trkpt>
      <trkpt lat="45.18194" lon="6.1749">
        <ele>2622.61</ele>
        <time>2013-03-10T12:30:10Z</time>
      </trkpt>
      <trkpt lat="45.18194" lon="6.17489">
        <ele>2622.61</ele>
        <time>2013-03-10T12:30:28Z</time>
      </trkpt>
      <trkpt lat="45.18196" lon="6.17488">
        <ele>2622.61</ele>
        <time>2013-03-10T12:30:46Z</time>
      </trkpt>
      <trkpt lat="45.18196" lon="6.17487">
        <ele>2622.61</ele>
        <time>2013-03-10T12:31:01Z</time>
      </trkpt>
      <trkpt lat="45.18197" lon="6.17488">
        <ele>2622.61</ele>
        <time>2013-03-10T12:31:15Z</time>
      </trkpt>
      <trkpt lat="45.18195" lon="6.17485">
        <ele>2622.61</ele>
        <time>2013-03-10T12:31:28Z</time>
      </trkpt>
      <trkpt lat="45.18195" lon="6.17486">
        <ele>2622.61</ele>
        <time>2013-03-10T12:31:46Z</time>
      </trkpt>
      <trkpt lat="45.18195" lon="6.17485">
        <ele>2622.61</ele>
        <time>2013-03-10T12:32:09Z</time>
      </trkpt>
      <trkpt lat="45.18194" lon="6.17485">
        <ele>2622.61</ele>
        <time>2013-03-10T12:32:25Z</time>
      </trkpt>
      <trkpt lat="45.18195" lon="6.17484">
        <ele>2622.61</ele>
        <time>2013-03-10T12:32:47Z</time>
      </trkpt>
      <trkpt lat="45.18194" lon="6.17483">
        <ele>2622.61</ele>
        <time>2013-03-10T12:33:09Z</time>
      </trkpt>
      <trkpt lat="45.18195" lon="6.17483">
        <ele>2622.61</ele>
        <time>2013-03-10T12:33:29Z</time>
      </trkpt>
      <trkpt lat="45.18195" lon="6.17483">
        <ele>2622.61</ele>
        <time>2013-03-10T12:33:45Z</time>
      </trkpt>
      <trkpt lat="45.18195" lon="6.17486">
        <ele>2622.61</ele>
        <time>2013-03-10T12:34:02Z</time>
      </trkpt>
      <trkpt lat="45.182" lon="6.17495">
        <ele>2623.09</ele>
        <time>2013-03-10T12:34:19Z</time>
      </trkpt>
      <trkpt lat="45.18201" lon="6.17495">
        <ele>2623.09</ele>
        <time>2013-03-10T12:34:40Z</time>
      </trkpt>
      <trkpt lat="45.182" lon="6.17497">
        <ele>2623.09</ele>
        <time>2013-03-10T12:35:05Z</time>
      </trkpt>
      <trkpt lat="45.18201" lon="6.17498">
        <ele>2623.09</ele>
        <time>2013-03-10T12:35:25Z</time>
      </trkpt>
      <trkpt lat="45.18202" lon="6.17499">
        <ele>2623.09</ele>
        <time>2013-03-10T12:35:27Z</time>
      </trkpt>
      <trkpt lat="45.18206" lon="6.17503">
        <ele>2623.09</ele>
        <time>2013-03-10T12:35:32Z</time>
      </trkpt>
      <trkpt lat="45.18214" lon="6.17513">
        <ele>2622.13</ele>
        <time>2013-03-10T12:35:39Z</time>
      </trkpt>
      <trkpt lat="45.18237" lon="6.17528">
        <ele>2617.81</ele>
        <time>2013-03-10T12:35:50Z</time>
      </trkpt>
      <trkpt lat="45.18245" lon="6.17533">
        <ele>2613.96</ele>
        <time>2013-03-10T12:35:54Z</time>
      </trkpt>
      <trkpt lat="45.18253" lon="6.1754">
        <ele>2611.08</ele>
        <time>2013-03-10T12:35:57Z</time>
      </trkpt>
      <trkpt lat="45.18256" lon="6.17552">
        <ele>2608.67</ele>
        <time>2013-03-10T12:36:06Z</time>
      </trkpt>
      <trkpt lat="45.18257" lon="6.17551">
        <ele>2610.12</ele>
        <time>2013-03-10T12:36:22Z</time>
      </trkpt>
      <trkpt lat="45.18257" lon="6.17552">
        <ele>2610.12</ele>
        <time>2013-03-10T12:36:27Z</time>
      </trkpt>
      <trkpt lat="45.18273" lon="6.17566">
        <ele>2610.12</ele>
        <time>2013-03-10T12:36:34Z</time>
      </trkpt>
      <trkpt lat="45.18287" lon="6.17579">
        <ele>2604.83</ele>
        <time>2013-03-10T12:36:37Z</time>
      </trkpt>
      <trkpt lat="45.18293" lon="6.17582">
        <ele>2602.91</ele>
        <time>2013-03-10T12:36:38Z</time>
      </trkpt>
      <trkpt lat="45.18311" lon="6.17594">
        <ele>2595.22</ele>
        <time>2013-03-10T12:36:41Z</time>
      </trkpt>
      <trkpt lat="45.18322" lon="6.17602">
        <ele>2588.49</ele>
        <time>2013-03-10T12:36:43Z</time>
      </trkpt>
      <trkpt lat="45.18327" lon="6.17607">
        <ele>2585.6</ele>
        <time>2013-03-10T12:36:44Z</time>
      </trkpt>
      <trkpt lat="45.18332" lon="6.17612">
        <ele>2582.72</ele>
        <time>2013-03-10T12:36:45Z</time>
      </trkpt>
      <trkpt lat="45.18345" lon="6.17628">
        <ele>2575.03</ele>
        <time>2013-03-10T12:36:48Z</time>
      </trkpt>
      <trkpt lat="45.18354" lon="6.17639">
        <ele>2571.66</ele>
        <time>2013-03-10T12:36:50Z</time>
      </trkpt>
      <trkpt lat="45.1838" lon="6.17674">
        <ele>2567.34</ele>
        <time>2013-03-10T12:36:56Z</time>
      </trkpt>
      <trkpt lat="45.18392" lon="6.17694">
        <ele>2564.45</ele>
        <time>2013-03-10T12:36:59Z</time>
      </trkpt>
      <trkpt lat="45.18406" lon="6.17714">
        <ele>2559.65</ele>
        <time>2013-03-10T12:37:02Z</time>
      </trkpt>
      <trkpt lat="45.18416" lon="6.17725">
        <ele>2555.32</ele>
        <time>2013-03-10T12:37:04Z</time>
      </trkpt>
      <trkpt lat="45.18431" lon="6.17745">
        <ele>2549.07</ele>
        <time>2013-03-10T12:37:07Z</time>
      </trkpt>
      <trkpt lat="45.18442" lon="6.17758">
        <ele>2543.31</ele>
        <time>2013-03-10T12:37:09Z</time>
      </trkpt>
      <trkpt lat="45.1845" lon="6.17767">
        <ele>2538.98</ele>
        <time>2013-03-10T12:37:11Z</time>
      </trkpt>
      <trkpt lat="45.1846" lon="6.17778">
        <ele>2535.61</ele>
        <time>2013-03-10T12:37:14Z</time>
      </trkpt>
      <trkpt lat="45.18468" lon="6.17787">
        <ele>2536.1</ele>
        <time>2013-03-10T12:37:16Z</time>
      </trkpt>
      <trkpt lat="45.18482" lon="6.17812">
        <ele>2539.46</ele>
        <time>2013-03-10T12:37:21Z</time>
      </trkpt>
      <trkpt lat="45.18496" lon="6.17839">
        <ele>2536.58</ele>
        <time>2013-03-10T12:37:32Z</time>
      </trkpt>
      <trkpt lat="45.18498" lon="6.17842">
        <ele>2535.13</ele>
        <time>2013-03-10T12:37:33Z</time>
      </trkpt>
      <trkpt lat="45.18507" lon="6.17861">
        <ele>2530.33</ele>
        <time>2013-03-10T12:37:37Z</time>
      </trkpt>
      <trkpt lat="45.18515" lon="6.17881">
        <ele>2525.52</ele>
        <time>2013-03-10T12:37:41Z</time>
      </trkpt>
      <trkpt lat="45.18515" lon="6.17891">
        <ele>2521.19</ele>
        <time>2013-03-10T12:37:45Z</time>
      </trkpt>
      <trkpt lat="45.18515" lon="6.1789">
        <ele>2524.08</ele>
        <time>2013-03-10T12:37:55Z</time>
      </trkpt>
      <trkpt lat="45.18515" lon="6.1789">
        <ele>2525.04</ele>
        <time>2013-03-10T12:37:57Z</time>
      </trkpt>
      <trkpt lat="45.18515" lon="6.1789">
        <ele>2524.08</ele>
        <time>2013-03-10T12:38:13Z</time>
      </trkpt>
      <trkpt lat="45.18527" lon="6.17912">
        <ele>2520.23</ele>
        <time>2013-03-10T12:38:19Z</time>
      </trkpt>
      <trkpt lat="45.18531" lon="6.17924">
        <ele>2510.14</ele>
        <time>2013-03-10T12:38:21Z</time>
      </trkpt>
      <trkpt lat="45.18533" lon="6.17931">
        <ele>2503.41</ele>
        <time>2013-03-10T12:38:22Z</time>
      </trkpt>
      <trkpt lat="45.18535" lon="6.17938">
        <ele>2500.05</ele>
        <time>2013-03-10T12:38:23Z</time>
      </trkpt>
      <trkpt lat="45.18539" lon="6.17945">
        <ele>2496.68</ele>
        <time>2013-03-10T12:38:24Z</time>
      </trkpt>
      <trkpt lat="45.18549" lon="6.17957">
        <ele>2489.47</ele>
        <time>2013-03-10T12:38:26Z</time>
      </trkpt>
      <trkpt lat="45.18553" lon="6.17985">
        <ele>2480.34</ele>
        <time>2013-03-10T12:38:29Z</time>
      </trkpt>
      <trkpt lat="45.18552" lon="6.17992">
        <ele>2478.42</ele>
        <time>2013-03-10T12:38:30Z</time>
      </trkpt>
      <trkpt lat="45.18552" lon="6.17996">
        <ele>2486.59</ele>
        <time>2013-03-10T12:38:32Z</time>
      </trkpt>
      <trkpt lat="45.18552" lon="6.17997">
        <ele>2489.95</ele>
        <time>2013-03-10T12:38:33Z</time>
      </trkpt>
      <trkpt lat="45.18552" lon="6.17995">
        <ele>2487.55</ele>
        <time>2013-03-10T12:38:34Z</time>
      </trkpt>
      <trkpt lat="45.18551" lon="6.17995">
        <ele>2486.59</ele>
        <time>2013-03-10T12:38:50Z</time>
      </trkpt>
      <trkpt lat="45.18552" lon="6.17996">
        <ele>2486.59</ele>
        <time>2013-03-10T12:39:08Z</time>
      </trkpt>
      <trkpt lat="45.18553" lon="6.18007">
        <ele>2485.15</ele>
        <time>2013-03-10T12:39:23Z</time>
      </trkpt>
      <trkpt lat="45.18552" lon="6.18008">
        <ele>2484.18</ele>
        <time>2013-03-10T12:39:47Z</time>
      </trkpt>
      <trkpt lat="45.1855" lon="6.18008">
        <ele>2484.18</ele>
        <time>2013-03-10T12:40:13Z</time>
      </trkpt>
      <trkpt lat="45.1855" lon="6.18008">
        <ele>2484.18</ele>
        <time>2013-03-10T12:40:41Z</time>
      </trkpt>
      <trkpt lat="45.1855" lon="6.18008">
        <ele>2483.7</ele>
        <time>2013-03-10T12:41:09Z</time>
      </trkpt>
      <trkpt lat="45.18551" lon="6.18007">
        <ele>2483.7</ele>
        <time>2013-03-10T12:41:34Z</time>
      </trkpt>
      <trkpt lat="45.18552" lon="6.18006">
        <ele>2483.7</ele>
        <time>2013-03-10T12:41:58Z</time>
      </trkpt>
      <trkpt lat="45.18553" lon="6.18006">
        <ele>2483.7</ele>
        <time>2013-03-10T12:42:26Z</time>
      </trkpt>
      <trkpt lat="45.18553" lon="6.18007">
        <ele>2483.7</ele>
        <time>2013-03-10T12:42:50Z</time>
      </trkpt>
      <trkpt lat="45.18552" lon="6.18007">
        <ele>2483.7</ele>
        <time>2013-03-10T12:43:10Z</time>
      </trkpt>
      <trkpt lat="45.18551" lon="6.18019">
        <ele>2483.7</ele>
        <time>2013-03-10T12:43:14Z</time>
      </trkpt>
      <trkpt lat="45.1855" lon="6.18044">
        <ele>2478.9</ele>
        <time>2013-03-10T12:43:18Z</time>
      </trkpt>
      <trkpt lat="45.1855" lon="6.18058">
        <ele>2475.05</ele>
        <time>2013-03-10T12:43:20Z</time>
      </trkpt>
      <trkpt lat="45.18551" lon="6.18067">
        <ele>2472.17</ele>
        <time>2013-03-10T12:43:21Z</time>
      </trkpt>
      <trkpt lat="45.18554" lon="6.18084">
        <ele>2465.92</ele>
        <time>2013-03-10T12:43:23Z</time>
      </trkpt>
      <trkpt lat="45.18556" lon="6.1809">
        <ele>2463.04</ele>
        <time>2013-03-10T12:43:24Z</time>
      </trkpt>
      <trkpt lat="45.18557" lon="6.18099">
        <ele>2458.23</ele>
        <time>2013-03-10T12:43:26Z</time>
      </trkpt>
      <trkpt lat="45.18559" lon="6.18112">
        <ele>2464</ele>
        <time>2013-03-10T12:43:29Z</time>
      </trkpt>
      <trkpt lat="45.1856" lon="6.18116">
        <ele>2464</ele>
        <time>2013-03-10T12:43:30Z</time>
      </trkpt>
      <trkpt lat="45.18561" lon="6.1812">
        <ele>2462.07</ele>
        <time>2013-03-10T12:43:32Z</time>
      </trkpt>
      <trkpt lat="45.18561" lon="6.18121">
        <ele>2462.07</ele>
        <time>2013-03-10T12:43:33Z</time>
      </trkpt>
      <trkpt lat="45.18568" lon="6.18133">
        <ele>2458.71</ele>
        <time>2013-03-10T12:43:38Z</time>
      </trkpt>
      <trkpt lat="45.18573" lon="6.1815">
        <ele>2454.86</ele>
        <time>2013-03-10T12:43:42Z</time>
      </trkpt>
      <trkpt lat="45.18574" lon="6.18156">
        <ele>2452.94</ele>
        <time>2013-03-10T12:43:44Z</time>
      </trkpt>
      <trkpt lat="45.18574" lon="6.18159">
        <ele>2454.38</ele>
        <time>2013-03-10T12:43:58Z</time>
      </trkpt>
      <trkpt lat="45.18574" lon="6.18159">
        <ele>2453.42</ele>
        <time>2013-03-10T12:44:21Z</time>
      </trkpt>
      <trkpt lat="45.18576" lon="6.18159">
        <ele>2453.42</ele>
        <time>2013-03-10T12:44:31Z</time>
      </trkpt>
      <trkpt lat="45.18584" lon="6.18196">
        <ele>2449.1</ele>
        <time>2013-03-10T12:44:37Z</time>
      </trkpt>
      <trkpt lat="45.18585" lon="6.18204">
        <ele>2440.44</ele>
        <time>2013-03-10T12:44:38Z</time>
      </trkpt>
      <trkpt lat="45.18587" lon="6.18215">
        <ele>2440.92</ele>
        <time>2013-03-10T12:44:40Z</time>
      </trkpt>
      <trkpt lat="45.18589" lon="6.18228">
        <ele>2440.92</ele>
        <time>2013-03-10T12:44:42Z</time>
      </trkpt>
      <trkpt lat="45.18594" lon="6.1825">
        <ele>2435.16</ele>
        <time>2013-03-10T12:44:45Z</time>
      </trkpt>
      <trkpt lat="45.18602" lon="6.18267">
        <ele>2430.35</ele>
        <time>2013-03-10T12:44:47Z</time>
      </trkpt>
      <trkpt lat="45.18608" lon="6.18284">
        <ele>2423.62</ele>
        <time>2013-03-10T12:44:49Z</time>
      </trkpt>
      <trkpt lat="45.18611" lon="6.18292">
        <ele>2419.78</ele>
        <time>2013-03-10T12:44:50Z</time>
      </trkpt>
      <trkpt lat="45.18615" lon="6.183">
        <ele>2415.93</ele>
        <time>2013-03-10T12:44:51Z</time>
      </trkpt>
      <trkpt lat="45.18622" lon="6.18326">
        <ele>2408.24</ele>
        <time>2013-03-10T12:44:54Z</time>
      </trkpt>
      <trkpt lat="45.18628" lon="6.18344">
        <ele>2403.43</ele>
        <time>2013-03-10T12:44:56Z</time>
      </trkpt>
      <trkpt lat="45.18642" lon="6.18372">
        <ele>2398.15</ele>
        <time>2013-03-10T12:44:59Z</time>
      </trkpt>
      <trkpt lat="45.18662" lon="6.18401">
        <ele>2394.3</ele>
        <time>2013-03-10T12:45:02Z</time>
      </trkpt>
      <trkpt lat="45.1868" lon="6.18428">
        <ele>2390.46</ele>
        <time>2013-03-10T12:45:05Z</time>
      </trkpt>
      <trkpt lat="45.18688" lon="6.18447">
        <ele>2387.57</ele>
        <time>2013-03-10T12:45:07Z</time>
      </trkpt>
      <trkpt lat="45.18698" lon="6.18463">
        <ele>2384.69</ele>
        <time>2013-03-10T12:45:09Z</time>
      </trkpt>
      <trkpt lat="45.18707" lon="6.18469">
        <ele>2379.4</ele>
        <time>2013-03-10T12:45:13Z</time>
      </trkpt>
      <trkpt lat="45.18707" lon="6.18467">
        <ele>2377.96</ele>
        <time>2013-03-10T12:45:16Z</time>
      </trkpt>
      <trkpt lat="45.18706" lon="6.18466">
        <ele>2381.8</ele>
        <time>2013-03-10T12:45:22Z</time>
      </trkpt>
      <trkpt lat="45.18704" lon="6.18466">
        <ele>2383.25</ele>
        <time>2013-03-10T12:45:38Z</time>
      </trkpt>
      <trkpt lat="45.18702" lon="6.18468">
        <ele>2382.76</ele>
        <time>2013-03-10T12:45:55Z</time>
      </trkpt>
      <trkpt lat="45.18702" lon="6.1847">
        <ele>2382.76</ele>
        <time>2013-03-10T12:46:20Z</time>
      </trkpt>
      <trkpt lat="45.18702" lon="6.18469">
        <ele>2382.76</ele>
        <time>2013-03-10T12:46:40Z</time>
      </trkpt>
      <trkpt lat="45.18702" lon="6.1847">
        <ele>2382.76</ele>
        <time>2013-03-10T12:46:49Z</time>
      </trkpt>
      <trkpt lat="45.18707" lon="6.18463">
        <ele>2381.8</ele>
        <time>2013-03-10T12:47:06Z</time>
      </trkpt>
      <trkpt lat="45.18708" lon="6.1846">
        <ele>2381.32</ele>
        <time>2013-03-10T12:47:32Z</time>
      </trkpt>
      <trkpt lat="45.18708" lon="6.18459">
        <ele>2381.32</ele>
        <time>2013-03-10T12:48:00Z</time>
      </trkpt>
      <trkpt lat="45.18709" lon="6.18456">
        <ele>2380.84</ele>
        <time>2013-03-10T12:48:28Z</time>
      </trkpt>
      <trkpt lat="45.1871" lon="6.18451">
        <ele>2380.84</ele>
        <time>2013-03-10T12:48:44Z</time>
      </trkpt>
      <trkpt lat="45.18717" lon="6.1843">
        <ele>2380.84</ele>
        <time>2013-03-10T12:49:01Z</time>
      </trkpt>
      <trkpt lat="45.18718" lon="6.18427">
        <ele>2380.84</ele>
        <time>2013-03-10T12:49:16Z</time>
      </trkpt>
      <trkpt lat="45.1872" lon="6.18426">
        <ele>2380.84</ele>
        <time>2013-03-10T12:49:35Z</time>
      </trkpt>
      <trkpt lat="45.18724" lon="6.18421">
        <ele>2380.84</ele>
        <time>2013-03-10T12:49:54Z</time>
      </trkpt>
      <trkpt lat="45.18735" lon="6.18406">
        <ele>2380.84</ele>
        <time>2013-03-10T12:50:10Z</time>
      </trkpt>
      <trkpt lat="45.18735" lon="6.18405">
        <ele>2380.84</ele>
        <time>2013-03-10T12:50:11Z</time>
      </trkpt>
      <trkpt lat="45.1874" lon="6.1839">
        <ele>2382.76</ele>
        <time>2013-03-10T12:50:25Z</time>
      </trkpt>
      <trkpt lat="45.18741" lon="6.18388">
        <ele>2384.21</ele>
        <time>2013-03-10T12:50:50Z</time>
      </trkpt>
      <trkpt lat="45.18746" lon="6.18381">
        <ele>2384.69</ele>
        <time>2013-03-10T12:50:57Z</time>
      </trkpt>
      <trkpt lat="45.18755" lon="6.1837">
        <ele>2386.61</ele>
        <time>2013-03-10T12:51:12Z</time>
      </trkpt>
      <trkpt lat="45.18757" lon="6.18364">
        <ele>2388.05</ele>
        <time>2013-03-10T12:51:27Z</time>
      </trkpt>
      <trkpt lat="45.18762" lon="6.18358">
        <ele>2389.01</ele>
        <time>2013-03-10T12:51:46Z</time>
      </trkpt>
      <trkpt lat="45.18766" lon="6.18353">
        <ele>2389.49</ele>
        <time>2013-03-10T12:51:52Z</time>
      </trkpt>
      <trkpt lat="45.18767" lon="6.18353">
        <ele>2390.94</ele>
        <time>2013-03-10T12:52:03Z</time>
      </trkpt>
      <trkpt lat="45.18768" lon="6.18359">
        <ele>2391.9</ele>
        <time>2013-03-10T12:52:17Z</time>
      </trkpt>
      <trkpt lat="45.18772" lon="6.18364">
        <ele>2393.82</ele>
        <time>2013-03-10T12:52:29Z</time>
      </trkpt>
      <trkpt lat="45.18774" lon="6.18368">
        <ele>2394.78</ele>
        <time>2013-03-10T12:52:46Z</time>
      </trkpt>
      <trkpt lat="45.18777" lon="6.18371">
        <ele>2394.3</ele>
        <time>2013-03-10T12:52:50Z</time>
      </trkpt>
      <trkpt lat="45.18784" lon="6.18382">
        <ele>2395.74</ele>
        <time>2013-03-10T12:53:04Z</time>
      </trkpt>
      <trkpt lat="45.18783" lon="6.18381">
        <ele>2395.74</ele>
        <time>2013-03-10T12:53:18Z</time>
      </trkpt>
      <trkpt lat="45.18785" lon="6.18383">
        <ele>2396.7</ele>
        <time>2013-03-10T12:53:31Z</time>
      </trkpt>
      <trkpt lat="45.18784" lon="6.1839">
        <ele>2396.7</ele>
        <time>2013-03-10T12:53:41Z</time>
      </trkpt>
      <trkpt lat="45.18792" lon="6.18403">
        <ele>2397.67</ele>
        <time>2013-03-10T12:53:56Z</time>
      </trkpt>
      <trkpt lat="45.18795" lon="6.18406">
        <ele>2398.63</ele>
        <time>2013-03-10T12:54:14Z</time>
      </trkpt>
      <trkpt lat="45.18799" lon="6.18414">
        <ele>2399.59</ele>
        <time>2013-03-10T12:54:30Z</time>
      </trkpt>
      <trkpt lat="45.18808" lon="6.18423">
        <ele>2400.55</ele>
        <time>2013-03-10T12:54:43Z</time>
      </trkpt>
      <trkpt lat="45.18814" lon="6.18422">
        <ele>2401.51</ele>
        <time>2013-03-10T12:54:57Z</time>
      </trkpt>
      <trkpt lat="45.18819" lon="6.18408">
        <ele>2401.99</ele>
        <time>2013-03-10T12:55:12Z</time>
      </trkpt>
      <trkpt lat="45.18825" lon="6.18399">
        <ele>2402.95</ele>
        <time>2013-03-10T12:55:22Z</time>
      </trkpt>
      <trkpt lat="45.18833" lon="6.18394">
        <ele>2404.39</ele>
        <time>2013-03-10T12:55:40Z</time>
      </trkpt>
      <trkpt lat="45.18834" lon="6.18394">
        <ele>2404.39</ele>
        <time>2013-03-10T12:55:55Z</time>
      </trkpt>
      <trkpt lat="45.18842" lon="6.18383">
        <ele>2405.36</ele>
        <time>2013-03-10T12:56:09Z</time>
      </trkpt>
      <trkpt lat="45.18841" lon="6.18374">
        <ele>2406.32</ele>
        <time>2013-03-10T12:56:26Z</time>
      </trkpt>
      <trkpt lat="45.18843" lon="6.18368">
        <ele>2406.8</ele>
        <time>2013-03-10T12:56:46Z</time>
      </trkpt>
      <trkpt lat="45.18848" lon="6.18369">
        <ele>2407.76</ele>
        <time>2013-03-10T12:56:59Z</time>
      </trkpt>
      <trkpt lat="45.18849" lon="6.18369">
        <ele>2408.24</ele>
        <time>2013-03-10T12:57:02Z</time>
      </trkpt>
      <trkpt lat="45.18858" lon="6.18371">
        <ele>2409.2</ele>
        <time>2013-03-10T12:57:13Z</time>
      </trkpt>
      <trkpt lat="45.18861" lon="6.18371">
        <ele>2410.64</ele>
        <time>2013-03-10T12:57:34Z</time>
      </trkpt>
      <trkpt lat="45.18866" lon="6.18372">
        <ele>2410.64</ele>
        <time>2013-03-10T12:57:51Z</time>
      </trkpt>
      <trkpt lat="45.18871" lon="6.18374">
        <ele>2412.09</ele>
        <time>2013-03-10T12:58:03Z</time>
      </trkpt>
      <trkpt lat="45.18872" lon="6.18376">
        <ele>2413.05</ele>
        <time>2013-03-10T12:58:18Z</time>
      </trkpt>
      <trkpt lat="45.18877" lon="6.18377">
        <ele>2414.01</ele>
        <time>2013-03-10T12:58:34Z</time>
      </trkpt>
      <trkpt lat="45.18893" lon="6.18382">
        <ele>2415.45</ele>
        <time>2013-03-10T12:58:51Z</time>
      </trkpt>
      <trkpt lat="45.18909" lon="6.18384">
        <ele>2415.93</ele>
        <time>2013-03-10T12:59:07Z</time>
      </trkpt>
      <trkpt lat="45.18932" lon="6.18382">
        <ele>2415.93</ele>
        <time>2013-03-10T12:59:23Z</time>
      </trkpt>
      <trkpt lat="45.18943" lon="6.18378">
        <ele>2415.93</ele>
        <time>2013-03-10T12:59:37Z</time>
      </trkpt>
      <trkpt lat="45.18942" lon="6.18378">
        <ele>2415.93</ele>
        <time>2013-03-10T13:00:05Z</time>
      </trkpt>
      <trkpt lat="45.18943" lon="6.18377">
        <ele>2415.93</ele>
        <time>2013-03-10T13:00:19Z</time>
      </trkpt>
      <trkpt lat="45.18944" lon="6.18377">
        <ele>2415.93</ele>
        <time>2013-03-10T13:00:37Z</time>
      </trkpt>
      <trkpt lat="45.18944" lon="6.18377">
        <ele>2415.93</ele>
        <time>2013-03-10T13:00:56Z</time>
      </trkpt>
      <trkpt lat="45.18944" lon="6.18377">
        <ele>2415.93</ele>
        <time>2013-03-10T13:01:15Z</time>
      </trkpt>
      <trkpt lat="45.18943" lon="6.18377">
        <ele>2415.93</ele>
        <time>2013-03-10T13:01:38Z</time>
      </trkpt>
      <trkpt lat="45.18944" lon="6.18378">
        <ele>2415.93</ele>
        <time>2013-03-10T13:02:01Z</time>
      </trkpt>
      <trkpt lat="45.18944" lon="6.18377">
        <ele>2415.93</ele>
        <time>2013-03-10T13:02:20Z</time>
      </trkpt>
      <trkpt lat="45.18944" lon="6.18376">
        <ele>2416.41</ele>
        <time>2013-03-10T13:02:44Z</time>
      </trkpt>
      <trkpt lat="45.18945" lon="6.18377">
        <ele>2416.41</ele>
        <time>2013-03-10T13:02:49Z</time>
      </trkpt>
      <trkpt lat="45.18953" lon="6.18387">
        <ele>2414.97</ele>
        <time>2013-03-10T13:02:53Z</time>
      </trkpt>
      <trkpt lat="45.1896" lon="6.18395">
        <ele>2414.97</ele>
        <time>2013-03-10T13:02:55Z</time>
      </trkpt>
      <trkpt lat="45.18975" lon="6.1841">
        <ele>2407.28</ele>
        <time>2013-03-10T13:02:59Z</time>
      </trkpt>
      <trkpt lat="45.18978" lon="6.18414">
        <ele>2405.36</ele>
        <time>2013-03-10T13:03:00Z</time>
      </trkpt>
      <trkpt lat="45.1899" lon="6.18422">
        <ele>2398.63</ele>
        <time>2013-03-10T13:03:03Z</time>
      </trkpt>
      <trkpt lat="45.18992" lon="6.18422">
        <ele>2395.26</ele>
        <time>2013-03-10T13:03:05Z</time>
      </trkpt>
      <trkpt lat="45.18991" lon="6.18423">
        <ele>2399.59</ele>
        <time>2013-03-10T13:03:14Z</time>
      </trkpt>
      <trkpt lat="45.18991" lon="6.18423">
        <ele>2402.95</ele>
        <time>2013-03-10T13:03:17Z</time>
      </trkpt>
      <trkpt lat="45.18991" lon="6.18422">
        <ele>2403.91</ele>
        <time>2013-03-10T13:03:19Z</time>
      </trkpt>
      <trkpt lat="45.1899" lon="6.18422">
        <ele>2400.55</ele>
        <time>2013-03-10T13:03:25Z</time>
      </trkpt>
      <trkpt lat="45.1899" lon="6.18421">
        <ele>2399.59</ele>
        <time>2013-03-10T13:03:51Z</time>
      </trkpt>
      <trkpt lat="45.1899" lon="6.18422">
        <ele>2399.59</ele>
        <time>2013-03-10T13:03:54Z</time>
      </trkpt>
      <trkpt lat="45.18991" lon="6.18425">
        <ele>2399.59</ele>
        <time>2013-03-10T13:04:07Z</time>
      </trkpt>
      <trkpt lat="45.18991" lon="6.18424">
        <ele>2399.59</ele>
        <time>2013-03-10T13:04:29Z</time>
      </trkpt>
      <trkpt lat="45.18991" lon="6.18425">
        <ele>2399.59</ele>
        <time>2013-03-10T13:04:56Z</time>
      </trkpt>
      <trkpt lat="45.18991" lon="6.18426">
        <ele>2399.59</ele>
        <time>2013-03-10T13:05:25Z</time>
      </trkpt>
      <trkpt lat="45.18991" lon="6.18426">
        <ele>2399.59</ele>
        <time>2013-03-10T13:05:52Z</time>
      </trkpt>
      <trkpt lat="45.1899" lon="6.18423">
        <ele>2399.59</ele>
        <time>2013-03-10T13:06:39Z</time>
      </trkpt>
      <trkpt lat="45.1899" lon="6.18425">
        <ele>2399.59</ele>
        <time>2013-03-10T13:07:06Z</time>
      </trkpt>
      <trkpt lat="45.1899" lon="6.18425">
        <ele>2399.59</ele>
        <time>2013-03-10T13:07:44Z</time>
      </trkpt>
      <trkpt lat="45.1899" lon="6.18424">
        <ele>2399.11</ele>
        <time>2013-03-10T13:08:22Z</time>
      </trkpt>
      <trkpt lat="45.1899" lon="6.18425">
        <ele>2399.11</ele>
        <time>2013-03-10T13:08:48Z</time>
      </trkpt>
      <trkpt lat="45.1899" lon="6.18425">
        <ele>2399.11</ele>
        <time>2013-03-10T13:09:09Z</time>
      </trkpt>
      <trkpt lat="45.1899" lon="6.18426">
        <ele>2399.11</ele>
        <time>2013-03-10T13:09:17Z</time>
      </trkpt>
      <trkpt lat="45.19" lon="6.18435">
        <ele>2399.11</ele>
        <time>2013-03-10T13:09:21Z</time>
      </trkpt>
      <trkpt lat="45.19016" lon="6.18445">
        <ele>2395.74</ele>
        <time>2013-03-10T13:09:24Z</time>
      </trkpt>
      <trkpt lat="45.19028" lon="6.1845">
        <ele>2390.94</ele>
        <time>2013-03-10T13:09:26Z</time>
      </trkpt>
      <trkpt lat="45.19035" lon="6.18454">
        <ele>2387.57</ele>
        <time>2013-03-10T13:09:27Z</time>
      </trkpt>
      <trkpt lat="45.19047" lon="6.18463">
        <ele>2379.88</ele>
        <time>2013-03-10T13:09:29Z</time>
      </trkpt>
      <trkpt lat="45.19052" lon="6.18468">
        <ele>2376.04</ele>
        <time>2013-03-10T13:09:30Z</time>
      </trkpt>
      <trkpt lat="45.19064" lon="6.18477">
        <ele>2368.83</ele>
        <time>2013-03-10T13:09:32Z</time>
      </trkpt>
      <trkpt lat="45.1908" lon="6.18494">
        <ele>2364.02</ele>
        <time>2013-03-10T13:09:35Z</time>
      </trkpt>
      <trkpt lat="45.19092" lon="6.18504">
        <ele>2359.69</ele>
        <time>2013-03-10T13:09:37Z</time>
      </trkpt>
      <trkpt lat="45.19111" lon="6.18513">
        <ele>2353.93</ele>
        <time>2013-03-10T13:09:40Z</time>
      </trkpt>
      <trkpt lat="45.19126" lon="6.18527">
        <ele>2348.64</ele>
        <time>2013-03-10T13:09:43Z</time>
      </trkpt>
      <trkpt lat="45.19137" lon="6.18539">
        <ele>2345.27</ele>
        <time>2013-03-10T13:09:45Z</time>
      </trkpt>
      <trkpt lat="45.19149" lon="6.18546">
        <ele>2342.39</ele>
        <time>2013-03-10T13:09:47Z</time>
      </trkpt>
      <trkpt lat="45.19167" lon="6.18553">
        <ele>2339.51</ele>
        <time>2013-03-10T13:09:51Z</time>
      </trkpt>
      <trkpt lat="45.19167" lon="6.18553">
        <ele>2340.47</ele>
        <time>2013-03-10T13:09:53Z</time>
      </trkpt>
      <trkpt lat="45.19174" lon="6.18556">
        <ele>2342.87</ele>
        <time>2013-03-10T13:09:57Z</time>
      </trkpt>
      <trkpt lat="45.19177" lon="6.18561">
        <ele>2343.83</ele>
        <time>2013-03-10T13:10:06Z</time>
      </trkpt>
      <trkpt lat="45.19184" lon="6.18564">
        <ele>2342.39</ele>
        <time>2013-03-10T13:10:09Z</time>
      </trkpt>
      <trkpt lat="45.19192" lon="6.18573">
        <ele>2339.99</ele>
        <time>2013-03-10T13:10:12Z</time>
      </trkpt>
      <trkpt lat="45.19203" lon="6.18576">
        <ele>2336.14</ele>
        <time>2013-03-10T13:10:14Z</time>
      </trkpt>
      <trkpt lat="45.19222" lon="6.18572">
        <ele>2327.01</ele>
        <time>2013-03-10T13:10:17Z</time>
      </trkpt>
      <trkpt lat="45.19227" lon="6.1857">
        <ele>2323.64</ele>
        <time>2013-03-10T13:10:18Z</time>
      </trkpt>
      <trkpt lat="45.19229" lon="6.1857">
        <ele>2320.76</ele>
        <time>2013-03-10T13:10:19Z</time>
      </trkpt>
      <trkpt lat="45.19231" lon="6.18572">
        <ele>2316.43</ele>
        <time>2013-03-10T13:10:21Z</time>
      </trkpt>
      <trkpt lat="45.19232" lon="6.18571">
        <ele>2315.47</ele>
        <time>2013-03-10T13:10:23Z</time>
      </trkpt>
      <trkpt lat="45.19233" lon="6.18571">
        <ele>2326.05</ele>
        <time>2013-03-10T13:10:24Z</time>
      </trkpt>
      <trkpt lat="45.19233" lon="6.18571">
        <ele>2326.53</ele>
        <time>2013-03-10T13:10:25Z</time>
      </trkpt>
      <trkpt lat="45.19227" lon="6.18575">
        <ele>2326.53</ele>
        <time>2013-03-10T13:10:37Z</time>
      </trkpt>
      <trkpt lat="45.19227" lon="6.18591">
        <ele>2325.09</ele>
        <time>2013-03-10T13:10:43Z</time>
      </trkpt>
      <trkpt lat="45.19235" lon="6.18608">
        <ele>2314.99</ele>
        <time>2013-03-10T13:10:46Z</time>
      </trkpt>
      <trkpt lat="45.1924" lon="6.18615">
        <ele>2310.67</ele>
        <time>2013-03-10T13:10:47Z</time>
      </trkpt>
      <trkpt lat="45.19245" lon="6.1862">
        <ele>2311.15</ele>
        <time>2013-03-10T13:10:48Z</time>
      </trkpt>
      <trkpt lat="45.19255" lon="6.18628">
        <ele>2314.99</ele>
        <time>2013-03-10T13:10:50Z</time>
      </trkpt>
      <trkpt lat="45.19273" lon="6.18646">
        <ele>2312.59</ele>
        <time>2013-03-10T13:10:56Z</time>
      </trkpt>
      <trkpt lat="45.19279" lon="6.18653">
        <ele>2312.11</ele>
        <time>2013-03-10T13:11:05Z</time>
      </trkpt>
      <trkpt lat="45.19282" lon="6.18651">
        <ele>2312.11</ele>
        <time>2013-03-10T13:11:30Z</time>
      </trkpt>
      <trkpt lat="45.19283" lon="6.18652">
        <ele>2312.11</ele>
        <time>2013-03-10T13:11:50Z</time>
      </trkpt>
      <trkpt lat="45.19286" lon="6.1866">
        <ele>2312.11</ele>
        <time>2013-03-10T13:11:55Z</time>
      </trkpt>
      <trkpt lat="45.19289" lon="6.18701">
        <ele>2309.22</ele>
        <time>2013-03-10T13:11:59Z</time>
      </trkpt>
      <trkpt lat="45.19291" lon="6.18715">
        <ele>2301.53</ele>
        <time>2013-03-10T13:12:00Z</time>
      </trkpt>
      <trkpt lat="45.19292" lon="6.18728">
        <ele>2297.69</ele>
        <time>2013-03-10T13:12:01Z</time>
      </trkpt>
      <trkpt lat="45.19294" lon="6.18739">
        <ele>2298.17</ele>
        <time>2013-03-10T13:12:02Z</time>
      </trkpt>
      <trkpt lat="45.19295" lon="6.18769">
        <ele>2300.57</ele>
        <time>2013-03-10T13:12:05Z</time>
      </trkpt>
      <trkpt lat="45.19294" lon="6.18777">
        <ele>2300.09</ele>
        <time>2013-03-10T13:12:06Z</time>
      </trkpt>
      <trkpt lat="45.19293" lon="6.18817">
        <ele>2300.57</ele>
        <time>2013-03-10T13:12:12Z</time>
      </trkpt>
      <trkpt lat="45.19291" lon="6.18838">
        <ele>2300.57</ele>
        <time>2013-03-10T13:12:16Z</time>
      </trkpt>
      <trkpt lat="45.19286" lon="6.1887">
        <ele>2300.57</ele>
        <time>2013-03-10T13:12:29Z</time>
      </trkpt>
      <trkpt lat="45.19286" lon="6.18871">
        <ele>2300.57</ele>
        <time>2013-03-10T13:12:48Z</time>
      </trkpt>
      <trkpt lat="45.19287" lon="6.18874">
        <ele>2300.57</ele>
        <time>2013-03-10T13:12:59Z</time>
      </trkpt>
      <trkpt lat="45.19291" lon="6.18898">
        <ele>2300.57</ele>
        <time>2013-03-10T13:13:14Z</time>
      </trkpt>
      <trkpt lat="45.19299" lon="6.18916">
        <ele>2301.05</ele>
        <time>2013-03-10T13:13:26Z</time>
      </trkpt>
      <trkpt lat="45.19301" lon="6.18919">
        <ele>2301.05</ele>
        <time>2013-03-10T13:13:28Z</time>
      </trkpt>
      <trkpt lat="45.19308" lon="6.18937">
        <ele>2301.05</ele>
        <time>2013-03-10T13:13:43Z</time>
      </trkpt>
      <trkpt lat="45.1931" lon="6.18935">
        <ele>2301.05</ele>
        <time>2013-03-10T13:14:00Z</time>
      </trkpt>
      <trkpt lat="45.19312" lon="6.18933">
        <ele>2301.05</ele>
        <time>2013-03-10T13:14:24Z</time>
      </trkpt>
      <trkpt lat="45.19313" lon="6.18933">
        <ele>2301.53</ele>
        <time>2013-03-10T13:14:51Z</time>
      </trkpt>
      <trkpt lat="45.19313" lon="6.18931">
        <ele>2301.53</ele>
        <time>2013-03-10T13:15:15Z</time>
      </trkpt>
      <trkpt lat="45.19314" lon="6.18931">
        <ele>2302.01</ele>
        <time>2013-03-10T13:15:34Z</time>
      </trkpt>
      <trkpt lat="45.19314" lon="6.18931">
        <ele>2302.01</ele>
        <time>2013-03-10T13:15:53Z</time>
      </trkpt>
      <trkpt lat="45.19315" lon="6.18931">
        <ele>2302.01</ele>
        <time>2013-03-10T13:16:13Z</time>
      </trkpt>
      <trkpt lat="45.19315" lon="6.18931">
        <ele>2302.01</ele>
        <time>2013-03-10T13:16:36Z</time>
      </trkpt>
      <trkpt lat="45.19315" lon="6.18931">
        <ele>2302.01</ele>
        <time>2013-03-10T13:17:01Z</time>
      </trkpt>
      <trkpt lat="45.19315" lon="6.1893">
        <ele>2302.01</ele>
        <time>2013-03-10T13:17:28Z</time>
      </trkpt>
      <trkpt lat="45.19315" lon="6.1893">
        <ele>2302.01</ele>
        <time>2013-03-10T13:17:47Z</time>
      </trkpt>
      <trkpt lat="45.19315" lon="6.1893">
        <ele>2302.01</ele>
        <time>2013-03-10T13:18:12Z</time>
      </trkpt>
      <trkpt lat="45.19316" lon="6.1893">
        <ele>2302.01</ele>
        <time>2013-03-10T13:18:34Z</time>
      </trkpt>
      <trkpt lat="45.19316" lon="6.18931">
        <ele>2302.01</ele>
        <time>2013-03-10T13:19:14Z</time>
      </trkpt>
      <trkpt lat="45.19317" lon="6.18931">
        <ele>2302.01</ele>
        <time>2013-03-10T13:19:42Z</time>
      </trkpt>
      <trkpt lat="45.19317" lon="6.18932">
        <ele>2302.01</ele>
        <time>2013-03-10T13:20:07Z</time>
      </trkpt>
      <trkpt lat="45.19316" lon="6.18932">
        <ele>2302.01</ele>
        <time>2013-03-10T13:20:30Z</time>
      </trkpt>
      <trkpt lat="45.19316" lon="6.18933">
        <ele>2302.01</ele>
        <time>2013-03-10T13:20:58Z</time>
      </trkpt>
      <trkpt lat="45.19316" lon="6.18932">
        <ele>2302.01</ele>
        <time>2013-03-10T13:21:27Z</time>
      </trkpt>
      <trkpt lat="45.19317" lon="6.1893">
        <ele>2302.01</ele>
        <time>2013-03-10T13:21:56Z</time>
      </trkpt>
      <trkpt lat="45.19317" lon="6.18931">
        <ele>2302.01</ele>
        <time>2013-03-10T13:22:17Z</time>
      </trkpt>
      <trkpt lat="45.19317" lon="6.18931">
        <ele>2302.01</ele>
        <time>2013-03-10T13:22:44Z</time>
      </trkpt>
      <trkpt lat="45.19318" lon="6.18931">
        <ele>2302.49</ele>
        <time>2013-03-10T13:23:02Z</time>
      </trkpt>
      <trkpt lat="45.19318" lon="6.1893">
        <ele>2302.49</ele>
        <time>2013-03-10T13:23:29Z</time>
      </trkpt>
      <trkpt lat="45.19317" lon="6.18932">
        <ele>2302.49</ele>
        <time>2013-03-10T13:23:55Z</time>
      </trkpt>
      <trkpt lat="45.19317" lon="6.18932">
        <ele>2302.49</ele>
        <time>2013-03-10T13:24:17Z</time>
      </trkpt>
      <trkpt lat="45.19317" lon="6.18932">
        <ele>2302.49</ele>
        <time>2013-03-10T13:24:39Z</time>
      </trkpt>
      <trkpt lat="45.19317" lon="6.18931">
        <ele>2302.49</ele>
        <time>2013-03-10T13:25:05Z</time>
      </trkpt>
      <trkpt lat="45.19317" lon="6.18932">
        <ele>2302.49</ele>
        <time>2013-03-10T13:25:32Z</time>
      </trkpt>
      <trkpt lat="45.19316" lon="6.18932">
        <ele>2302.49</ele>
        <time>2013-03-10T13:25:53Z</time>
      </trkpt>
      <trkpt lat="45.19316" lon="6.18931">
        <ele>2302.49</ele>
        <time>2013-03-10T13:26:18Z</time>
      </trkpt>
      <trkpt lat="45.19316" lon="6.18932">
        <ele>2302.49</ele>
        <time>2013-03-10T13:26:43Z</time>
      </trkpt>
      <trkpt lat="45.19316" lon="6.18932">
        <ele>2302.49</ele>
        <time>2013-03-10T13:27:07Z</time>
      </trkpt>
      <trkpt lat="45.19316" lon="6.18933">
        <ele>2302.49</ele>
        <time>2013-03-10T13:27:30Z</time>
      </trkpt>
      <trkpt lat="45.19316" lon="6.18933">
        <ele>2302.49</ele>
        <time>2013-03-10T13:27:51Z</time>
      </trkpt>
      <trkpt lat="45.19319" lon="6.18938">
        <ele>2302.49</ele>
        <time>2013-03-10T13:28:14Z</time>
      </trkpt>
      <trkpt lat="45.19322" lon="6.18947">
        <ele>2302.98</ele>
        <time>2013-03-10T13:28:17Z</time>
      </trkpt>
      <trkpt lat="45.19337" lon="6.18978">
        <ele>2299.13</ele>
        <time>2013-03-10T13:28:22Z</time>
      </trkpt>
      <trkpt lat="45.19346" lon="6.18996">
        <ele>2294.8</ele>
        <time>2013-03-10T13:28:24Z</time>
      </trkpt>
      <trkpt lat="45.19356" lon="6.19014">
        <ele>2289.04</ele>
        <time>2013-03-10T13:28:26Z</time>
      </trkpt>
      <trkpt lat="45.19361" lon="6.19022">
        <ele>2285.67</ele>
        <time>2013-03-10T13:28:27Z</time>
      </trkpt>
      <trkpt lat="45.19373" lon="6.1904">
        <ele>2280.38</ele>
        <time>2013-03-10T13:28:29Z</time>
      </trkpt>
      <trkpt lat="45.19383" lon="6.1906">
        <ele>2275.1</ele>
        <time>2013-03-10T13:28:31Z</time>
      </trkpt>
      <trkpt lat="45.19395" lon="6.1908">
        <ele>2270.77</ele>
        <time>2013-03-10T13:28:33Z</time>
      </trkpt>
      <trkpt lat="45.19411" lon="6.19102">
        <ele>2267.41</ele>
        <time>2013-03-10T13:28:36Z</time>
      </trkpt>
      <trkpt lat="45.19437" lon="6.19121">
        <ele>2270.29</ele>
        <time>2013-03-10T13:28:41Z</time>
      </trkpt>
      <trkpt lat="45.19467" lon="6.19145">
        <ele>2262.6</ele>
        <time>2013-03-10T13:28:46Z</time>
      </trkpt>
      <trkpt lat="45.19472" lon="6.19151">
        <ele>2251.06</ele>
        <time>2013-03-10T13:28:47Z</time>
      </trkpt>
      <trkpt lat="45.19478" lon="6.19158">
        <ele>2257.79</ele>
        <time>2013-03-10T13:28:48Z</time>
      </trkpt>
      <trkpt lat="45.19484" lon="6.19163">
        <ele>2256.83</ele>
        <time>2013-03-10T13:28:49Z</time>
      </trkpt>
      <trkpt lat="45.19495" lon="6.19177">
        <ele>2254.91</ele>
        <time>2013-03-10T13:28:51Z</time>
      </trkpt>
      <trkpt lat="45.1951" lon="6.19207">
        <ele>2250.1</ele>
        <time>2013-03-10T13:28:54Z</time>
      </trkpt>
      <trkpt lat="45.19525" lon="6.19231">
        <ele>2242.89</ele>
        <time>2013-03-10T13:28:57Z</time>
      </trkpt>
      <trkpt lat="45.19536" lon="6.19245">
        <ele>2238.57</ele>
        <time>2013-03-10T13:28:59Z</time>
      </trkpt>
      <trkpt lat="45.19545" lon="6.19257">
        <ele>2234.72</ele>
        <time>2013-03-10T13:29:01Z</time>
      </trkpt>
      <trkpt lat="45.19565" lon="6.19291">
        <ele>2236.64</ele>
        <time>2013-03-10T13:29:08Z</time>
      </trkpt>
      <trkpt lat="45.19573" lon="6.19305">
        <ele>2237.13</ele>
        <time>2013-03-10T13:29:10Z</time>
      </trkpt>
      <trkpt lat="45.19589" lon="6.19322">
        <ele>2221.26</ele>
        <time>2013-03-10T13:29:12Z</time>
      </trkpt>
      <trkpt lat="45.19605" lon="6.19339">
        <ele>2217.9</ele>
        <time>2013-03-10T13:29:14Z</time>
      </trkpt>
      <trkpt lat="45.19612" lon="6.19345">
        <ele>2216.94</ele>
        <time>2013-03-10T13:29:15Z</time>
      </trkpt>
      <trkpt lat="45.19622" lon="6.19372">
        <ele>2218.86</ele>
        <time>2013-03-10T13:29:21Z</time>
      </trkpt>
      <trkpt lat="45.1962" lon="6.19372">
        <ele>2222.22</ele>
        <time>2013-03-10T13:29:24Z</time>
      </trkpt>
      <trkpt lat="45.1962" lon="6.19373">
        <ele>2222.71</ele>
        <time>2013-03-10T13:29:25Z</time>
      </trkpt>
      <trkpt lat="45.19621" lon="6.19414">
        <ele>2218.86</ele>
        <time>2013-03-10T13:29:30Z</time>
      </trkpt>
      <trkpt lat="45.19625" lon="6.19435">
        <ele>2196.75</ele>
        <time>2013-03-10T13:29:32Z</time>
      </trkpt>
      <trkpt lat="45.19631" lon="6.19446">
        <ele>2207.32</ele>
        <time>2013-03-10T13:29:34Z</time>
      </trkpt>
      <trkpt lat="45.19634" lon="6.19452">
        <ele>2207.81</ele>
        <time>2013-03-10T13:29:35Z</time>
      </trkpt>
      <trkpt lat="45.19638" lon="6.19459">
        <ele>2204.92</ele>
        <time>2013-03-10T13:29:36Z</time>
      </trkpt>
      <trkpt lat="45.1964" lon="6.19467">
        <ele>2203</ele>
        <time>2013-03-10T13:29:39Z</time>
      </trkpt>
      <trkpt lat="45.19637" lon="6.1946">
        <ele>2203.96</ele>
        <time>2013-03-10T13:29:58Z</time>
      </trkpt>
      <trkpt lat="45.19636" lon="6.19458">
        <ele>2204.44</ele>
        <time>2013-03-10T13:30:17Z</time>
      </trkpt>
      <trkpt lat="45.19636" lon="6.19458">
        <ele>2204.44</ele>
        <time>2013-03-10T13:30:22Z</time>
      </trkpt>
      <trkpt lat="45.19647" lon="6.19455">
        <ele>2203</ele>
        <time>2013-03-10T13:30:30Z</time>
      </trkpt>
      <trkpt lat="45.19647" lon="6.19454">
        <ele>2202.04</ele>
        <time>2013-03-10T13:30:48Z</time>
      </trkpt>
      <trkpt lat="45.19648" lon="6.19454">
        <ele>2202.04</ele>
        <time>2013-03-10T13:30:57Z</time>
      </trkpt>
      <trkpt lat="45.19648" lon="6.1945">
        <ele>2202.04</ele>
        <time>2013-03-10T13:31:07Z</time>
      </trkpt>
      <trkpt lat="45.1965" lon="6.1945">
        <ele>2202.04</ele>
        <time>2013-03-10T13:31:10Z</time>
      </trkpt>
      <trkpt lat="45.19652" lon="6.1945">
        <ele>2201.56</ele>
        <time>2013-03-10T13:31:12Z</time>
      </trkpt>
      <trkpt lat="45.19658" lon="6.19452">
        <ele>2199.15</ele>
        <time>2013-03-10T13:31:16Z</time>
      </trkpt>
      <trkpt lat="45.19661" lon="6.19451">
        <ele>2194.83</ele>
        <time>2013-03-10T13:31:21Z</time>
      </trkpt>
      <trkpt lat="45.19663" lon="6.19448">
        <ele>2195.79</ele>
        <time>2013-03-10T13:31:50Z</time>
      </trkpt>
      <trkpt lat="45.19665" lon="6.19443">
        <ele>2195.79</ele>
        <time>2013-03-10T13:32:05Z</time>
      </trkpt>
      <trkpt lat="45.1967" lon="6.19432">
        <ele>2193.39</ele>
        <time>2013-03-10T13:32:09Z</time>
      </trkpt>
      <trkpt lat="45.19672" lon="6.19433">
        <ele>2190.5</ele>
        <time>2013-03-10T13:32:11Z</time>
      </trkpt>
      <trkpt lat="45.19669" lon="6.19437">
        <ele>2187.14</ele>
        <time>2013-03-10T13:32:13Z</time>
      </trkpt>
      <trkpt lat="45.19664" lon="6.19436">
        <ele>2182.33</ele>
        <time>2013-03-10T13:32:15Z</time>
      </trkpt>
      <trkpt lat="45.19661" lon="6.19438">
        <ele>2178.48</ele>
        <time>2013-03-10T13:32:16Z</time>
      </trkpt>
      <trkpt lat="45.1966" lon="6.19436">
        <ele>2175.12</ele>
        <time>2013-03-10T13:32:18Z</time>
      </trkpt>
      <trkpt lat="45.19659" lon="6.19436">
        <ele>2174.64</ele>
        <time>2013-03-10T13:32:19Z</time>
      </trkpt>
      <trkpt lat="45.19663" lon="6.19439">
        <ele>2173.68</ele>
        <time>2013-03-10T13:32:21Z</time>
      </trkpt>
      <trkpt lat="45.19677" lon="6.19436">
        <ele>2174.64</ele>
        <time>2013-03-10T13:32:29Z</time>
      </trkpt>
      <trkpt lat="45.19681" lon="6.19436">
        <ele>2175.6</ele>
        <time>2013-03-10T13:32:32Z</time>
      </trkpt>
      <trkpt lat="45.19683" lon="6.19438">
        <ele>2176.56</ele>
        <time>2013-03-10T13:33:00Z</time>
      </trkpt>
      <trkpt lat="45.19683" lon="6.19435">
        <ele>2176.56</ele>
        <time>2013-03-10T13:33:31Z</time>
      </trkpt>
      <trkpt lat="45.19683" lon="6.19434">
        <ele>2176.56</ele>
        <time>2013-03-10T13:33:33Z</time>
      </trkpt>
      <trkpt lat="45.19686" lon="6.19426">
        <ele>2176.56</ele>
        <time>2013-03-10T13:33:42Z</time>
      </trkpt>
      <trkpt lat="45.19692" lon="6.19434">
        <ele>2171.76</ele>
        <time>2013-03-10T13:33:46Z</time>
      </trkpt>
      <trkpt lat="45.19698" lon="6.1943">
        <ele>2167.43</ele>
        <time>2013-03-10T13:33:48Z</time>
      </trkpt>
      <trkpt lat="45.1971" lon="6.19423">
        <ele>2159.74</ele>
        <time>2013-03-10T13:33:51Z</time>
      </trkpt>
      <trkpt lat="45.19717" lon="6.19419">
        <ele>2155.89</ele>
        <time>2013-03-10T13:33:53Z</time>
      </trkpt>
      <trkpt lat="45.19728" lon="6.19413">
        <ele>2152.53</ele>
        <time>2013-03-10T13:33:56Z</time>
      </trkpt>
      <trkpt lat="45.19737" lon="6.1941">
        <ele>2152.05</ele>
        <time>2013-03-10T13:33:58Z</time>
      </trkpt>
      <trkpt lat="45.19762" lon="6.19414">
        <ele>2148.68</ele>
        <time>2013-03-10T13:34:04Z</time>
      </trkpt>
      <trkpt lat="45.19769" lon="6.19415">
        <ele>2148.2</ele>
        <time>2013-03-10T13:34:06Z</time>
      </trkpt>
      <trkpt lat="45.19784" lon="6.19424">
        <ele>2145.8</ele>
        <time>2013-03-10T13:34:10Z</time>
      </trkpt>
      <trkpt lat="45.19796" lon="6.19435">
        <ele>2143.88</ele>
        <time>2013-03-10T13:34:12Z</time>
      </trkpt>
      <trkpt lat="45.19808" lon="6.19459">
        <ele>2139.07</ele>
        <time>2013-03-10T13:34:15Z</time>
      </trkpt>
      <trkpt lat="45.1981" lon="6.19463">
        <ele>2138.11</ele>
        <time>2013-03-10T13:34:16Z</time>
      </trkpt>
      <trkpt lat="45.19813" lon="6.19462">
        <ele>2137.63</ele>
        <time>2013-03-10T13:34:18Z</time>
      </trkpt>
      <trkpt lat="45.19816" lon="6.19455">
        <ele>2140.51</ele>
        <time>2013-03-10T13:34:24Z</time>
      </trkpt>
      <trkpt lat="45.19817" lon="6.19453">
        <ele>2143.4</ele>
        <time>2013-03-10T13:34:28Z</time>
      </trkpt>
      <trkpt lat="45.19818" lon="6.19451">
        <ele>2142.44</ele>
        <time>2013-03-10T13:34:46Z</time>
      </trkpt>
      <trkpt lat="45.19821" lon="6.1945">
        <ele>2141.95</ele>
        <time>2013-03-10T13:35:06Z</time>
      </trkpt>
      <trkpt lat="45.19828" lon="6.19446">
        <ele>2141.47</ele>
        <time>2013-03-10T13:35:09Z</time>
      </trkpt>
      <trkpt lat="45.19848" lon="6.19445">
        <ele>2136.67</ele>
        <time>2013-03-10T13:35:14Z</time>
      </trkpt>
      <trkpt lat="45.1987" lon="6.19454">
        <ele>2136.19</ele>
        <time>2013-03-10T13:35:24Z</time>
      </trkpt>
      <trkpt lat="45.1988" lon="6.19455">
        <ele>2136.19</ele>
        <time>2013-03-10T13:35:32Z</time>
      </trkpt>
      <trkpt lat="45.19891" lon="6.19471">
        <ele>2136.19</ele>
        <time>2013-03-10T13:35:40Z</time>
      </trkpt>
      <trkpt lat="45.19905" lon="6.19507">
        <ele>2135.23</ele>
        <time>2013-03-10T13:35:49Z</time>
      </trkpt>
      <trkpt lat="45.1992" lon="6.19534">
        <ele>2129.94</ele>
        <time>2013-03-10T13:35:53Z</time>
      </trkpt>
      <trkpt lat="45.19924" lon="6.19549">
        <ele>2126.57</ele>
        <time>2013-03-10T13:35:55Z</time>
      </trkpt>
      <trkpt lat="45.19929" lon="6.19581">
        <ele>2121.29</ele>
        <time>2013-03-10T13:35:59Z</time>
      </trkpt>
      <trkpt lat="45.19935" lon="6.19648">
        <ele>2116.96</ele>
        <time>2013-03-10T13:36:05Z</time>
      </trkpt>
      <trkpt lat="45.19945" lon="6.19685">
        <ele>2112.15</ele>
        <time>2013-03-10T13:36:08Z</time>
      </trkpt>
      <trkpt lat="45.19953" lon="6.19699">
        <ele>2108.79</ele>
        <time>2013-03-10T13:36:10Z</time>
      </trkpt>
      <trkpt lat="45.19966" lon="6.19744">
        <ele>2110.71</ele>
        <time>2013-03-10T13:36:20Z</time>
      </trkpt>
      <trkpt lat="45.19967" lon="6.19778">
        <ele>2110.23</ele>
        <time>2013-03-10T13:36:30Z</time>
      </trkpt>
      <trkpt lat="45.19967" lon="6.19814">
        <ele>2108.79</ele>
        <time>2013-03-10T13:36:44Z</time>
      </trkpt>
      <trkpt lat="45.1997" lon="6.1984">
        <ele>2110.23</ele>
        <time>2013-03-10T13:36:59Z</time>
      </trkpt>
      <trkpt lat="45.19974" lon="6.19857">
        <ele>2110.23</ele>
        <time>2013-03-10T13:37:14Z</time>
      </trkpt>
      <trkpt lat="45.19982" lon="6.1988">
        <ele>2110.23</ele>
        <time>2013-03-10T13:37:26Z</time>
      </trkpt>
      <trkpt lat="45.19983" lon="6.19892">
        <ele>2110.23</ele>
        <time>2013-03-10T13:37:34Z</time>
      </trkpt>
      <trkpt lat="45.19983" lon="6.1991">
        <ele>2110.23</ele>
        <time>2013-03-10T13:37:51Z</time>
      </trkpt>
      <trkpt lat="45.19985" lon="6.19934">
        <ele>2109.27</ele>
        <time>2013-03-10T13:38:06Z</time>
      </trkpt>
      <trkpt lat="45.1999" lon="6.19954">
        <ele>2108.79</ele>
        <time>2013-03-10T13:38:19Z</time>
      </trkpt>
      <trkpt lat="45.19999" lon="6.19983">
        <ele>2107.83</ele>
        <time>2013-03-10T13:38:30Z</time>
      </trkpt>
      <trkpt lat="45.20001" lon="6.19986">
        <ele>2107.83</ele>
        <time>2013-03-10T13:38:33Z</time>
      </trkpt>
      <trkpt lat="45.20002" lon="6.19997">
        <ele>2107.35</ele>
        <time>2013-03-10T13:38:38Z</time>
      </trkpt>
      <trkpt lat="45.20005" lon="6.20008">
        <ele>2107.35</ele>
        <time>2013-03-10T13:38:51Z</time>
      </trkpt>
      <trkpt lat="45.20005" lon="6.20008">
        <ele>2107.35</ele>
        <time>2013-03-10T13:39:16Z</time>
      </trkpt>
      <trkpt lat="45.20005" lon="6.20009">
        <ele>2106.87</ele>
        <time>2013-03-10T13:39:44Z</time>
      </trkpt>
      <trkpt lat="45.20005" lon="6.20009">
        <ele>2106.87</ele>
        <time>2013-03-10T13:40:11Z</time>
      </trkpt>
      <trkpt lat="45.20005" lon="6.20009">
        <ele>2106.87</ele>
        <time>2013-03-10T13:40:20Z</time>
      </trkpt>
      <trkpt lat="45.2002" lon="6.20025">
        <ele>2106.39</ele>
        <time>2013-03-10T13:40:28Z</time>
      </trkpt>
      <trkpt lat="45.20037" lon="6.20044">
        <ele>2102.54</ele>
        <time>2013-03-10T13:40:34Z</time>
      </trkpt>
      <trkpt lat="45.20051" lon="6.20054">
        <ele>2099.18</ele>
        <time>2013-03-10T13:40:40Z</time>
      </trkpt>
      <trkpt lat="45.20053" lon="6.20054">
        <ele>2101.1</ele>
        <time>2013-03-10T13:40:59Z</time>
      </trkpt>
      <trkpt lat="45.20053" lon="6.20054">
        <ele>2101.1</ele>
        <time>2013-03-10T13:41:10Z</time>
      </trkpt>
      <trkpt lat="45.20063" lon="6.20059">
        <ele>2101.1</ele>
        <time>2013-03-10T13:41:15Z</time>
      </trkpt>
      <trkpt lat="45.20094" lon="6.20069">
        <ele>2097.73</ele>
        <time>2013-03-10T13:41:22Z</time>
      </trkpt>
      <trkpt lat="45.20107" lon="6.20078">
        <ele>2094.37</ele>
        <time>2013-03-10T13:41:26Z</time>
      </trkpt>
      <trkpt lat="45.20129" lon="6.20104">
        <ele>2092.45</ele>
        <time>2013-03-10T13:41:33Z</time>
      </trkpt>
      <trkpt lat="45.20152" lon="6.20126">
        <ele>2087.16</ele>
        <time>2013-03-10T13:41:37Z</time>
      </trkpt>
      <trkpt lat="45.20162" lon="6.20147">
        <ele>2082.35</ele>
        <time>2013-03-10T13:41:39Z</time>
      </trkpt>
      <trkpt lat="45.20169" lon="6.20157">
        <ele>2078.99</ele>
        <time>2013-03-10T13:41:40Z</time>
      </trkpt>
      <trkpt lat="45.20176" lon="6.20167">
        <ele>2075.14</ele>
        <time>2013-03-10T13:41:41Z</time>
      </trkpt>
      <trkpt lat="45.20192" lon="6.20185">
        <ele>2068.89</ele>
        <time>2013-03-10T13:41:43Z</time>
      </trkpt>
      <trkpt lat="45.20199" lon="6.20194">
        <ele>2065.05</ele>
        <time>2013-03-10T13:41:44Z</time>
      </trkpt>
      <trkpt lat="45.20212" lon="6.20209">
        <ele>2077.07</ele>
        <time>2013-03-10T13:41:46Z</time>
      </trkpt>
      <trkpt lat="45.2024" lon="6.20223">
        <ele>2072.26</ele>
        <time>2013-03-10T13:41:51Z</time>
      </trkpt>
      <trkpt lat="45.2025" lon="6.20225">
        <ele>2070.34</ele>
        <time>2013-03-10T13:41:53Z</time>
      </trkpt>
      <trkpt lat="45.20319" lon="6.20224">
        <ele>2069.86</ele>
        <time>2013-03-10T13:42:07Z</time>
      </trkpt>
      <trkpt lat="45.20356" lon="6.20216">
        <ele>2070.34</ele>
        <time>2013-03-10T13:42:19Z</time>
      </trkpt>
      <trkpt lat="45.20359" lon="6.2021">
        <ele>2069.86</ele>
        <time>2013-03-10T13:42:31Z</time>
      </trkpt>
      <trkpt lat="45.2036" lon="6.20206">
        <ele>2069.38</ele>
        <time>2013-03-10T13:42:50Z</time>
      </trkpt>
      <trkpt lat="45.2036" lon="6.20205">
        <ele>2069.38</ele>
        <time>2013-03-10T13:42:52Z</time>
      </trkpt>
      <trkpt lat="45.20362" lon="6.2019">
        <ele>2069.38</ele>
        <time>2013-03-10T13:42:57Z</time>
      </trkpt>
      <trkpt lat="45.20376" lon="6.20149">
        <ele>2062.65</ele>
        <time>2013-03-10T13:43:02Z</time>
      </trkpt>
      <trkpt lat="45.20384" lon="6.20132">
        <ele>2058.32</ele>
        <time>2013-03-10T13:43:05Z</time>
      </trkpt>
      <trkpt lat="45.20386" lon="6.20129">
        <ele>2058.32</ele>
        <time>2013-03-10T13:43:06Z</time>
      </trkpt>
      <trkpt lat="45.2039" lon="6.20124">
        <ele>2061.68</ele>
        <time>2013-03-10T13:43:10Z</time>
      </trkpt>
      <trkpt lat="45.20391" lon="6.20122">
        <ele>2065.53</ele>
        <time>2013-03-10T13:43:13Z</time>
      </trkpt>
      <trkpt lat="45.20398" lon="6.20111">
        <ele>2064.57</ele>
        <time>2013-03-10T13:43:28Z</time>
      </trkpt>
      <trkpt lat="45.20401" lon="6.20109">
        <ele>2065.53</ele>
        <time>2013-03-10T13:43:43Z</time>
      </trkpt>
      <trkpt lat="45.20403" lon="6.20109">
        <ele>2066.01</ele>
        <time>2013-03-10T13:44:02Z</time>
      </trkpt>
      <trkpt lat="45.20403" lon="6.20109">
        <ele>2066.01</ele>
        <time>2013-03-10T13:44:18Z</time>
      </trkpt>
      <trkpt lat="45.20402" lon="6.20107">
        <ele>2066.01</ele>
        <time>2013-03-10T13:44:32Z</time>
      </trkpt>
      <trkpt lat="45.20404" lon="6.20109">
        <ele>2066.01</ele>
        <time>2013-03-10T13:44:49Z</time>
      </trkpt>
      <trkpt lat="45.20408" lon="6.20108">
        <ele>2065.53</ele>
        <time>2013-03-10T13:45:06Z</time>
      </trkpt>
      <trkpt lat="45.2041" lon="6.20104">
        <ele>2065.53</ele>
        <time>2013-03-10T13:45:23Z</time>
      </trkpt>
      <trkpt lat="45.20412" lon="6.20102">
        <ele>2065.53</ele>
        <time>2013-03-10T13:45:39Z</time>
      </trkpt>
      <trkpt lat="45.20413" lon="6.20102">
        <ele>2065.53</ele>
        <time>2013-03-10T13:46:01Z</time>
      </trkpt>
      <trkpt lat="45.20414" lon="6.20101">
        <ele>2065.53</ele>
        <time>2013-03-10T13:46:20Z</time>
      </trkpt>
      <trkpt lat="45.20413" lon="6.201">
        <ele>2065.53</ele>
        <time>2013-03-10T13:46:49Z</time>
      </trkpt>
      <trkpt lat="45.20413" lon="6.201">
        <ele>2065.53</ele>
        <time>2013-03-10T13:47:15Z</time>
      </trkpt>
      <trkpt lat="45.20414" lon="6.20099">
        <ele>2065.53</ele>
        <time>2013-03-10T13:47:43Z</time>
      </trkpt>
      <trkpt lat="45.20414" lon="6.201">
        <ele>2065.53</ele>
        <time>2013-03-10T13:48:06Z</time>
      </trkpt>
      <trkpt lat="45.20414" lon="6.20099">
        <ele>2065.53</ele>
        <time>2013-03-10T13:48:34Z</time>
      </trkpt>
      <trkpt lat="45.20414" lon="6.20099">
        <ele>2065.05</ele>
        <time>2013-03-10T13:48:55Z</time>
      </trkpt>
      <trkpt lat="45.20414" lon="6.20101">
        <ele>2065.05</ele>
        <time>2013-03-10T13:49:12Z</time>
      </trkpt>
      <trkpt lat="45.20414" lon="6.20102">
        <ele>2065.05</ele>
        <time>2013-03-10T13:49:26Z</time>
      </trkpt>
      <trkpt lat="45.20414" lon="6.20102">
        <ele>2065.05</ele>
        <time>2013-03-10T13:49:51Z</time>
      </trkpt>
      <trkpt lat="45.20414" lon="6.20103">
        <ele>2065.05</ele>
        <time>2013-03-10T13:50:19Z</time>
      </trkpt>
      <trkpt lat="45.20414" lon="6.20103">
        <ele>2065.05</ele>
        <time>2013-03-10T13:50:48Z</time>
      </trkpt>
      <trkpt lat="45.20415" lon="6.20104">
        <ele>2065.05</ele>
        <time>2013-03-10T13:51:16Z</time>
      </trkpt>
      <trkpt lat="45.20415" lon="6.20104">
        <ele>2065.05</ele>
        <time>2013-03-10T13:51:35Z</time>
      </trkpt>
      <trkpt lat="45.20415" lon="6.20103">
        <ele>2065.05</ele>
        <time>2013-03-10T13:52:12Z</time>
      </trkpt>
      <trkpt lat="45.20415" lon="6.20104">
        <ele>2065.05</ele>
        <time>2013-03-10T13:52:31Z</time>
      </trkpt>
      <trkpt lat="45.20415" lon="6.20104">
        <ele>2065.05</ele>
        <time>2013-03-10T13:52:51Z</time>
      </trkpt>
      <trkpt lat="45.20415" lon="6.20103">
        <ele>2065.05</ele>
        <time>2013-03-10T13:53:30Z</time>
      </trkpt>
      <trkpt lat="45.20415" lon="6.20103">
        <ele>2065.05</ele>
        <time>2013-03-10T13:53:57Z</time>
      </trkpt>
      <trkpt lat="45.20415" lon="6.20103">
        <ele>2065.05</ele>
        <time>2013-03-10T13:54:17Z</time>
      </trkpt>
      <trkpt lat="45.20415" lon="6.20103">
        <ele>2065.05</ele>
        <time>2013-03-10T13:54:44Z</time>
      </trkpt>
      <trkpt lat="45.20415" lon="6.20103">
        <ele>2065.05</ele>
        <time>2013-03-10T13:55:17Z</time>
      </trkpt>
      <trkpt lat="45.20417" lon="6.20105">
        <ele>2065.05</ele>
        <time>2013-03-10T13:55:51Z</time>
      </trkpt>
      <trkpt lat="45.20417" lon="6.20104">
        <ele>2065.05</ele>
        <time>2013-03-10T13:56:18Z</time>
      </trkpt>
      <trkpt lat="45.20417" lon="6.20104">
        <ele>2065.05</ele>
        <time>2013-03-10T13:56:51Z</time>
      </trkpt>
      <trkpt lat="45.20417" lon="6.20104">
        <ele>2065.05</ele>
        <time>2013-03-10T13:57:20Z</time>
      </trkpt>
      <trkpt lat="45.20417" lon="6.20104">
        <ele>2065.05</ele>
        <time>2013-03-10T13:57:46Z</time>
      </trkpt>
      <trkpt lat="45.20417" lon="6.20104">
        <ele>2065.05</ele>
        <time>2013-03-10T13:58:10Z</time>
      </trkpt>
      <trkpt lat="45.20416" lon="6.20103">
        <ele>2065.05</ele>
        <time>2013-03-10T13:58:47Z</time>
      </trkpt>
      <trkpt lat="45.20416" lon="6.20103">
        <ele>2065.05</ele>
        <time>2013-03-10T13:59:18Z</time>
      </trkpt>
      <trkpt lat="45.20416" lon="6.20103">
        <ele>2065.05</ele>
        <time>2013-03-10T13:59:45Z</time>
      </trkpt>
      <trkpt lat="45.20415" lon="6.20104">
        <ele>2065.05</ele>
        <time>2013-03-10T14:00:18Z</time>
      </trkpt>
      <trkpt lat="45.20415" lon="6.20104">
        <ele>2065.05</ele>
        <time>2013-03-10T14:00:53Z</time>
      </trkpt>
      <trkpt lat="45.20415" lon="6.20104">
        <ele>2065.05</ele>
        <time>2013-03-10T14:01:19Z</time>
      </trkpt>
      <trkpt lat="45.20415" lon="6.20103">
        <ele>2065.53</ele>
        <time>2013-03-10T14:01:49Z</time>
      </trkpt>
      <trkpt lat="45.20415" lon="6.20104">
        <ele>2065.53</ele>
        <time>2013-03-10T14:02:14Z</time>
      </trkpt>
      <trkpt lat="45.20415" lon="6.20104">
        <ele>2065.53</ele>
        <time>2013-03-10T14:02:39Z</time>
      </trkpt>
      <trkpt lat="45.20415" lon="6.20103">
        <ele>2065.53</ele>
        <time>2013-03-10T14:03:04Z</time>
      </trkpt>
      <trkpt lat="45.20415" lon="6.20103">
        <ele>2065.53</ele>
        <time>2013-03-10T14:03:42Z</time>
      </trkpt>
      <trkpt lat="45.20414" lon="6.20103">
        <ele>2065.53</ele>
        <time>2013-03-10T14:04:13Z</time>
      </trkpt>
      <trkpt lat="45.20414" lon="6.20103">
        <ele>2065.53</ele>
        <time>2013-03-10T14:04:49Z</time>
      </trkpt>
      <trkpt lat="45.20414" lon="6.20103">
        <ele>2065.53</ele>
        <time>2013-03-10T14:05:20Z</time>
      </trkpt>
      <trkpt lat="45.20414" lon="6.20103">
        <ele>2065.53</ele>
        <time>2013-03-10T14:06:01Z</time>
      </trkpt>
      <trkpt lat="45.20415" lon="6.20103">
        <ele>2065.53</ele>
        <time>2013-03-10T14:06:30Z</time>
      </trkpt>
      <trkpt lat="45.20416" lon="6.20102">
        <ele>2065.53</ele>
        <time>2013-03-10T14:07:04Z</time>
      </trkpt>
      <trkpt lat="45.20415" lon="6.20102">
        <ele>2065.53</ele>
        <time>2013-03-10T14:07:33Z</time>
      </trkpt>
      <trkpt lat="45.20414" lon="6.20102">
        <ele>2066.01</ele>
        <time>2013-03-10T14:08:08Z</time>
      </trkpt>
      <trkpt lat="45.20415" lon="6.20103">
        <ele>2066.01</ele>
        <time>2013-03-10T14:08:34Z</time>
      </trkpt>
      <trkpt lat="45.20414" lon="6.20103">
        <ele>2066.01</ele>
        <time>2013-03-10T14:08:55Z</time>
      </trkpt>
      <trkpt lat="45.20415" lon="6.20102">
        <ele>2066.01</ele>
        <time>2013-03-10T14:09:26Z</time>
      </trkpt>
      <trkpt lat="45.20415" lon="6.20102">
        <ele>2066.01</ele>
        <time>2013-03-10T14:09:57Z</time>
      </trkpt>
      <trkpt lat="45.20415" lon="6.20101">
        <ele>2066.01</ele>
        <time>2013-03-10T14:10:14Z</time>
      </trkpt>
      <trkpt lat="45.20415" lon="6.20101">
        <ele>2066.01</ele>
        <time>2013-03-10T14:10:30Z</time>
      </trkpt>
      <trkpt lat="45.20414" lon="6.20101">
        <ele>2066.01</ele>
        <time>2013-03-10T14:10:48Z</time>
      </trkpt>
      <trkpt lat="45.20414" lon="6.20101">
        <ele>2066.01</ele>
        <time>2013-03-10T14:11:03Z</time>
      </trkpt>
      <trkpt lat="45.20414" lon="6.20101">
        <ele>2066.01</ele>
        <time>2013-03-10T14:11:25Z</time>
      </trkpt>
      <trkpt lat="45.20414" lon="6.20102">
        <ele>2066.01</ele>
        <time>2013-03-10T14:11:39Z</time>
      </trkpt>
      <trkpt lat="45.20413" lon="6.20098">
        <ele>2066.01</ele>
        <time>2013-03-10T14:11:53Z</time>
      </trkpt>
      <trkpt lat="45.20414" lon="6.20099">
        <ele>2066.01</ele>
        <time>2013-03-10T14:12:13Z</time>
      </trkpt>
      <trkpt lat="45.20415" lon="6.20099">
        <ele>2066.01</ele>
        <time>2013-03-10T14:12:25Z</time>
      </trkpt>
      <trkpt lat="45.20414" lon="6.20099">
        <ele>2066.01</ele>
        <time>2013-03-10T14:12:46Z</time>
      </trkpt>
      <trkpt lat="45.20414" lon="6.20098">
        <ele>2066.01</ele>
        <time>2013-03-10T14:12:55Z</time>
      </trkpt>
      <trkpt lat="45.20409" lon="6.20099">
        <ele>2066.49</ele>
        <time>2013-03-10T14:13:08Z</time>
      </trkpt>
      <trkpt lat="45.20404" lon="6.20106">
        <ele>2066.49</ele>
        <time>2013-03-10T14:13:21Z</time>
      </trkpt>
      <trkpt lat="45.20401" lon="6.20113">
        <ele>2066.49</ele>
        <time>2013-03-10T14:13:37Z</time>
      </trkpt>
      <trkpt lat="45.20401" lon="6.20112">
        <ele>2066.49</ele>
        <time>2013-03-10T14:13:55Z</time>
      </trkpt>
      <trkpt lat="45.204" lon="6.20113">
        <ele>2066.49</ele>
        <time>2013-03-10T14:14:11Z</time>
      </trkpt>
      <trkpt lat="45.20402" lon="6.2011">
        <ele>2066.49</ele>
        <time>2013-03-10T14:14:25Z</time>
      </trkpt>
      <trkpt lat="45.20402" lon="6.2011">
        <ele>2066.49</ele>
        <time>2013-03-10T14:14:39Z</time>
      </trkpt>
      <trkpt lat="45.20402" lon="6.20111">
        <ele>2066.49</ele>
        <time>2013-03-10T14:14:51Z</time>
      </trkpt>
      <trkpt lat="45.20402" lon="6.20113">
        <ele>2066.49</ele>
        <time>2013-03-10T14:14:57Z</time>
      </trkpt>
      <trkpt lat="45.20399" lon="6.20125">
        <ele>2066.49</ele>
        <time>2013-03-10T14:15:01Z</time>
      </trkpt>
      <trkpt lat="45.20399" lon="6.20155">
        <ele>2065.53</ele>
        <time>2013-03-10T14:15:05Z</time>
      </trkpt>
      <trkpt lat="45.204" lon="6.20164">
        <ele>2064.57</ele>
        <time>2013-03-10T14:15:06Z</time>
      </trkpt>
      <trkpt lat="45.20402" lon="6.20173">
        <ele>2063.61</ele>
        <time>2013-03-10T14:15:07Z</time>
      </trkpt>
      <trkpt lat="45.20405" lon="6.20183">
        <ele>2062.17</ele>
        <time>2013-03-10T14:15:08Z</time>
      </trkpt>
      <trkpt lat="45.20412" lon="6.20198">
        <ele>2059.76</ele>
        <time>2013-03-10T14:15:10Z</time>
      </trkpt>
      <trkpt lat="45.20423" lon="6.20214">
        <ele>2055.92</ele>
        <time>2013-03-10T14:15:13Z</time>
      </trkpt>
      <trkpt lat="45.20432" lon="6.20221">
        <ele>2054.47</ele>
        <time>2013-03-10T14:15:15Z</time>
      </trkpt>
      <trkpt lat="45.20479" lon="6.2023">
        <ele>2053.51</ele>
        <time>2013-03-10T14:15:21Z</time>
      </trkpt>
      <trkpt lat="45.20487" lon="6.20232">
        <ele>2052.07</ele>
        <time>2013-03-10T14:15:22Z</time>
      </trkpt>
      <trkpt lat="45.20497" lon="6.20233">
        <ele>2051.59</ele>
        <time>2013-03-10T14:15:23Z</time>
      </trkpt>
      <trkpt lat="45.20504" lon="6.20234">
        <ele>2050.15</ele>
        <time>2013-03-10T14:15:24Z</time>
      </trkpt>
      <trkpt lat="45.20512" lon="6.20237">
        <ele>2049.19</ele>
        <time>2013-03-10T14:15:25Z</time>
      </trkpt>
      <trkpt lat="45.20521" lon="6.2024">
        <ele>2048.71</ele>
        <time>2013-03-10T14:15:26Z</time>
      </trkpt>
      <trkpt lat="45.20528" lon="6.20242">
        <ele>2047.26</ele>
        <time>2013-03-10T14:15:27Z</time>
      </trkpt>
      <trkpt lat="45.20537" lon="6.20245">
        <ele>2046.3</ele>
        <time>2013-03-10T14:15:28Z</time>
      </trkpt>
      <trkpt lat="45.20545" lon="6.20248">
        <ele>2044.86</ele>
        <time>2013-03-10T14:15:29Z</time>
      </trkpt>
      <trkpt lat="45.20553" lon="6.2025">
        <ele>2043.42</ele>
        <time>2013-03-10T14:15:30Z</time>
      </trkpt>
      <trkpt lat="45.20571" lon="6.20254">
        <ele>2041.02</ele>
        <time>2013-03-10T14:15:32Z</time>
      </trkpt>
      <trkpt lat="45.20579" lon="6.20256">
        <ele>2039.57</ele>
        <time>2013-03-10T14:15:33Z</time>
      </trkpt>
      <trkpt lat="45.20588" lon="6.2026">
        <ele>2038.61</ele>
        <time>2013-03-10T14:15:34Z</time>
      </trkpt>
      <trkpt lat="45.20598" lon="6.20262">
        <ele>2037.65</ele>
        <time>2013-03-10T14:15:35Z</time>
      </trkpt>
      <trkpt lat="45.20606" lon="6.20263">
        <ele>2037.17</ele>
        <time>2013-03-10T14:15:36Z</time>
      </trkpt>
      <trkpt lat="45.20615" lon="6.20266">
        <ele>2036.21</ele>
        <time>2013-03-10T14:15:37Z</time>
      </trkpt>
      <trkpt lat="45.20621" lon="6.20268">
        <ele>2036.21</ele>
        <time>2013-03-10T14:15:38Z</time>
      </trkpt>
      <trkpt lat="45.20652" lon="6.2028">
        <ele>2035.25</ele>
        <time>2013-03-10T14:15:42Z</time>
      </trkpt>
      <trkpt lat="45.20658" lon="6.20284">
        <ele>2035.25</ele>
        <time>2013-03-10T14:15:43Z</time>
      </trkpt>
      <trkpt lat="45.20664" lon="6.20286">
        <ele>2035.25</ele>
        <time>2013-03-10T14:15:44Z</time>
      </trkpt>
      <trkpt lat="45.20691" lon="6.20305">
        <ele>2035.25</ele>
        <time>2013-03-10T14:15:49Z</time>
      </trkpt>
      <trkpt lat="45.20698" lon="6.20313">
        <ele>2035.25</ele>
        <time>2013-03-10T14:15:50Z</time>
      </trkpt>
      <trkpt lat="45.20702" lon="6.2032">
        <ele>2035.25</ele>
        <time>2013-03-10T14:15:51Z</time>
      </trkpt>
      <trkpt lat="45.20708" lon="6.20326">
        <ele>2034.29</ele>
        <time>2013-03-10T14:15:52Z</time>
      </trkpt>
      <trkpt lat="45.20714" lon="6.20331">
        <ele>2033.33</ele>
        <time>2013-03-10T14:15:53Z</time>
      </trkpt>
      <trkpt lat="45.2072" lon="6.20337">
        <ele>2032.36</ele>
        <time>2013-03-10T14:15:54Z</time>
      </trkpt>
      <trkpt lat="45.20724" lon="6.20345">
        <ele>2031.4</ele>
        <time>2013-03-10T14:15:55Z</time>
      </trkpt>
      <trkpt lat="45.20729" lon="6.20353">
        <ele>2029.96</ele>
        <time>2013-03-10T14:15:56Z</time>
      </trkpt>
      <trkpt lat="45.20734" lon="6.20361">
        <ele>2028.04</ele>
        <time>2013-03-10T14:15:57Z</time>
      </trkpt>
      <trkpt lat="45.2074" lon="6.20368">
        <ele>2026.6</ele>
        <time>2013-03-10T14:15:58Z</time>
      </trkpt>
      <trkpt lat="45.20762" lon="6.20388">
        <ele>2022.27</ele>
        <time>2013-03-10T14:16:01Z</time>
      </trkpt>
      <trkpt lat="45.2077" lon="6.20392">
        <ele>2021.31</ele>
        <time>2013-03-10T14:16:02Z</time>
      </trkpt>
      <trkpt lat="45.20794" lon="6.20404">
        <ele>2018.43</ele>
        <time>2013-03-10T14:16:05Z</time>
      </trkpt>
      <trkpt lat="45.20802" lon="6.20408">
        <ele>2017.46</ele>
        <time>2013-03-10T14:16:06Z</time>
      </trkpt>
      <trkpt lat="45.20809" lon="6.20412">
        <ele>2016.98</ele>
        <time>2013-03-10T14:16:07Z</time>
      </trkpt>
      <trkpt lat="45.20816" lon="6.20415">
        <ele>2016.5</ele>
        <time>2013-03-10T14:16:08Z</time>
      </trkpt>
      <trkpt lat="45.20822" lon="6.20418">
        <ele>2016.98</ele>
        <time>2013-03-10T14:16:09Z</time>
      </trkpt>
      <trkpt lat="45.20829" lon="6.20419">
        <ele>2016.5</ele>
        <time>2013-03-10T14:16:10Z</time>
      </trkpt>
      <trkpt lat="45.20841" lon="6.20423">
        <ele>2016.5</ele>
        <time>2013-03-10T14:16:12Z</time>
      </trkpt>
      <trkpt lat="45.20847" lon="6.20426">
        <ele>2016.5</ele>
        <time>2013-03-10T14:16:13Z</time>
      </trkpt>
      <trkpt lat="45.20854" lon="6.20428">
        <ele>2016.5</ele>
        <time>2013-03-10T14:16:14Z</time>
      </trkpt>
      <trkpt lat="45.20862" lon="6.2043">
        <ele>2016.5</ele>
        <time>2013-03-10T14:16:15Z</time>
      </trkpt>
      <trkpt lat="45.20869" lon="6.20432">
        <ele>2016.02</ele>
        <time>2013-03-10T14:16:16Z</time>
      </trkpt>
      <trkpt lat="45.20875" lon="6.20438">
        <ele>2015.54</ele>
        <time>2013-03-10T14:16:17Z</time>
      </trkpt>
      <trkpt lat="45.20882" lon="6.20443">
        <ele>2014.58</ele>
        <time>2013-03-10T14:16:18Z</time>
      </trkpt>
      <trkpt lat="45.20889" lon="6.20447">
        <ele>2013.62</ele>
        <time>2013-03-10T14:16:19Z</time>
      </trkpt>
      <trkpt lat="45.20894" lon="6.20448">
        <ele>2012.66</ele>
        <time>2013-03-10T14:16:20Z</time>
      </trkpt>
      <trkpt lat="45.20899" lon="6.2045">
        <ele>2011.22</ele>
        <time>2013-03-10T14:16:21Z</time>
      </trkpt>
      <trkpt lat="45.20904" lon="6.20453">
        <ele>2010.25</ele>
        <time>2013-03-10T14:16:22Z</time>
      </trkpt>
      <trkpt lat="45.20909" lon="6.20458">
        <ele>2009.29</ele>
        <time>2013-03-10T14:16:23Z</time>
      </trkpt>
      <trkpt lat="45.20924" lon="6.20477">
        <ele>2005.93</ele>
        <time>2013-03-10T14:16:26Z</time>
      </trkpt>
      <trkpt lat="45.20929" lon="6.20482">
        <ele>2004.97</ele>
        <time>2013-03-10T14:16:27Z</time>
      </trkpt>
      <trkpt lat="45.20936" lon="6.20486">
        <ele>2004.49</ele>
        <time>2013-03-10T14:16:28Z</time>
      </trkpt>
      <trkpt lat="45.20943" lon="6.20489">
        <ele>2003.52</ele>
        <time>2013-03-10T14:16:29Z</time>
      </trkpt>
      <trkpt lat="45.20955" lon="6.20494">
        <ele>2004.01</ele>
        <time>2013-03-10T14:16:31Z</time>
      </trkpt>
      <trkpt lat="45.20962" lon="6.20512">
        <ele>2003.04</ele>
        <time>2013-03-10T14:16:36Z</time>
      </trkpt>
      <trkpt lat="45.20987" lon="6.2054">
        <ele>1999.68</ele>
        <time>2013-03-10T14:16:43Z</time>
      </trkpt>
      <trkpt lat="45.20995" lon="6.2055">
        <ele>1989.1</ele>
        <time>2013-03-10T14:16:44Z</time>
      </trkpt>
      <trkpt lat="45.21005" lon="6.20559">
        <ele>1980.93</ele>
        <time>2013-03-10T14:16:45Z</time>
      </trkpt>
      <trkpt lat="45.21017" lon="6.2057">
        <ele>1977.57</ele>
        <time>2013-03-10T14:16:46Z</time>
      </trkpt>
      <trkpt lat="45.21041" lon="6.20596">
        <ele>1972.28</ele>
        <time>2013-03-10T14:16:48Z</time>
      </trkpt>
      <trkpt lat="45.21053" lon="6.20609">
        <ele>1968.44</ele>
        <time>2013-03-10T14:16:49Z</time>
      </trkpt>
      <trkpt lat="45.21065" lon="6.20623">
        <ele>1965.07</ele>
        <time>2013-03-10T14:16:50Z</time>
      </trkpt>
      <trkpt lat="45.21079" lon="6.20637">
        <ele>1960.27</ele>
        <time>2013-03-10T14:16:51Z</time>
      </trkpt>
      <trkpt lat="45.21092" lon="6.20651">
        <ele>1956.9</ele>
        <time>2013-03-10T14:16:52Z</time>
      </trkpt>
      <trkpt lat="45.21105" lon="6.20666">
        <ele>1951.13</ele>
        <time>2013-03-10T14:16:53Z</time>
      </trkpt>
      <trkpt lat="45.21126" lon="6.20681">
        <ele>1945.36</ele>
        <time>2013-03-10T14:16:55Z</time>
      </trkpt>
      <trkpt lat="45.21134" lon="6.20691">
        <ele>1961.71</ele>
        <time>2013-03-10T14:16:56Z</time>
      </trkpt>
      <trkpt lat="45.21141" lon="6.20699">
        <ele>1961.23</ele>
        <time>2013-03-10T14:16:57Z</time>
      </trkpt>
      <trkpt lat="45.21168" lon="6.20733">
        <ele>1949.69</ele>
        <time>2013-03-10T14:17:01Z</time>
      </trkpt>
      <trkpt lat="45.21177" lon="6.20747">
        <ele>1944.88</ele>
        <time>2013-03-10T14:17:03Z</time>
      </trkpt>
      <trkpt lat="45.21187" lon="6.20762">
        <ele>1940.56</ele>
        <time>2013-03-10T14:17:05Z</time>
      </trkpt>
      <trkpt lat="45.21195" lon="6.20776">
        <ele>1935.75</ele>
        <time>2013-03-10T14:17:07Z</time>
      </trkpt>
      <trkpt lat="45.21203" lon="6.20783">
        <ele>1930.95</ele>
        <time>2013-03-10T14:17:09Z</time>
      </trkpt>
      <trkpt lat="45.21213" lon="6.20789">
        <ele>1926.62</ele>
        <time>2013-03-10T14:17:11Z</time>
      </trkpt>
      <trkpt lat="45.21225" lon="6.20788">
        <ele>1922.77</ele>
        <time>2013-03-10T14:17:13Z</time>
      </trkpt>
      <trkpt lat="45.21231" lon="6.20791">
        <ele>1921.81</ele>
        <time>2013-03-10T14:17:14Z</time>
      </trkpt>
      <trkpt lat="45.21259" lon="6.20812">
        <ele>1913.16</ele>
        <time>2013-03-10T14:17:18Z</time>
      </trkpt>
      <trkpt lat="45.21272" lon="6.2083">
        <ele>1906.43</ele>
        <time>2013-03-10T14:17:20Z</time>
      </trkpt>
      <trkpt lat="45.21297" lon="6.20863">
        <ele>1893.45</ele>
        <time>2013-03-10T14:17:23Z</time>
      </trkpt>
      <trkpt lat="45.21309" lon="6.20878">
        <ele>1880.48</ele>
        <time>2013-03-10T14:17:24Z</time>
      </trkpt>
      <trkpt lat="45.21318" lon="6.20887">
        <ele>1868.46</ele>
        <time>2013-03-10T14:17:25Z</time>
      </trkpt>
      <trkpt lat="45.2133" lon="6.20906">
        <ele>1870.38</ele>
        <time>2013-03-10T14:17:26Z</time>
      </trkpt>
      <trkpt lat="45.21364" lon="6.20956">
        <ele>1854.04</ele>
        <time>2013-03-10T14:17:29Z</time>
      </trkpt>
      <trkpt lat="45.21376" lon="6.20974">
        <ele>1847.79</ele>
        <time>2013-03-10T14:17:30Z</time>
      </trkpt>
      <trkpt lat="45.21387" lon="6.20992">
        <ele>1841.06</ele>
        <time>2013-03-10T14:17:31Z</time>
      </trkpt>
      <trkpt lat="45.21409" lon="6.21016">
        <ele>1839.62</ele>
        <time>2013-03-10T14:17:33Z</time>
      </trkpt>
      <trkpt lat="45.21418" lon="6.21025">
        <ele>1842.98</ele>
        <time>2013-03-10T14:17:34Z</time>
      </trkpt>
      <trkpt lat="45.21425" lon="6.21038">
        <ele>1840.58</ele>
        <time>2013-03-10T14:17:35Z</time>
      </trkpt>
      <trkpt lat="45.21439" lon="6.2105">
        <ele>1835.77</ele>
        <time>2013-03-10T14:17:37Z</time>
      </trkpt>
      <trkpt lat="45.21447" lon="6.21053">
        <ele>1832.89</ele>
        <time>2013-03-10T14:17:38Z</time>
      </trkpt>
      <trkpt lat="45.21463" lon="6.21065">
        <ele>1828.56</ele>
        <time>2013-03-10T14:17:40Z</time>
      </trkpt>
      <trkpt lat="45.21471" lon="6.21073">
        <ele>1825.68</ele>
        <time>2013-03-10T14:17:41Z</time>
      </trkpt>
      <trkpt lat="45.21485" lon="6.21085">
        <ele>1821.84</ele>
        <time>2013-03-10T14:17:43Z</time>
      </trkpt>
      <trkpt lat="45.21499" lon="6.21098">
        <ele>1816.55</ele>
        <time>2013-03-10T14:17:45Z</time>
      </trkpt>
      <trkpt lat="45.21514" lon="6.2111">
        <ele>1811.26</ele>
        <time>2013-03-10T14:17:47Z</time>
      </trkpt>
      <trkpt lat="45.21521" lon="6.21112">
        <ele>1807.9</ele>
        <time>2013-03-10T14:17:48Z</time>
      </trkpt>
      <trkpt lat="45.21529" lon="6.21115">
        <ele>1805.01</ele>
        <time>2013-03-10T14:17:49Z</time>
      </trkpt>
      <trkpt lat="45.21536" lon="6.2112">
        <ele>1801.65</ele>
        <time>2013-03-10T14:17:50Z</time>
      </trkpt>
      <trkpt lat="45.21544" lon="6.21126">
        <ele>1798.28</ele>
        <time>2013-03-10T14:17:51Z</time>
      </trkpt>
      <trkpt lat="45.21558" lon="6.2113">
        <ele>1794.44</ele>
        <time>2013-03-10T14:17:53Z</time>
      </trkpt>
      <trkpt lat="45.21572" lon="6.2114">
        <ele>1789.15</ele>
        <time>2013-03-10T14:17:55Z</time>
      </trkpt>
      <trkpt lat="45.21587" lon="6.21175">
        <ele>1780.98</ele>
        <time>2013-03-10T14:17:58Z</time>
      </trkpt>
      <trkpt lat="45.21593" lon="6.2119">
        <ele>1778.1</ele>
        <time>2013-03-10T14:17:59Z</time>
      </trkpt>
      <trkpt lat="45.216" lon="6.21202">
        <ele>1774.73</ele>
        <time>2013-03-10T14:18:00Z</time>
      </trkpt>
      <trkpt lat="45.21609" lon="6.21211">
        <ele>1770.89</ele>
        <time>2013-03-10T14:18:01Z</time>
      </trkpt>
      <trkpt lat="45.2162" lon="6.2122">
        <ele>1767.04</ele>
        <time>2013-03-10T14:18:02Z</time>
      </trkpt>
      <trkpt lat="45.2163" lon="6.21234">
        <ele>1762.71</ele>
        <time>2013-03-10T14:18:03Z</time>
      </trkpt>
      <trkpt lat="45.21639" lon="6.21251">
        <ele>1757.91</ele>
        <time>2013-03-10T14:18:04Z</time>
      </trkpt>
      <trkpt lat="45.21648" lon="6.21267">
        <ele>1753.1</ele>
        <time>2013-03-10T14:18:05Z</time>
      </trkpt>
      <trkpt lat="45.2166" lon="6.21282">
        <ele>1746.85</ele>
        <time>2013-03-10T14:18:06Z</time>
      </trkpt>
      <trkpt lat="45.21671" lon="6.213">
        <ele>1740.6</ele>
        <time>2013-03-10T14:18:07Z</time>
      </trkpt>
      <trkpt lat="45.21687" lon="6.2134">
        <ele>1727.63</ele>
        <time>2013-03-10T14:18:09Z</time>
      </trkpt>
      <trkpt lat="45.21699" lon="6.21358">
        <ele>1719.94</ele>
        <time>2013-03-10T14:18:10Z</time>
      </trkpt>
      <trkpt lat="45.21713" lon="6.21372">
        <ele>1714.65</ele>
        <time>2013-03-10T14:18:11Z</time>
      </trkpt>
      <trkpt lat="45.21745" lon="6.2139">
        <ele>1706</ele>
        <time>2013-03-10T14:18:13Z</time>
      </trkpt>
      <trkpt lat="45.21762" lon="6.2142">
        <ele>1723.3</ele>
        <time>2013-03-10T14:18:15Z</time>
      </trkpt>
      <trkpt lat="45.21776" lon="6.21429">
        <ele>1715.13</ele>
        <time>2013-03-10T14:18:16Z</time>
      </trkpt>
      <trkpt lat="45.21798" lon="6.21448">
        <ele>1710.8</ele>
        <time>2013-03-10T14:18:18Z</time>
      </trkpt>
      <trkpt lat="45.21814" lon="6.21476">
        <ele>1706</ele>
        <time>2013-03-10T14:18:20Z</time>
      </trkpt>
      <trkpt lat="45.21836" lon="6.215">
        <ele>1702.15</ele>
        <time>2013-03-10T14:18:22Z</time>
      </trkpt>
      <trkpt lat="45.21875" lon="6.21543">
        <ele>1692.54</ele>
        <time>2013-03-10T14:18:26Z</time>
      </trkpt>
      <trkpt lat="45.21883" lon="6.21553">
        <ele>1690.62</ele>
        <time>2013-03-10T14:18:27Z</time>
      </trkpt>
      <trkpt lat="45.21905" lon="6.21588">
        <ele>1687.73</ele>
        <time>2013-03-10T14:18:31Z</time>
      </trkpt>
      <trkpt lat="45.21918" lon="6.21571">
        <ele>1692.06</ele>
        <time>2013-03-10T14:18:35Z</time>
      </trkpt>
      <trkpt lat="45.21916" lon="6.21567">
        <ele>1695.9</ele>
        <time>2013-03-10T14:18:38Z</time>
      </trkpt>
      <trkpt lat="45.21928" lon="6.21575">
        <ele>1692.54</ele>
        <time>2013-03-10T14:18:49Z</time>
      </trkpt>
      <trkpt lat="45.21933" lon="6.21574">
        <ele>1692.54</ele>
        <time>2013-03-10T14:19:01Z</time>
      </trkpt>
      <trkpt lat="45.21932" lon="6.21574">
        <ele>1693.5</ele>
        <time>2013-03-10T14:19:28Z</time>
      </trkpt>
      <trkpt lat="45.21931" lon="6.21574">
        <ele>1693.98</ele>
        <time>2013-03-10T14:19:51Z</time>
      </trkpt>
      <trkpt lat="45.21932" lon="6.21573">
        <ele>1693.98</ele>
        <time>2013-03-10T14:20:20Z</time>
      </trkpt>
      <trkpt lat="45.21933" lon="6.21574">
        <ele>1694.46</ele>
        <time>2013-03-10T14:20:47Z</time>
      </trkpt>
      <trkpt lat="45.21957" lon="6.21602">
        <ele>1691.1</ele>
        <time>2013-03-10T14:20:54Z</time>
      </trkpt>
      <trkpt lat="45.2197" lon="6.21614">
        <ele>1687.25</ele>
        <time>2013-03-10T14:20:56Z</time>
      </trkpt>
      <trkpt lat="45.21984" lon="6.21629">
        <ele>1683.41</ele>
        <time>2013-03-10T14:20:58Z</time>
      </trkpt>
      <trkpt lat="45.21991" lon="6.21637">
        <ele>1680.52</ele>
        <time>2013-03-10T14:20:59Z</time>
      </trkpt>
      <trkpt lat="45.22016" lon="6.21658">
        <ele>1674.27</ele>
        <time>2013-03-10T14:21:02Z</time>
      </trkpt>
      <trkpt lat="45.22024" lon="6.21666">
        <ele>1672.83</ele>
        <time>2013-03-10T14:21:03Z</time>
      </trkpt>
      <trkpt lat="45.22058" lon="6.217">
        <ele>1668.51</ele>
        <time>2013-03-10T14:21:07Z</time>
      </trkpt>
      <trkpt lat="45.22065" lon="6.21706">
        <ele>1667.06</ele>
        <time>2013-03-10T14:21:08Z</time>
      </trkpt>
      <trkpt lat="45.22071" lon="6.21715">
        <ele>1666.58</ele>
        <time>2013-03-10T14:21:09Z</time>
      </trkpt>
      <trkpt lat="45.22091" lon="6.21741">
        <ele>1666.58</ele>
        <time>2013-03-10T14:21:12Z</time>
      </trkpt>
      <trkpt lat="45.22096" lon="6.21742">
        <ele>1666.58</ele>
        <time>2013-03-10T14:21:13Z</time>
      </trkpt>
      <trkpt lat="45.22096" lon="6.21741">
        <ele>1669.47</ele>
        <time>2013-03-10T14:21:17Z</time>
      </trkpt>
      <trkpt lat="45.22091" lon="6.21739">
        <ele>1671.39</ele>
        <time>2013-03-10T14:21:19Z</time>
      </trkpt>
      <trkpt lat="45.22068" lon="6.21736">
        <ele>1670.43</ele>
        <time>2013-03-10T14:21:25Z</time>
      </trkpt>
      <trkpt lat="45.22063" lon="6.21736">
        <ele>1669.47</ele>
        <time>2013-03-10T14:21:26Z</time>
      </trkpt>
      <trkpt lat="45.22058" lon="6.21734">
        <ele>1668.02</ele>
        <time>2013-03-10T14:21:27Z</time>
      </trkpt>
      <trkpt lat="45.22052" lon="6.21731">
        <ele>1666.58</ele>
        <time>2013-03-10T14:21:28Z</time>
      </trkpt>
      <trkpt lat="45.22047" lon="6.21728">
        <ele>1664.66</ele>
        <time>2013-03-10T14:21:29Z</time>
      </trkpt>
      <trkpt lat="45.22041" lon="6.21723">
        <ele>1663.22</ele>
        <time>2013-03-10T14:21:30Z</time>
      </trkpt>
      <trkpt lat="45.22036" lon="6.21721">
        <ele>1661.78</ele>
        <time>2013-03-10T14:21:31Z</time>
      </trkpt>
      <trkpt lat="45.22031" lon="6.21721">
        <ele>1660.33</ele>
        <time>2013-03-10T14:21:32Z</time>
      </trkpt>
      <trkpt lat="45.22027" lon="6.21719">
        <ele>1659.37</ele>
        <time>2013-03-10T14:21:33Z</time>
      </trkpt>
      <trkpt lat="45.22023" lon="6.21718">
        <ele>1659.85</ele>
        <time>2013-03-10T14:21:34Z</time>
      </trkpt>
      <trkpt lat="45.22021" lon="6.21719">
        <ele>1658.89</ele>
        <time>2013-03-10T14:21:35Z</time>
      </trkpt>
      <trkpt lat="45.2202" lon="6.21725">
        <ele>1658.89</ele>
        <time>2013-03-10T14:21:38Z</time>
      </trkpt>
      <trkpt lat="45.22019" lon="6.21727">
        <ele>1658.41</ele>
        <time>2013-03-10T14:21:40Z</time>
      </trkpt>
      <trkpt lat="45.22022" lon="6.21733">
        <ele>1654.09</ele>
        <time>2013-03-10T14:21:48Z</time>
      </trkpt>
      <trkpt lat="45.22023" lon="6.21736">
        <ele>1654.09</ele>
        <time>2013-03-10T14:22:09Z</time>
      </trkpt>
      <trkpt lat="45.22028" lon="6.21745">
        <ele>1655.53</ele>
        <time>2013-03-10T14:22:26Z</time>
      </trkpt>
      <trkpt lat="45.2203" lon="6.21756">
        <ele>1654.09</ele>
        <time>2013-03-10T14:22:36Z</time>
      </trkpt>
      <trkpt lat="45.22029" lon="6.21756">
        <ele>1654.09</ele>
        <time>2013-03-10T14:22:43Z</time>
      </trkpt>
      <trkpt lat="45.22035" lon="6.21775">
        <ele>1653.12</ele>
        <time>2013-03-10T14:22:55Z</time>
      </trkpt>
      <trkpt lat="45.22033" lon="6.21781">
        <ele>1652.16</ele>
        <time>2013-03-10T14:22:59Z</time>
      </trkpt>
      <trkpt lat="45.22037" lon="6.21789">
        <ele>1651.68</ele>
        <time>2013-03-10T14:23:04Z</time>
      </trkpt>
      <trkpt lat="45.22039" lon="6.21817">
        <ele>1649.76</ele>
        <time>2013-03-10T14:23:21Z</time>
      </trkpt>
      <trkpt lat="45.22039" lon="6.21814">
        <ele>1648.32</ele>
        <time>2013-03-10T14:23:41Z</time>
      </trkpt>
      <trkpt lat="45.22038" lon="6.2181">
        <ele>1648.32</ele>
        <time>2013-03-10T14:23:54Z</time>
      </trkpt>
      <trkpt lat="45.22035" lon="6.21812">
        <ele>1648.32</ele>
        <time>2013-03-10T14:24:01Z</time>
      </trkpt>
      <trkpt lat="45.22034" lon="6.21817">
        <ele>1648.32</ele>
        <time>2013-03-10T14:24:16Z</time>
      </trkpt>
    </trkseg>
  </trk>
</gpx>